<?xml version="1.0" encoding="UTF-8" standalone="no" ?>
<gpx xmlns="http://www.topografix.com/GPX/1/1" xmlns:xsi="http://www.w3.org/2001/XMLSchema-instance" xsi:schemaLocation="http://www.topografix.com/GPX/1/1 http://www.topografix.com/GPX/1/1/gpx.xsd" version="1.1" creator="VisuGPX - https://www.visugpx.com">
  <metadata>
    <name>SE-NE-St Aignan Pont St Martin Vertou Haute Goulaine Basse Goulaine BDL</name>
    <desc><![CDATA[SE-NE-St Aignan Pont St Martin Vertou Haute Goulaine Basse Goulaine BDL]]></desc>
  </metadata>
  <trk>
    <name><![CDATA[2022-03-06 11:02 GMT+1]]></name>
    <trkseg>
      <trkpt lat="47.1678" lon="-1.62654">
        <ele>66</ele>
        <time>2022-03-06T10:02:12Z</time>
      </trkpt>
      <trkpt lat="47.16781" lon="-1.62652">
        <ele>68</ele>
        <time>2022-03-06T10:04:13Z</time>
      </trkpt>
      <trkpt lat="47.1678" lon="-1.62646">
        <ele>69</ele>
        <time>2022-03-06T10:06:14Z</time>
      </trkpt>
      <trkpt lat="47.16783" lon="-1.62661">
        <ele>72</ele>
        <time>2022-03-06T10:06:39Z</time>
      </trkpt>
      <trkpt lat="47.16777" lon="-1.62673">
        <ele>72</ele>
        <time>2022-03-06T10:06:41Z</time>
      </trkpt>
      <trkpt lat="47.16768" lon="-1.62676">
        <ele>71</ele>
        <time>2022-03-06T10:06:43Z</time>
      </trkpt>
      <trkpt lat="47.16757" lon="-1.62672">
        <ele>71</ele>
        <time>2022-03-06T10:06:45Z</time>
      </trkpt>
      <trkpt lat="47.16746" lon="-1.62674">
        <ele>71</ele>
        <time>2022-03-06T10:06:47Z</time>
      </trkpt>
      <trkpt lat="47.16736" lon="-1.62682">
        <ele>70</ele>
        <time>2022-03-06T10:06:49Z</time>
      </trkpt>
      <trkpt lat="47.16726" lon="-1.62688">
        <ele>70</ele>
        <time>2022-03-06T10:06:51Z</time>
      </trkpt>
      <trkpt lat="47.16715" lon="-1.62693">
        <ele>70</ele>
        <time>2022-03-06T10:06:54Z</time>
      </trkpt>
      <trkpt lat="47.16707" lon="-1.62683">
        <ele>69</ele>
        <time>2022-03-06T10:06:56Z</time>
      </trkpt>
      <trkpt lat="47.16701" lon="-1.62666">
        <ele>69</ele>
        <time>2022-03-06T10:06:58Z</time>
      </trkpt>
      <trkpt lat="47.16698" lon="-1.62648">
        <ele>69</ele>
        <time>2022-03-06T10:07:00Z</time>
      </trkpt>
      <trkpt lat="47.16696" lon="-1.62628">
        <ele>68</ele>
        <time>2022-03-06T10:07:02Z</time>
      </trkpt>
      <trkpt lat="47.16696" lon="-1.62608">
        <ele>68</ele>
        <time>2022-03-06T10:07:04Z</time>
      </trkpt>
      <trkpt lat="47.16696" lon="-1.62589">
        <ele>67</ele>
        <time>2022-03-06T10:07:06Z</time>
      </trkpt>
      <trkpt lat="47.16698" lon="-1.62569">
        <ele>67</ele>
        <time>2022-03-06T10:07:08Z</time>
      </trkpt>
      <trkpt lat="47.167" lon="-1.62548">
        <ele>67</ele>
        <time>2022-03-06T10:07:10Z</time>
      </trkpt>
      <trkpt lat="47.16702" lon="-1.62528">
        <ele>67</ele>
        <time>2022-03-06T10:07:12Z</time>
      </trkpt>
      <trkpt lat="47.16705" lon="-1.62508">
        <ele>66</ele>
        <time>2022-03-06T10:07:14Z</time>
      </trkpt>
      <trkpt lat="47.16709" lon="-1.62489">
        <ele>66</ele>
        <time>2022-03-06T10:07:16Z</time>
      </trkpt>
      <trkpt lat="47.16711" lon="-1.6247">
        <ele>66</ele>
        <time>2022-03-06T10:07:18Z</time>
      </trkpt>
      <trkpt lat="47.16715" lon="-1.62453">
        <ele>66</ele>
        <time>2022-03-06T10:07:20Z</time>
      </trkpt>
      <trkpt lat="47.16717" lon="-1.62436">
        <ele>67</ele>
        <time>2022-03-06T10:07:22Z</time>
      </trkpt>
      <trkpt lat="47.16721" lon="-1.62421">
        <ele>67</ele>
        <time>2022-03-06T10:07:24Z</time>
      </trkpt>
      <trkpt lat="47.16724" lon="-1.62408">
        <ele>67</ele>
        <time>2022-03-06T10:07:26Z</time>
      </trkpt>
      <trkpt lat="47.16716" lon="-1.62398">
        <ele>68</ele>
        <time>2022-03-06T10:07:28Z</time>
      </trkpt>
      <trkpt lat="47.16709" lon="-1.62385">
        <ele>68</ele>
        <time>2022-03-06T10:07:30Z</time>
      </trkpt>
      <trkpt lat="47.167" lon="-1.62374">
        <ele>69</ele>
        <time>2022-03-06T10:07:32Z</time>
      </trkpt>
      <trkpt lat="47.1669" lon="-1.62363">
        <ele>69</ele>
        <time>2022-03-06T10:07:34Z</time>
      </trkpt>
      <trkpt lat="47.16677" lon="-1.6236">
        <ele>69</ele>
        <time>2022-03-06T10:07:36Z</time>
      </trkpt>
      <trkpt lat="47.16664" lon="-1.62359">
        <ele>69</ele>
        <time>2022-03-06T10:07:38Z</time>
      </trkpt>
      <trkpt lat="47.16654" lon="-1.62364">
        <ele>68</ele>
        <time>2022-03-06T10:07:40Z</time>
      </trkpt>
      <trkpt lat="47.16643" lon="-1.62371">
        <ele>67</ele>
        <time>2022-03-06T10:07:42Z</time>
      </trkpt>
      <trkpt lat="47.16633" lon="-1.62381">
        <ele>67</ele>
        <time>2022-03-06T10:07:44Z</time>
      </trkpt>
      <trkpt lat="47.16624" lon="-1.62394">
        <ele>68</ele>
        <time>2022-03-06T10:07:46Z</time>
      </trkpt>
      <trkpt lat="47.16615" lon="-1.62409">
        <ele>68</ele>
        <time>2022-03-06T10:07:48Z</time>
      </trkpt>
      <trkpt lat="47.16608" lon="-1.62424">
        <ele>69</ele>
        <time>2022-03-06T10:07:50Z</time>
      </trkpt>
      <trkpt lat="47.16601" lon="-1.62439">
        <ele>70</ele>
        <time>2022-03-06T10:07:52Z</time>
      </trkpt>
      <trkpt lat="47.16594" lon="-1.62455">
        <ele>70</ele>
        <time>2022-03-06T10:07:54Z</time>
      </trkpt>
      <trkpt lat="47.16587" lon="-1.62471">
        <ele>71</ele>
        <time>2022-03-06T10:07:56Z</time>
      </trkpt>
      <trkpt lat="47.16581" lon="-1.62486">
        <ele>71</ele>
        <time>2022-03-06T10:07:58Z</time>
      </trkpt>
      <trkpt lat="47.16575" lon="-1.62501">
        <ele>72</ele>
        <time>2022-03-06T10:08:00Z</time>
      </trkpt>
      <trkpt lat="47.16569" lon="-1.62516">
        <ele>72</ele>
        <time>2022-03-06T10:08:02Z</time>
      </trkpt>
      <trkpt lat="47.16563" lon="-1.62531">
        <ele>73</ele>
        <time>2022-03-06T10:08:04Z</time>
      </trkpt>
      <trkpt lat="47.16555" lon="-1.62544">
        <ele>74</ele>
        <time>2022-03-06T10:08:06Z</time>
      </trkpt>
      <trkpt lat="47.16545" lon="-1.62555">
        <ele>74</ele>
        <time>2022-03-06T10:08:08Z</time>
      </trkpt>
      <trkpt lat="47.16535" lon="-1.62563">
        <ele>74</ele>
        <time>2022-03-06T10:08:10Z</time>
      </trkpt>
      <trkpt lat="47.16522" lon="-1.62563">
        <ele>74</ele>
        <time>2022-03-06T10:08:12Z</time>
      </trkpt>
      <trkpt lat="47.1651" lon="-1.6256">
        <ele>74</ele>
        <time>2022-03-06T10:08:14Z</time>
      </trkpt>
      <trkpt lat="47.16499" lon="-1.62556">
        <ele>74</ele>
        <time>2022-03-06T10:08:16Z</time>
      </trkpt>
      <trkpt lat="47.16487" lon="-1.62553">
        <ele>75</ele>
        <time>2022-03-06T10:08:18Z</time>
      </trkpt>
      <trkpt lat="47.16475" lon="-1.62549">
        <ele>75</ele>
        <time>2022-03-06T10:08:20Z</time>
      </trkpt>
      <trkpt lat="47.16464" lon="-1.62545">
        <ele>75</ele>
        <time>2022-03-06T10:08:22Z</time>
      </trkpt>
      <trkpt lat="47.16452" lon="-1.62542">
        <ele>75</ele>
        <time>2022-03-06T10:08:24Z</time>
      </trkpt>
      <trkpt lat="47.1644" lon="-1.6254">
        <ele>75</ele>
        <time>2022-03-06T10:08:26Z</time>
      </trkpt>
      <trkpt lat="47.16429" lon="-1.62544">
        <ele>75</ele>
        <time>2022-03-06T10:08:28Z</time>
      </trkpt>
      <trkpt lat="47.16418" lon="-1.62555">
        <ele>74</ele>
        <time>2022-03-06T10:08:30Z</time>
      </trkpt>
      <trkpt lat="47.16408" lon="-1.62565">
        <ele>74</ele>
        <time>2022-03-06T10:08:32Z</time>
      </trkpt>
      <trkpt lat="47.16396" lon="-1.62575">
        <ele>73</ele>
        <time>2022-03-06T10:08:34Z</time>
      </trkpt>
      <trkpt lat="47.16384" lon="-1.62581">
        <ele>73</ele>
        <time>2022-03-06T10:08:36Z</time>
      </trkpt>
      <trkpt lat="47.1637" lon="-1.62582">
        <ele>73</ele>
        <time>2022-03-06T10:08:38Z</time>
      </trkpt>
      <trkpt lat="47.16356" lon="-1.6258">
        <ele>73</ele>
        <time>2022-03-06T10:08:40Z</time>
      </trkpt>
      <trkpt lat="47.16342" lon="-1.62577">
        <ele>73</ele>
        <time>2022-03-06T10:08:42Z</time>
      </trkpt>
      <trkpt lat="47.16329" lon="-1.62572">
        <ele>73</ele>
        <time>2022-03-06T10:08:44Z</time>
      </trkpt>
      <trkpt lat="47.16316" lon="-1.6257">
        <ele>73</ele>
        <time>2022-03-06T10:08:46Z</time>
      </trkpt>
      <trkpt lat="47.16303" lon="-1.62575">
        <ele>73</ele>
        <time>2022-03-06T10:08:48Z</time>
      </trkpt>
      <trkpt lat="47.16293" lon="-1.62587">
        <ele>73</ele>
        <time>2022-03-06T10:08:50Z</time>
      </trkpt>
      <trkpt lat="47.16287" lon="-1.62603">
        <ele>73</ele>
        <time>2022-03-06T10:08:52Z</time>
      </trkpt>
      <trkpt lat="47.16283" lon="-1.62622">
        <ele>72</ele>
        <time>2022-03-06T10:08:54Z</time>
      </trkpt>
      <trkpt lat="47.1628" lon="-1.62641">
        <ele>72</ele>
        <time>2022-03-06T10:08:56Z</time>
      </trkpt>
      <trkpt lat="47.16279" lon="-1.6266">
        <ele>72</ele>
        <time>2022-03-06T10:08:58Z</time>
      </trkpt>
      <trkpt lat="47.16278" lon="-1.62677">
        <ele>72</ele>
        <time>2022-03-06T10:09:00Z</time>
      </trkpt>
      <trkpt lat="47.16279" lon="-1.62694">
        <ele>73</ele>
        <time>2022-03-06T10:09:02Z</time>
      </trkpt>
      <trkpt lat="47.16281" lon="-1.62707">
        <ele>73</ele>
        <time>2022-03-06T10:09:04Z</time>
      </trkpt>
      <trkpt lat="47.16282" lon="-1.62726">
        <ele>74</ele>
        <time>2022-03-06T10:09:08Z</time>
      </trkpt>
      <trkpt lat="47.1627" lon="-1.62734">
        <ele>75</ele>
        <time>2022-03-06T10:09:11Z</time>
      </trkpt>
      <trkpt lat="47.16259" lon="-1.62738">
        <ele>75</ele>
        <time>2022-03-06T10:09:13Z</time>
      </trkpt>
      <trkpt lat="47.16248" lon="-1.62742">
        <ele>75</ele>
        <time>2022-03-06T10:09:15Z</time>
      </trkpt>
      <trkpt lat="47.16233" lon="-1.62751">
        <ele>75</ele>
        <time>2022-03-06T10:09:17Z</time>
      </trkpt>
      <trkpt lat="47.16218" lon="-1.62759">
        <ele>74</ele>
        <time>2022-03-06T10:09:19Z</time>
      </trkpt>
      <trkpt lat="47.16202" lon="-1.62769">
        <ele>73</ele>
        <time>2022-03-06T10:09:21Z</time>
      </trkpt>
      <trkpt lat="47.16187" lon="-1.62782">
        <ele>72</ele>
        <time>2022-03-06T10:09:23Z</time>
      </trkpt>
      <trkpt lat="47.16179" lon="-1.62789">
        <ele>72</ele>
        <time>2022-03-06T10:09:24Z</time>
      </trkpt>
      <trkpt lat="47.16163" lon="-1.62803">
        <ele>71</ele>
        <time>2022-03-06T10:09:26Z</time>
      </trkpt>
      <trkpt lat="47.16148" lon="-1.62817">
        <ele>70</ele>
        <time>2022-03-06T10:09:28Z</time>
      </trkpt>
      <trkpt lat="47.16133" lon="-1.6283">
        <ele>69</ele>
        <time>2022-03-06T10:09:30Z</time>
      </trkpt>
      <trkpt lat="47.16118" lon="-1.62843">
        <ele>69</ele>
        <time>2022-03-06T10:09:32Z</time>
      </trkpt>
      <trkpt lat="47.16103" lon="-1.62856">
        <ele>68</ele>
        <time>2022-03-06T10:09:34Z</time>
      </trkpt>
      <trkpt lat="47.16088" lon="-1.62869">
        <ele>68</ele>
        <time>2022-03-06T10:09:36Z</time>
      </trkpt>
      <trkpt lat="47.1608" lon="-1.62876">
        <ele>67</ele>
        <time>2022-03-06T10:09:37Z</time>
      </trkpt>
      <trkpt lat="47.16065" lon="-1.62889">
        <ele>67</ele>
        <time>2022-03-06T10:09:39Z</time>
      </trkpt>
      <trkpt lat="47.1605" lon="-1.62902">
        <ele>66</ele>
        <time>2022-03-06T10:09:41Z</time>
      </trkpt>
      <trkpt lat="47.16035" lon="-1.62915">
        <ele>66</ele>
        <time>2022-03-06T10:09:43Z</time>
      </trkpt>
      <trkpt lat="47.1602" lon="-1.62929">
        <ele>65</ele>
        <time>2022-03-06T10:09:45Z</time>
      </trkpt>
      <trkpt lat="47.16006" lon="-1.62942">
        <ele>64</ele>
        <time>2022-03-06T10:09:47Z</time>
      </trkpt>
      <trkpt lat="47.1599" lon="-1.62955">
        <ele>63</ele>
        <time>2022-03-06T10:09:49Z</time>
      </trkpt>
      <trkpt lat="47.15975" lon="-1.62968">
        <ele>63</ele>
        <time>2022-03-06T10:09:51Z</time>
      </trkpt>
      <trkpt lat="47.15968" lon="-1.62975">
        <ele>62</ele>
        <time>2022-03-06T10:09:52Z</time>
      </trkpt>
      <trkpt lat="47.15952" lon="-1.62989">
        <ele>62</ele>
        <time>2022-03-06T10:09:54Z</time>
      </trkpt>
      <trkpt lat="47.15944" lon="-1.62996">
        <ele>61</ele>
        <time>2022-03-06T10:09:55Z</time>
      </trkpt>
      <trkpt lat="47.15929" lon="-1.63009">
        <ele>61</ele>
        <time>2022-03-06T10:09:57Z</time>
      </trkpt>
      <trkpt lat="47.15921" lon="-1.63016">
        <ele>60</ele>
        <time>2022-03-06T10:09:58Z</time>
      </trkpt>
      <trkpt lat="47.15906" lon="-1.63029">
        <ele>60</ele>
        <time>2022-03-06T10:10:00Z</time>
      </trkpt>
      <trkpt lat="47.15891" lon="-1.63043">
        <ele>60</ele>
        <time>2022-03-06T10:10:02Z</time>
      </trkpt>
      <trkpt lat="47.15877" lon="-1.63056">
        <ele>60</ele>
        <time>2022-03-06T10:10:04Z</time>
      </trkpt>
      <trkpt lat="47.15863" lon="-1.63068">
        <ele>60</ele>
        <time>2022-03-06T10:10:06Z</time>
      </trkpt>
      <trkpt lat="47.1585" lon="-1.6308">
        <ele>61</ele>
        <time>2022-03-06T10:10:08Z</time>
      </trkpt>
      <trkpt lat="47.15837" lon="-1.63091">
        <ele>61</ele>
        <time>2022-03-06T10:10:10Z</time>
      </trkpt>
      <trkpt lat="47.15825" lon="-1.63102">
        <ele>62</ele>
        <time>2022-03-06T10:10:12Z</time>
      </trkpt>
      <trkpt lat="47.15813" lon="-1.63113">
        <ele>63</ele>
        <time>2022-03-06T10:10:14Z</time>
      </trkpt>
      <trkpt lat="47.15801" lon="-1.63123">
        <ele>63</ele>
        <time>2022-03-06T10:10:16Z</time>
      </trkpt>
      <trkpt lat="47.15789" lon="-1.63134">
        <ele>64</ele>
        <time>2022-03-06T10:10:18Z</time>
      </trkpt>
      <trkpt lat="47.15778" lon="-1.63144">
        <ele>64</ele>
        <time>2022-03-06T10:10:20Z</time>
      </trkpt>
      <trkpt lat="47.15766" lon="-1.63155">
        <ele>64</ele>
        <time>2022-03-06T10:10:22Z</time>
      </trkpt>
      <trkpt lat="47.15754" lon="-1.63166">
        <ele>65</ele>
        <time>2022-03-06T10:10:24Z</time>
      </trkpt>
      <trkpt lat="47.15741" lon="-1.63176">
        <ele>65</ele>
        <time>2022-03-06T10:10:26Z</time>
      </trkpt>
      <trkpt lat="47.15729" lon="-1.63187">
        <ele>66</ele>
        <time>2022-03-06T10:10:28Z</time>
      </trkpt>
      <trkpt lat="47.15716" lon="-1.63198">
        <ele>65</ele>
        <time>2022-03-06T10:10:30Z</time>
      </trkpt>
      <trkpt lat="47.15704" lon="-1.6321">
        <ele>65</ele>
        <time>2022-03-06T10:10:32Z</time>
      </trkpt>
      <trkpt lat="47.15691" lon="-1.63221">
        <ele>65</ele>
        <time>2022-03-06T10:10:34Z</time>
      </trkpt>
      <trkpt lat="47.15679" lon="-1.63232">
        <ele>65</ele>
        <time>2022-03-06T10:10:36Z</time>
      </trkpt>
      <trkpt lat="47.15666" lon="-1.63243">
        <ele>65</ele>
        <time>2022-03-06T10:10:38Z</time>
      </trkpt>
      <trkpt lat="47.15653" lon="-1.63255">
        <ele>65</ele>
        <time>2022-03-06T10:10:40Z</time>
      </trkpt>
      <trkpt lat="47.1564" lon="-1.63266">
        <ele>65</ele>
        <time>2022-03-06T10:10:42Z</time>
      </trkpt>
      <trkpt lat="47.15627" lon="-1.63278">
        <ele>65</ele>
        <time>2022-03-06T10:10:44Z</time>
      </trkpt>
      <trkpt lat="47.15614" lon="-1.63289">
        <ele>65</ele>
        <time>2022-03-06T10:10:46Z</time>
      </trkpt>
      <trkpt lat="47.15602" lon="-1.633">
        <ele>65</ele>
        <time>2022-03-06T10:10:48Z</time>
      </trkpt>
      <trkpt lat="47.1559" lon="-1.63311">
        <ele>66</ele>
        <time>2022-03-06T10:10:50Z</time>
      </trkpt>
      <trkpt lat="47.15578" lon="-1.63322">
        <ele>66</ele>
        <time>2022-03-06T10:10:52Z</time>
      </trkpt>
      <trkpt lat="47.15565" lon="-1.63333">
        <ele>67</ele>
        <time>2022-03-06T10:10:54Z</time>
      </trkpt>
      <trkpt lat="47.15554" lon="-1.63344">
        <ele>68</ele>
        <time>2022-03-06T10:10:56Z</time>
      </trkpt>
      <trkpt lat="47.15542" lon="-1.63354">
        <ele>68</ele>
        <time>2022-03-06T10:10:58Z</time>
      </trkpt>
      <trkpt lat="47.15531" lon="-1.63364">
        <ele>68</ele>
        <time>2022-03-06T10:11:00Z</time>
      </trkpt>
      <trkpt lat="47.1552" lon="-1.63374">
        <ele>69</ele>
        <time>2022-03-06T10:11:02Z</time>
      </trkpt>
      <trkpt lat="47.1551" lon="-1.63384">
        <ele>69</ele>
        <time>2022-03-06T10:11:04Z</time>
      </trkpt>
      <trkpt lat="47.15499" lon="-1.63394">
        <ele>69</ele>
        <time>2022-03-06T10:11:06Z</time>
      </trkpt>
      <trkpt lat="47.15487" lon="-1.63404">
        <ele>69</ele>
        <time>2022-03-06T10:11:08Z</time>
      </trkpt>
      <trkpt lat="47.15476" lon="-1.63414">
        <ele>69</ele>
        <time>2022-03-06T10:11:10Z</time>
      </trkpt>
      <trkpt lat="47.15465" lon="-1.63425">
        <ele>69</ele>
        <time>2022-03-06T10:11:12Z</time>
      </trkpt>
      <trkpt lat="47.15454" lon="-1.63435">
        <ele>70</ele>
        <time>2022-03-06T10:11:14Z</time>
      </trkpt>
      <trkpt lat="47.15442" lon="-1.63444">
        <ele>70</ele>
        <time>2022-03-06T10:11:16Z</time>
      </trkpt>
      <trkpt lat="47.15431" lon="-1.63455">
        <ele>70</ele>
        <time>2022-03-06T10:11:18Z</time>
      </trkpt>
      <trkpt lat="47.1542" lon="-1.63466">
        <ele>70</ele>
        <time>2022-03-06T10:11:20Z</time>
      </trkpt>
      <trkpt lat="47.1541" lon="-1.63477">
        <ele>70</ele>
        <time>2022-03-06T10:11:22Z</time>
      </trkpt>
      <trkpt lat="47.15401" lon="-1.6349">
        <ele>71</ele>
        <time>2022-03-06T10:11:24Z</time>
      </trkpt>
      <trkpt lat="47.15392" lon="-1.63502">
        <ele>71</ele>
        <time>2022-03-06T10:11:26Z</time>
      </trkpt>
      <trkpt lat="47.15383" lon="-1.63509">
        <ele>71</ele>
        <time>2022-03-06T10:11:28Z</time>
      </trkpt>
      <trkpt lat="47.15372" lon="-1.63511">
        <ele>71</ele>
        <time>2022-03-06T10:11:30Z</time>
      </trkpt>
      <trkpt lat="47.15361" lon="-1.6352">
        <ele>71</ele>
        <time>2022-03-06T10:11:32Z</time>
      </trkpt>
      <trkpt lat="47.1535" lon="-1.63531">
        <ele>71</ele>
        <time>2022-03-06T10:11:34Z</time>
      </trkpt>
      <trkpt lat="47.15339" lon="-1.63542">
        <ele>71</ele>
        <time>2022-03-06T10:11:36Z</time>
      </trkpt>
      <trkpt lat="47.15327" lon="-1.63552">
        <ele>71</ele>
        <time>2022-03-06T10:11:38Z</time>
      </trkpt>
      <trkpt lat="47.15315" lon="-1.63559">
        <ele>71</ele>
        <time>2022-03-06T10:11:40Z</time>
      </trkpt>
      <trkpt lat="47.15302" lon="-1.63568">
        <ele>71</ele>
        <time>2022-03-06T10:11:42Z</time>
      </trkpt>
      <trkpt lat="47.1529" lon="-1.63579">
        <ele>71</ele>
        <time>2022-03-06T10:11:44Z</time>
      </trkpt>
      <trkpt lat="47.15278" lon="-1.63591">
        <ele>72</ele>
        <time>2022-03-06T10:11:46Z</time>
      </trkpt>
      <trkpt lat="47.15266" lon="-1.63601">
        <ele>72</ele>
        <time>2022-03-06T10:11:48Z</time>
      </trkpt>
      <trkpt lat="47.15254" lon="-1.63612">
        <ele>72</ele>
        <time>2022-03-06T10:11:50Z</time>
      </trkpt>
      <trkpt lat="47.1524" lon="-1.63622">
        <ele>72</ele>
        <time>2022-03-06T10:11:52Z</time>
      </trkpt>
      <trkpt lat="47.15228" lon="-1.63633">
        <ele>72</ele>
        <time>2022-03-06T10:11:54Z</time>
      </trkpt>
      <trkpt lat="47.15214" lon="-1.63644">
        <ele>72</ele>
        <time>2022-03-06T10:11:56Z</time>
      </trkpt>
      <trkpt lat="47.15201" lon="-1.63655">
        <ele>72</ele>
        <time>2022-03-06T10:11:58Z</time>
      </trkpt>
      <trkpt lat="47.15188" lon="-1.63667">
        <ele>71</ele>
        <time>2022-03-06T10:12:00Z</time>
      </trkpt>
      <trkpt lat="47.15175" lon="-1.63679">
        <ele>72</ele>
        <time>2022-03-06T10:12:02Z</time>
      </trkpt>
      <trkpt lat="47.15163" lon="-1.63691">
        <ele>71</ele>
        <time>2022-03-06T10:12:04Z</time>
      </trkpt>
      <trkpt lat="47.1515" lon="-1.63703">
        <ele>71</ele>
        <time>2022-03-06T10:12:06Z</time>
      </trkpt>
      <trkpt lat="47.15137" lon="-1.63715">
        <ele>71</ele>
        <time>2022-03-06T10:12:08Z</time>
      </trkpt>
      <trkpt lat="47.15126" lon="-1.63727">
        <ele>71</ele>
        <time>2022-03-06T10:12:10Z</time>
      </trkpt>
      <trkpt lat="47.15114" lon="-1.6374">
        <ele>71</ele>
        <time>2022-03-06T10:12:12Z</time>
      </trkpt>
      <trkpt lat="47.15102" lon="-1.63753">
        <ele>71</ele>
        <time>2022-03-06T10:12:14Z</time>
      </trkpt>
      <trkpt lat="47.1509" lon="-1.63766">
        <ele>71</ele>
        <time>2022-03-06T10:12:16Z</time>
      </trkpt>
      <trkpt lat="47.15078" lon="-1.6378">
        <ele>71</ele>
        <time>2022-03-06T10:12:18Z</time>
      </trkpt>
      <trkpt lat="47.15067" lon="-1.63793">
        <ele>71</ele>
        <time>2022-03-06T10:12:20Z</time>
      </trkpt>
      <trkpt lat="47.15056" lon="-1.63807">
        <ele>71</ele>
        <time>2022-03-06T10:12:22Z</time>
      </trkpt>
      <trkpt lat="47.15045" lon="-1.63822">
        <ele>71</ele>
        <time>2022-03-06T10:12:24Z</time>
      </trkpt>
      <trkpt lat="47.15034" lon="-1.63836">
        <ele>71</ele>
        <time>2022-03-06T10:12:26Z</time>
      </trkpt>
      <trkpt lat="47.15024" lon="-1.6385">
        <ele>71</ele>
        <time>2022-03-06T10:12:28Z</time>
      </trkpt>
      <trkpt lat="47.15014" lon="-1.63865">
        <ele>72</ele>
        <time>2022-03-06T10:12:30Z</time>
      </trkpt>
      <trkpt lat="47.15004" lon="-1.6388">
        <ele>72</ele>
        <time>2022-03-06T10:12:32Z</time>
      </trkpt>
      <trkpt lat="47.14995" lon="-1.63895">
        <ele>72</ele>
        <time>2022-03-06T10:12:34Z</time>
      </trkpt>
      <trkpt lat="47.14985" lon="-1.6391">
        <ele>73</ele>
        <time>2022-03-06T10:12:36Z</time>
      </trkpt>
      <trkpt lat="47.14976" lon="-1.63924">
        <ele>73</ele>
        <time>2022-03-06T10:12:38Z</time>
      </trkpt>
      <trkpt lat="47.14966" lon="-1.63941">
        <ele>73</ele>
        <time>2022-03-06T10:12:40Z</time>
      </trkpt>
      <trkpt lat="47.14957" lon="-1.63958">
        <ele>73</ele>
        <time>2022-03-06T10:12:42Z</time>
      </trkpt>
      <trkpt lat="47.14948" lon="-1.63971">
        <ele>73</ele>
        <time>2022-03-06T10:12:44Z</time>
      </trkpt>
      <trkpt lat="47.14937" lon="-1.63983">
        <ele>72</ele>
        <time>2022-03-06T10:12:46Z</time>
      </trkpt>
      <trkpt lat="47.14928" lon="-1.63998">
        <ele>72</ele>
        <time>2022-03-06T10:12:48Z</time>
      </trkpt>
      <trkpt lat="47.1492" lon="-1.64013">
        <ele>72</ele>
        <time>2022-03-06T10:12:50Z</time>
      </trkpt>
      <trkpt lat="47.14912" lon="-1.64029">
        <ele>72</ele>
        <time>2022-03-06T10:12:52Z</time>
      </trkpt>
      <trkpt lat="47.14902" lon="-1.6404">
        <ele>72</ele>
        <time>2022-03-06T10:12:54Z</time>
      </trkpt>
      <trkpt lat="47.1489" lon="-1.64037">
        <ele>71</ele>
        <time>2022-03-06T10:12:56Z</time>
      </trkpt>
      <trkpt lat="47.1488" lon="-1.64023">
        <ele>71</ele>
        <time>2022-03-06T10:12:58Z</time>
      </trkpt>
      <trkpt lat="47.1487" lon="-1.64008">
        <ele>71</ele>
        <time>2022-03-06T10:13:00Z</time>
      </trkpt>
      <trkpt lat="47.1486" lon="-1.63995">
        <ele>71</ele>
        <time>2022-03-06T10:13:02Z</time>
      </trkpt>
      <trkpt lat="47.14847" lon="-1.63987">
        <ele>71</ele>
        <time>2022-03-06T10:13:04Z</time>
      </trkpt>
      <trkpt lat="47.14833" lon="-1.63985">
        <ele>71</ele>
        <time>2022-03-06T10:13:06Z</time>
      </trkpt>
      <trkpt lat="47.1482" lon="-1.63992">
        <ele>71</ele>
        <time>2022-03-06T10:13:08Z</time>
      </trkpt>
      <trkpt lat="47.14809" lon="-1.64004">
        <ele>71</ele>
        <time>2022-03-06T10:13:10Z</time>
      </trkpt>
      <trkpt lat="47.14797" lon="-1.64015">
        <ele>71</ele>
        <time>2022-03-06T10:13:12Z</time>
      </trkpt>
      <trkpt lat="47.14785" lon="-1.64027">
        <ele>72</ele>
        <time>2022-03-06T10:13:14Z</time>
      </trkpt>
      <trkpt lat="47.14773" lon="-1.64038">
        <ele>72</ele>
        <time>2022-03-06T10:13:16Z</time>
      </trkpt>
      <trkpt lat="47.1476" lon="-1.64045">
        <ele>72</ele>
        <time>2022-03-06T10:13:18Z</time>
      </trkpt>
      <trkpt lat="47.14745" lon="-1.64051">
        <ele>71</ele>
        <time>2022-03-06T10:13:20Z</time>
      </trkpt>
      <trkpt lat="47.14731" lon="-1.64057">
        <ele>72</ele>
        <time>2022-03-06T10:13:22Z</time>
      </trkpt>
      <trkpt lat="47.14717" lon="-1.64063">
        <ele>72</ele>
        <time>2022-03-06T10:13:24Z</time>
      </trkpt>
      <trkpt lat="47.14703" lon="-1.64069">
        <ele>72</ele>
        <time>2022-03-06T10:13:26Z</time>
      </trkpt>
      <trkpt lat="47.1469" lon="-1.64074">
        <ele>73</ele>
        <time>2022-03-06T10:13:28Z</time>
      </trkpt>
      <trkpt lat="47.14679" lon="-1.64079">
        <ele>72</ele>
        <time>2022-03-06T10:13:30Z</time>
      </trkpt>
      <trkpt lat="47.14666" lon="-1.64086">
        <ele>72</ele>
        <time>2022-03-06T10:13:32Z</time>
      </trkpt>
      <trkpt lat="47.14653" lon="-1.64092">
        <ele>72</ele>
        <time>2022-03-06T10:13:34Z</time>
      </trkpt>
      <trkpt lat="47.14638" lon="-1.641">
        <ele>72</ele>
        <time>2022-03-06T10:13:36Z</time>
      </trkpt>
      <trkpt lat="47.14624" lon="-1.64108">
        <ele>72</ele>
        <time>2022-03-06T10:13:38Z</time>
      </trkpt>
      <trkpt lat="47.1461" lon="-1.64116">
        <ele>73</ele>
        <time>2022-03-06T10:13:40Z</time>
      </trkpt>
      <trkpt lat="47.14596" lon="-1.64124">
        <ele>72</ele>
        <time>2022-03-06T10:13:42Z</time>
      </trkpt>
      <trkpt lat="47.14581" lon="-1.64133">
        <ele>72</ele>
        <time>2022-03-06T10:13:44Z</time>
      </trkpt>
      <trkpt lat="47.14567" lon="-1.64142">
        <ele>71</ele>
        <time>2022-03-06T10:13:46Z</time>
      </trkpt>
      <trkpt lat="47.14553" lon="-1.6415">
        <ele>71</ele>
        <time>2022-03-06T10:13:48Z</time>
      </trkpt>
      <trkpt lat="47.1454" lon="-1.64159">
        <ele>71</ele>
        <time>2022-03-06T10:13:50Z</time>
      </trkpt>
      <trkpt lat="47.14526" lon="-1.64167">
        <ele>71</ele>
        <time>2022-03-06T10:13:52Z</time>
      </trkpt>
      <trkpt lat="47.14512" lon="-1.64176">
        <ele>71</ele>
        <time>2022-03-06T10:13:54Z</time>
      </trkpt>
      <trkpt lat="47.14499" lon="-1.64186">
        <ele>70</ele>
        <time>2022-03-06T10:13:56Z</time>
      </trkpt>
      <trkpt lat="47.14484" lon="-1.64195">
        <ele>69</ele>
        <time>2022-03-06T10:13:58Z</time>
      </trkpt>
      <trkpt lat="47.14469" lon="-1.64204">
        <ele>68</ele>
        <time>2022-03-06T10:14:00Z</time>
      </trkpt>
      <trkpt lat="47.14455" lon="-1.6421">
        <ele>68</ele>
        <time>2022-03-06T10:14:02Z</time>
      </trkpt>
      <trkpt lat="47.1444" lon="-1.64214">
        <ele>69</ele>
        <time>2022-03-06T10:14:04Z</time>
      </trkpt>
      <trkpt lat="47.14424" lon="-1.64216">
        <ele>67</ele>
        <time>2022-03-06T10:14:06Z</time>
      </trkpt>
      <trkpt lat="47.14409" lon="-1.64217">
        <ele>67</ele>
        <time>2022-03-06T10:14:08Z</time>
      </trkpt>
      <trkpt lat="47.14395" lon="-1.6422">
        <ele>67</ele>
        <time>2022-03-06T10:14:10Z</time>
      </trkpt>
      <trkpt lat="47.1438" lon="-1.64223">
        <ele>68</ele>
        <time>2022-03-06T10:14:12Z</time>
      </trkpt>
      <trkpt lat="47.14365" lon="-1.64224">
        <ele>69</ele>
        <time>2022-03-06T10:14:14Z</time>
      </trkpt>
      <trkpt lat="47.1435" lon="-1.64227">
        <ele>69</ele>
        <time>2022-03-06T10:14:16Z</time>
      </trkpt>
      <trkpt lat="47.14335" lon="-1.64228">
        <ele>68</ele>
        <time>2022-03-06T10:14:18Z</time>
      </trkpt>
      <trkpt lat="47.14319" lon="-1.6423">
        <ele>68</ele>
        <time>2022-03-06T10:14:20Z</time>
      </trkpt>
      <trkpt lat="47.14304" lon="-1.64232">
        <ele>68</ele>
        <time>2022-03-06T10:14:22Z</time>
      </trkpt>
      <trkpt lat="47.1429" lon="-1.64238">
        <ele>68</ele>
        <time>2022-03-06T10:14:24Z</time>
      </trkpt>
      <trkpt lat="47.14277" lon="-1.64246">
        <ele>69</ele>
        <time>2022-03-06T10:14:26Z</time>
      </trkpt>
      <trkpt lat="47.14263" lon="-1.64255">
        <ele>68</ele>
        <time>2022-03-06T10:14:28Z</time>
      </trkpt>
      <trkpt lat="47.1425" lon="-1.64267">
        <ele>68</ele>
        <time>2022-03-06T10:14:30Z</time>
      </trkpt>
      <trkpt lat="47.14237" lon="-1.64278">
        <ele>68</ele>
        <time>2022-03-06T10:14:32Z</time>
      </trkpt>
      <trkpt lat="47.14224" lon="-1.64291">
        <ele>67</ele>
        <time>2022-03-06T10:14:34Z</time>
      </trkpt>
      <trkpt lat="47.14212" lon="-1.64303">
        <ele>66</ele>
        <time>2022-03-06T10:14:36Z</time>
      </trkpt>
      <trkpt lat="47.14198" lon="-1.64317">
        <ele>66</ele>
        <time>2022-03-06T10:14:38Z</time>
      </trkpt>
      <trkpt lat="47.14186" lon="-1.64332">
        <ele>65</ele>
        <time>2022-03-06T10:14:40Z</time>
      </trkpt>
      <trkpt lat="47.14174" lon="-1.64346">
        <ele>64</ele>
        <time>2022-03-06T10:14:42Z</time>
      </trkpt>
      <trkpt lat="47.14161" lon="-1.64359">
        <ele>64</ele>
        <time>2022-03-06T10:14:44Z</time>
      </trkpt>
      <trkpt lat="47.14148" lon="-1.6437">
        <ele>64</ele>
        <time>2022-03-06T10:14:46Z</time>
      </trkpt>
      <trkpt lat="47.14134" lon="-1.6438">
        <ele>64</ele>
        <time>2022-03-06T10:14:48Z</time>
      </trkpt>
      <trkpt lat="47.1412" lon="-1.64391">
        <ele>63</ele>
        <time>2022-03-06T10:14:50Z</time>
      </trkpt>
      <trkpt lat="47.14106" lon="-1.64402">
        <ele>63</ele>
        <time>2022-03-06T10:14:52Z</time>
      </trkpt>
      <trkpt lat="47.14092" lon="-1.64413">
        <ele>63</ele>
        <time>2022-03-06T10:14:54Z</time>
      </trkpt>
      <trkpt lat="47.14078" lon="-1.64423">
        <ele>62</ele>
        <time>2022-03-06T10:14:56Z</time>
      </trkpt>
      <trkpt lat="47.14065" lon="-1.64434">
        <ele>62</ele>
        <time>2022-03-06T10:14:58Z</time>
      </trkpt>
      <trkpt lat="47.14051" lon="-1.64445">
        <ele>62</ele>
        <time>2022-03-06T10:15:00Z</time>
      </trkpt>
      <trkpt lat="47.14038" lon="-1.64455">
        <ele>62</ele>
        <time>2022-03-06T10:15:02Z</time>
      </trkpt>
      <trkpt lat="47.14025" lon="-1.64467">
        <ele>62</ele>
        <time>2022-03-06T10:15:04Z</time>
      </trkpt>
      <trkpt lat="47.14012" lon="-1.64478">
        <ele>62</ele>
        <time>2022-03-06T10:15:06Z</time>
      </trkpt>
      <trkpt lat="47.13999" lon="-1.64488">
        <ele>62</ele>
        <time>2022-03-06T10:15:08Z</time>
      </trkpt>
      <trkpt lat="47.13985" lon="-1.645">
        <ele>62</ele>
        <time>2022-03-06T10:15:10Z</time>
      </trkpt>
      <trkpt lat="47.13972" lon="-1.64513">
        <ele>62</ele>
        <time>2022-03-06T10:15:12Z</time>
      </trkpt>
      <trkpt lat="47.13958" lon="-1.64525">
        <ele>61</ele>
        <time>2022-03-06T10:15:14Z</time>
      </trkpt>
      <trkpt lat="47.13945" lon="-1.64537">
        <ele>61</ele>
        <time>2022-03-06T10:15:16Z</time>
      </trkpt>
      <trkpt lat="47.13933" lon="-1.64549">
        <ele>61</ele>
        <time>2022-03-06T10:15:18Z</time>
      </trkpt>
      <trkpt lat="47.13921" lon="-1.64561">
        <ele>62</ele>
        <time>2022-03-06T10:15:20Z</time>
      </trkpt>
      <trkpt lat="47.13909" lon="-1.64572">
        <ele>62</ele>
        <time>2022-03-06T10:15:22Z</time>
      </trkpt>
      <trkpt lat="47.13897" lon="-1.64581">
        <ele>62</ele>
        <time>2022-03-06T10:15:24Z</time>
      </trkpt>
      <trkpt lat="47.13884" lon="-1.64589">
        <ele>62</ele>
        <time>2022-03-06T10:15:26Z</time>
      </trkpt>
      <trkpt lat="47.1387" lon="-1.64594">
        <ele>62</ele>
        <time>2022-03-06T10:15:28Z</time>
      </trkpt>
      <trkpt lat="47.13856" lon="-1.64598">
        <ele>62</ele>
        <time>2022-03-06T10:15:30Z</time>
      </trkpt>
      <trkpt lat="47.13842" lon="-1.646">
        <ele>62</ele>
        <time>2022-03-06T10:15:32Z</time>
      </trkpt>
      <trkpt lat="47.13828" lon="-1.64602">
        <ele>62</ele>
        <time>2022-03-06T10:15:34Z</time>
      </trkpt>
      <trkpt lat="47.13814" lon="-1.64602">
        <ele>63</ele>
        <time>2022-03-06T10:15:36Z</time>
      </trkpt>
      <trkpt lat="47.13802" lon="-1.64601">
        <ele>64</ele>
        <time>2022-03-06T10:15:38Z</time>
      </trkpt>
      <trkpt lat="47.13788" lon="-1.64599">
        <ele>65</ele>
        <time>2022-03-06T10:15:40Z</time>
      </trkpt>
      <trkpt lat="47.13775" lon="-1.64596">
        <ele>65</ele>
        <time>2022-03-06T10:15:42Z</time>
      </trkpt>
      <trkpt lat="47.13762" lon="-1.64593">
        <ele>64</ele>
        <time>2022-03-06T10:15:44Z</time>
      </trkpt>
      <trkpt lat="47.13749" lon="-1.64589">
        <ele>64</ele>
        <time>2022-03-06T10:15:46Z</time>
      </trkpt>
      <trkpt lat="47.13736" lon="-1.64586">
        <ele>64</ele>
        <time>2022-03-06T10:15:48Z</time>
      </trkpt>
      <trkpt lat="47.13723" lon="-1.64583">
        <ele>64</ele>
        <time>2022-03-06T10:15:50Z</time>
      </trkpt>
      <trkpt lat="47.13711" lon="-1.6458">
        <ele>65</ele>
        <time>2022-03-06T10:15:52Z</time>
      </trkpt>
      <trkpt lat="47.13699" lon="-1.64577">
        <ele>64</ele>
        <time>2022-03-06T10:15:54Z</time>
      </trkpt>
      <trkpt lat="47.13687" lon="-1.64574">
        <ele>64</ele>
        <time>2022-03-06T10:15:56Z</time>
      </trkpt>
      <trkpt lat="47.13676" lon="-1.64572">
        <ele>65</ele>
        <time>2022-03-06T10:15:58Z</time>
      </trkpt>
      <trkpt lat="47.13665" lon="-1.64569">
        <ele>66</ele>
        <time>2022-03-06T10:16:00Z</time>
      </trkpt>
      <trkpt lat="47.13653" lon="-1.64566">
        <ele>65</ele>
        <time>2022-03-06T10:16:02Z</time>
      </trkpt>
      <trkpt lat="47.13641" lon="-1.64564">
        <ele>66</ele>
        <time>2022-03-06T10:16:04Z</time>
      </trkpt>
      <trkpt lat="47.1363" lon="-1.64561">
        <ele>66</ele>
        <time>2022-03-06T10:16:06Z</time>
      </trkpt>
      <trkpt lat="47.13618" lon="-1.64559">
        <ele>66</ele>
        <time>2022-03-06T10:16:08Z</time>
      </trkpt>
      <trkpt lat="47.13606" lon="-1.64557">
        <ele>66</ele>
        <time>2022-03-06T10:16:10Z</time>
      </trkpt>
      <trkpt lat="47.13594" lon="-1.64557">
        <ele>67</ele>
        <time>2022-03-06T10:16:12Z</time>
      </trkpt>
      <trkpt lat="47.13583" lon="-1.64561">
        <ele>67</ele>
        <time>2022-03-06T10:16:14Z</time>
      </trkpt>
      <trkpt lat="47.13571" lon="-1.64567">
        <ele>67</ele>
        <time>2022-03-06T10:16:16Z</time>
      </trkpt>
      <trkpt lat="47.1356" lon="-1.64574">
        <ele>66</ele>
        <time>2022-03-06T10:16:18Z</time>
      </trkpt>
      <trkpt lat="47.13549" lon="-1.64583">
        <ele>67</ele>
        <time>2022-03-06T10:16:20Z</time>
      </trkpt>
      <trkpt lat="47.13539" lon="-1.64593">
        <ele>67</ele>
        <time>2022-03-06T10:16:22Z</time>
      </trkpt>
      <trkpt lat="47.13529" lon="-1.64605">
        <ele>67</ele>
        <time>2022-03-06T10:16:24Z</time>
      </trkpt>
      <trkpt lat="47.13518" lon="-1.64615">
        <ele>67</ele>
        <time>2022-03-06T10:16:26Z</time>
      </trkpt>
      <trkpt lat="47.13508" lon="-1.64625">
        <ele>68</ele>
        <time>2022-03-06T10:16:28Z</time>
      </trkpt>
      <trkpt lat="47.13498" lon="-1.64634">
        <ele>68</ele>
        <time>2022-03-06T10:16:30Z</time>
      </trkpt>
      <trkpt lat="47.13487" lon="-1.64641">
        <ele>69</ele>
        <time>2022-03-06T10:16:32Z</time>
      </trkpt>
      <trkpt lat="47.13475" lon="-1.64644">
        <ele>69</ele>
        <time>2022-03-06T10:16:34Z</time>
      </trkpt>
      <trkpt lat="47.13461" lon="-1.64644">
        <ele>69</ele>
        <time>2022-03-06T10:16:36Z</time>
      </trkpt>
      <trkpt lat="47.13449" lon="-1.64643">
        <ele>68</ele>
        <time>2022-03-06T10:16:38Z</time>
      </trkpt>
      <trkpt lat="47.13437" lon="-1.64642">
        <ele>68</ele>
        <time>2022-03-06T10:16:40Z</time>
      </trkpt>
      <trkpt lat="47.13426" lon="-1.64641">
        <ele>67</ele>
        <time>2022-03-06T10:16:42Z</time>
      </trkpt>
      <trkpt lat="47.13416" lon="-1.64641">
        <ele>67</ele>
        <time>2022-03-06T10:16:44Z</time>
      </trkpt>
      <trkpt lat="47.13407" lon="-1.6464">
        <ele>68</ele>
        <time>2022-03-06T10:16:49Z</time>
      </trkpt>
      <trkpt lat="47.13399" lon="-1.64629">
        <ele>69</ele>
        <time>2022-03-06T10:16:55Z</time>
      </trkpt>
      <trkpt lat="47.13396" lon="-1.64613">
        <ele>69</ele>
        <time>2022-03-06T10:16:57Z</time>
      </trkpt>
      <trkpt lat="47.13393" lon="-1.64597">
        <ele>69</ele>
        <time>2022-03-06T10:16:59Z</time>
      </trkpt>
      <trkpt lat="47.13391" lon="-1.64579">
        <ele>69</ele>
        <time>2022-03-06T10:17:01Z</time>
      </trkpt>
      <trkpt lat="47.13386" lon="-1.6456">
        <ele>69</ele>
        <time>2022-03-06T10:17:03Z</time>
      </trkpt>
      <trkpt lat="47.13382" lon="-1.64543">
        <ele>69</ele>
        <time>2022-03-06T10:17:05Z</time>
      </trkpt>
      <trkpt lat="47.13377" lon="-1.64526">
        <ele>68</ele>
        <time>2022-03-06T10:17:07Z</time>
      </trkpt>
      <trkpt lat="47.13371" lon="-1.64509">
        <ele>68</ele>
        <time>2022-03-06T10:17:09Z</time>
      </trkpt>
      <trkpt lat="47.13365" lon="-1.64492">
        <ele>67</ele>
        <time>2022-03-06T10:17:11Z</time>
      </trkpt>
      <trkpt lat="47.13357" lon="-1.64476">
        <ele>66</ele>
        <time>2022-03-06T10:17:13Z</time>
      </trkpt>
      <trkpt lat="47.1335" lon="-1.64459">
        <ele>66</ele>
        <time>2022-03-06T10:17:15Z</time>
      </trkpt>
      <trkpt lat="47.13342" lon="-1.64442">
        <ele>66</ele>
        <time>2022-03-06T10:17:17Z</time>
      </trkpt>
      <trkpt lat="47.13334" lon="-1.64426">
        <ele>65</ele>
        <time>2022-03-06T10:17:19Z</time>
      </trkpt>
      <trkpt lat="47.13325" lon="-1.64407">
        <ele>65</ele>
        <time>2022-03-06T10:17:21Z</time>
      </trkpt>
      <trkpt lat="47.13317" lon="-1.64389">
        <ele>64</ele>
        <time>2022-03-06T10:17:23Z</time>
      </trkpt>
      <trkpt lat="47.13307" lon="-1.6437">
        <ele>63</ele>
        <time>2022-03-06T10:17:25Z</time>
      </trkpt>
      <trkpt lat="47.13299" lon="-1.6435">
        <ele>63</ele>
        <time>2022-03-06T10:17:27Z</time>
      </trkpt>
      <trkpt lat="47.13289" lon="-1.64331">
        <ele>63</ele>
        <time>2022-03-06T10:17:29Z</time>
      </trkpt>
      <trkpt lat="47.1328" lon="-1.64313">
        <ele>62</ele>
        <time>2022-03-06T10:17:31Z</time>
      </trkpt>
      <trkpt lat="47.1327" lon="-1.64292">
        <ele>62</ele>
        <time>2022-03-06T10:17:33Z</time>
      </trkpt>
      <trkpt lat="47.13261" lon="-1.64272">
        <ele>61</ele>
        <time>2022-03-06T10:17:35Z</time>
      </trkpt>
      <trkpt lat="47.13252" lon="-1.64253">
        <ele>61</ele>
        <time>2022-03-06T10:17:37Z</time>
      </trkpt>
      <trkpt lat="47.13244" lon="-1.64234">
        <ele>60</ele>
        <time>2022-03-06T10:17:39Z</time>
      </trkpt>
      <trkpt lat="47.13235" lon="-1.64215">
        <ele>60</ele>
        <time>2022-03-06T10:17:41Z</time>
      </trkpt>
      <trkpt lat="47.13226" lon="-1.64198">
        <ele>60</ele>
        <time>2022-03-06T10:17:43Z</time>
      </trkpt>
      <trkpt lat="47.13217" lon="-1.6418">
        <ele>60</ele>
        <time>2022-03-06T10:17:45Z</time>
      </trkpt>
      <trkpt lat="47.13209" lon="-1.64161">
        <ele>60</ele>
        <time>2022-03-06T10:17:47Z</time>
      </trkpt>
      <trkpt lat="47.13201" lon="-1.64143">
        <ele>60</ele>
        <time>2022-03-06T10:17:49Z</time>
      </trkpt>
      <trkpt lat="47.13193" lon="-1.64124">
        <ele>59</ele>
        <time>2022-03-06T10:17:51Z</time>
      </trkpt>
      <trkpt lat="47.13185" lon="-1.64106">
        <ele>59</ele>
        <time>2022-03-06T10:17:53Z</time>
      </trkpt>
      <trkpt lat="47.13177" lon="-1.64088">
        <ele>59</ele>
        <time>2022-03-06T10:17:55Z</time>
      </trkpt>
      <trkpt lat="47.13169" lon="-1.64069">
        <ele>59</ele>
        <time>2022-03-06T10:17:57Z</time>
      </trkpt>
      <trkpt lat="47.13161" lon="-1.6405">
        <ele>58</ele>
        <time>2022-03-06T10:17:59Z</time>
      </trkpt>
      <trkpt lat="47.13153" lon="-1.64031">
        <ele>58</ele>
        <time>2022-03-06T10:18:01Z</time>
      </trkpt>
      <trkpt lat="47.13145" lon="-1.64012">
        <ele>58</ele>
        <time>2022-03-06T10:18:03Z</time>
      </trkpt>
      <trkpt lat="47.13138" lon="-1.63993">
        <ele>58</ele>
        <time>2022-03-06T10:18:05Z</time>
      </trkpt>
      <trkpt lat="47.1313" lon="-1.63973">
        <ele>58</ele>
        <time>2022-03-06T10:18:07Z</time>
      </trkpt>
      <trkpt lat="47.13123" lon="-1.63953">
        <ele>58</ele>
        <time>2022-03-06T10:18:09Z</time>
      </trkpt>
      <trkpt lat="47.13115" lon="-1.63934">
        <ele>58</ele>
        <time>2022-03-06T10:18:11Z</time>
      </trkpt>
      <trkpt lat="47.13108" lon="-1.63914">
        <ele>58</ele>
        <time>2022-03-06T10:18:13Z</time>
      </trkpt>
      <trkpt lat="47.13101" lon="-1.63895">
        <ele>57</ele>
        <time>2022-03-06T10:18:15Z</time>
      </trkpt>
      <trkpt lat="47.13094" lon="-1.63876">
        <ele>57</ele>
        <time>2022-03-06T10:18:17Z</time>
      </trkpt>
      <trkpt lat="47.13087" lon="-1.63856">
        <ele>57</ele>
        <time>2022-03-06T10:18:19Z</time>
      </trkpt>
      <trkpt lat="47.13079" lon="-1.63837">
        <ele>57</ele>
        <time>2022-03-06T10:18:21Z</time>
      </trkpt>
      <trkpt lat="47.13071" lon="-1.63819">
        <ele>56</ele>
        <time>2022-03-06T10:18:23Z</time>
      </trkpt>
      <trkpt lat="47.13064" lon="-1.63801">
        <ele>56</ele>
        <time>2022-03-06T10:18:25Z</time>
      </trkpt>
      <trkpt lat="47.13056" lon="-1.63783">
        <ele>56</ele>
        <time>2022-03-06T10:18:27Z</time>
      </trkpt>
      <trkpt lat="47.13048" lon="-1.63766">
        <ele>56</ele>
        <time>2022-03-06T10:18:29Z</time>
      </trkpt>
      <trkpt lat="47.1304" lon="-1.63749">
        <ele>56</ele>
        <time>2022-03-06T10:18:31Z</time>
      </trkpt>
      <trkpt lat="47.13032" lon="-1.63732">
        <ele>57</ele>
        <time>2022-03-06T10:18:33Z</time>
      </trkpt>
      <trkpt lat="47.13024" lon="-1.63715">
        <ele>57</ele>
        <time>2022-03-06T10:18:35Z</time>
      </trkpt>
      <trkpt lat="47.13016" lon="-1.63697">
        <ele>57</ele>
        <time>2022-03-06T10:18:37Z</time>
      </trkpt>
      <trkpt lat="47.13008" lon="-1.63679">
        <ele>57</ele>
        <time>2022-03-06T10:18:39Z</time>
      </trkpt>
      <trkpt lat="47.12998" lon="-1.63663">
        <ele>57</ele>
        <time>2022-03-06T10:18:41Z</time>
      </trkpt>
      <trkpt lat="47.12991" lon="-1.63644">
        <ele>56</ele>
        <time>2022-03-06T10:18:43Z</time>
      </trkpt>
      <trkpt lat="47.12985" lon="-1.63624">
        <ele>56</ele>
        <time>2022-03-06T10:18:45Z</time>
      </trkpt>
      <trkpt lat="47.12978" lon="-1.63605">
        <ele>56</ele>
        <time>2022-03-06T10:18:47Z</time>
      </trkpt>
      <trkpt lat="47.1297" lon="-1.63587">
        <ele>55</ele>
        <time>2022-03-06T10:18:49Z</time>
      </trkpt>
      <trkpt lat="47.12963" lon="-1.63568">
        <ele>55</ele>
        <time>2022-03-06T10:18:51Z</time>
      </trkpt>
      <trkpt lat="47.12955" lon="-1.6355">
        <ele>55</ele>
        <time>2022-03-06T10:18:53Z</time>
      </trkpt>
      <trkpt lat="47.12948" lon="-1.63532">
        <ele>55</ele>
        <time>2022-03-06T10:18:55Z</time>
      </trkpt>
      <trkpt lat="47.12941" lon="-1.63513">
        <ele>55</ele>
        <time>2022-03-06T10:18:57Z</time>
      </trkpt>
      <trkpt lat="47.12933" lon="-1.63494">
        <ele>55</ele>
        <time>2022-03-06T10:18:59Z</time>
      </trkpt>
      <trkpt lat="47.12927" lon="-1.63474">
        <ele>55</ele>
        <time>2022-03-06T10:19:01Z</time>
      </trkpt>
      <trkpt lat="47.12919" lon="-1.63455">
        <ele>54</ele>
        <time>2022-03-06T10:19:03Z</time>
      </trkpt>
      <trkpt lat="47.12912" lon="-1.63436">
        <ele>54</ele>
        <time>2022-03-06T10:19:05Z</time>
      </trkpt>
      <trkpt lat="47.12905" lon="-1.63418">
        <ele>54</ele>
        <time>2022-03-06T10:19:07Z</time>
      </trkpt>
      <trkpt lat="47.12898" lon="-1.63399">
        <ele>53</ele>
        <time>2022-03-06T10:19:09Z</time>
      </trkpt>
      <trkpt lat="47.12891" lon="-1.6338">
        <ele>53</ele>
        <time>2022-03-06T10:19:11Z</time>
      </trkpt>
      <trkpt lat="47.12884" lon="-1.63362">
        <ele>53</ele>
        <time>2022-03-06T10:19:13Z</time>
      </trkpt>
      <trkpt lat="47.12877" lon="-1.63343">
        <ele>53</ele>
        <time>2022-03-06T10:19:15Z</time>
      </trkpt>
      <trkpt lat="47.12869" lon="-1.63325">
        <ele>53</ele>
        <time>2022-03-06T10:19:17Z</time>
      </trkpt>
      <trkpt lat="47.12862" lon="-1.63306">
        <ele>53</ele>
        <time>2022-03-06T10:19:19Z</time>
      </trkpt>
      <trkpt lat="47.12855" lon="-1.63287">
        <ele>52</ele>
        <time>2022-03-06T10:19:21Z</time>
      </trkpt>
      <trkpt lat="47.12848" lon="-1.63269">
        <ele>53</ele>
        <time>2022-03-06T10:19:23Z</time>
      </trkpt>
      <trkpt lat="47.12841" lon="-1.63251">
        <ele>53</ele>
        <time>2022-03-06T10:19:25Z</time>
      </trkpt>
      <trkpt lat="47.12834" lon="-1.63234">
        <ele>54</ele>
        <time>2022-03-06T10:19:27Z</time>
      </trkpt>
      <trkpt lat="47.12827" lon="-1.63217">
        <ele>55</ele>
        <time>2022-03-06T10:19:29Z</time>
      </trkpt>
      <trkpt lat="47.12821" lon="-1.632">
        <ele>56</ele>
        <time>2022-03-06T10:19:31Z</time>
      </trkpt>
      <trkpt lat="47.12813" lon="-1.63182">
        <ele>56</ele>
        <time>2022-03-06T10:19:33Z</time>
      </trkpt>
      <trkpt lat="47.12807" lon="-1.63164">
        <ele>56</ele>
        <time>2022-03-06T10:19:35Z</time>
      </trkpt>
      <trkpt lat="47.12799" lon="-1.63147">
        <ele>57</ele>
        <time>2022-03-06T10:19:37Z</time>
      </trkpt>
      <trkpt lat="47.12793" lon="-1.6313">
        <ele>57</ele>
        <time>2022-03-06T10:19:39Z</time>
      </trkpt>
      <trkpt lat="47.12785" lon="-1.63112">
        <ele>57</ele>
        <time>2022-03-06T10:19:41Z</time>
      </trkpt>
      <trkpt lat="47.12779" lon="-1.63095">
        <ele>58</ele>
        <time>2022-03-06T10:19:43Z</time>
      </trkpt>
      <trkpt lat="47.12772" lon="-1.63078">
        <ele>57</ele>
        <time>2022-03-06T10:19:45Z</time>
      </trkpt>
      <trkpt lat="47.12766" lon="-1.63061">
        <ele>57</ele>
        <time>2022-03-06T10:19:47Z</time>
      </trkpt>
      <trkpt lat="47.12759" lon="-1.63044">
        <ele>58</ele>
        <time>2022-03-06T10:19:49Z</time>
      </trkpt>
      <trkpt lat="47.12753" lon="-1.63027">
        <ele>58</ele>
        <time>2022-03-06T10:19:51Z</time>
      </trkpt>
      <trkpt lat="47.12747" lon="-1.63011">
        <ele>58</ele>
        <time>2022-03-06T10:19:53Z</time>
      </trkpt>
      <trkpt lat="47.1274" lon="-1.62994">
        <ele>58</ele>
        <time>2022-03-06T10:19:55Z</time>
      </trkpt>
      <trkpt lat="47.12734" lon="-1.62977">
        <ele>58</ele>
        <time>2022-03-06T10:19:57Z</time>
      </trkpt>
      <trkpt lat="47.12727" lon="-1.6296">
        <ele>58</ele>
        <time>2022-03-06T10:19:59Z</time>
      </trkpt>
      <trkpt lat="47.12721" lon="-1.62944">
        <ele>58</ele>
        <time>2022-03-06T10:20:01Z</time>
      </trkpt>
      <trkpt lat="47.12714" lon="-1.62928">
        <ele>58</ele>
        <time>2022-03-06T10:20:03Z</time>
      </trkpt>
      <trkpt lat="47.12707" lon="-1.62912">
        <ele>58</ele>
        <time>2022-03-06T10:20:05Z</time>
      </trkpt>
      <trkpt lat="47.12701" lon="-1.62895">
        <ele>58</ele>
        <time>2022-03-06T10:20:07Z</time>
      </trkpt>
      <trkpt lat="47.12695" lon="-1.62878">
        <ele>58</ele>
        <time>2022-03-06T10:20:09Z</time>
      </trkpt>
      <trkpt lat="47.12688" lon="-1.62863">
        <ele>58</ele>
        <time>2022-03-06T10:20:11Z</time>
      </trkpt>
      <trkpt lat="47.12681" lon="-1.62848">
        <ele>58</ele>
        <time>2022-03-06T10:20:13Z</time>
      </trkpt>
      <trkpt lat="47.12673" lon="-1.62832">
        <ele>58</ele>
        <time>2022-03-06T10:20:15Z</time>
      </trkpt>
      <trkpt lat="47.12664" lon="-1.62818">
        <ele>58</ele>
        <time>2022-03-06T10:20:17Z</time>
      </trkpt>
      <trkpt lat="47.12659" lon="-1.628">
        <ele>57</ele>
        <time>2022-03-06T10:20:19Z</time>
      </trkpt>
      <trkpt lat="47.12654" lon="-1.62781">
        <ele>57</ele>
        <time>2022-03-06T10:20:21Z</time>
      </trkpt>
      <trkpt lat="47.12647" lon="-1.62764">
        <ele>57</ele>
        <time>2022-03-06T10:20:23Z</time>
      </trkpt>
      <trkpt lat="47.12639" lon="-1.62748">
        <ele>56</ele>
        <time>2022-03-06T10:20:25Z</time>
      </trkpt>
      <trkpt lat="47.12631" lon="-1.62732">
        <ele>56</ele>
        <time>2022-03-06T10:20:27Z</time>
      </trkpt>
      <trkpt lat="47.12623" lon="-1.62715">
        <ele>56</ele>
        <time>2022-03-06T10:20:29Z</time>
      </trkpt>
      <trkpt lat="47.12614" lon="-1.62698">
        <ele>55</ele>
        <time>2022-03-06T10:20:31Z</time>
      </trkpt>
      <trkpt lat="47.12606" lon="-1.62682">
        <ele>55</ele>
        <time>2022-03-06T10:20:33Z</time>
      </trkpt>
      <trkpt lat="47.12599" lon="-1.62666">
        <ele>55</ele>
        <time>2022-03-06T10:20:35Z</time>
      </trkpt>
      <trkpt lat="47.12591" lon="-1.62649">
        <ele>55</ele>
        <time>2022-03-06T10:20:37Z</time>
      </trkpt>
      <trkpt lat="47.12584" lon="-1.62632">
        <ele>54</ele>
        <time>2022-03-06T10:20:39Z</time>
      </trkpt>
      <trkpt lat="47.12577" lon="-1.62613">
        <ele>54</ele>
        <time>2022-03-06T10:20:41Z</time>
      </trkpt>
      <trkpt lat="47.12572" lon="-1.62594">
        <ele>54</ele>
        <time>2022-03-06T10:20:43Z</time>
      </trkpt>
      <trkpt lat="47.12568" lon="-1.62576">
        <ele>54</ele>
        <time>2022-03-06T10:20:45Z</time>
      </trkpt>
      <trkpt lat="47.12565" lon="-1.62557">
        <ele>54</ele>
        <time>2022-03-06T10:20:47Z</time>
      </trkpt>
      <trkpt lat="47.12561" lon="-1.62537">
        <ele>54</ele>
        <time>2022-03-06T10:20:49Z</time>
      </trkpt>
      <trkpt lat="47.12557" lon="-1.62517">
        <ele>54</ele>
        <time>2022-03-06T10:20:51Z</time>
      </trkpt>
      <trkpt lat="47.12553" lon="-1.62498">
        <ele>54</ele>
        <time>2022-03-06T10:20:53Z</time>
      </trkpt>
      <trkpt lat="47.12549" lon="-1.62478">
        <ele>54</ele>
        <time>2022-03-06T10:20:55Z</time>
      </trkpt>
      <trkpt lat="47.12544" lon="-1.62459">
        <ele>54</ele>
        <time>2022-03-06T10:20:57Z</time>
      </trkpt>
      <trkpt lat="47.12539" lon="-1.6244">
        <ele>54</ele>
        <time>2022-03-06T10:20:59Z</time>
      </trkpt>
      <trkpt lat="47.12534" lon="-1.62421">
        <ele>54</ele>
        <time>2022-03-06T10:21:01Z</time>
      </trkpt>
      <trkpt lat="47.12527" lon="-1.62402">
        <ele>54</ele>
        <time>2022-03-06T10:21:03Z</time>
      </trkpt>
      <trkpt lat="47.12521" lon="-1.62384">
        <ele>54</ele>
        <time>2022-03-06T10:21:05Z</time>
      </trkpt>
      <trkpt lat="47.12514" lon="-1.62366">
        <ele>54</ele>
        <time>2022-03-06T10:21:07Z</time>
      </trkpt>
      <trkpt lat="47.12506" lon="-1.6235">
        <ele>54</ele>
        <time>2022-03-06T10:21:09Z</time>
      </trkpt>
      <trkpt lat="47.12498" lon="-1.62333">
        <ele>54</ele>
        <time>2022-03-06T10:21:11Z</time>
      </trkpt>
      <trkpt lat="47.12489" lon="-1.62317">
        <ele>53</ele>
        <time>2022-03-06T10:21:13Z</time>
      </trkpt>
      <trkpt lat="47.1248" lon="-1.62303">
        <ele>53</ele>
        <time>2022-03-06T10:21:15Z</time>
      </trkpt>
      <trkpt lat="47.1247" lon="-1.62288">
        <ele>53</ele>
        <time>2022-03-06T10:21:17Z</time>
      </trkpt>
      <trkpt lat="47.12457" lon="-1.62268">
        <ele>53</ele>
        <time>2022-03-06T10:21:20Z</time>
      </trkpt>
      <trkpt lat="47.12447" lon="-1.62254">
        <ele>53</ele>
        <time>2022-03-06T10:21:22Z</time>
      </trkpt>
      <trkpt lat="47.12433" lon="-1.62233">
        <ele>53</ele>
        <time>2022-03-06T10:21:25Z</time>
      </trkpt>
      <trkpt lat="47.12424" lon="-1.62219">
        <ele>53</ele>
        <time>2022-03-06T10:21:27Z</time>
      </trkpt>
      <trkpt lat="47.12416" lon="-1.62204">
        <ele>53</ele>
        <time>2022-03-06T10:21:29Z</time>
      </trkpt>
      <trkpt lat="47.12407" lon="-1.62188">
        <ele>54</ele>
        <time>2022-03-06T10:21:31Z</time>
      </trkpt>
      <trkpt lat="47.124" lon="-1.62172">
        <ele>54</ele>
        <time>2022-03-06T10:21:33Z</time>
      </trkpt>
      <trkpt lat="47.12394" lon="-1.62155">
        <ele>54</ele>
        <time>2022-03-06T10:21:35Z</time>
      </trkpt>
      <trkpt lat="47.1239" lon="-1.62136">
        <ele>54</ele>
        <time>2022-03-06T10:21:37Z</time>
      </trkpt>
      <trkpt lat="47.12385" lon="-1.62118">
        <ele>54</ele>
        <time>2022-03-06T10:21:39Z</time>
      </trkpt>
      <trkpt lat="47.12383" lon="-1.621">
        <ele>54</ele>
        <time>2022-03-06T10:21:41Z</time>
      </trkpt>
      <trkpt lat="47.12381" lon="-1.62081">
        <ele>54</ele>
        <time>2022-03-06T10:21:43Z</time>
      </trkpt>
      <trkpt lat="47.12381" lon="-1.62061">
        <ele>54</ele>
        <time>2022-03-06T10:21:45Z</time>
      </trkpt>
      <trkpt lat="47.12382" lon="-1.62042">
        <ele>54</ele>
        <time>2022-03-06T10:21:47Z</time>
      </trkpt>
      <trkpt lat="47.12385" lon="-1.62023">
        <ele>54</ele>
        <time>2022-03-06T10:21:49Z</time>
      </trkpt>
      <trkpt lat="47.12389" lon="-1.62005">
        <ele>54</ele>
        <time>2022-03-06T10:21:51Z</time>
      </trkpt>
      <trkpt lat="47.12393" lon="-1.61986">
        <ele>54</ele>
        <time>2022-03-06T10:21:53Z</time>
      </trkpt>
      <trkpt lat="47.12398" lon="-1.61968">
        <ele>54</ele>
        <time>2022-03-06T10:21:55Z</time>
      </trkpt>
      <trkpt lat="47.12402" lon="-1.6195">
        <ele>54</ele>
        <time>2022-03-06T10:21:57Z</time>
      </trkpt>
      <trkpt lat="47.12407" lon="-1.61932">
        <ele>54</ele>
        <time>2022-03-06T10:21:59Z</time>
      </trkpt>
      <trkpt lat="47.12411" lon="-1.61916">
        <ele>55</ele>
        <time>2022-03-06T10:22:01Z</time>
      </trkpt>
      <trkpt lat="47.12415" lon="-1.61898">
        <ele>55</ele>
        <time>2022-03-06T10:22:03Z</time>
      </trkpt>
      <trkpt lat="47.12419" lon="-1.61882">
        <ele>55</ele>
        <time>2022-03-06T10:22:05Z</time>
      </trkpt>
      <trkpt lat="47.12425" lon="-1.61867">
        <ele>55</ele>
        <time>2022-03-06T10:22:07Z</time>
      </trkpt>
      <trkpt lat="47.12431" lon="-1.61852">
        <ele>55</ele>
        <time>2022-03-06T10:22:09Z</time>
      </trkpt>
      <trkpt lat="47.12435" lon="-1.61835">
        <ele>55</ele>
        <time>2022-03-06T10:22:11Z</time>
      </trkpt>
      <trkpt lat="47.12438" lon="-1.61816">
        <ele>55</ele>
        <time>2022-03-06T10:22:13Z</time>
      </trkpt>
      <trkpt lat="47.12442" lon="-1.61799">
        <ele>56</ele>
        <time>2022-03-06T10:22:15Z</time>
      </trkpt>
      <trkpt lat="47.12446" lon="-1.61782">
        <ele>56</ele>
        <time>2022-03-06T10:22:17Z</time>
      </trkpt>
      <trkpt lat="47.1245" lon="-1.61765">
        <ele>56</ele>
        <time>2022-03-06T10:22:19Z</time>
      </trkpt>
      <trkpt lat="47.12455" lon="-1.61748">
        <ele>56</ele>
        <time>2022-03-06T10:22:21Z</time>
      </trkpt>
      <trkpt lat="47.12458" lon="-1.61732">
        <ele>56</ele>
        <time>2022-03-06T10:22:23Z</time>
      </trkpt>
      <trkpt lat="47.12463" lon="-1.61716">
        <ele>56</ele>
        <time>2022-03-06T10:22:25Z</time>
      </trkpt>
      <trkpt lat="47.12467" lon="-1.61699">
        <ele>57</ele>
        <time>2022-03-06T10:22:27Z</time>
      </trkpt>
      <trkpt lat="47.12471" lon="-1.61681">
        <ele>57</ele>
        <time>2022-03-06T10:22:29Z</time>
      </trkpt>
      <trkpt lat="47.12474" lon="-1.61663">
        <ele>56</ele>
        <time>2022-03-06T10:22:31Z</time>
      </trkpt>
      <trkpt lat="47.12477" lon="-1.61645">
        <ele>56</ele>
        <time>2022-03-06T10:22:33Z</time>
      </trkpt>
      <trkpt lat="47.12478" lon="-1.61627">
        <ele>56</ele>
        <time>2022-03-06T10:22:35Z</time>
      </trkpt>
      <trkpt lat="47.12478" lon="-1.61609">
        <ele>57</ele>
        <time>2022-03-06T10:22:37Z</time>
      </trkpt>
      <trkpt lat="47.12477" lon="-1.61591">
        <ele>57</ele>
        <time>2022-03-06T10:22:39Z</time>
      </trkpt>
      <trkpt lat="47.12475" lon="-1.61573">
        <ele>57</ele>
        <time>2022-03-06T10:22:41Z</time>
      </trkpt>
      <trkpt lat="47.12472" lon="-1.61555">
        <ele>57</ele>
        <time>2022-03-06T10:22:43Z</time>
      </trkpt>
      <trkpt lat="47.1247" lon="-1.61538">
        <ele>57</ele>
        <time>2022-03-06T10:22:45Z</time>
      </trkpt>
      <trkpt lat="47.12468" lon="-1.6152">
        <ele>57</ele>
        <time>2022-03-06T10:22:47Z</time>
      </trkpt>
      <trkpt lat="47.12466" lon="-1.61502">
        <ele>57</ele>
        <time>2022-03-06T10:22:49Z</time>
      </trkpt>
      <trkpt lat="47.12464" lon="-1.61484">
        <ele>57</ele>
        <time>2022-03-06T10:22:51Z</time>
      </trkpt>
      <trkpt lat="47.12462" lon="-1.61465">
        <ele>57</ele>
        <time>2022-03-06T10:22:53Z</time>
      </trkpt>
      <trkpt lat="47.1246" lon="-1.61447">
        <ele>57</ele>
        <time>2022-03-06T10:22:55Z</time>
      </trkpt>
      <trkpt lat="47.12459" lon="-1.61429">
        <ele>57</ele>
        <time>2022-03-06T10:22:57Z</time>
      </trkpt>
      <trkpt lat="47.12457" lon="-1.61412">
        <ele>57</ele>
        <time>2022-03-06T10:22:59Z</time>
      </trkpt>
      <trkpt lat="47.12455" lon="-1.61394">
        <ele>57</ele>
        <time>2022-03-06T10:23:01Z</time>
      </trkpt>
      <trkpt lat="47.12455" lon="-1.61376">
        <ele>58</ele>
        <time>2022-03-06T10:23:03Z</time>
      </trkpt>
      <trkpt lat="47.12456" lon="-1.61358">
        <ele>58</ele>
        <time>2022-03-06T10:23:05Z</time>
      </trkpt>
      <trkpt lat="47.12459" lon="-1.61339">
        <ele>58</ele>
        <time>2022-03-06T10:23:07Z</time>
      </trkpt>
      <trkpt lat="47.12463" lon="-1.61322">
        <ele>58</ele>
        <time>2022-03-06T10:23:09Z</time>
      </trkpt>
      <trkpt lat="47.12467" lon="-1.61305">
        <ele>58</ele>
        <time>2022-03-06T10:23:11Z</time>
      </trkpt>
      <trkpt lat="47.12473" lon="-1.61289">
        <ele>58</ele>
        <time>2022-03-06T10:23:13Z</time>
      </trkpt>
      <trkpt lat="47.12479" lon="-1.61273">
        <ele>58</ele>
        <time>2022-03-06T10:23:15Z</time>
      </trkpt>
      <trkpt lat="47.12484" lon="-1.61256">
        <ele>58</ele>
        <time>2022-03-06T10:23:17Z</time>
      </trkpt>
      <trkpt lat="47.12489" lon="-1.61239">
        <ele>58</ele>
        <time>2022-03-06T10:23:19Z</time>
      </trkpt>
      <trkpt lat="47.12494" lon="-1.61222">
        <ele>58</ele>
        <time>2022-03-06T10:23:21Z</time>
      </trkpt>
      <trkpt lat="47.12497" lon="-1.61205">
        <ele>58</ele>
        <time>2022-03-06T10:23:23Z</time>
      </trkpt>
      <trkpt lat="47.125" lon="-1.61187">
        <ele>58</ele>
        <time>2022-03-06T10:23:25Z</time>
      </trkpt>
      <trkpt lat="47.12502" lon="-1.61169">
        <ele>58</ele>
        <time>2022-03-06T10:23:27Z</time>
      </trkpt>
      <trkpt lat="47.12504" lon="-1.6115">
        <ele>58</ele>
        <time>2022-03-06T10:23:29Z</time>
      </trkpt>
      <trkpt lat="47.12506" lon="-1.61132">
        <ele>58</ele>
        <time>2022-03-06T10:23:31Z</time>
      </trkpt>
      <trkpt lat="47.12508" lon="-1.61114">
        <ele>58</ele>
        <time>2022-03-06T10:23:33Z</time>
      </trkpt>
      <trkpt lat="47.12509" lon="-1.61095">
        <ele>58</ele>
        <time>2022-03-06T10:23:35Z</time>
      </trkpt>
      <trkpt lat="47.12511" lon="-1.61076">
        <ele>58</ele>
        <time>2022-03-06T10:23:37Z</time>
      </trkpt>
      <trkpt lat="47.12513" lon="-1.61057">
        <ele>57</ele>
        <time>2022-03-06T10:23:39Z</time>
      </trkpt>
      <trkpt lat="47.12514" lon="-1.61038">
        <ele>57</ele>
        <time>2022-03-06T10:23:41Z</time>
      </trkpt>
      <trkpt lat="47.12516" lon="-1.61018">
        <ele>57</ele>
        <time>2022-03-06T10:23:43Z</time>
      </trkpt>
      <trkpt lat="47.12518" lon="-1.60999">
        <ele>57</ele>
        <time>2022-03-06T10:23:45Z</time>
      </trkpt>
      <trkpt lat="47.1252" lon="-1.6098">
        <ele>57</ele>
        <time>2022-03-06T10:23:47Z</time>
      </trkpt>
      <trkpt lat="47.12522" lon="-1.60961">
        <ele>57</ele>
        <time>2022-03-06T10:23:49Z</time>
      </trkpt>
      <trkpt lat="47.12524" lon="-1.60941">
        <ele>57</ele>
        <time>2022-03-06T10:23:51Z</time>
      </trkpt>
      <trkpt lat="47.12525" lon="-1.60922">
        <ele>56</ele>
        <time>2022-03-06T10:23:53Z</time>
      </trkpt>
      <trkpt lat="47.12527" lon="-1.60904">
        <ele>56</ele>
        <time>2022-03-06T10:23:55Z</time>
      </trkpt>
      <trkpt lat="47.12529" lon="-1.60885">
        <ele>56</ele>
        <time>2022-03-06T10:23:57Z</time>
      </trkpt>
      <trkpt lat="47.1253" lon="-1.60866">
        <ele>56</ele>
        <time>2022-03-06T10:23:59Z</time>
      </trkpt>
      <trkpt lat="47.12532" lon="-1.60847">
        <ele>56</ele>
        <time>2022-03-06T10:24:01Z</time>
      </trkpt>
      <trkpt lat="47.12534" lon="-1.60827">
        <ele>56</ele>
        <time>2022-03-06T10:24:03Z</time>
      </trkpt>
      <trkpt lat="47.12536" lon="-1.60808">
        <ele>56</ele>
        <time>2022-03-06T10:24:05Z</time>
      </trkpt>
      <trkpt lat="47.12538" lon="-1.60789">
        <ele>56</ele>
        <time>2022-03-06T10:24:07Z</time>
      </trkpt>
      <trkpt lat="47.12539" lon="-1.6077">
        <ele>56</ele>
        <time>2022-03-06T10:24:09Z</time>
      </trkpt>
      <trkpt lat="47.12541" lon="-1.60751">
        <ele>56</ele>
        <time>2022-03-06T10:24:11Z</time>
      </trkpt>
      <trkpt lat="47.12542" lon="-1.60732">
        <ele>56</ele>
        <time>2022-03-06T10:24:13Z</time>
      </trkpt>
      <trkpt lat="47.12542" lon="-1.60712">
        <ele>56</ele>
        <time>2022-03-06T10:24:15Z</time>
      </trkpt>
      <trkpt lat="47.12542" lon="-1.60693">
        <ele>56</ele>
        <time>2022-03-06T10:24:17Z</time>
      </trkpt>
      <trkpt lat="47.12542" lon="-1.60674">
        <ele>56</ele>
        <time>2022-03-06T10:24:19Z</time>
      </trkpt>
      <trkpt lat="47.12542" lon="-1.60654">
        <ele>56</ele>
        <time>2022-03-06T10:24:21Z</time>
      </trkpt>
      <trkpt lat="47.12542" lon="-1.60634">
        <ele>56</ele>
        <time>2022-03-06T10:24:23Z</time>
      </trkpt>
      <trkpt lat="47.12541" lon="-1.60615">
        <ele>56</ele>
        <time>2022-03-06T10:24:25Z</time>
      </trkpt>
      <trkpt lat="47.12541" lon="-1.60596">
        <ele>56</ele>
        <time>2022-03-06T10:24:27Z</time>
      </trkpt>
      <trkpt lat="47.1254" lon="-1.60576">
        <ele>56</ele>
        <time>2022-03-06T10:24:29Z</time>
      </trkpt>
      <trkpt lat="47.12539" lon="-1.60557">
        <ele>56</ele>
        <time>2022-03-06T10:24:31Z</time>
      </trkpt>
      <trkpt lat="47.12539" lon="-1.60537">
        <ele>56</ele>
        <time>2022-03-06T10:24:33Z</time>
      </trkpt>
      <trkpt lat="47.12537" lon="-1.60518">
        <ele>56</ele>
        <time>2022-03-06T10:24:35Z</time>
      </trkpt>
      <trkpt lat="47.12535" lon="-1.60498">
        <ele>56</ele>
        <time>2022-03-06T10:24:37Z</time>
      </trkpt>
      <trkpt lat="47.12533" lon="-1.60479">
        <ele>55</ele>
        <time>2022-03-06T10:24:39Z</time>
      </trkpt>
      <trkpt lat="47.1253" lon="-1.60459">
        <ele>55</ele>
        <time>2022-03-06T10:24:41Z</time>
      </trkpt>
      <trkpt lat="47.12526" lon="-1.6044">
        <ele>55</ele>
        <time>2022-03-06T10:24:43Z</time>
      </trkpt>
      <trkpt lat="47.12523" lon="-1.60421">
        <ele>55</ele>
        <time>2022-03-06T10:24:45Z</time>
      </trkpt>
      <trkpt lat="47.1252" lon="-1.60401">
        <ele>55</ele>
        <time>2022-03-06T10:24:47Z</time>
      </trkpt>
      <trkpt lat="47.12516" lon="-1.60382">
        <ele>55</ele>
        <time>2022-03-06T10:24:49Z</time>
      </trkpt>
      <trkpt lat="47.12512" lon="-1.60362">
        <ele>54</ele>
        <time>2022-03-06T10:24:51Z</time>
      </trkpt>
      <trkpt lat="47.12508" lon="-1.60344">
        <ele>54</ele>
        <time>2022-03-06T10:24:53Z</time>
      </trkpt>
      <trkpt lat="47.12504" lon="-1.60325">
        <ele>54</ele>
        <time>2022-03-06T10:24:55Z</time>
      </trkpt>
      <trkpt lat="47.12501" lon="-1.60305">
        <ele>54</ele>
        <time>2022-03-06T10:24:57Z</time>
      </trkpt>
      <trkpt lat="47.12497" lon="-1.60286">
        <ele>54</ele>
        <time>2022-03-06T10:24:59Z</time>
      </trkpt>
      <trkpt lat="47.12493" lon="-1.60268">
        <ele>54</ele>
        <time>2022-03-06T10:25:01Z</time>
      </trkpt>
      <trkpt lat="47.1249" lon="-1.60249">
        <ele>54</ele>
        <time>2022-03-06T10:25:03Z</time>
      </trkpt>
      <trkpt lat="47.12486" lon="-1.60231">
        <ele>53</ele>
        <time>2022-03-06T10:25:05Z</time>
      </trkpt>
      <trkpt lat="47.12483" lon="-1.60212">
        <ele>53</ele>
        <time>2022-03-06T10:25:07Z</time>
      </trkpt>
      <trkpt lat="47.1248" lon="-1.60193">
        <ele>53</ele>
        <time>2022-03-06T10:25:09Z</time>
      </trkpt>
      <trkpt lat="47.12479" lon="-1.60175">
        <ele>54</ele>
        <time>2022-03-06T10:25:11Z</time>
      </trkpt>
      <trkpt lat="47.12478" lon="-1.60157">
        <ele>54</ele>
        <time>2022-03-06T10:25:13Z</time>
      </trkpt>
      <trkpt lat="47.12476" lon="-1.60138">
        <ele>54</ele>
        <time>2022-03-06T10:25:15Z</time>
      </trkpt>
      <trkpt lat="47.12475" lon="-1.60119">
        <ele>54</ele>
        <time>2022-03-06T10:25:17Z</time>
      </trkpt>
      <trkpt lat="47.12474" lon="-1.601">
        <ele>55</ele>
        <time>2022-03-06T10:25:19Z</time>
      </trkpt>
      <trkpt lat="47.12474" lon="-1.60082">
        <ele>55</ele>
        <time>2022-03-06T10:25:21Z</time>
      </trkpt>
      <trkpt lat="47.12473" lon="-1.60063">
        <ele>55</ele>
        <time>2022-03-06T10:25:23Z</time>
      </trkpt>
      <trkpt lat="47.12472" lon="-1.60043">
        <ele>55</ele>
        <time>2022-03-06T10:25:25Z</time>
      </trkpt>
      <trkpt lat="47.12471" lon="-1.60025">
        <ele>55</ele>
        <time>2022-03-06T10:25:27Z</time>
      </trkpt>
      <trkpt lat="47.1247" lon="-1.60006">
        <ele>55</ele>
        <time>2022-03-06T10:25:29Z</time>
      </trkpt>
      <trkpt lat="47.12469" lon="-1.59988">
        <ele>55</ele>
        <time>2022-03-06T10:25:31Z</time>
      </trkpt>
      <trkpt lat="47.12468" lon="-1.59969">
        <ele>55</ele>
        <time>2022-03-06T10:25:33Z</time>
      </trkpt>
      <trkpt lat="47.12467" lon="-1.59949">
        <ele>55</ele>
        <time>2022-03-06T10:25:35Z</time>
      </trkpt>
      <trkpt lat="47.12467" lon="-1.59929">
        <ele>55</ele>
        <time>2022-03-06T10:25:37Z</time>
      </trkpt>
      <trkpt lat="47.12465" lon="-1.59909">
        <ele>56</ele>
        <time>2022-03-06T10:25:39Z</time>
      </trkpt>
      <trkpt lat="47.12465" lon="-1.59889">
        <ele>56</ele>
        <time>2022-03-06T10:25:41Z</time>
      </trkpt>
      <trkpt lat="47.12464" lon="-1.5987">
        <ele>57</ele>
        <time>2022-03-06T10:25:43Z</time>
      </trkpt>
      <trkpt lat="47.12464" lon="-1.59852">
        <ele>57</ele>
        <time>2022-03-06T10:25:45Z</time>
      </trkpt>
      <trkpt lat="47.12463" lon="-1.59832">
        <ele>57</ele>
        <time>2022-03-06T10:25:47Z</time>
      </trkpt>
      <trkpt lat="47.12461" lon="-1.59813">
        <ele>57</ele>
        <time>2022-03-06T10:25:49Z</time>
      </trkpt>
      <trkpt lat="47.1246" lon="-1.59794">
        <ele>57</ele>
        <time>2022-03-06T10:25:51Z</time>
      </trkpt>
      <trkpt lat="47.12459" lon="-1.59775">
        <ele>57</ele>
        <time>2022-03-06T10:25:53Z</time>
      </trkpt>
      <trkpt lat="47.12459" lon="-1.59757">
        <ele>57</ele>
        <time>2022-03-06T10:25:55Z</time>
      </trkpt>
      <trkpt lat="47.12458" lon="-1.59738">
        <ele>57</ele>
        <time>2022-03-06T10:25:57Z</time>
      </trkpt>
      <trkpt lat="47.12457" lon="-1.59719">
        <ele>57</ele>
        <time>2022-03-06T10:25:59Z</time>
      </trkpt>
      <trkpt lat="47.12456" lon="-1.597">
        <ele>57</ele>
        <time>2022-03-06T10:26:01Z</time>
      </trkpt>
      <trkpt lat="47.12455" lon="-1.59681">
        <ele>57</ele>
        <time>2022-03-06T10:26:03Z</time>
      </trkpt>
      <trkpt lat="47.12454" lon="-1.59662">
        <ele>57</ele>
        <time>2022-03-06T10:26:05Z</time>
      </trkpt>
      <trkpt lat="47.12453" lon="-1.59643">
        <ele>56</ele>
        <time>2022-03-06T10:26:07Z</time>
      </trkpt>
      <trkpt lat="47.12452" lon="-1.59624">
        <ele>56</ele>
        <time>2022-03-06T10:26:09Z</time>
      </trkpt>
      <trkpt lat="47.12451" lon="-1.59605">
        <ele>56</ele>
        <time>2022-03-06T10:26:11Z</time>
      </trkpt>
      <trkpt lat="47.1245" lon="-1.59586">
        <ele>56</ele>
        <time>2022-03-06T10:26:13Z</time>
      </trkpt>
      <trkpt lat="47.12449" lon="-1.59567">
        <ele>56</ele>
        <time>2022-03-06T10:26:15Z</time>
      </trkpt>
      <trkpt lat="47.12449" lon="-1.59549">
        <ele>56</ele>
        <time>2022-03-06T10:26:17Z</time>
      </trkpt>
      <trkpt lat="47.12448" lon="-1.5953">
        <ele>56</ele>
        <time>2022-03-06T10:26:19Z</time>
      </trkpt>
      <trkpt lat="47.12447" lon="-1.59511">
        <ele>56</ele>
        <time>2022-03-06T10:26:21Z</time>
      </trkpt>
      <trkpt lat="47.12446" lon="-1.59491">
        <ele>56</ele>
        <time>2022-03-06T10:26:23Z</time>
      </trkpt>
      <trkpt lat="47.12445" lon="-1.59473">
        <ele>56</ele>
        <time>2022-03-06T10:26:25Z</time>
      </trkpt>
      <trkpt lat="47.12444" lon="-1.59454">
        <ele>55</ele>
        <time>2022-03-06T10:26:27Z</time>
      </trkpt>
      <trkpt lat="47.12443" lon="-1.59434">
        <ele>55</ele>
        <time>2022-03-06T10:26:29Z</time>
      </trkpt>
      <trkpt lat="47.12442" lon="-1.59415">
        <ele>55</ele>
        <time>2022-03-06T10:26:31Z</time>
      </trkpt>
      <trkpt lat="47.12441" lon="-1.59395">
        <ele>55</ele>
        <time>2022-03-06T10:26:33Z</time>
      </trkpt>
      <trkpt lat="47.1244" lon="-1.59376">
        <ele>54</ele>
        <time>2022-03-06T10:26:35Z</time>
      </trkpt>
      <trkpt lat="47.12439" lon="-1.59357">
        <ele>54</ele>
        <time>2022-03-06T10:26:37Z</time>
      </trkpt>
      <trkpt lat="47.12438" lon="-1.59338">
        <ele>54</ele>
        <time>2022-03-06T10:26:39Z</time>
      </trkpt>
      <trkpt lat="47.12437" lon="-1.59319">
        <ele>54</ele>
        <time>2022-03-06T10:26:41Z</time>
      </trkpt>
      <trkpt lat="47.12436" lon="-1.59299">
        <ele>54</ele>
        <time>2022-03-06T10:26:43Z</time>
      </trkpt>
      <trkpt lat="47.12435" lon="-1.5928">
        <ele>54</ele>
        <time>2022-03-06T10:26:45Z</time>
      </trkpt>
      <trkpt lat="47.12434" lon="-1.59261">
        <ele>54</ele>
        <time>2022-03-06T10:26:47Z</time>
      </trkpt>
      <trkpt lat="47.12433" lon="-1.59242">
        <ele>53</ele>
        <time>2022-03-06T10:26:49Z</time>
      </trkpt>
      <trkpt lat="47.12431" lon="-1.59223">
        <ele>53</ele>
        <time>2022-03-06T10:26:51Z</time>
      </trkpt>
      <trkpt lat="47.12427" lon="-1.59204">
        <ele>53</ele>
        <time>2022-03-06T10:26:53Z</time>
      </trkpt>
      <trkpt lat="47.12425" lon="-1.59185">
        <ele>53</ele>
        <time>2022-03-06T10:26:55Z</time>
      </trkpt>
      <trkpt lat="47.12427" lon="-1.59165">
        <ele>53</ele>
        <time>2022-03-06T10:26:57Z</time>
      </trkpt>
      <trkpt lat="47.12428" lon="-1.59146">
        <ele>52</ele>
        <time>2022-03-06T10:26:59Z</time>
      </trkpt>
      <trkpt lat="47.12429" lon="-1.59126">
        <ele>53</ele>
        <time>2022-03-06T10:27:01Z</time>
      </trkpt>
      <trkpt lat="47.12429" lon="-1.59106">
        <ele>53</ele>
        <time>2022-03-06T10:27:03Z</time>
      </trkpt>
      <trkpt lat="47.12428" lon="-1.59086">
        <ele>53</ele>
        <time>2022-03-06T10:27:05Z</time>
      </trkpt>
      <trkpt lat="47.12427" lon="-1.59067">
        <ele>53</ele>
        <time>2022-03-06T10:27:07Z</time>
      </trkpt>
      <trkpt lat="47.12426" lon="-1.59048">
        <ele>53</ele>
        <time>2022-03-06T10:27:09Z</time>
      </trkpt>
      <trkpt lat="47.12426" lon="-1.59029">
        <ele>53</ele>
        <time>2022-03-06T10:27:11Z</time>
      </trkpt>
      <trkpt lat="47.12425" lon="-1.5901">
        <ele>54</ele>
        <time>2022-03-06T10:27:13Z</time>
      </trkpt>
      <trkpt lat="47.12424" lon="-1.5899">
        <ele>54</ele>
        <time>2022-03-06T10:27:15Z</time>
      </trkpt>
      <trkpt lat="47.12422" lon="-1.58969">
        <ele>55</ele>
        <time>2022-03-06T10:27:17Z</time>
      </trkpt>
      <trkpt lat="47.1242" lon="-1.58949">
        <ele>56</ele>
        <time>2022-03-06T10:27:19Z</time>
      </trkpt>
      <trkpt lat="47.12419" lon="-1.58929">
        <ele>56</ele>
        <time>2022-03-06T10:27:21Z</time>
      </trkpt>
      <trkpt lat="47.12417" lon="-1.58909">
        <ele>57</ele>
        <time>2022-03-06T10:27:23Z</time>
      </trkpt>
      <trkpt lat="47.12415" lon="-1.58889">
        <ele>58</ele>
        <time>2022-03-06T10:27:25Z</time>
      </trkpt>
      <trkpt lat="47.12413" lon="-1.58869">
        <ele>58</ele>
        <time>2022-03-06T10:27:27Z</time>
      </trkpt>
      <trkpt lat="47.12411" lon="-1.58848">
        <ele>58</ele>
        <time>2022-03-06T10:27:29Z</time>
      </trkpt>
      <trkpt lat="47.12409" lon="-1.58828">
        <ele>58</ele>
        <time>2022-03-06T10:27:31Z</time>
      </trkpt>
      <trkpt lat="47.12406" lon="-1.58808">
        <ele>58</ele>
        <time>2022-03-06T10:27:33Z</time>
      </trkpt>
      <trkpt lat="47.12403" lon="-1.58787">
        <ele>57</ele>
        <time>2022-03-06T10:27:35Z</time>
      </trkpt>
      <trkpt lat="47.124" lon="-1.58768">
        <ele>57</ele>
        <time>2022-03-06T10:27:37Z</time>
      </trkpt>
      <trkpt lat="47.12397" lon="-1.58749">
        <ele>57</ele>
        <time>2022-03-06T10:27:39Z</time>
      </trkpt>
      <trkpt lat="47.12392" lon="-1.5873">
        <ele>57</ele>
        <time>2022-03-06T10:27:41Z</time>
      </trkpt>
      <trkpt lat="47.12388" lon="-1.5871">
        <ele>57</ele>
        <time>2022-03-06T10:27:43Z</time>
      </trkpt>
      <trkpt lat="47.12384" lon="-1.58691">
        <ele>57</ele>
        <time>2022-03-06T10:27:45Z</time>
      </trkpt>
      <trkpt lat="47.1238" lon="-1.58671">
        <ele>57</ele>
        <time>2022-03-06T10:27:47Z</time>
      </trkpt>
      <trkpt lat="47.12374" lon="-1.58652">
        <ele>57</ele>
        <time>2022-03-06T10:27:49Z</time>
      </trkpt>
      <trkpt lat="47.1237" lon="-1.58632">
        <ele>57</ele>
        <time>2022-03-06T10:27:51Z</time>
      </trkpt>
      <trkpt lat="47.12366" lon="-1.58612">
        <ele>56</ele>
        <time>2022-03-06T10:27:53Z</time>
      </trkpt>
      <trkpt lat="47.12362" lon="-1.58592">
        <ele>56</ele>
        <time>2022-03-06T10:27:55Z</time>
      </trkpt>
      <trkpt lat="47.12358" lon="-1.58572">
        <ele>56</ele>
        <time>2022-03-06T10:27:57Z</time>
      </trkpt>
      <trkpt lat="47.12353" lon="-1.58552">
        <ele>56</ele>
        <time>2022-03-06T10:27:59Z</time>
      </trkpt>
      <trkpt lat="47.12349" lon="-1.58533">
        <ele>56</ele>
        <time>2022-03-06T10:28:01Z</time>
      </trkpt>
      <trkpt lat="47.12344" lon="-1.58513">
        <ele>56</ele>
        <time>2022-03-06T10:28:03Z</time>
      </trkpt>
      <trkpt lat="47.1234" lon="-1.58493">
        <ele>55</ele>
        <time>2022-03-06T10:28:05Z</time>
      </trkpt>
      <trkpt lat="47.12335" lon="-1.58474">
        <ele>55</ele>
        <time>2022-03-06T10:28:07Z</time>
      </trkpt>
      <trkpt lat="47.1233" lon="-1.58457">
        <ele>56</ele>
        <time>2022-03-06T10:28:09Z</time>
      </trkpt>
      <trkpt lat="47.12323" lon="-1.58442">
        <ele>57</ele>
        <time>2022-03-06T10:28:11Z</time>
      </trkpt>
      <trkpt lat="47.12316" lon="-1.58427">
        <ele>57</ele>
        <time>2022-03-06T10:28:13Z</time>
      </trkpt>
      <trkpt lat="47.12308" lon="-1.58412">
        <ele>57</ele>
        <time>2022-03-06T10:28:15Z</time>
      </trkpt>
      <trkpt lat="47.12301" lon="-1.58395">
        <ele>57</ele>
        <time>2022-03-06T10:28:17Z</time>
      </trkpt>
      <trkpt lat="47.12298" lon="-1.58376">
        <ele>57</ele>
        <time>2022-03-06T10:28:19Z</time>
      </trkpt>
      <trkpt lat="47.12298" lon="-1.58355">
        <ele>57</ele>
        <time>2022-03-06T10:28:21Z</time>
      </trkpt>
      <trkpt lat="47.1229" lon="-1.58338">
        <ele>57</ele>
        <time>2022-03-06T10:28:23Z</time>
      </trkpt>
      <trkpt lat="47.12278" lon="-1.58325">
        <ele>57</ele>
        <time>2022-03-06T10:28:25Z</time>
      </trkpt>
      <trkpt lat="47.12264" lon="-1.58314">
        <ele>56</ele>
        <time>2022-03-06T10:28:27Z</time>
      </trkpt>
      <trkpt lat="47.1225" lon="-1.58302">
        <ele>54</ele>
        <time>2022-03-06T10:28:29Z</time>
      </trkpt>
      <trkpt lat="47.12238" lon="-1.5829">
        <ele>53</ele>
        <time>2022-03-06T10:28:31Z</time>
      </trkpt>
      <trkpt lat="47.12227" lon="-1.58279">
        <ele>53</ele>
        <time>2022-03-06T10:28:33Z</time>
      </trkpt>
      <trkpt lat="47.12216" lon="-1.58268">
        <ele>53</ele>
        <time>2022-03-06T10:28:35Z</time>
      </trkpt>
      <trkpt lat="47.12209" lon="-1.5826">
        <ele>53</ele>
        <time>2022-03-06T10:28:37Z</time>
      </trkpt>
      <trkpt lat="47.12201" lon="-1.58253">
        <ele>54</ele>
        <time>2022-03-06T10:28:40Z</time>
      </trkpt>
      <trkpt lat="47.12199" lon="-1.58237">
        <ele>55</ele>
        <time>2022-03-06T10:28:45Z</time>
      </trkpt>
      <trkpt lat="47.12201" lon="-1.58219">
        <ele>55</ele>
        <time>2022-03-06T10:28:47Z</time>
      </trkpt>
      <trkpt lat="47.12202" lon="-1.58201">
        <ele>56</ele>
        <time>2022-03-06T10:28:49Z</time>
      </trkpt>
      <trkpt lat="47.12204" lon="-1.58185">
        <ele>56</ele>
        <time>2022-03-06T10:28:51Z</time>
      </trkpt>
      <trkpt lat="47.12205" lon="-1.58168">
        <ele>56</ele>
        <time>2022-03-06T10:28:53Z</time>
      </trkpt>
      <trkpt lat="47.12209" lon="-1.58152">
        <ele>56</ele>
        <time>2022-03-06T10:28:55Z</time>
      </trkpt>
      <trkpt lat="47.12215" lon="-1.58136">
        <ele>55</ele>
        <time>2022-03-06T10:28:57Z</time>
      </trkpt>
      <trkpt lat="47.12221" lon="-1.58122">
        <ele>55</ele>
        <time>2022-03-06T10:28:59Z</time>
      </trkpt>
      <trkpt lat="47.12227" lon="-1.58107">
        <ele>55</ele>
        <time>2022-03-06T10:29:01Z</time>
      </trkpt>
      <trkpt lat="47.12233" lon="-1.58093">
        <ele>55</ele>
        <time>2022-03-06T10:29:03Z</time>
      </trkpt>
      <trkpt lat="47.12239" lon="-1.58077">
        <ele>55</ele>
        <time>2022-03-06T10:29:05Z</time>
      </trkpt>
      <trkpt lat="47.12244" lon="-1.58061">
        <ele>55</ele>
        <time>2022-03-06T10:29:07Z</time>
      </trkpt>
      <trkpt lat="47.12245" lon="-1.58044">
        <ele>55</ele>
        <time>2022-03-06T10:29:09Z</time>
      </trkpt>
      <trkpt lat="47.12243" lon="-1.58028">
        <ele>55</ele>
        <time>2022-03-06T10:29:11Z</time>
      </trkpt>
      <trkpt lat="47.12236" lon="-1.58013">
        <ele>55</ele>
        <time>2022-03-06T10:29:13Z</time>
      </trkpt>
      <trkpt lat="47.12228" lon="-1.57999">
        <ele>56</ele>
        <time>2022-03-06T10:29:15Z</time>
      </trkpt>
      <trkpt lat="47.1222" lon="-1.57986">
        <ele>56</ele>
        <time>2022-03-06T10:29:17Z</time>
      </trkpt>
      <trkpt lat="47.12212" lon="-1.57974">
        <ele>56</ele>
        <time>2022-03-06T10:29:19Z</time>
      </trkpt>
      <trkpt lat="47.12206" lon="-1.5796">
        <ele>56</ele>
        <time>2022-03-06T10:29:21Z</time>
      </trkpt>
      <trkpt lat="47.12199" lon="-1.57947">
        <ele>56</ele>
        <time>2022-03-06T10:29:23Z</time>
      </trkpt>
      <trkpt lat="47.12194" lon="-1.57934">
        <ele>57</ele>
        <time>2022-03-06T10:29:25Z</time>
      </trkpt>
      <trkpt lat="47.12189" lon="-1.5792">
        <ele>57</ele>
        <time>2022-03-06T10:29:27Z</time>
      </trkpt>
      <trkpt lat="47.12187" lon="-1.57904">
        <ele>57</ele>
        <time>2022-03-06T10:29:29Z</time>
      </trkpt>
      <trkpt lat="47.12184" lon="-1.57889">
        <ele>58</ele>
        <time>2022-03-06T10:29:31Z</time>
      </trkpt>
      <trkpt lat="47.12183" lon="-1.57872">
        <ele>58</ele>
        <time>2022-03-06T10:29:33Z</time>
      </trkpt>
      <trkpt lat="47.12183" lon="-1.57856">
        <ele>58</ele>
        <time>2022-03-06T10:29:35Z</time>
      </trkpt>
      <trkpt lat="47.12183" lon="-1.57841">
        <ele>59</ele>
        <time>2022-03-06T10:29:37Z</time>
      </trkpt>
      <trkpt lat="47.12183" lon="-1.57825">
        <ele>59</ele>
        <time>2022-03-06T10:29:39Z</time>
      </trkpt>
      <trkpt lat="47.12182" lon="-1.57809">
        <ele>59</ele>
        <time>2022-03-06T10:29:41Z</time>
      </trkpt>
      <trkpt lat="47.12182" lon="-1.57792">
        <ele>59</ele>
        <time>2022-03-06T10:29:43Z</time>
      </trkpt>
      <trkpt lat="47.12181" lon="-1.57776">
        <ele>59</ele>
        <time>2022-03-06T10:29:45Z</time>
      </trkpt>
      <trkpt lat="47.12182" lon="-1.5776">
        <ele>59</ele>
        <time>2022-03-06T10:29:47Z</time>
      </trkpt>
      <trkpt lat="47.12182" lon="-1.57745">
        <ele>60</ele>
        <time>2022-03-06T10:29:49Z</time>
      </trkpt>
      <trkpt lat="47.12182" lon="-1.5773">
        <ele>59</ele>
        <time>2022-03-06T10:29:51Z</time>
      </trkpt>
      <trkpt lat="47.12182" lon="-1.57713">
        <ele>60</ele>
        <time>2022-03-06T10:29:53Z</time>
      </trkpt>
      <trkpt lat="47.12182" lon="-1.57697">
        <ele>59</ele>
        <time>2022-03-06T10:29:55Z</time>
      </trkpt>
      <trkpt lat="47.12181" lon="-1.5768">
        <ele>59</ele>
        <time>2022-03-06T10:29:57Z</time>
      </trkpt>
      <trkpt lat="47.12181" lon="-1.57664">
        <ele>59</ele>
        <time>2022-03-06T10:29:59Z</time>
      </trkpt>
      <trkpt lat="47.12181" lon="-1.57647">
        <ele>59</ele>
        <time>2022-03-06T10:30:01Z</time>
      </trkpt>
      <trkpt lat="47.12181" lon="-1.5763">
        <ele>59</ele>
        <time>2022-03-06T10:30:03Z</time>
      </trkpt>
      <trkpt lat="47.12181" lon="-1.57613">
        <ele>59</ele>
        <time>2022-03-06T10:30:05Z</time>
      </trkpt>
      <trkpt lat="47.1218" lon="-1.57596">
        <ele>59</ele>
        <time>2022-03-06T10:30:07Z</time>
      </trkpt>
      <trkpt lat="47.1218" lon="-1.57579">
        <ele>59</ele>
        <time>2022-03-06T10:30:09Z</time>
      </trkpt>
      <trkpt lat="47.12179" lon="-1.57562">
        <ele>58</ele>
        <time>2022-03-06T10:30:11Z</time>
      </trkpt>
      <trkpt lat="47.12178" lon="-1.57545">
        <ele>58</ele>
        <time>2022-03-06T10:30:13Z</time>
      </trkpt>
      <trkpt lat="47.12176" lon="-1.57528">
        <ele>58</ele>
        <time>2022-03-06T10:30:15Z</time>
      </trkpt>
      <trkpt lat="47.12175" lon="-1.57512">
        <ele>58</ele>
        <time>2022-03-06T10:30:17Z</time>
      </trkpt>
      <trkpt lat="47.12172" lon="-1.57495">
        <ele>58</ele>
        <time>2022-03-06T10:30:19Z</time>
      </trkpt>
      <trkpt lat="47.12169" lon="-1.57479">
        <ele>58</ele>
        <time>2022-03-06T10:30:21Z</time>
      </trkpt>
      <trkpt lat="47.12165" lon="-1.57463">
        <ele>58</ele>
        <time>2022-03-06T10:30:23Z</time>
      </trkpt>
      <trkpt lat="47.12162" lon="-1.57447">
        <ele>58</ele>
        <time>2022-03-06T10:30:25Z</time>
      </trkpt>
      <trkpt lat="47.12159" lon="-1.57431">
        <ele>58</ele>
        <time>2022-03-06T10:30:27Z</time>
      </trkpt>
      <trkpt lat="47.12156" lon="-1.57414">
        <ele>57</ele>
        <time>2022-03-06T10:30:29Z</time>
      </trkpt>
      <trkpt lat="47.12153" lon="-1.57397">
        <ele>57</ele>
        <time>2022-03-06T10:30:31Z</time>
      </trkpt>
      <trkpt lat="47.1215" lon="-1.5738">
        <ele>57</ele>
        <time>2022-03-06T10:30:33Z</time>
      </trkpt>
      <trkpt lat="47.12147" lon="-1.57362">
        <ele>57</ele>
        <time>2022-03-06T10:30:35Z</time>
      </trkpt>
      <trkpt lat="47.12144" lon="-1.57343">
        <ele>57</ele>
        <time>2022-03-06T10:30:37Z</time>
      </trkpt>
      <trkpt lat="47.12141" lon="-1.57324">
        <ele>56</ele>
        <time>2022-03-06T10:30:39Z</time>
      </trkpt>
      <trkpt lat="47.12137" lon="-1.57306">
        <ele>56</ele>
        <time>2022-03-06T10:30:41Z</time>
      </trkpt>
      <trkpt lat="47.12132" lon="-1.57288">
        <ele>56</ele>
        <time>2022-03-06T10:30:43Z</time>
      </trkpt>
      <trkpt lat="47.12127" lon="-1.57268">
        <ele>56</ele>
        <time>2022-03-06T10:30:45Z</time>
      </trkpt>
      <trkpt lat="47.12124" lon="-1.57248">
        <ele>56</ele>
        <time>2022-03-06T10:30:47Z</time>
      </trkpt>
      <trkpt lat="47.1212" lon="-1.57229">
        <ele>55</ele>
        <time>2022-03-06T10:30:49Z</time>
      </trkpt>
      <trkpt lat="47.12116" lon="-1.57209">
        <ele>55</ele>
        <time>2022-03-06T10:30:51Z</time>
      </trkpt>
      <trkpt lat="47.12113" lon="-1.57189">
        <ele>54</ele>
        <time>2022-03-06T10:30:53Z</time>
      </trkpt>
      <trkpt lat="47.12109" lon="-1.57168">
        <ele>54</ele>
        <time>2022-03-06T10:30:55Z</time>
      </trkpt>
      <trkpt lat="47.12106" lon="-1.57146">
        <ele>54</ele>
        <time>2022-03-06T10:30:57Z</time>
      </trkpt>
      <trkpt lat="47.12102" lon="-1.57125">
        <ele>54</ele>
        <time>2022-03-06T10:30:59Z</time>
      </trkpt>
      <trkpt lat="47.12098" lon="-1.57105">
        <ele>54</ele>
        <time>2022-03-06T10:31:01Z</time>
      </trkpt>
      <trkpt lat="47.12093" lon="-1.57084">
        <ele>54</ele>
        <time>2022-03-06T10:31:03Z</time>
      </trkpt>
      <trkpt lat="47.12089" lon="-1.57063">
        <ele>54</ele>
        <time>2022-03-06T10:31:05Z</time>
      </trkpt>
      <trkpt lat="47.12085" lon="-1.57043">
        <ele>54</ele>
        <time>2022-03-06T10:31:07Z</time>
      </trkpt>
      <trkpt lat="47.12081" lon="-1.57024">
        <ele>54</ele>
        <time>2022-03-06T10:31:09Z</time>
      </trkpt>
      <trkpt lat="47.12077" lon="-1.57005">
        <ele>54</ele>
        <time>2022-03-06T10:31:11Z</time>
      </trkpt>
      <trkpt lat="47.12074" lon="-1.56985">
        <ele>54</ele>
        <time>2022-03-06T10:31:13Z</time>
      </trkpt>
      <trkpt lat="47.1207" lon="-1.56967">
        <ele>54</ele>
        <time>2022-03-06T10:31:15Z</time>
      </trkpt>
      <trkpt lat="47.12067" lon="-1.5695">
        <ele>55</ele>
        <time>2022-03-06T10:31:17Z</time>
      </trkpt>
      <trkpt lat="47.12064" lon="-1.56933">
        <ele>55</ele>
        <time>2022-03-06T10:31:19Z</time>
      </trkpt>
      <trkpt lat="47.1206" lon="-1.56917">
        <ele>56</ele>
        <time>2022-03-06T10:31:21Z</time>
      </trkpt>
      <trkpt lat="47.12057" lon="-1.56901">
        <ele>57</ele>
        <time>2022-03-06T10:31:23Z</time>
      </trkpt>
      <trkpt lat="47.12053" lon="-1.56886">
        <ele>58</ele>
        <time>2022-03-06T10:31:25Z</time>
      </trkpt>
      <trkpt lat="47.1205" lon="-1.56871">
        <ele>59</ele>
        <time>2022-03-06T10:31:27Z</time>
      </trkpt>
      <trkpt lat="47.12048" lon="-1.56854">
        <ele>58</ele>
        <time>2022-03-06T10:31:29Z</time>
      </trkpt>
      <trkpt lat="47.12045" lon="-1.56839">
        <ele>58</ele>
        <time>2022-03-06T10:31:31Z</time>
      </trkpt>
      <trkpt lat="47.12042" lon="-1.56824">
        <ele>58</ele>
        <time>2022-03-06T10:31:33Z</time>
      </trkpt>
      <trkpt lat="47.1204" lon="-1.56809">
        <ele>58</ele>
        <time>2022-03-06T10:31:35Z</time>
      </trkpt>
      <trkpt lat="47.12037" lon="-1.56794">
        <ele>58</ele>
        <time>2022-03-06T10:31:37Z</time>
      </trkpt>
      <trkpt lat="47.12034" lon="-1.56779">
        <ele>58</ele>
        <time>2022-03-06T10:31:39Z</time>
      </trkpt>
      <trkpt lat="47.12031" lon="-1.56765">
        <ele>58</ele>
        <time>2022-03-06T10:31:41Z</time>
      </trkpt>
      <trkpt lat="47.12029" lon="-1.56751">
        <ele>59</ele>
        <time>2022-03-06T10:31:43Z</time>
      </trkpt>
      <trkpt lat="47.12026" lon="-1.56736">
        <ele>59</ele>
        <time>2022-03-06T10:31:45Z</time>
      </trkpt>
      <trkpt lat="47.12023" lon="-1.56721">
        <ele>59</ele>
        <time>2022-03-06T10:31:47Z</time>
      </trkpt>
      <trkpt lat="47.1202" lon="-1.56706">
        <ele>59</ele>
        <time>2022-03-06T10:31:49Z</time>
      </trkpt>
      <trkpt lat="47.12017" lon="-1.56691">
        <ele>60</ele>
        <time>2022-03-06T10:31:51Z</time>
      </trkpt>
      <trkpt lat="47.12014" lon="-1.56676">
        <ele>60</ele>
        <time>2022-03-06T10:31:53Z</time>
      </trkpt>
      <trkpt lat="47.12012" lon="-1.56661">
        <ele>60</ele>
        <time>2022-03-06T10:31:55Z</time>
      </trkpt>
      <trkpt lat="47.12009" lon="-1.56647">
        <ele>60</ele>
        <time>2022-03-06T10:31:57Z</time>
      </trkpt>
      <trkpt lat="47.12006" lon="-1.56633">
        <ele>61</ele>
        <time>2022-03-06T10:31:59Z</time>
      </trkpt>
      <trkpt lat="47.12003" lon="-1.56618">
        <ele>61</ele>
        <time>2022-03-06T10:32:01Z</time>
      </trkpt>
      <trkpt lat="47.12" lon="-1.56603">
        <ele>61</ele>
        <time>2022-03-06T10:32:03Z</time>
      </trkpt>
      <trkpt lat="47.11997" lon="-1.56588">
        <ele>61</ele>
        <time>2022-03-06T10:32:05Z</time>
      </trkpt>
      <trkpt lat="47.11994" lon="-1.56574">
        <ele>61</ele>
        <time>2022-03-06T10:32:07Z</time>
      </trkpt>
      <trkpt lat="47.11991" lon="-1.56559">
        <ele>61</ele>
        <time>2022-03-06T10:32:09Z</time>
      </trkpt>
      <trkpt lat="47.11988" lon="-1.56544">
        <ele>61</ele>
        <time>2022-03-06T10:32:11Z</time>
      </trkpt>
      <trkpt lat="47.11983" lon="-1.56521">
        <ele>62</ele>
        <time>2022-03-06T10:32:14Z</time>
      </trkpt>
      <trkpt lat="47.11979" lon="-1.56506">
        <ele>61</ele>
        <time>2022-03-06T10:32:16Z</time>
      </trkpt>
      <trkpt lat="47.11976" lon="-1.5649">
        <ele>61</ele>
        <time>2022-03-06T10:32:18Z</time>
      </trkpt>
      <trkpt lat="47.11971" lon="-1.56475">
        <ele>62</ele>
        <time>2022-03-06T10:32:20Z</time>
      </trkpt>
      <trkpt lat="47.11967" lon="-1.56459">
        <ele>61</ele>
        <time>2022-03-06T10:32:22Z</time>
      </trkpt>
      <trkpt lat="47.11964" lon="-1.56443">
        <ele>61</ele>
        <time>2022-03-06T10:32:24Z</time>
      </trkpt>
      <trkpt lat="47.11959" lon="-1.56427">
        <ele>61</ele>
        <time>2022-03-06T10:32:26Z</time>
      </trkpt>
      <trkpt lat="47.11955" lon="-1.56411">
        <ele>61</ele>
        <time>2022-03-06T10:32:28Z</time>
      </trkpt>
      <trkpt lat="47.11949" lon="-1.56386">
        <ele>61</ele>
        <time>2022-03-06T10:32:31Z</time>
      </trkpt>
      <trkpt lat="47.11945" lon="-1.5637">
        <ele>61</ele>
        <time>2022-03-06T10:32:33Z</time>
      </trkpt>
      <trkpt lat="47.1194" lon="-1.56354">
        <ele>61</ele>
        <time>2022-03-06T10:32:35Z</time>
      </trkpt>
      <trkpt lat="47.11936" lon="-1.56338">
        <ele>61</ele>
        <time>2022-03-06T10:32:37Z</time>
      </trkpt>
      <trkpt lat="47.11932" lon="-1.56322">
        <ele>60</ele>
        <time>2022-03-06T10:32:39Z</time>
      </trkpt>
      <trkpt lat="47.11928" lon="-1.56305">
        <ele>60</ele>
        <time>2022-03-06T10:32:41Z</time>
      </trkpt>
      <trkpt lat="47.11924" lon="-1.56289">
        <ele>60</ele>
        <time>2022-03-06T10:32:43Z</time>
      </trkpt>
      <trkpt lat="47.1192" lon="-1.56273">
        <ele>60</ele>
        <time>2022-03-06T10:32:45Z</time>
      </trkpt>
      <trkpt lat="47.11916" lon="-1.56256">
        <ele>60</ele>
        <time>2022-03-06T10:32:47Z</time>
      </trkpt>
      <trkpt lat="47.11911" lon="-1.5624">
        <ele>60</ele>
        <time>2022-03-06T10:32:49Z</time>
      </trkpt>
      <trkpt lat="47.11907" lon="-1.56223">
        <ele>60</ele>
        <time>2022-03-06T10:32:51Z</time>
      </trkpt>
      <trkpt lat="47.11903" lon="-1.56206">
        <ele>60</ele>
        <time>2022-03-06T10:32:53Z</time>
      </trkpt>
      <trkpt lat="47.11896" lon="-1.56181">
        <ele>60</ele>
        <time>2022-03-06T10:32:56Z</time>
      </trkpt>
      <trkpt lat="47.11892" lon="-1.56165">
        <ele>60</ele>
        <time>2022-03-06T10:32:58Z</time>
      </trkpt>
      <trkpt lat="47.11887" lon="-1.56148">
        <ele>60</ele>
        <time>2022-03-06T10:33:00Z</time>
      </trkpt>
      <trkpt lat="47.11883" lon="-1.56131">
        <ele>60</ele>
        <time>2022-03-06T10:33:02Z</time>
      </trkpt>
      <trkpt lat="47.11879" lon="-1.56115">
        <ele>60</ele>
        <time>2022-03-06T10:33:04Z</time>
      </trkpt>
      <trkpt lat="47.11876" lon="-1.56099">
        <ele>61</ele>
        <time>2022-03-06T10:33:06Z</time>
      </trkpt>
      <trkpt lat="47.11873" lon="-1.56083">
        <ele>60</ele>
        <time>2022-03-06T10:33:08Z</time>
      </trkpt>
      <trkpt lat="47.1187" lon="-1.56067">
        <ele>60</ele>
        <time>2022-03-06T10:33:10Z</time>
      </trkpt>
      <trkpt lat="47.11867" lon="-1.5605">
        <ele>61</ele>
        <time>2022-03-06T10:33:12Z</time>
      </trkpt>
      <trkpt lat="47.11865" lon="-1.56033">
        <ele>61</ele>
        <time>2022-03-06T10:33:14Z</time>
      </trkpt>
      <trkpt lat="47.11862" lon="-1.56017">
        <ele>61</ele>
        <time>2022-03-06T10:33:16Z</time>
      </trkpt>
      <trkpt lat="47.11861" lon="-1.56001">
        <ele>61</ele>
        <time>2022-03-06T10:33:18Z</time>
      </trkpt>
      <trkpt lat="47.11859" lon="-1.55984">
        <ele>61</ele>
        <time>2022-03-06T10:33:20Z</time>
      </trkpt>
      <trkpt lat="47.11858" lon="-1.55968">
        <ele>62</ele>
        <time>2022-03-06T10:33:22Z</time>
      </trkpt>
      <trkpt lat="47.11856" lon="-1.55951">
        <ele>62</ele>
        <time>2022-03-06T10:33:24Z</time>
      </trkpt>
      <trkpt lat="47.11855" lon="-1.55935">
        <ele>62</ele>
        <time>2022-03-06T10:33:26Z</time>
      </trkpt>
      <trkpt lat="47.11854" lon="-1.55919">
        <ele>62</ele>
        <time>2022-03-06T10:33:28Z</time>
      </trkpt>
      <trkpt lat="47.11853" lon="-1.55902">
        <ele>62</ele>
        <time>2022-03-06T10:33:30Z</time>
      </trkpt>
      <trkpt lat="47.11852" lon="-1.55885">
        <ele>62</ele>
        <time>2022-03-06T10:33:32Z</time>
      </trkpt>
      <trkpt lat="47.1185" lon="-1.55869">
        <ele>63</ele>
        <time>2022-03-06T10:33:34Z</time>
      </trkpt>
      <trkpt lat="47.11849" lon="-1.55852">
        <ele>63</ele>
        <time>2022-03-06T10:33:36Z</time>
      </trkpt>
      <trkpt lat="47.11848" lon="-1.55836">
        <ele>62</ele>
        <time>2022-03-06T10:33:38Z</time>
      </trkpt>
      <trkpt lat="47.11847" lon="-1.55819">
        <ele>63</ele>
        <time>2022-03-06T10:33:40Z</time>
      </trkpt>
      <trkpt lat="47.11846" lon="-1.55803">
        <ele>63</ele>
        <time>2022-03-06T10:33:42Z</time>
      </trkpt>
      <trkpt lat="47.11844" lon="-1.55786">
        <ele>63</ele>
        <time>2022-03-06T10:33:44Z</time>
      </trkpt>
      <trkpt lat="47.11843" lon="-1.55769">
        <ele>63</ele>
        <time>2022-03-06T10:33:46Z</time>
      </trkpt>
      <trkpt lat="47.11842" lon="-1.55753">
        <ele>63</ele>
        <time>2022-03-06T10:33:48Z</time>
      </trkpt>
      <trkpt lat="47.1184" lon="-1.55736">
        <ele>63</ele>
        <time>2022-03-06T10:33:50Z</time>
      </trkpt>
      <trkpt lat="47.11839" lon="-1.55719">
        <ele>63</ele>
        <time>2022-03-06T10:33:52Z</time>
      </trkpt>
      <trkpt lat="47.11838" lon="-1.55702">
        <ele>63</ele>
        <time>2022-03-06T10:33:54Z</time>
      </trkpt>
      <trkpt lat="47.11837" lon="-1.55686">
        <ele>63</ele>
        <time>2022-03-06T10:33:56Z</time>
      </trkpt>
      <trkpt lat="47.11835" lon="-1.55669">
        <ele>64</ele>
        <time>2022-03-06T10:33:58Z</time>
      </trkpt>
      <trkpt lat="47.11834" lon="-1.55653">
        <ele>64</ele>
        <time>2022-03-06T10:34:00Z</time>
      </trkpt>
      <trkpt lat="47.11833" lon="-1.55636">
        <ele>64</ele>
        <time>2022-03-06T10:34:02Z</time>
      </trkpt>
      <trkpt lat="47.11831" lon="-1.55619">
        <ele>64</ele>
        <time>2022-03-06T10:34:04Z</time>
      </trkpt>
      <trkpt lat="47.1183" lon="-1.55601">
        <ele>64</ele>
        <time>2022-03-06T10:34:06Z</time>
      </trkpt>
      <trkpt lat="47.11829" lon="-1.55584">
        <ele>64</ele>
        <time>2022-03-06T10:34:08Z</time>
      </trkpt>
      <trkpt lat="47.11828" lon="-1.55567">
        <ele>64</ele>
        <time>2022-03-06T10:34:10Z</time>
      </trkpt>
      <trkpt lat="47.11826" lon="-1.55551">
        <ele>64</ele>
        <time>2022-03-06T10:34:12Z</time>
      </trkpt>
      <trkpt lat="47.11825" lon="-1.55534">
        <ele>64</ele>
        <time>2022-03-06T10:34:14Z</time>
      </trkpt>
      <trkpt lat="47.11825" lon="-1.55517">
        <ele>64</ele>
        <time>2022-03-06T10:34:16Z</time>
      </trkpt>
      <trkpt lat="47.11823" lon="-1.55501">
        <ele>64</ele>
        <time>2022-03-06T10:34:18Z</time>
      </trkpt>
      <trkpt lat="47.11822" lon="-1.55484">
        <ele>64</ele>
        <time>2022-03-06T10:34:20Z</time>
      </trkpt>
      <trkpt lat="47.1182" lon="-1.55467">
        <ele>64</ele>
        <time>2022-03-06T10:34:22Z</time>
      </trkpt>
      <trkpt lat="47.1182" lon="-1.5545">
        <ele>64</ele>
        <time>2022-03-06T10:34:24Z</time>
      </trkpt>
      <trkpt lat="47.11819" lon="-1.55433">
        <ele>64</ele>
        <time>2022-03-06T10:34:26Z</time>
      </trkpt>
      <trkpt lat="47.11818" lon="-1.55416">
        <ele>64</ele>
        <time>2022-03-06T10:34:28Z</time>
      </trkpt>
      <trkpt lat="47.11818" lon="-1.554">
        <ele>64</ele>
        <time>2022-03-06T10:34:30Z</time>
      </trkpt>
      <trkpt lat="47.11817" lon="-1.55383">
        <ele>64</ele>
        <time>2022-03-06T10:34:32Z</time>
      </trkpt>
      <trkpt lat="47.11817" lon="-1.55367">
        <ele>65</ele>
        <time>2022-03-06T10:34:34Z</time>
      </trkpt>
      <trkpt lat="47.11817" lon="-1.55351">
        <ele>65</ele>
        <time>2022-03-06T10:34:36Z</time>
      </trkpt>
      <trkpt lat="47.11817" lon="-1.55334">
        <ele>65</ele>
        <time>2022-03-06T10:34:38Z</time>
      </trkpt>
      <trkpt lat="47.11817" lon="-1.55317">
        <ele>65</ele>
        <time>2022-03-06T10:34:40Z</time>
      </trkpt>
      <trkpt lat="47.11817" lon="-1.553">
        <ele>65</ele>
        <time>2022-03-06T10:34:42Z</time>
      </trkpt>
      <trkpt lat="47.11816" lon="-1.55283">
        <ele>65</ele>
        <time>2022-03-06T10:34:44Z</time>
      </trkpt>
      <trkpt lat="47.11816" lon="-1.55267">
        <ele>65</ele>
        <time>2022-03-06T10:34:46Z</time>
      </trkpt>
      <trkpt lat="47.11815" lon="-1.5525">
        <ele>65</ele>
        <time>2022-03-06T10:34:48Z</time>
      </trkpt>
      <trkpt lat="47.11815" lon="-1.55234">
        <ele>65</ele>
        <time>2022-03-06T10:34:50Z</time>
      </trkpt>
      <trkpt lat="47.11814" lon="-1.55216">
        <ele>65</ele>
        <time>2022-03-06T10:34:52Z</time>
      </trkpt>
      <trkpt lat="47.11814" lon="-1.55199">
        <ele>65</ele>
        <time>2022-03-06T10:34:54Z</time>
      </trkpt>
      <trkpt lat="47.11813" lon="-1.55182">
        <ele>65</ele>
        <time>2022-03-06T10:34:56Z</time>
      </trkpt>
      <trkpt lat="47.11812" lon="-1.55166">
        <ele>65</ele>
        <time>2022-03-06T10:34:58Z</time>
      </trkpt>
      <trkpt lat="47.11812" lon="-1.55149">
        <ele>65</ele>
        <time>2022-03-06T10:35:00Z</time>
      </trkpt>
      <trkpt lat="47.1181" lon="-1.55132">
        <ele>65</ele>
        <time>2022-03-06T10:35:02Z</time>
      </trkpt>
      <trkpt lat="47.11809" lon="-1.55116">
        <ele>65</ele>
        <time>2022-03-06T10:35:04Z</time>
      </trkpt>
      <trkpt lat="47.11807" lon="-1.55099">
        <ele>65</ele>
        <time>2022-03-06T10:35:06Z</time>
      </trkpt>
      <trkpt lat="47.11805" lon="-1.55082">
        <ele>65</ele>
        <time>2022-03-06T10:35:08Z</time>
      </trkpt>
      <trkpt lat="47.11803" lon="-1.55065">
        <ele>65</ele>
        <time>2022-03-06T10:35:10Z</time>
      </trkpt>
      <trkpt lat="47.118" lon="-1.55048">
        <ele>65</ele>
        <time>2022-03-06T10:35:12Z</time>
      </trkpt>
      <trkpt lat="47.11797" lon="-1.55031">
        <ele>65</ele>
        <time>2022-03-06T10:35:14Z</time>
      </trkpt>
      <trkpt lat="47.11794" lon="-1.55014">
        <ele>65</ele>
        <time>2022-03-06T10:35:16Z</time>
      </trkpt>
      <trkpt lat="47.11791" lon="-1.54997">
        <ele>65</ele>
        <time>2022-03-06T10:35:18Z</time>
      </trkpt>
      <trkpt lat="47.11787" lon="-1.54981">
        <ele>65</ele>
        <time>2022-03-06T10:35:20Z</time>
      </trkpt>
      <trkpt lat="47.11784" lon="-1.54964">
        <ele>65</ele>
        <time>2022-03-06T10:35:22Z</time>
      </trkpt>
      <trkpt lat="47.1178" lon="-1.54948">
        <ele>65</ele>
        <time>2022-03-06T10:35:24Z</time>
      </trkpt>
      <trkpt lat="47.11776" lon="-1.54932">
        <ele>65</ele>
        <time>2022-03-06T10:35:26Z</time>
      </trkpt>
      <trkpt lat="47.11771" lon="-1.54916">
        <ele>65</ele>
        <time>2022-03-06T10:35:28Z</time>
      </trkpt>
      <trkpt lat="47.11767" lon="-1.549">
        <ele>65</ele>
        <time>2022-03-06T10:35:30Z</time>
      </trkpt>
      <trkpt lat="47.11762" lon="-1.54884">
        <ele>66</ele>
        <time>2022-03-06T10:35:32Z</time>
      </trkpt>
      <trkpt lat="47.11757" lon="-1.54868">
        <ele>66</ele>
        <time>2022-03-06T10:35:34Z</time>
      </trkpt>
      <trkpt lat="47.11752" lon="-1.54853">
        <ele>66</ele>
        <time>2022-03-06T10:35:36Z</time>
      </trkpt>
      <trkpt lat="47.11748" lon="-1.54837">
        <ele>66</ele>
        <time>2022-03-06T10:35:38Z</time>
      </trkpt>
      <trkpt lat="47.11743" lon="-1.54821">
        <ele>66</ele>
        <time>2022-03-06T10:35:40Z</time>
      </trkpt>
      <trkpt lat="47.11738" lon="-1.54805">
        <ele>66</ele>
        <time>2022-03-06T10:35:42Z</time>
      </trkpt>
      <trkpt lat="47.11733" lon="-1.54789">
        <ele>66</ele>
        <time>2022-03-06T10:35:44Z</time>
      </trkpt>
      <trkpt lat="47.11729" lon="-1.54773">
        <ele>66</ele>
        <time>2022-03-06T10:35:46Z</time>
      </trkpt>
      <trkpt lat="47.11724" lon="-1.54757">
        <ele>66</ele>
        <time>2022-03-06T10:35:48Z</time>
      </trkpt>
      <trkpt lat="47.11719" lon="-1.54741">
        <ele>66</ele>
        <time>2022-03-06T10:35:50Z</time>
      </trkpt>
      <trkpt lat="47.11714" lon="-1.54725">
        <ele>66</ele>
        <time>2022-03-06T10:35:52Z</time>
      </trkpt>
      <trkpt lat="47.11709" lon="-1.54709">
        <ele>66</ele>
        <time>2022-03-06T10:35:54Z</time>
      </trkpt>
      <trkpt lat="47.11704" lon="-1.54694">
        <ele>67</ele>
        <time>2022-03-06T10:35:56Z</time>
      </trkpt>
      <trkpt lat="47.11699" lon="-1.54678">
        <ele>67</ele>
        <time>2022-03-06T10:35:58Z</time>
      </trkpt>
      <trkpt lat="47.11695" lon="-1.54662">
        <ele>67</ele>
        <time>2022-03-06T10:36:00Z</time>
      </trkpt>
      <trkpt lat="47.1169" lon="-1.54647">
        <ele>67</ele>
        <time>2022-03-06T10:36:02Z</time>
      </trkpt>
      <trkpt lat="47.11685" lon="-1.54631">
        <ele>67</ele>
        <time>2022-03-06T10:36:04Z</time>
      </trkpt>
      <trkpt lat="47.1168" lon="-1.54616">
        <ele>67</ele>
        <time>2022-03-06T10:36:06Z</time>
      </trkpt>
      <trkpt lat="47.11676" lon="-1.54601">
        <ele>67</ele>
        <time>2022-03-06T10:36:08Z</time>
      </trkpt>
      <trkpt lat="47.11671" lon="-1.54585">
        <ele>67</ele>
        <time>2022-03-06T10:36:10Z</time>
      </trkpt>
      <trkpt lat="47.11666" lon="-1.5457">
        <ele>68</ele>
        <time>2022-03-06T10:36:12Z</time>
      </trkpt>
      <trkpt lat="47.11661" lon="-1.54555">
        <ele>68</ele>
        <time>2022-03-06T10:36:14Z</time>
      </trkpt>
      <trkpt lat="47.11655" lon="-1.5454">
        <ele>68</ele>
        <time>2022-03-06T10:36:16Z</time>
      </trkpt>
      <trkpt lat="47.1165" lon="-1.54524">
        <ele>68</ele>
        <time>2022-03-06T10:36:18Z</time>
      </trkpt>
      <trkpt lat="47.11645" lon="-1.54509">
        <ele>68</ele>
        <time>2022-03-06T10:36:20Z</time>
      </trkpt>
      <trkpt lat="47.1164" lon="-1.54493">
        <ele>68</ele>
        <time>2022-03-06T10:36:22Z</time>
      </trkpt>
      <trkpt lat="47.11635" lon="-1.54478">
        <ele>68</ele>
        <time>2022-03-06T10:36:24Z</time>
      </trkpt>
      <trkpt lat="47.1163" lon="-1.54462">
        <ele>68</ele>
        <time>2022-03-06T10:36:26Z</time>
      </trkpt>
      <trkpt lat="47.11625" lon="-1.54447">
        <ele>68</ele>
        <time>2022-03-06T10:36:28Z</time>
      </trkpt>
      <trkpt lat="47.1162" lon="-1.54432">
        <ele>68</ele>
        <time>2022-03-06T10:36:30Z</time>
      </trkpt>
      <trkpt lat="47.11615" lon="-1.54416">
        <ele>68</ele>
        <time>2022-03-06T10:36:32Z</time>
      </trkpt>
      <trkpt lat="47.1161" lon="-1.54401">
        <ele>68</ele>
        <time>2022-03-06T10:36:34Z</time>
      </trkpt>
      <trkpt lat="47.11604" lon="-1.54386">
        <ele>68</ele>
        <time>2022-03-06T10:36:36Z</time>
      </trkpt>
      <trkpt lat="47.11599" lon="-1.54371">
        <ele>68</ele>
        <time>2022-03-06T10:36:38Z</time>
      </trkpt>
      <trkpt lat="47.11594" lon="-1.54355">
        <ele>68</ele>
        <time>2022-03-06T10:36:40Z</time>
      </trkpt>
      <trkpt lat="47.11589" lon="-1.5434">
        <ele>68</ele>
        <time>2022-03-06T10:36:42Z</time>
      </trkpt>
      <trkpt lat="47.11583" lon="-1.54325">
        <ele>68</ele>
        <time>2022-03-06T10:36:44Z</time>
      </trkpt>
      <trkpt lat="47.11578" lon="-1.5431">
        <ele>69</ele>
        <time>2022-03-06T10:36:46Z</time>
      </trkpt>
      <trkpt lat="47.11573" lon="-1.54296">
        <ele>68</ele>
        <time>2022-03-06T10:36:48Z</time>
      </trkpt>
      <trkpt lat="47.11568" lon="-1.54282">
        <ele>68</ele>
        <time>2022-03-06T10:36:50Z</time>
      </trkpt>
      <trkpt lat="47.11563" lon="-1.54269">
        <ele>68</ele>
        <time>2022-03-06T10:36:52Z</time>
      </trkpt>
      <trkpt lat="47.11569" lon="-1.54252">
        <ele>69</ele>
        <time>2022-03-06T10:36:55Z</time>
      </trkpt>
      <trkpt lat="47.11579" lon="-1.54245">
        <ele>69</ele>
        <time>2022-03-06T10:36:57Z</time>
      </trkpt>
      <trkpt lat="47.1159" lon="-1.54238">
        <ele>70</ele>
        <time>2022-03-06T10:36:59Z</time>
      </trkpt>
      <trkpt lat="47.11599" lon="-1.5423">
        <ele>70</ele>
        <time>2022-03-06T10:37:01Z</time>
      </trkpt>
      <trkpt lat="47.1161" lon="-1.54223">
        <ele>70</ele>
        <time>2022-03-06T10:37:03Z</time>
      </trkpt>
      <trkpt lat="47.1162" lon="-1.54216">
        <ele>71</ele>
        <time>2022-03-06T10:37:05Z</time>
      </trkpt>
      <trkpt lat="47.11629" lon="-1.54207">
        <ele>71</ele>
        <time>2022-03-06T10:37:07Z</time>
      </trkpt>
      <trkpt lat="47.11636" lon="-1.54197">
        <ele>71</ele>
        <time>2022-03-06T10:37:09Z</time>
      </trkpt>
      <trkpt lat="47.11642" lon="-1.54184">
        <ele>71</ele>
        <time>2022-03-06T10:37:11Z</time>
      </trkpt>
      <trkpt lat="47.11646" lon="-1.5417">
        <ele>72</ele>
        <time>2022-03-06T10:37:13Z</time>
      </trkpt>
      <trkpt lat="47.11652" lon="-1.54155">
        <ele>71</ele>
        <time>2022-03-06T10:37:15Z</time>
      </trkpt>
      <trkpt lat="47.11663" lon="-1.54147">
        <ele>71</ele>
        <time>2022-03-06T10:37:17Z</time>
      </trkpt>
      <trkpt lat="47.11674" lon="-1.54141">
        <ele>71</ele>
        <time>2022-03-06T10:37:19Z</time>
      </trkpt>
      <trkpt lat="47.11684" lon="-1.54132">
        <ele>71</ele>
        <time>2022-03-06T10:37:21Z</time>
      </trkpt>
      <trkpt lat="47.11692" lon="-1.54122">
        <ele>71</ele>
        <time>2022-03-06T10:37:23Z</time>
      </trkpt>
      <trkpt lat="47.11699" lon="-1.54109">
        <ele>72</ele>
        <time>2022-03-06T10:37:25Z</time>
      </trkpt>
      <trkpt lat="47.11705" lon="-1.54096">
        <ele>72</ele>
        <time>2022-03-06T10:37:27Z</time>
      </trkpt>
      <trkpt lat="47.11711" lon="-1.54082">
        <ele>72</ele>
        <time>2022-03-06T10:37:29Z</time>
      </trkpt>
      <trkpt lat="47.11716" lon="-1.54068">
        <ele>72</ele>
        <time>2022-03-06T10:37:31Z</time>
      </trkpt>
      <trkpt lat="47.11722" lon="-1.54054">
        <ele>72</ele>
        <time>2022-03-06T10:37:33Z</time>
      </trkpt>
      <trkpt lat="47.11728" lon="-1.54041">
        <ele>72</ele>
        <time>2022-03-06T10:37:35Z</time>
      </trkpt>
      <trkpt lat="47.11734" lon="-1.54027">
        <ele>72</ele>
        <time>2022-03-06T10:37:37Z</time>
      </trkpt>
      <trkpt lat="47.11739" lon="-1.54014">
        <ele>73</ele>
        <time>2022-03-06T10:37:39Z</time>
      </trkpt>
      <trkpt lat="47.11746" lon="-1.54">
        <ele>72</ele>
        <time>2022-03-06T10:37:41Z</time>
      </trkpt>
      <trkpt lat="47.11751" lon="-1.53985">
        <ele>72</ele>
        <time>2022-03-06T10:37:43Z</time>
      </trkpt>
      <trkpt lat="47.11757" lon="-1.5397">
        <ele>72</ele>
        <time>2022-03-06T10:37:45Z</time>
      </trkpt>
      <trkpt lat="47.11762" lon="-1.53955">
        <ele>71</ele>
        <time>2022-03-06T10:37:47Z</time>
      </trkpt>
      <trkpt lat="47.11768" lon="-1.5394">
        <ele>71</ele>
        <time>2022-03-06T10:37:49Z</time>
      </trkpt>
      <trkpt lat="47.11774" lon="-1.53924">
        <ele>70</ele>
        <time>2022-03-06T10:37:51Z</time>
      </trkpt>
      <trkpt lat="47.11781" lon="-1.53909">
        <ele>70</ele>
        <time>2022-03-06T10:37:53Z</time>
      </trkpt>
      <trkpt lat="47.11788" lon="-1.53894">
        <ele>70</ele>
        <time>2022-03-06T10:37:55Z</time>
      </trkpt>
      <trkpt lat="47.11796" lon="-1.5388">
        <ele>69</ele>
        <time>2022-03-06T10:37:57Z</time>
      </trkpt>
      <trkpt lat="47.11804" lon="-1.53865">
        <ele>69</ele>
        <time>2022-03-06T10:37:59Z</time>
      </trkpt>
      <trkpt lat="47.11812" lon="-1.53851">
        <ele>69</ele>
        <time>2022-03-06T10:38:01Z</time>
      </trkpt>
      <trkpt lat="47.11821" lon="-1.53838">
        <ele>68</ele>
        <time>2022-03-06T10:38:03Z</time>
      </trkpt>
      <trkpt lat="47.11829" lon="-1.53822">
        <ele>68</ele>
        <time>2022-03-06T10:38:05Z</time>
      </trkpt>
      <trkpt lat="47.11837" lon="-1.53807">
        <ele>68</ele>
        <time>2022-03-06T10:38:07Z</time>
      </trkpt>
      <trkpt lat="47.11845" lon="-1.53791">
        <ele>67</ele>
        <time>2022-03-06T10:38:09Z</time>
      </trkpt>
      <trkpt lat="47.11851" lon="-1.53775">
        <ele>68</ele>
        <time>2022-03-06T10:38:11Z</time>
      </trkpt>
      <trkpt lat="47.11858" lon="-1.53759">
        <ele>67</ele>
        <time>2022-03-06T10:38:13Z</time>
      </trkpt>
      <trkpt lat="47.11864" lon="-1.53743">
        <ele>66</ele>
        <time>2022-03-06T10:38:15Z</time>
      </trkpt>
      <trkpt lat="47.1187" lon="-1.53725">
        <ele>66</ele>
        <time>2022-03-06T10:38:17Z</time>
      </trkpt>
      <trkpt lat="47.11877" lon="-1.53708">
        <ele>65</ele>
        <time>2022-03-06T10:38:19Z</time>
      </trkpt>
      <trkpt lat="47.11884" lon="-1.53693">
        <ele>65</ele>
        <time>2022-03-06T10:38:21Z</time>
      </trkpt>
      <trkpt lat="47.11892" lon="-1.53678">
        <ele>65</ele>
        <time>2022-03-06T10:38:23Z</time>
      </trkpt>
      <trkpt lat="47.11899" lon="-1.53664">
        <ele>65</ele>
        <time>2022-03-06T10:38:25Z</time>
      </trkpt>
      <trkpt lat="47.11907" lon="-1.53649">
        <ele>65</ele>
        <time>2022-03-06T10:38:27Z</time>
      </trkpt>
      <trkpt lat="47.11914" lon="-1.53635">
        <ele>64</ele>
        <time>2022-03-06T10:38:29Z</time>
      </trkpt>
      <trkpt lat="47.11922" lon="-1.53621">
        <ele>64</ele>
        <time>2022-03-06T10:38:31Z</time>
      </trkpt>
      <trkpt lat="47.11929" lon="-1.53607">
        <ele>63</ele>
        <time>2022-03-06T10:38:33Z</time>
      </trkpt>
      <trkpt lat="47.11937" lon="-1.53593">
        <ele>63</ele>
        <time>2022-03-06T10:38:35Z</time>
      </trkpt>
      <trkpt lat="47.11945" lon="-1.53578">
        <ele>63</ele>
        <time>2022-03-06T10:38:37Z</time>
      </trkpt>
      <trkpt lat="47.11953" lon="-1.53564">
        <ele>62</ele>
        <time>2022-03-06T10:38:39Z</time>
      </trkpt>
      <trkpt lat="47.11961" lon="-1.53549">
        <ele>62</ele>
        <time>2022-03-06T10:38:41Z</time>
      </trkpt>
      <trkpt lat="47.11969" lon="-1.53534">
        <ele>61</ele>
        <time>2022-03-06T10:38:43Z</time>
      </trkpt>
      <trkpt lat="47.11977" lon="-1.53519">
        <ele>61</ele>
        <time>2022-03-06T10:38:45Z</time>
      </trkpt>
      <trkpt lat="47.11984" lon="-1.53504">
        <ele>60</ele>
        <time>2022-03-06T10:38:47Z</time>
      </trkpt>
      <trkpt lat="47.11992" lon="-1.53488">
        <ele>60</ele>
        <time>2022-03-06T10:38:49Z</time>
      </trkpt>
      <trkpt lat="47.12" lon="-1.53474">
        <ele>60</ele>
        <time>2022-03-06T10:38:51Z</time>
      </trkpt>
      <trkpt lat="47.12008" lon="-1.53459">
        <ele>60</ele>
        <time>2022-03-06T10:38:53Z</time>
      </trkpt>
      <trkpt lat="47.12016" lon="-1.53444">
        <ele>59</ele>
        <time>2022-03-06T10:38:55Z</time>
      </trkpt>
      <trkpt lat="47.12024" lon="-1.5343">
        <ele>59</ele>
        <time>2022-03-06T10:38:57Z</time>
      </trkpt>
      <trkpt lat="47.12032" lon="-1.53415">
        <ele>59</ele>
        <time>2022-03-06T10:38:59Z</time>
      </trkpt>
      <trkpt lat="47.12039" lon="-1.534">
        <ele>59</ele>
        <time>2022-03-06T10:39:01Z</time>
      </trkpt>
      <trkpt lat="47.12047" lon="-1.53385">
        <ele>59</ele>
        <time>2022-03-06T10:39:03Z</time>
      </trkpt>
      <trkpt lat="47.12055" lon="-1.53371">
        <ele>58</ele>
        <time>2022-03-06T10:39:05Z</time>
      </trkpt>
      <trkpt lat="47.12063" lon="-1.53356">
        <ele>58</ele>
        <time>2022-03-06T10:39:07Z</time>
      </trkpt>
      <trkpt lat="47.12071" lon="-1.53341">
        <ele>58</ele>
        <time>2022-03-06T10:39:09Z</time>
      </trkpt>
      <trkpt lat="47.12079" lon="-1.53326">
        <ele>58</ele>
        <time>2022-03-06T10:39:11Z</time>
      </trkpt>
      <trkpt lat="47.12086" lon="-1.53311">
        <ele>57</ele>
        <time>2022-03-06T10:39:13Z</time>
      </trkpt>
      <trkpt lat="47.12094" lon="-1.53297">
        <ele>57</ele>
        <time>2022-03-06T10:39:15Z</time>
      </trkpt>
      <trkpt lat="47.12102" lon="-1.53282">
        <ele>57</ele>
        <time>2022-03-06T10:39:17Z</time>
      </trkpt>
      <trkpt lat="47.1211" lon="-1.53266">
        <ele>56</ele>
        <time>2022-03-06T10:39:19Z</time>
      </trkpt>
      <trkpt lat="47.12119" lon="-1.53251">
        <ele>56</ele>
        <time>2022-03-06T10:39:21Z</time>
      </trkpt>
      <trkpt lat="47.12126" lon="-1.53236">
        <ele>55</ele>
        <time>2022-03-06T10:39:23Z</time>
      </trkpt>
      <trkpt lat="47.12134" lon="-1.53221">
        <ele>55</ele>
        <time>2022-03-06T10:39:25Z</time>
      </trkpt>
      <trkpt lat="47.12142" lon="-1.53206">
        <ele>55</ele>
        <time>2022-03-06T10:39:27Z</time>
      </trkpt>
      <trkpt lat="47.12149" lon="-1.53192">
        <ele>56</ele>
        <time>2022-03-06T10:39:29Z</time>
      </trkpt>
      <trkpt lat="47.12157" lon="-1.53177">
        <ele>56</ele>
        <time>2022-03-06T10:39:31Z</time>
      </trkpt>
      <trkpt lat="47.12164" lon="-1.53162">
        <ele>56</ele>
        <time>2022-03-06T10:39:33Z</time>
      </trkpt>
      <trkpt lat="47.12172" lon="-1.53149">
        <ele>56</ele>
        <time>2022-03-06T10:39:35Z</time>
      </trkpt>
      <trkpt lat="47.12179" lon="-1.53135">
        <ele>56</ele>
        <time>2022-03-06T10:39:37Z</time>
      </trkpt>
      <trkpt lat="47.12186" lon="-1.53121">
        <ele>57</ele>
        <time>2022-03-06T10:39:39Z</time>
      </trkpt>
      <trkpt lat="47.12193" lon="-1.53108">
        <ele>56</ele>
        <time>2022-03-06T10:39:41Z</time>
      </trkpt>
      <trkpt lat="47.122" lon="-1.53095">
        <ele>56</ele>
        <time>2022-03-06T10:39:43Z</time>
      </trkpt>
      <trkpt lat="47.12207" lon="-1.53082">
        <ele>56</ele>
        <time>2022-03-06T10:39:45Z</time>
      </trkpt>
      <trkpt lat="47.12214" lon="-1.53069">
        <ele>57</ele>
        <time>2022-03-06T10:39:47Z</time>
      </trkpt>
      <trkpt lat="47.12221" lon="-1.53057">
        <ele>57</ele>
        <time>2022-03-06T10:39:49Z</time>
      </trkpt>
      <trkpt lat="47.12227" lon="-1.53044">
        <ele>57</ele>
        <time>2022-03-06T10:39:51Z</time>
      </trkpt>
      <trkpt lat="47.12234" lon="-1.53032">
        <ele>57</ele>
        <time>2022-03-06T10:39:53Z</time>
      </trkpt>
      <trkpt lat="47.1224" lon="-1.5302">
        <ele>58</ele>
        <time>2022-03-06T10:39:55Z</time>
      </trkpt>
      <trkpt lat="47.12247" lon="-1.53008">
        <ele>58</ele>
        <time>2022-03-06T10:39:57Z</time>
      </trkpt>
      <trkpt lat="47.12254" lon="-1.52995">
        <ele>58</ele>
        <time>2022-03-06T10:39:59Z</time>
      </trkpt>
      <trkpt lat="47.1226" lon="-1.52984">
        <ele>58</ele>
        <time>2022-03-06T10:40:01Z</time>
      </trkpt>
      <trkpt lat="47.12266" lon="-1.52972">
        <ele>58</ele>
        <time>2022-03-06T10:40:03Z</time>
      </trkpt>
      <trkpt lat="47.12273" lon="-1.5296">
        <ele>58</ele>
        <time>2022-03-06T10:40:05Z</time>
      </trkpt>
      <trkpt lat="47.12279" lon="-1.52948">
        <ele>59</ele>
        <time>2022-03-06T10:40:07Z</time>
      </trkpt>
      <trkpt lat="47.12285" lon="-1.52937">
        <ele>59</ele>
        <time>2022-03-06T10:40:09Z</time>
      </trkpt>
      <trkpt lat="47.12291" lon="-1.52925">
        <ele>59</ele>
        <time>2022-03-06T10:40:11Z</time>
      </trkpt>
      <trkpt lat="47.12297" lon="-1.52915">
        <ele>59</ele>
        <time>2022-03-06T10:40:13Z</time>
      </trkpt>
      <trkpt lat="47.12303" lon="-1.52904">
        <ele>60</ele>
        <time>2022-03-06T10:40:15Z</time>
      </trkpt>
      <trkpt lat="47.12309" lon="-1.52894">
        <ele>60</ele>
        <time>2022-03-06T10:40:17Z</time>
      </trkpt>
      <trkpt lat="47.12315" lon="-1.52884">
        <ele>60</ele>
        <time>2022-03-06T10:40:19Z</time>
      </trkpt>
      <trkpt lat="47.12322" lon="-1.52874">
        <ele>60</ele>
        <time>2022-03-06T10:40:21Z</time>
      </trkpt>
      <trkpt lat="47.12328" lon="-1.52864">
        <ele>61</ele>
        <time>2022-03-06T10:40:23Z</time>
      </trkpt>
      <trkpt lat="47.12335" lon="-1.52854">
        <ele>61</ele>
        <time>2022-03-06T10:40:25Z</time>
      </trkpt>
      <trkpt lat="47.12342" lon="-1.52845">
        <ele>61</ele>
        <time>2022-03-06T10:40:27Z</time>
      </trkpt>
      <trkpt lat="47.12349" lon="-1.52837">
        <ele>61</ele>
        <time>2022-03-06T10:40:29Z</time>
      </trkpt>
      <trkpt lat="47.12357" lon="-1.52829">
        <ele>61</ele>
        <time>2022-03-06T10:40:31Z</time>
      </trkpt>
      <trkpt lat="47.12365" lon="-1.52821">
        <ele>62</ele>
        <time>2022-03-06T10:40:33Z</time>
      </trkpt>
      <trkpt lat="47.12375" lon="-1.5281">
        <ele>62</ele>
        <time>2022-03-06T10:40:36Z</time>
      </trkpt>
      <trkpt lat="47.12383" lon="-1.52803">
        <ele>63</ele>
        <time>2022-03-06T10:40:38Z</time>
      </trkpt>
      <trkpt lat="47.12391" lon="-1.52795">
        <ele>63</ele>
        <time>2022-03-06T10:40:40Z</time>
      </trkpt>
      <trkpt lat="47.12399" lon="-1.52788">
        <ele>64</ele>
        <time>2022-03-06T10:40:42Z</time>
      </trkpt>
      <trkpt lat="47.12406" lon="-1.5278">
        <ele>64</ele>
        <time>2022-03-06T10:40:44Z</time>
      </trkpt>
      <trkpt lat="47.12414" lon="-1.52772">
        <ele>65</ele>
        <time>2022-03-06T10:40:46Z</time>
      </trkpt>
      <trkpt lat="47.12422" lon="-1.52763">
        <ele>65</ele>
        <time>2022-03-06T10:40:48Z</time>
      </trkpt>
      <trkpt lat="47.1243" lon="-1.52755">
        <ele>65</ele>
        <time>2022-03-06T10:40:50Z</time>
      </trkpt>
      <trkpt lat="47.12439" lon="-1.52748">
        <ele>65</ele>
        <time>2022-03-06T10:40:52Z</time>
      </trkpt>
      <trkpt lat="47.12448" lon="-1.52742">
        <ele>66</ele>
        <time>2022-03-06T10:40:54Z</time>
      </trkpt>
      <trkpt lat="47.12457" lon="-1.52737">
        <ele>66</ele>
        <time>2022-03-06T10:40:56Z</time>
      </trkpt>
      <trkpt lat="47.12466" lon="-1.52733">
        <ele>66</ele>
        <time>2022-03-06T10:40:58Z</time>
      </trkpt>
      <trkpt lat="47.12476" lon="-1.52729">
        <ele>67</ele>
        <time>2022-03-06T10:41:00Z</time>
      </trkpt>
      <trkpt lat="47.12486" lon="-1.52727">
        <ele>67</ele>
        <time>2022-03-06T10:41:02Z</time>
      </trkpt>
      <trkpt lat="47.12495" lon="-1.52725">
        <ele>68</ele>
        <time>2022-03-06T10:41:04Z</time>
      </trkpt>
      <trkpt lat="47.12507" lon="-1.5272">
        <ele>69</ele>
        <time>2022-03-06T10:41:07Z</time>
      </trkpt>
      <trkpt lat="47.12512" lon="-1.52706">
        <ele>70</ele>
        <time>2022-03-06T10:41:11Z</time>
      </trkpt>
      <trkpt lat="47.12522" lon="-1.527">
        <ele>70</ele>
        <time>2022-03-06T10:41:14Z</time>
      </trkpt>
      <trkpt lat="47.12531" lon="-1.52704">
        <ele>70</ele>
        <time>2022-03-06T10:41:16Z</time>
      </trkpt>
      <trkpt lat="47.12542" lon="-1.52711">
        <ele>70</ele>
        <time>2022-03-06T10:41:18Z</time>
      </trkpt>
      <trkpt lat="47.12552" lon="-1.52718">
        <ele>70</ele>
        <time>2022-03-06T10:41:20Z</time>
      </trkpt>
      <trkpt lat="47.12563" lon="-1.52727">
        <ele>69</ele>
        <time>2022-03-06T10:41:22Z</time>
      </trkpt>
      <trkpt lat="47.12574" lon="-1.52737">
        <ele>69</ele>
        <time>2022-03-06T10:41:24Z</time>
      </trkpt>
      <trkpt lat="47.12584" lon="-1.52749">
        <ele>69</ele>
        <time>2022-03-06T10:41:26Z</time>
      </trkpt>
      <trkpt lat="47.12594" lon="-1.5276">
        <ele>69</ele>
        <time>2022-03-06T10:41:28Z</time>
      </trkpt>
      <trkpt lat="47.12603" lon="-1.52771">
        <ele>69</ele>
        <time>2022-03-06T10:41:30Z</time>
      </trkpt>
      <trkpt lat="47.12612" lon="-1.52782">
        <ele>69</ele>
        <time>2022-03-06T10:41:32Z</time>
      </trkpt>
      <trkpt lat="47.12621" lon="-1.52794">
        <ele>69</ele>
        <time>2022-03-06T10:41:34Z</time>
      </trkpt>
      <trkpt lat="47.12631" lon="-1.52805">
        <ele>69</ele>
        <time>2022-03-06T10:41:36Z</time>
      </trkpt>
      <trkpt lat="47.1264" lon="-1.52817">
        <ele>69</ele>
        <time>2022-03-06T10:41:38Z</time>
      </trkpt>
      <trkpt lat="47.12649" lon="-1.52829">
        <ele>69</ele>
        <time>2022-03-06T10:41:40Z</time>
      </trkpt>
      <trkpt lat="47.12659" lon="-1.52841">
        <ele>68</ele>
        <time>2022-03-06T10:41:42Z</time>
      </trkpt>
      <trkpt lat="47.12668" lon="-1.52852">
        <ele>68</ele>
        <time>2022-03-06T10:41:44Z</time>
      </trkpt>
      <trkpt lat="47.12677" lon="-1.52863">
        <ele>69</ele>
        <time>2022-03-06T10:41:46Z</time>
      </trkpt>
      <trkpt lat="47.12687" lon="-1.52875">
        <ele>68</ele>
        <time>2022-03-06T10:41:48Z</time>
      </trkpt>
      <trkpt lat="47.12696" lon="-1.52887">
        <ele>68</ele>
        <time>2022-03-06T10:41:50Z</time>
      </trkpt>
      <trkpt lat="47.12706" lon="-1.52899">
        <ele>68</ele>
        <time>2022-03-06T10:41:52Z</time>
      </trkpt>
      <trkpt lat="47.12716" lon="-1.52912">
        <ele>68</ele>
        <time>2022-03-06T10:41:54Z</time>
      </trkpt>
      <trkpt lat="47.12725" lon="-1.52923">
        <ele>68</ele>
        <time>2022-03-06T10:41:56Z</time>
      </trkpt>
      <trkpt lat="47.12735" lon="-1.52936">
        <ele>68</ele>
        <time>2022-03-06T10:41:58Z</time>
      </trkpt>
      <trkpt lat="47.12745" lon="-1.52947">
        <ele>68</ele>
        <time>2022-03-06T10:42:00Z</time>
      </trkpt>
      <trkpt lat="47.12754" lon="-1.52959">
        <ele>68</ele>
        <time>2022-03-06T10:42:02Z</time>
      </trkpt>
      <trkpt lat="47.12764" lon="-1.52972">
        <ele>68</ele>
        <time>2022-03-06T10:42:04Z</time>
      </trkpt>
      <trkpt lat="47.12774" lon="-1.52984">
        <ele>68</ele>
        <time>2022-03-06T10:42:06Z</time>
      </trkpt>
      <trkpt lat="47.12784" lon="-1.52996">
        <ele>68</ele>
        <time>2022-03-06T10:42:08Z</time>
      </trkpt>
      <trkpt lat="47.12793" lon="-1.53008">
        <ele>69</ele>
        <time>2022-03-06T10:42:10Z</time>
      </trkpt>
      <trkpt lat="47.12803" lon="-1.53021">
        <ele>69</ele>
        <time>2022-03-06T10:42:12Z</time>
      </trkpt>
      <trkpt lat="47.12812" lon="-1.53032">
        <ele>69</ele>
        <time>2022-03-06T10:42:14Z</time>
      </trkpt>
      <trkpt lat="47.12821" lon="-1.53044">
        <ele>69</ele>
        <time>2022-03-06T10:42:16Z</time>
      </trkpt>
      <trkpt lat="47.12831" lon="-1.53056">
        <ele>69</ele>
        <time>2022-03-06T10:42:18Z</time>
      </trkpt>
      <trkpt lat="47.1284" lon="-1.53067">
        <ele>69</ele>
        <time>2022-03-06T10:42:20Z</time>
      </trkpt>
      <trkpt lat="47.12849" lon="-1.53078">
        <ele>69</ele>
        <time>2022-03-06T10:42:22Z</time>
      </trkpt>
      <trkpt lat="47.12858" lon="-1.5309">
        <ele>69</ele>
        <time>2022-03-06T10:42:24Z</time>
      </trkpt>
      <trkpt lat="47.12867" lon="-1.53102">
        <ele>70</ele>
        <time>2022-03-06T10:42:26Z</time>
      </trkpt>
      <trkpt lat="47.12877" lon="-1.53114">
        <ele>70</ele>
        <time>2022-03-06T10:42:28Z</time>
      </trkpt>
      <trkpt lat="47.1289" lon="-1.53131">
        <ele>70</ele>
        <time>2022-03-06T10:42:31Z</time>
      </trkpt>
      <trkpt lat="47.129" lon="-1.53143">
        <ele>70</ele>
        <time>2022-03-06T10:42:33Z</time>
      </trkpt>
      <trkpt lat="47.12909" lon="-1.53154">
        <ele>71</ele>
        <time>2022-03-06T10:42:35Z</time>
      </trkpt>
      <trkpt lat="47.12918" lon="-1.53165">
        <ele>71</ele>
        <time>2022-03-06T10:42:37Z</time>
      </trkpt>
      <trkpt lat="47.12927" lon="-1.53177">
        <ele>71</ele>
        <time>2022-03-06T10:42:39Z</time>
      </trkpt>
      <trkpt lat="47.12936" lon="-1.53187">
        <ele>70</ele>
        <time>2022-03-06T10:42:41Z</time>
      </trkpt>
      <trkpt lat="47.12945" lon="-1.53198">
        <ele>70</ele>
        <time>2022-03-06T10:42:43Z</time>
      </trkpt>
      <trkpt lat="47.12954" lon="-1.53209">
        <ele>70</ele>
        <time>2022-03-06T10:42:45Z</time>
      </trkpt>
      <trkpt lat="47.12964" lon="-1.53218">
        <ele>70</ele>
        <time>2022-03-06T10:42:47Z</time>
      </trkpt>
      <trkpt lat="47.12974" lon="-1.53227">
        <ele>70</ele>
        <time>2022-03-06T10:42:49Z</time>
      </trkpt>
      <trkpt lat="47.12984" lon="-1.53236">
        <ele>70</ele>
        <time>2022-03-06T10:42:51Z</time>
      </trkpt>
      <trkpt lat="47.12994" lon="-1.53244">
        <ele>70</ele>
        <time>2022-03-06T10:42:53Z</time>
      </trkpt>
      <trkpt lat="47.13005" lon="-1.53251">
        <ele>70</ele>
        <time>2022-03-06T10:42:55Z</time>
      </trkpt>
      <trkpt lat="47.13017" lon="-1.53255">
        <ele>70</ele>
        <time>2022-03-06T10:42:57Z</time>
      </trkpt>
      <trkpt lat="47.13029" lon="-1.53258">
        <ele>70</ele>
        <time>2022-03-06T10:42:59Z</time>
      </trkpt>
      <trkpt lat="47.1304" lon="-1.53257">
        <ele>71</ele>
        <time>2022-03-06T10:43:01Z</time>
      </trkpt>
      <trkpt lat="47.13051" lon="-1.53255">
        <ele>71</ele>
        <time>2022-03-06T10:43:03Z</time>
      </trkpt>
      <trkpt lat="47.13062" lon="-1.53252">
        <ele>71</ele>
        <time>2022-03-06T10:43:05Z</time>
      </trkpt>
      <trkpt lat="47.13073" lon="-1.53248">
        <ele>72</ele>
        <time>2022-03-06T10:43:07Z</time>
      </trkpt>
      <trkpt lat="47.13085" lon="-1.53243">
        <ele>72</ele>
        <time>2022-03-06T10:43:09Z</time>
      </trkpt>
      <trkpt lat="47.13096" lon="-1.53238">
        <ele>72</ele>
        <time>2022-03-06T10:43:11Z</time>
      </trkpt>
      <trkpt lat="47.13108" lon="-1.53234">
        <ele>73</ele>
        <time>2022-03-06T10:43:13Z</time>
      </trkpt>
      <trkpt lat="47.13119" lon="-1.53229">
        <ele>73</ele>
        <time>2022-03-06T10:43:15Z</time>
      </trkpt>
      <trkpt lat="47.1313" lon="-1.53224">
        <ele>73</ele>
        <time>2022-03-06T10:43:17Z</time>
      </trkpt>
      <trkpt lat="47.13141" lon="-1.5322">
        <ele>73</ele>
        <time>2022-03-06T10:43:19Z</time>
      </trkpt>
      <trkpt lat="47.13152" lon="-1.53216">
        <ele>73</ele>
        <time>2022-03-06T10:43:21Z</time>
      </trkpt>
      <trkpt lat="47.13163" lon="-1.53212">
        <ele>73</ele>
        <time>2022-03-06T10:43:23Z</time>
      </trkpt>
      <trkpt lat="47.13174" lon="-1.53208">
        <ele>73</ele>
        <time>2022-03-06T10:43:25Z</time>
      </trkpt>
      <trkpt lat="47.13185" lon="-1.53204">
        <ele>73</ele>
        <time>2022-03-06T10:43:27Z</time>
      </trkpt>
      <trkpt lat="47.13196" lon="-1.532">
        <ele>73</ele>
        <time>2022-03-06T10:43:29Z</time>
      </trkpt>
      <trkpt lat="47.13207" lon="-1.53195">
        <ele>73</ele>
        <time>2022-03-06T10:43:31Z</time>
      </trkpt>
      <trkpt lat="47.13218" lon="-1.53191">
        <ele>74</ele>
        <time>2022-03-06T10:43:33Z</time>
      </trkpt>
      <trkpt lat="47.13229" lon="-1.53187">
        <ele>74</ele>
        <time>2022-03-06T10:43:35Z</time>
      </trkpt>
      <trkpt lat="47.1324" lon="-1.53182">
        <ele>74</ele>
        <time>2022-03-06T10:43:37Z</time>
      </trkpt>
      <trkpt lat="47.13251" lon="-1.53178">
        <ele>74</ele>
        <time>2022-03-06T10:43:39Z</time>
      </trkpt>
      <trkpt lat="47.13261" lon="-1.53174">
        <ele>74</ele>
        <time>2022-03-06T10:43:41Z</time>
      </trkpt>
      <trkpt lat="47.13271" lon="-1.5317">
        <ele>74</ele>
        <time>2022-03-06T10:43:43Z</time>
      </trkpt>
      <trkpt lat="47.13282" lon="-1.53165">
        <ele>74</ele>
        <time>2022-03-06T10:43:45Z</time>
      </trkpt>
      <trkpt lat="47.13292" lon="-1.53159">
        <ele>75</ele>
        <time>2022-03-06T10:43:47Z</time>
      </trkpt>
      <trkpt lat="47.13302" lon="-1.53154">
        <ele>75</ele>
        <time>2022-03-06T10:43:49Z</time>
      </trkpt>
      <trkpt lat="47.13312" lon="-1.53151">
        <ele>76</ele>
        <time>2022-03-06T10:43:51Z</time>
      </trkpt>
      <trkpt lat="47.13324" lon="-1.53149">
        <ele>76</ele>
        <time>2022-03-06T10:43:53Z</time>
      </trkpt>
      <trkpt lat="47.13334" lon="-1.53146">
        <ele>76</ele>
        <time>2022-03-06T10:43:55Z</time>
      </trkpt>
      <trkpt lat="47.13346" lon="-1.53142">
        <ele>76</ele>
        <time>2022-03-06T10:43:57Z</time>
      </trkpt>
      <trkpt lat="47.13358" lon="-1.5314">
        <ele>76</ele>
        <time>2022-03-06T10:43:59Z</time>
      </trkpt>
      <trkpt lat="47.13369" lon="-1.53138">
        <ele>77</ele>
        <time>2022-03-06T10:44:01Z</time>
      </trkpt>
      <trkpt lat="47.13381" lon="-1.53136">
        <ele>76</ele>
        <time>2022-03-06T10:44:03Z</time>
      </trkpt>
      <trkpt lat="47.13391" lon="-1.53136">
        <ele>77</ele>
        <time>2022-03-06T10:44:05Z</time>
      </trkpt>
      <trkpt lat="47.13402" lon="-1.53137">
        <ele>77</ele>
        <time>2022-03-06T10:44:07Z</time>
      </trkpt>
      <trkpt lat="47.13413" lon="-1.53137">
        <ele>77</ele>
        <time>2022-03-06T10:44:09Z</time>
      </trkpt>
      <trkpt lat="47.13422" lon="-1.53133">
        <ele>77</ele>
        <time>2022-03-06T10:44:11Z</time>
      </trkpt>
      <trkpt lat="47.13434" lon="-1.53124">
        <ele>77</ele>
        <time>2022-03-06T10:44:14Z</time>
      </trkpt>
      <trkpt lat="47.13439" lon="-1.5311">
        <ele>77</ele>
        <time>2022-03-06T10:44:16Z</time>
      </trkpt>
      <trkpt lat="47.13445" lon="-1.53096">
        <ele>77</ele>
        <time>2022-03-06T10:44:18Z</time>
      </trkpt>
      <trkpt lat="47.13451" lon="-1.53082">
        <ele>77</ele>
        <time>2022-03-06T10:44:20Z</time>
      </trkpt>
      <trkpt lat="47.13457" lon="-1.53067">
        <ele>77</ele>
        <time>2022-03-06T10:44:22Z</time>
      </trkpt>
      <trkpt lat="47.13463" lon="-1.53054">
        <ele>77</ele>
        <time>2022-03-06T10:44:24Z</time>
      </trkpt>
      <trkpt lat="47.1347" lon="-1.5304">
        <ele>78</ele>
        <time>2022-03-06T10:44:26Z</time>
      </trkpt>
      <trkpt lat="47.13476" lon="-1.53027">
        <ele>78</ele>
        <time>2022-03-06T10:44:28Z</time>
      </trkpt>
      <trkpt lat="47.13482" lon="-1.53013">
        <ele>78</ele>
        <time>2022-03-06T10:44:30Z</time>
      </trkpt>
      <trkpt lat="47.13489" lon="-1.53">
        <ele>78</ele>
        <time>2022-03-06T10:44:32Z</time>
      </trkpt>
      <trkpt lat="47.13495" lon="-1.52986">
        <ele>78</ele>
        <time>2022-03-06T10:44:34Z</time>
      </trkpt>
      <trkpt lat="47.13501" lon="-1.52973">
        <ele>78</ele>
        <time>2022-03-06T10:44:36Z</time>
      </trkpt>
      <trkpt lat="47.13508" lon="-1.52959">
        <ele>78</ele>
        <time>2022-03-06T10:44:38Z</time>
      </trkpt>
      <trkpt lat="47.13514" lon="-1.52945">
        <ele>78</ele>
        <time>2022-03-06T10:44:40Z</time>
      </trkpt>
      <trkpt lat="47.13519" lon="-1.52932">
        <ele>78</ele>
        <time>2022-03-06T10:44:42Z</time>
      </trkpt>
      <trkpt lat="47.13525" lon="-1.52918">
        <ele>78</ele>
        <time>2022-03-06T10:44:44Z</time>
      </trkpt>
      <trkpt lat="47.13531" lon="-1.52904">
        <ele>79</ele>
        <time>2022-03-06T10:44:46Z</time>
      </trkpt>
      <trkpt lat="47.13537" lon="-1.52891">
        <ele>79</ele>
        <time>2022-03-06T10:44:48Z</time>
      </trkpt>
      <trkpt lat="47.13544" lon="-1.52877">
        <ele>78</ele>
        <time>2022-03-06T10:44:50Z</time>
      </trkpt>
      <trkpt lat="47.1355" lon="-1.52864">
        <ele>78</ele>
        <time>2022-03-06T10:44:52Z</time>
      </trkpt>
      <trkpt lat="47.13557" lon="-1.5285">
        <ele>78</ele>
        <time>2022-03-06T10:44:54Z</time>
      </trkpt>
      <trkpt lat="47.13564" lon="-1.52836">
        <ele>78</ele>
        <time>2022-03-06T10:44:56Z</time>
      </trkpt>
      <trkpt lat="47.13571" lon="-1.5282">
        <ele>78</ele>
        <time>2022-03-06T10:44:58Z</time>
      </trkpt>
      <trkpt lat="47.13578" lon="-1.52804">
        <ele>78</ele>
        <time>2022-03-06T10:45:00Z</time>
      </trkpt>
      <trkpt lat="47.13585" lon="-1.52789">
        <ele>79</ele>
        <time>2022-03-06T10:45:02Z</time>
      </trkpt>
      <trkpt lat="47.13592" lon="-1.52773">
        <ele>79</ele>
        <time>2022-03-06T10:45:04Z</time>
      </trkpt>
      <trkpt lat="47.136" lon="-1.52759">
        <ele>79</ele>
        <time>2022-03-06T10:45:06Z</time>
      </trkpt>
      <trkpt lat="47.13608" lon="-1.52744">
        <ele>79</ele>
        <time>2022-03-06T10:45:08Z</time>
      </trkpt>
      <trkpt lat="47.13617" lon="-1.52729">
        <ele>79</ele>
        <time>2022-03-06T10:45:10Z</time>
      </trkpt>
      <trkpt lat="47.13626" lon="-1.52714">
        <ele>79</ele>
        <time>2022-03-06T10:45:12Z</time>
      </trkpt>
      <trkpt lat="47.13634" lon="-1.527">
        <ele>80</ele>
        <time>2022-03-06T10:45:14Z</time>
      </trkpt>
      <trkpt lat="47.13643" lon="-1.52686">
        <ele>80</ele>
        <time>2022-03-06T10:45:16Z</time>
      </trkpt>
      <trkpt lat="47.13651" lon="-1.52672">
        <ele>80</ele>
        <time>2022-03-06T10:45:18Z</time>
      </trkpt>
      <trkpt lat="47.1366" lon="-1.52658">
        <ele>81</ele>
        <time>2022-03-06T10:45:20Z</time>
      </trkpt>
      <trkpt lat="47.13668" lon="-1.52644">
        <ele>81</ele>
        <time>2022-03-06T10:45:22Z</time>
      </trkpt>
      <trkpt lat="47.13676" lon="-1.5263">
        <ele>81</ele>
        <time>2022-03-06T10:45:24Z</time>
      </trkpt>
      <trkpt lat="47.13686" lon="-1.52616">
        <ele>81</ele>
        <time>2022-03-06T10:45:26Z</time>
      </trkpt>
      <trkpt lat="47.13695" lon="-1.52602">
        <ele>81</ele>
        <time>2022-03-06T10:45:28Z</time>
      </trkpt>
      <trkpt lat="47.13703" lon="-1.52588">
        <ele>81</ele>
        <time>2022-03-06T10:45:30Z</time>
      </trkpt>
      <trkpt lat="47.13712" lon="-1.52574">
        <ele>81</ele>
        <time>2022-03-06T10:45:32Z</time>
      </trkpt>
      <trkpt lat="47.13721" lon="-1.52559">
        <ele>81</ele>
        <time>2022-03-06T10:45:34Z</time>
      </trkpt>
      <trkpt lat="47.1373" lon="-1.52545">
        <ele>82</ele>
        <time>2022-03-06T10:45:36Z</time>
      </trkpt>
      <trkpt lat="47.13738" lon="-1.52531">
        <ele>81</ele>
        <time>2022-03-06T10:45:38Z</time>
      </trkpt>
      <trkpt lat="47.13747" lon="-1.52516">
        <ele>81</ele>
        <time>2022-03-06T10:45:40Z</time>
      </trkpt>
      <trkpt lat="47.13756" lon="-1.52502">
        <ele>81</ele>
        <time>2022-03-06T10:45:42Z</time>
      </trkpt>
      <trkpt lat="47.13765" lon="-1.52489">
        <ele>81</ele>
        <time>2022-03-06T10:45:44Z</time>
      </trkpt>
      <trkpt lat="47.13774" lon="-1.52475">
        <ele>81</ele>
        <time>2022-03-06T10:45:46Z</time>
      </trkpt>
      <trkpt lat="47.13783" lon="-1.52462">
        <ele>81</ele>
        <time>2022-03-06T10:45:48Z</time>
      </trkpt>
      <trkpt lat="47.13792" lon="-1.52447">
        <ele>81</ele>
        <time>2022-03-06T10:45:50Z</time>
      </trkpt>
      <trkpt lat="47.13802" lon="-1.52434">
        <ele>81</ele>
        <time>2022-03-06T10:45:52Z</time>
      </trkpt>
      <trkpt lat="47.13811" lon="-1.5242">
        <ele>81</ele>
        <time>2022-03-06T10:45:54Z</time>
      </trkpt>
      <trkpt lat="47.1382" lon="-1.52406">
        <ele>81</ele>
        <time>2022-03-06T10:45:56Z</time>
      </trkpt>
      <trkpt lat="47.13828" lon="-1.52393">
        <ele>81</ele>
        <time>2022-03-06T10:45:58Z</time>
      </trkpt>
      <trkpt lat="47.13838" lon="-1.5238">
        <ele>80</ele>
        <time>2022-03-06T10:46:00Z</time>
      </trkpt>
      <trkpt lat="47.13846" lon="-1.52366">
        <ele>80</ele>
        <time>2022-03-06T10:46:02Z</time>
      </trkpt>
      <trkpt lat="47.13855" lon="-1.52352">
        <ele>80</ele>
        <time>2022-03-06T10:46:04Z</time>
      </trkpt>
      <trkpt lat="47.13861" lon="-1.52336">
        <ele>80</ele>
        <time>2022-03-06T10:46:06Z</time>
      </trkpt>
      <trkpt lat="47.13866" lon="-1.5232">
        <ele>80</ele>
        <time>2022-03-06T10:46:08Z</time>
      </trkpt>
      <trkpt lat="47.13875" lon="-1.52309">
        <ele>80</ele>
        <time>2022-03-06T10:46:10Z</time>
      </trkpt>
      <trkpt lat="47.13886" lon="-1.52301">
        <ele>80</ele>
        <time>2022-03-06T10:46:12Z</time>
      </trkpt>
      <trkpt lat="47.13897" lon="-1.52291">
        <ele>80</ele>
        <time>2022-03-06T10:46:14Z</time>
      </trkpt>
      <trkpt lat="47.13906" lon="-1.52278">
        <ele>81</ele>
        <time>2022-03-06T10:46:16Z</time>
      </trkpt>
      <trkpt lat="47.13914" lon="-1.52266">
        <ele>81</ele>
        <time>2022-03-06T10:46:18Z</time>
      </trkpt>
      <trkpt lat="47.13922" lon="-1.52252">
        <ele>81</ele>
        <time>2022-03-06T10:46:20Z</time>
      </trkpt>
      <trkpt lat="47.13931" lon="-1.5224">
        <ele>81</ele>
        <time>2022-03-06T10:46:22Z</time>
      </trkpt>
      <trkpt lat="47.1394" lon="-1.52228">
        <ele>81</ele>
        <time>2022-03-06T10:46:24Z</time>
      </trkpt>
      <trkpt lat="47.13948" lon="-1.52216">
        <ele>81</ele>
        <time>2022-03-06T10:46:26Z</time>
      </trkpt>
      <trkpt lat="47.13958" lon="-1.52204">
        <ele>81</ele>
        <time>2022-03-06T10:46:28Z</time>
      </trkpt>
      <trkpt lat="47.13967" lon="-1.52192">
        <ele>81</ele>
        <time>2022-03-06T10:46:30Z</time>
      </trkpt>
      <trkpt lat="47.13975" lon="-1.5218">
        <ele>81</ele>
        <time>2022-03-06T10:46:32Z</time>
      </trkpt>
      <trkpt lat="47.13984" lon="-1.52168">
        <ele>81</ele>
        <time>2022-03-06T10:46:34Z</time>
      </trkpt>
      <trkpt lat="47.13993" lon="-1.52158">
        <ele>81</ele>
        <time>2022-03-06T10:46:36Z</time>
      </trkpt>
      <trkpt lat="47.14003" lon="-1.52149">
        <ele>81</ele>
        <time>2022-03-06T10:46:38Z</time>
      </trkpt>
      <trkpt lat="47.14012" lon="-1.5214">
        <ele>81</ele>
        <time>2022-03-06T10:46:40Z</time>
      </trkpt>
      <trkpt lat="47.1402" lon="-1.52129">
        <ele>81</ele>
        <time>2022-03-06T10:46:42Z</time>
      </trkpt>
      <trkpt lat="47.14026" lon="-1.52116">
        <ele>82</ele>
        <time>2022-03-06T10:46:45Z</time>
      </trkpt>
      <trkpt lat="47.14033" lon="-1.52105">
        <ele>82</ele>
        <time>2022-03-06T10:46:49Z</time>
      </trkpt>
      <trkpt lat="47.14044" lon="-1.52095">
        <ele>82</ele>
        <time>2022-03-06T10:46:52Z</time>
      </trkpt>
      <trkpt lat="47.14054" lon="-1.52088">
        <ele>83</ele>
        <time>2022-03-06T10:46:54Z</time>
      </trkpt>
      <trkpt lat="47.14065" lon="-1.52078">
        <ele>82</ele>
        <time>2022-03-06T10:46:56Z</time>
      </trkpt>
      <trkpt lat="47.14075" lon="-1.52066">
        <ele>82</ele>
        <time>2022-03-06T10:46:58Z</time>
      </trkpt>
      <trkpt lat="47.14084" lon="-1.52054">
        <ele>82</ele>
        <time>2022-03-06T10:47:00Z</time>
      </trkpt>
      <trkpt lat="47.14095" lon="-1.52044">
        <ele>82</ele>
        <time>2022-03-06T10:47:02Z</time>
      </trkpt>
      <trkpt lat="47.14106" lon="-1.52034">
        <ele>82</ele>
        <time>2022-03-06T10:47:04Z</time>
      </trkpt>
      <trkpt lat="47.14116" lon="-1.52024">
        <ele>82</ele>
        <time>2022-03-06T10:47:06Z</time>
      </trkpt>
      <trkpt lat="47.14127" lon="-1.52015">
        <ele>82</ele>
        <time>2022-03-06T10:47:08Z</time>
      </trkpt>
      <trkpt lat="47.14137" lon="-1.52005">
        <ele>82</ele>
        <time>2022-03-06T10:47:10Z</time>
      </trkpt>
      <trkpt lat="47.14148" lon="-1.51995">
        <ele>82</ele>
        <time>2022-03-06T10:47:12Z</time>
      </trkpt>
      <trkpt lat="47.14158" lon="-1.51986">
        <ele>82</ele>
        <time>2022-03-06T10:47:14Z</time>
      </trkpt>
      <trkpt lat="47.14168" lon="-1.51976">
        <ele>82</ele>
        <time>2022-03-06T10:47:16Z</time>
      </trkpt>
      <trkpt lat="47.14178" lon="-1.51966">
        <ele>83</ele>
        <time>2022-03-06T10:47:18Z</time>
      </trkpt>
      <trkpt lat="47.14188" lon="-1.51956">
        <ele>83</ele>
        <time>2022-03-06T10:47:20Z</time>
      </trkpt>
      <trkpt lat="47.14198" lon="-1.51947">
        <ele>83</ele>
        <time>2022-03-06T10:47:22Z</time>
      </trkpt>
      <trkpt lat="47.14208" lon="-1.51936">
        <ele>83</ele>
        <time>2022-03-06T10:47:24Z</time>
      </trkpt>
      <trkpt lat="47.14218" lon="-1.51927">
        <ele>84</ele>
        <time>2022-03-06T10:47:26Z</time>
      </trkpt>
      <trkpt lat="47.14228" lon="-1.51917">
        <ele>84</ele>
        <time>2022-03-06T10:47:28Z</time>
      </trkpt>
      <trkpt lat="47.14238" lon="-1.51907">
        <ele>84</ele>
        <time>2022-03-06T10:47:30Z</time>
      </trkpt>
      <trkpt lat="47.14248" lon="-1.51896">
        <ele>83</ele>
        <time>2022-03-06T10:47:32Z</time>
      </trkpt>
      <trkpt lat="47.14259" lon="-1.51886">
        <ele>83</ele>
        <time>2022-03-06T10:47:34Z</time>
      </trkpt>
      <trkpt lat="47.1427" lon="-1.51876">
        <ele>83</ele>
        <time>2022-03-06T10:47:36Z</time>
      </trkpt>
      <trkpt lat="47.1428" lon="-1.51866">
        <ele>83</ele>
        <time>2022-03-06T10:47:38Z</time>
      </trkpt>
      <trkpt lat="47.14289" lon="-1.51856">
        <ele>83</ele>
        <time>2022-03-06T10:47:40Z</time>
      </trkpt>
      <trkpt lat="47.14299" lon="-1.51846">
        <ele>83</ele>
        <time>2022-03-06T10:47:42Z</time>
      </trkpt>
      <trkpt lat="47.14309" lon="-1.51836">
        <ele>83</ele>
        <time>2022-03-06T10:47:44Z</time>
      </trkpt>
      <trkpt lat="47.14318" lon="-1.51825">
        <ele>83</ele>
        <time>2022-03-06T10:47:46Z</time>
      </trkpt>
      <trkpt lat="47.14328" lon="-1.51815">
        <ele>83</ele>
        <time>2022-03-06T10:47:48Z</time>
      </trkpt>
      <trkpt lat="47.14338" lon="-1.51805">
        <ele>82</ele>
        <time>2022-03-06T10:47:50Z</time>
      </trkpt>
      <trkpt lat="47.14347" lon="-1.51795">
        <ele>82</ele>
        <time>2022-03-06T10:47:52Z</time>
      </trkpt>
      <trkpt lat="47.14357" lon="-1.51785">
        <ele>82</ele>
        <time>2022-03-06T10:47:54Z</time>
      </trkpt>
      <trkpt lat="47.14367" lon="-1.51774">
        <ele>83</ele>
        <time>2022-03-06T10:47:56Z</time>
      </trkpt>
      <trkpt lat="47.14377" lon="-1.51764">
        <ele>82</ele>
        <time>2022-03-06T10:47:58Z</time>
      </trkpt>
      <trkpt lat="47.14387" lon="-1.51754">
        <ele>82</ele>
        <time>2022-03-06T10:48:00Z</time>
      </trkpt>
      <trkpt lat="47.14397" lon="-1.51744">
        <ele>82</ele>
        <time>2022-03-06T10:48:02Z</time>
      </trkpt>
      <trkpt lat="47.14407" lon="-1.51733">
        <ele>82</ele>
        <time>2022-03-06T10:48:04Z</time>
      </trkpt>
      <trkpt lat="47.14418" lon="-1.51723">
        <ele>82</ele>
        <time>2022-03-06T10:48:06Z</time>
      </trkpt>
      <trkpt lat="47.14428" lon="-1.51712">
        <ele>82</ele>
        <time>2022-03-06T10:48:08Z</time>
      </trkpt>
      <trkpt lat="47.14438" lon="-1.51702">
        <ele>82</ele>
        <time>2022-03-06T10:48:10Z</time>
      </trkpt>
      <trkpt lat="47.14449" lon="-1.51691">
        <ele>82</ele>
        <time>2022-03-06T10:48:12Z</time>
      </trkpt>
      <trkpt lat="47.14459" lon="-1.51681">
        <ele>82</ele>
        <time>2022-03-06T10:48:14Z</time>
      </trkpt>
      <trkpt lat="47.14469" lon="-1.51671">
        <ele>82</ele>
        <time>2022-03-06T10:48:16Z</time>
      </trkpt>
      <trkpt lat="47.14479" lon="-1.5166">
        <ele>82</ele>
        <time>2022-03-06T10:48:18Z</time>
      </trkpt>
      <trkpt lat="47.14489" lon="-1.5165">
        <ele>81</ele>
        <time>2022-03-06T10:48:20Z</time>
      </trkpt>
      <trkpt lat="47.14499" lon="-1.51639">
        <ele>82</ele>
        <time>2022-03-06T10:48:22Z</time>
      </trkpt>
      <trkpt lat="47.1451" lon="-1.51628">
        <ele>81</ele>
        <time>2022-03-06T10:48:24Z</time>
      </trkpt>
      <trkpt lat="47.14519" lon="-1.51616">
        <ele>81</ele>
        <time>2022-03-06T10:48:26Z</time>
      </trkpt>
      <trkpt lat="47.1453" lon="-1.51604">
        <ele>80</ele>
        <time>2022-03-06T10:48:28Z</time>
      </trkpt>
      <trkpt lat="47.14539" lon="-1.51592">
        <ele>80</ele>
        <time>2022-03-06T10:48:30Z</time>
      </trkpt>
      <trkpt lat="47.14549" lon="-1.5158">
        <ele>79</ele>
        <time>2022-03-06T10:48:32Z</time>
      </trkpt>
      <trkpt lat="47.14559" lon="-1.51568">
        <ele>79</ele>
        <time>2022-03-06T10:48:34Z</time>
      </trkpt>
      <trkpt lat="47.14567" lon="-1.51555">
        <ele>79</ele>
        <time>2022-03-06T10:48:36Z</time>
      </trkpt>
      <trkpt lat="47.14576" lon="-1.51541">
        <ele>80</ele>
        <time>2022-03-06T10:48:38Z</time>
      </trkpt>
      <trkpt lat="47.14583" lon="-1.51527">
        <ele>80</ele>
        <time>2022-03-06T10:48:40Z</time>
      </trkpt>
      <trkpt lat="47.1459" lon="-1.51513">
        <ele>81</ele>
        <time>2022-03-06T10:48:42Z</time>
      </trkpt>
      <trkpt lat="47.14597" lon="-1.51499">
        <ele>81</ele>
        <time>2022-03-06T10:48:44Z</time>
      </trkpt>
      <trkpt lat="47.14604" lon="-1.51484">
        <ele>81</ele>
        <time>2022-03-06T10:48:46Z</time>
      </trkpt>
      <trkpt lat="47.14611" lon="-1.5147">
        <ele>81</ele>
        <time>2022-03-06T10:48:48Z</time>
      </trkpt>
      <trkpt lat="47.14619" lon="-1.51455">
        <ele>81</ele>
        <time>2022-03-06T10:48:50Z</time>
      </trkpt>
      <trkpt lat="47.14626" lon="-1.5144">
        <ele>81</ele>
        <time>2022-03-06T10:48:52Z</time>
      </trkpt>
      <trkpt lat="47.14633" lon="-1.51426">
        <ele>81</ele>
        <time>2022-03-06T10:48:54Z</time>
      </trkpt>
      <trkpt lat="47.14641" lon="-1.51411">
        <ele>80</ele>
        <time>2022-03-06T10:48:56Z</time>
      </trkpt>
      <trkpt lat="47.14649" lon="-1.51395">
        <ele>80</ele>
        <time>2022-03-06T10:48:58Z</time>
      </trkpt>
      <trkpt lat="47.14657" lon="-1.51378">
        <ele>79</ele>
        <time>2022-03-06T10:49:00Z</time>
      </trkpt>
      <trkpt lat="47.14666" lon="-1.51361">
        <ele>79</ele>
        <time>2022-03-06T10:49:02Z</time>
      </trkpt>
      <trkpt lat="47.14675" lon="-1.51343">
        <ele>78</ele>
        <time>2022-03-06T10:49:04Z</time>
      </trkpt>
      <trkpt lat="47.14684" lon="-1.51325">
        <ele>78</ele>
        <time>2022-03-06T10:49:06Z</time>
      </trkpt>
      <trkpt lat="47.14693" lon="-1.51308">
        <ele>78</ele>
        <time>2022-03-06T10:49:08Z</time>
      </trkpt>
      <trkpt lat="47.14702" lon="-1.51291">
        <ele>77</ele>
        <time>2022-03-06T10:49:10Z</time>
      </trkpt>
      <trkpt lat="47.1471" lon="-1.51274">
        <ele>77</ele>
        <time>2022-03-06T10:49:12Z</time>
      </trkpt>
      <trkpt lat="47.14718" lon="-1.51257">
        <ele>77</ele>
        <time>2022-03-06T10:49:14Z</time>
      </trkpt>
      <trkpt lat="47.14727" lon="-1.51241">
        <ele>77</ele>
        <time>2022-03-06T10:49:16Z</time>
      </trkpt>
      <trkpt lat="47.14735" lon="-1.51224">
        <ele>77</ele>
        <time>2022-03-06T10:49:18Z</time>
      </trkpt>
      <trkpt lat="47.14743" lon="-1.51209">
        <ele>76</ele>
        <time>2022-03-06T10:49:20Z</time>
      </trkpt>
      <trkpt lat="47.14751" lon="-1.51193">
        <ele>76</ele>
        <time>2022-03-06T10:49:22Z</time>
      </trkpt>
      <trkpt lat="47.1476" lon="-1.51177">
        <ele>76</ele>
        <time>2022-03-06T10:49:24Z</time>
      </trkpt>
      <trkpt lat="47.14768" lon="-1.51161">
        <ele>76</ele>
        <time>2022-03-06T10:49:26Z</time>
      </trkpt>
      <trkpt lat="47.14776" lon="-1.51145">
        <ele>75</ele>
        <time>2022-03-06T10:49:28Z</time>
      </trkpt>
      <trkpt lat="47.14785" lon="-1.5113">
        <ele>75</ele>
        <time>2022-03-06T10:49:30Z</time>
      </trkpt>
      <trkpt lat="47.14793" lon="-1.51114">
        <ele>75</ele>
        <time>2022-03-06T10:49:32Z</time>
      </trkpt>
      <trkpt lat="47.14802" lon="-1.51099">
        <ele>75</ele>
        <time>2022-03-06T10:49:34Z</time>
      </trkpt>
      <trkpt lat="47.1481" lon="-1.51084">
        <ele>75</ele>
        <time>2022-03-06T10:49:36Z</time>
      </trkpt>
      <trkpt lat="47.14818" lon="-1.5107">
        <ele>75</ele>
        <time>2022-03-06T10:49:38Z</time>
      </trkpt>
      <trkpt lat="47.14827" lon="-1.51055">
        <ele>75</ele>
        <time>2022-03-06T10:49:40Z</time>
      </trkpt>
      <trkpt lat="47.14836" lon="-1.5104">
        <ele>74</ele>
        <time>2022-03-06T10:49:42Z</time>
      </trkpt>
      <trkpt lat="47.14844" lon="-1.51025">
        <ele>74</ele>
        <time>2022-03-06T10:49:44Z</time>
      </trkpt>
      <trkpt lat="47.14853" lon="-1.51011">
        <ele>74</ele>
        <time>2022-03-06T10:49:46Z</time>
      </trkpt>
      <trkpt lat="47.14862" lon="-1.50997">
        <ele>74</ele>
        <time>2022-03-06T10:49:48Z</time>
      </trkpt>
      <trkpt lat="47.1487" lon="-1.50981">
        <ele>74</ele>
        <time>2022-03-06T10:49:50Z</time>
      </trkpt>
      <trkpt lat="47.1488" lon="-1.50967">
        <ele>74</ele>
        <time>2022-03-06T10:49:52Z</time>
      </trkpt>
      <trkpt lat="47.14889" lon="-1.50953">
        <ele>74</ele>
        <time>2022-03-06T10:49:54Z</time>
      </trkpt>
      <trkpt lat="47.14898" lon="-1.50938">
        <ele>74</ele>
        <time>2022-03-06T10:49:56Z</time>
      </trkpt>
      <trkpt lat="47.14908" lon="-1.50924">
        <ele>74</ele>
        <time>2022-03-06T10:49:58Z</time>
      </trkpt>
      <trkpt lat="47.14918" lon="-1.50909">
        <ele>74</ele>
        <time>2022-03-06T10:50:00Z</time>
      </trkpt>
      <trkpt lat="47.14928" lon="-1.50895">
        <ele>74</ele>
        <time>2022-03-06T10:50:02Z</time>
      </trkpt>
      <trkpt lat="47.14938" lon="-1.50881">
        <ele>73</ele>
        <time>2022-03-06T10:50:04Z</time>
      </trkpt>
      <trkpt lat="47.14948" lon="-1.50867">
        <ele>73</ele>
        <time>2022-03-06T10:50:06Z</time>
      </trkpt>
      <trkpt lat="47.14958" lon="-1.50853">
        <ele>73</ele>
        <time>2022-03-06T10:50:08Z</time>
      </trkpt>
      <trkpt lat="47.14967" lon="-1.50839">
        <ele>73</ele>
        <time>2022-03-06T10:50:10Z</time>
      </trkpt>
      <trkpt lat="47.14977" lon="-1.50826">
        <ele>72</ele>
        <time>2022-03-06T10:50:12Z</time>
      </trkpt>
      <trkpt lat="47.14986" lon="-1.50813">
        <ele>72</ele>
        <time>2022-03-06T10:50:14Z</time>
      </trkpt>
      <trkpt lat="47.14996" lon="-1.508">
        <ele>72</ele>
        <time>2022-03-06T10:50:16Z</time>
      </trkpt>
      <trkpt lat="47.15006" lon="-1.50788">
        <ele>72</ele>
        <time>2022-03-06T10:50:18Z</time>
      </trkpt>
      <trkpt lat="47.15015" lon="-1.50775">
        <ele>72</ele>
        <time>2022-03-06T10:50:20Z</time>
      </trkpt>
      <trkpt lat="47.15025" lon="-1.50763">
        <ele>71</ele>
        <time>2022-03-06T10:50:22Z</time>
      </trkpt>
      <trkpt lat="47.15035" lon="-1.50751">
        <ele>71</ele>
        <time>2022-03-06T10:50:24Z</time>
      </trkpt>
      <trkpt lat="47.15045" lon="-1.50738">
        <ele>71</ele>
        <time>2022-03-06T10:50:26Z</time>
      </trkpt>
      <trkpt lat="47.15055" lon="-1.50725">
        <ele>71</ele>
        <time>2022-03-06T10:50:28Z</time>
      </trkpt>
      <trkpt lat="47.15065" lon="-1.50713">
        <ele>71</ele>
        <time>2022-03-06T10:50:30Z</time>
      </trkpt>
      <trkpt lat="47.15076" lon="-1.50701">
        <ele>71</ele>
        <time>2022-03-06T10:50:32Z</time>
      </trkpt>
      <trkpt lat="47.15085" lon="-1.50689">
        <ele>71</ele>
        <time>2022-03-06T10:50:34Z</time>
      </trkpt>
      <trkpt lat="47.15095" lon="-1.50678">
        <ele>71</ele>
        <time>2022-03-06T10:50:36Z</time>
      </trkpt>
      <trkpt lat="47.15105" lon="-1.50666">
        <ele>71</ele>
        <time>2022-03-06T10:50:38Z</time>
      </trkpt>
      <trkpt lat="47.15115" lon="-1.50655">
        <ele>71</ele>
        <time>2022-03-06T10:50:40Z</time>
      </trkpt>
      <trkpt lat="47.15125" lon="-1.50644">
        <ele>70</ele>
        <time>2022-03-06T10:50:42Z</time>
      </trkpt>
      <trkpt lat="47.15134" lon="-1.50633">
        <ele>71</ele>
        <time>2022-03-06T10:50:44Z</time>
      </trkpt>
      <trkpt lat="47.15143" lon="-1.50622">
        <ele>71</ele>
        <time>2022-03-06T10:50:46Z</time>
      </trkpt>
      <trkpt lat="47.15152" lon="-1.50612">
        <ele>71</ele>
        <time>2022-03-06T10:50:48Z</time>
      </trkpt>
      <trkpt lat="47.15162" lon="-1.50601">
        <ele>71</ele>
        <time>2022-03-06T10:50:50Z</time>
      </trkpt>
      <trkpt lat="47.15171" lon="-1.5059">
        <ele>71</ele>
        <time>2022-03-06T10:50:52Z</time>
      </trkpt>
      <trkpt lat="47.1518" lon="-1.5058">
        <ele>72</ele>
        <time>2022-03-06T10:50:54Z</time>
      </trkpt>
      <trkpt lat="47.15189" lon="-1.50569">
        <ele>72</ele>
        <time>2022-03-06T10:50:56Z</time>
      </trkpt>
      <trkpt lat="47.15198" lon="-1.50559">
        <ele>72</ele>
        <time>2022-03-06T10:50:58Z</time>
      </trkpt>
      <trkpt lat="47.15207" lon="-1.50549">
        <ele>72</ele>
        <time>2022-03-06T10:51:00Z</time>
      </trkpt>
      <trkpt lat="47.15216" lon="-1.50538">
        <ele>73</ele>
        <time>2022-03-06T10:51:02Z</time>
      </trkpt>
      <trkpt lat="47.15225" lon="-1.50528">
        <ele>73</ele>
        <time>2022-03-06T10:51:04Z</time>
      </trkpt>
      <trkpt lat="47.15234" lon="-1.50517">
        <ele>73</ele>
        <time>2022-03-06T10:51:06Z</time>
      </trkpt>
      <trkpt lat="47.15244" lon="-1.50506">
        <ele>74</ele>
        <time>2022-03-06T10:51:08Z</time>
      </trkpt>
      <trkpt lat="47.15253" lon="-1.50496">
        <ele>74</ele>
        <time>2022-03-06T10:51:10Z</time>
      </trkpt>
      <trkpt lat="47.15262" lon="-1.50486">
        <ele>74</ele>
        <time>2022-03-06T10:51:12Z</time>
      </trkpt>
      <trkpt lat="47.15271" lon="-1.50475">
        <ele>74</ele>
        <time>2022-03-06T10:51:14Z</time>
      </trkpt>
      <trkpt lat="47.1528" lon="-1.50465">
        <ele>74</ele>
        <time>2022-03-06T10:51:16Z</time>
      </trkpt>
      <trkpt lat="47.15289" lon="-1.50454">
        <ele>74</ele>
        <time>2022-03-06T10:51:18Z</time>
      </trkpt>
      <trkpt lat="47.15298" lon="-1.50444">
        <ele>74</ele>
        <time>2022-03-06T10:51:20Z</time>
      </trkpt>
      <trkpt lat="47.15307" lon="-1.50434">
        <ele>75</ele>
        <time>2022-03-06T10:51:22Z</time>
      </trkpt>
      <trkpt lat="47.15316" lon="-1.50423">
        <ele>75</ele>
        <time>2022-03-06T10:51:24Z</time>
      </trkpt>
      <trkpt lat="47.15325" lon="-1.50412">
        <ele>75</ele>
        <time>2022-03-06T10:51:26Z</time>
      </trkpt>
      <trkpt lat="47.15335" lon="-1.50401">
        <ele>75</ele>
        <time>2022-03-06T10:51:28Z</time>
      </trkpt>
      <trkpt lat="47.15345" lon="-1.5039">
        <ele>75</ele>
        <time>2022-03-06T10:51:30Z</time>
      </trkpt>
      <trkpt lat="47.15354" lon="-1.50378">
        <ele>75</ele>
        <time>2022-03-06T10:51:32Z</time>
      </trkpt>
      <trkpt lat="47.15364" lon="-1.50367">
        <ele>75</ele>
        <time>2022-03-06T10:51:34Z</time>
      </trkpt>
      <trkpt lat="47.15374" lon="-1.50357">
        <ele>75</ele>
        <time>2022-03-06T10:51:36Z</time>
      </trkpt>
      <trkpt lat="47.15384" lon="-1.50346">
        <ele>75</ele>
        <time>2022-03-06T10:51:38Z</time>
      </trkpt>
      <trkpt lat="47.15394" lon="-1.50336">
        <ele>76</ele>
        <time>2022-03-06T10:51:40Z</time>
      </trkpt>
      <trkpt lat="47.15404" lon="-1.50326">
        <ele>76</ele>
        <time>2022-03-06T10:51:42Z</time>
      </trkpt>
      <trkpt lat="47.15414" lon="-1.50316">
        <ele>76</ele>
        <time>2022-03-06T10:51:44Z</time>
      </trkpt>
      <trkpt lat="47.15425" lon="-1.50308">
        <ele>76</ele>
        <time>2022-03-06T10:51:46Z</time>
      </trkpt>
      <trkpt lat="47.15436" lon="-1.50301">
        <ele>76</ele>
        <time>2022-03-06T10:51:48Z</time>
      </trkpt>
      <trkpt lat="47.15448" lon="-1.50293">
        <ele>76</ele>
        <time>2022-03-06T10:51:50Z</time>
      </trkpt>
      <trkpt lat="47.15459" lon="-1.50287">
        <ele>76</ele>
        <time>2022-03-06T10:51:52Z</time>
      </trkpt>
      <trkpt lat="47.15471" lon="-1.50281">
        <ele>76</ele>
        <time>2022-03-06T10:51:54Z</time>
      </trkpt>
      <trkpt lat="47.15483" lon="-1.50276">
        <ele>76</ele>
        <time>2022-03-06T10:51:56Z</time>
      </trkpt>
      <trkpt lat="47.15495" lon="-1.5027">
        <ele>76</ele>
        <time>2022-03-06T10:51:58Z</time>
      </trkpt>
      <trkpt lat="47.15507" lon="-1.50265">
        <ele>76</ele>
        <time>2022-03-06T10:52:00Z</time>
      </trkpt>
      <trkpt lat="47.15519" lon="-1.5026">
        <ele>76</ele>
        <time>2022-03-06T10:52:02Z</time>
      </trkpt>
      <trkpt lat="47.15532" lon="-1.50254">
        <ele>76</ele>
        <time>2022-03-06T10:52:04Z</time>
      </trkpt>
      <trkpt lat="47.15543" lon="-1.50246">
        <ele>76</ele>
        <time>2022-03-06T10:52:06Z</time>
      </trkpt>
      <trkpt lat="47.15556" lon="-1.50237">
        <ele>75</ele>
        <time>2022-03-06T10:52:08Z</time>
      </trkpt>
      <trkpt lat="47.15567" lon="-1.50227">
        <ele>75</ele>
        <time>2022-03-06T10:52:10Z</time>
      </trkpt>
      <trkpt lat="47.15577" lon="-1.50216">
        <ele>75</ele>
        <time>2022-03-06T10:52:12Z</time>
      </trkpt>
      <trkpt lat="47.15588" lon="-1.50206">
        <ele>74</ele>
        <time>2022-03-06T10:52:14Z</time>
      </trkpt>
      <trkpt lat="47.15599" lon="-1.50195">
        <ele>74</ele>
        <time>2022-03-06T10:52:16Z</time>
      </trkpt>
      <trkpt lat="47.1561" lon="-1.50185">
        <ele>74</ele>
        <time>2022-03-06T10:52:18Z</time>
      </trkpt>
      <trkpt lat="47.1562" lon="-1.50175">
        <ele>74</ele>
        <time>2022-03-06T10:52:20Z</time>
      </trkpt>
      <trkpt lat="47.1563" lon="-1.50165">
        <ele>73</ele>
        <time>2022-03-06T10:52:22Z</time>
      </trkpt>
      <trkpt lat="47.1564" lon="-1.50155">
        <ele>73</ele>
        <time>2022-03-06T10:52:24Z</time>
      </trkpt>
      <trkpt lat="47.1565" lon="-1.50145">
        <ele>73</ele>
        <time>2022-03-06T10:52:26Z</time>
      </trkpt>
      <trkpt lat="47.15661" lon="-1.50135">
        <ele>73</ele>
        <time>2022-03-06T10:52:28Z</time>
      </trkpt>
      <trkpt lat="47.15671" lon="-1.50124">
        <ele>73</ele>
        <time>2022-03-06T10:52:30Z</time>
      </trkpt>
      <trkpt lat="47.1568" lon="-1.50113">
        <ele>73</ele>
        <time>2022-03-06T10:52:32Z</time>
      </trkpt>
      <trkpt lat="47.1569" lon="-1.501">
        <ele>74</ele>
        <time>2022-03-06T10:52:34Z</time>
      </trkpt>
      <trkpt lat="47.15698" lon="-1.50087">
        <ele>74</ele>
        <time>2022-03-06T10:52:36Z</time>
      </trkpt>
      <trkpt lat="47.15706" lon="-1.50073">
        <ele>74</ele>
        <time>2022-03-06T10:52:38Z</time>
      </trkpt>
      <trkpt lat="47.15713" lon="-1.50059">
        <ele>74</ele>
        <time>2022-03-06T10:52:40Z</time>
      </trkpt>
      <trkpt lat="47.15721" lon="-1.50045">
        <ele>74</ele>
        <time>2022-03-06T10:52:42Z</time>
      </trkpt>
      <trkpt lat="47.15729" lon="-1.5003">
        <ele>74</ele>
        <time>2022-03-06T10:52:44Z</time>
      </trkpt>
      <trkpt lat="47.15736" lon="-1.50014">
        <ele>74</ele>
        <time>2022-03-06T10:52:46Z</time>
      </trkpt>
      <trkpt lat="47.15743" lon="-1.5">
        <ele>74</ele>
        <time>2022-03-06T10:52:48Z</time>
      </trkpt>
      <trkpt lat="47.15751" lon="-1.49985">
        <ele>74</ele>
        <time>2022-03-06T10:52:50Z</time>
      </trkpt>
      <trkpt lat="47.15762" lon="-1.49964">
        <ele>74</ele>
        <time>2022-03-06T10:52:53Z</time>
      </trkpt>
      <trkpt lat="47.1577" lon="-1.49949">
        <ele>74</ele>
        <time>2022-03-06T10:52:55Z</time>
      </trkpt>
      <trkpt lat="47.15777" lon="-1.49934">
        <ele>74</ele>
        <time>2022-03-06T10:52:57Z</time>
      </trkpt>
      <trkpt lat="47.15788" lon="-1.49912">
        <ele>74</ele>
        <time>2022-03-06T10:53:00Z</time>
      </trkpt>
      <trkpt lat="47.15795" lon="-1.49897">
        <ele>74</ele>
        <time>2022-03-06T10:53:02Z</time>
      </trkpt>
      <trkpt lat="47.15803" lon="-1.49882">
        <ele>74</ele>
        <time>2022-03-06T10:53:04Z</time>
      </trkpt>
      <trkpt lat="47.15811" lon="-1.49867">
        <ele>74</ele>
        <time>2022-03-06T10:53:06Z</time>
      </trkpt>
      <trkpt lat="47.15819" lon="-1.49853">
        <ele>73</ele>
        <time>2022-03-06T10:53:08Z</time>
      </trkpt>
      <trkpt lat="47.15826" lon="-1.49838">
        <ele>73</ele>
        <time>2022-03-06T10:53:10Z</time>
      </trkpt>
      <trkpt lat="47.15834" lon="-1.49823">
        <ele>73</ele>
        <time>2022-03-06T10:53:12Z</time>
      </trkpt>
      <trkpt lat="47.15842" lon="-1.49807">
        <ele>73</ele>
        <time>2022-03-06T10:53:14Z</time>
      </trkpt>
      <trkpt lat="47.1585" lon="-1.49792">
        <ele>73</ele>
        <time>2022-03-06T10:53:16Z</time>
      </trkpt>
      <trkpt lat="47.15858" lon="-1.49776">
        <ele>72</ele>
        <time>2022-03-06T10:53:18Z</time>
      </trkpt>
      <trkpt lat="47.15866" lon="-1.4976">
        <ele>72</ele>
        <time>2022-03-06T10:53:20Z</time>
      </trkpt>
      <trkpt lat="47.15875" lon="-1.49743">
        <ele>72</ele>
        <time>2022-03-06T10:53:22Z</time>
      </trkpt>
      <trkpt lat="47.15883" lon="-1.49727">
        <ele>71</ele>
        <time>2022-03-06T10:53:24Z</time>
      </trkpt>
      <trkpt lat="47.15892" lon="-1.4971">
        <ele>71</ele>
        <time>2022-03-06T10:53:26Z</time>
      </trkpt>
      <trkpt lat="47.159" lon="-1.49693">
        <ele>71</ele>
        <time>2022-03-06T10:53:28Z</time>
      </trkpt>
      <trkpt lat="47.15909" lon="-1.49675">
        <ele>70</ele>
        <time>2022-03-06T10:53:30Z</time>
      </trkpt>
      <trkpt lat="47.15918" lon="-1.49658">
        <ele>70</ele>
        <time>2022-03-06T10:53:32Z</time>
      </trkpt>
      <trkpt lat="47.15927" lon="-1.49641">
        <ele>70</ele>
        <time>2022-03-06T10:53:34Z</time>
      </trkpt>
      <trkpt lat="47.15935" lon="-1.49624">
        <ele>70</ele>
        <time>2022-03-06T10:53:36Z</time>
      </trkpt>
      <trkpt lat="47.15944" lon="-1.49607">
        <ele>70</ele>
        <time>2022-03-06T10:53:38Z</time>
      </trkpt>
      <trkpt lat="47.15952" lon="-1.4959">
        <ele>69</ele>
        <time>2022-03-06T10:53:40Z</time>
      </trkpt>
      <trkpt lat="47.15961" lon="-1.49574">
        <ele>69</ele>
        <time>2022-03-06T10:53:42Z</time>
      </trkpt>
      <trkpt lat="47.15969" lon="-1.49557">
        <ele>69</ele>
        <time>2022-03-06T10:53:44Z</time>
      </trkpt>
      <trkpt lat="47.15978" lon="-1.4954">
        <ele>69</ele>
        <time>2022-03-06T10:53:46Z</time>
      </trkpt>
      <trkpt lat="47.15987" lon="-1.49523">
        <ele>68</ele>
        <time>2022-03-06T10:53:48Z</time>
      </trkpt>
      <trkpt lat="47.15995" lon="-1.49507">
        <ele>68</ele>
        <time>2022-03-06T10:53:50Z</time>
      </trkpt>
      <trkpt lat="47.16003" lon="-1.49491">
        <ele>68</ele>
        <time>2022-03-06T10:53:52Z</time>
      </trkpt>
      <trkpt lat="47.16011" lon="-1.49476">
        <ele>68</ele>
        <time>2022-03-06T10:53:54Z</time>
      </trkpt>
      <trkpt lat="47.16019" lon="-1.4946">
        <ele>68</ele>
        <time>2022-03-06T10:53:56Z</time>
      </trkpt>
      <trkpt lat="47.16027" lon="-1.49446">
        <ele>68</ele>
        <time>2022-03-06T10:53:58Z</time>
      </trkpt>
      <trkpt lat="47.16034" lon="-1.49431">
        <ele>69</ele>
        <time>2022-03-06T10:54:00Z</time>
      </trkpt>
      <trkpt lat="47.16042" lon="-1.49417">
        <ele>69</ele>
        <time>2022-03-06T10:54:02Z</time>
      </trkpt>
      <trkpt lat="47.1605" lon="-1.49403">
        <ele>69</ele>
        <time>2022-03-06T10:54:04Z</time>
      </trkpt>
      <trkpt lat="47.16057" lon="-1.49389">
        <ele>69</ele>
        <time>2022-03-06T10:54:06Z</time>
      </trkpt>
      <trkpt lat="47.16066" lon="-1.49378">
        <ele>69</ele>
        <time>2022-03-06T10:54:08Z</time>
      </trkpt>
      <trkpt lat="47.16075" lon="-1.49368">
        <ele>69</ele>
        <time>2022-03-06T10:54:10Z</time>
      </trkpt>
      <trkpt lat="47.16084" lon="-1.49357">
        <ele>69</ele>
        <time>2022-03-06T10:54:12Z</time>
      </trkpt>
      <trkpt lat="47.16094" lon="-1.49345">
        <ele>70</ele>
        <time>2022-03-06T10:54:14Z</time>
      </trkpt>
      <trkpt lat="47.16104" lon="-1.49334">
        <ele>69</ele>
        <time>2022-03-06T10:54:16Z</time>
      </trkpt>
      <trkpt lat="47.16112" lon="-1.49323">
        <ele>69</ele>
        <time>2022-03-06T10:54:18Z</time>
      </trkpt>
      <trkpt lat="47.16121" lon="-1.49312">
        <ele>69</ele>
        <time>2022-03-06T10:54:20Z</time>
      </trkpt>
      <trkpt lat="47.1613" lon="-1.493">
        <ele>69</ele>
        <time>2022-03-06T10:54:22Z</time>
      </trkpt>
      <trkpt lat="47.16139" lon="-1.49287">
        <ele>69</ele>
        <time>2022-03-06T10:54:24Z</time>
      </trkpt>
      <trkpt lat="47.16147" lon="-1.49274">
        <ele>68</ele>
        <time>2022-03-06T10:54:26Z</time>
      </trkpt>
      <trkpt lat="47.16154" lon="-1.4926">
        <ele>69</ele>
        <time>2022-03-06T10:54:28Z</time>
      </trkpt>
      <trkpt lat="47.1616" lon="-1.49246">
        <ele>69</ele>
        <time>2022-03-06T10:54:30Z</time>
      </trkpt>
      <trkpt lat="47.16167" lon="-1.49232">
        <ele>69</ele>
        <time>2022-03-06T10:54:32Z</time>
      </trkpt>
      <trkpt lat="47.16174" lon="-1.4922">
        <ele>69</ele>
        <time>2022-03-06T10:54:34Z</time>
      </trkpt>
      <trkpt lat="47.16182" lon="-1.49208">
        <ele>70</ele>
        <time>2022-03-06T10:54:36Z</time>
      </trkpt>
      <trkpt lat="47.16191" lon="-1.49197">
        <ele>70</ele>
        <time>2022-03-06T10:54:38Z</time>
      </trkpt>
      <trkpt lat="47.16201" lon="-1.49187">
        <ele>70</ele>
        <time>2022-03-06T10:54:40Z</time>
      </trkpt>
      <trkpt lat="47.1621" lon="-1.49177">
        <ele>70</ele>
        <time>2022-03-06T10:54:42Z</time>
      </trkpt>
      <trkpt lat="47.1622" lon="-1.49168">
        <ele>70</ele>
        <time>2022-03-06T10:54:44Z</time>
      </trkpt>
      <trkpt lat="47.1623" lon="-1.49158">
        <ele>70</ele>
        <time>2022-03-06T10:54:46Z</time>
      </trkpt>
      <trkpt lat="47.1624" lon="-1.49148">
        <ele>70</ele>
        <time>2022-03-06T10:54:48Z</time>
      </trkpt>
      <trkpt lat="47.1625" lon="-1.49138">
        <ele>69</ele>
        <time>2022-03-06T10:54:50Z</time>
      </trkpt>
      <trkpt lat="47.1626" lon="-1.49129">
        <ele>69</ele>
        <time>2022-03-06T10:54:52Z</time>
      </trkpt>
      <trkpt lat="47.1627" lon="-1.49118">
        <ele>68</ele>
        <time>2022-03-06T10:54:54Z</time>
      </trkpt>
      <trkpt lat="47.16281" lon="-1.49107">
        <ele>68</ele>
        <time>2022-03-06T10:54:56Z</time>
      </trkpt>
      <trkpt lat="47.16293" lon="-1.49096">
        <ele>67</ele>
        <time>2022-03-06T10:54:58Z</time>
      </trkpt>
      <trkpt lat="47.16304" lon="-1.49085">
        <ele>66</ele>
        <time>2022-03-06T10:55:00Z</time>
      </trkpt>
      <trkpt lat="47.16316" lon="-1.49072">
        <ele>66</ele>
        <time>2022-03-06T10:55:02Z</time>
      </trkpt>
      <trkpt lat="47.16328" lon="-1.4906">
        <ele>65</ele>
        <time>2022-03-06T10:55:04Z</time>
      </trkpt>
      <trkpt lat="47.1634" lon="-1.49047">
        <ele>65</ele>
        <time>2022-03-06T10:55:06Z</time>
      </trkpt>
      <trkpt lat="47.16351" lon="-1.49035">
        <ele>65</ele>
        <time>2022-03-06T10:55:08Z</time>
      </trkpt>
      <trkpt lat="47.16363" lon="-1.49023">
        <ele>65</ele>
        <time>2022-03-06T10:55:10Z</time>
      </trkpt>
      <trkpt lat="47.16373" lon="-1.49009">
        <ele>65</ele>
        <time>2022-03-06T10:55:12Z</time>
      </trkpt>
      <trkpt lat="47.16381" lon="-1.48994">
        <ele>65</ele>
        <time>2022-03-06T10:55:14Z</time>
      </trkpt>
      <trkpt lat="47.1639" lon="-1.48979">
        <ele>64</ele>
        <time>2022-03-06T10:55:16Z</time>
      </trkpt>
      <trkpt lat="47.16399" lon="-1.48964">
        <ele>65</ele>
        <time>2022-03-06T10:55:18Z</time>
      </trkpt>
      <trkpt lat="47.16408" lon="-1.48951">
        <ele>65</ele>
        <time>2022-03-06T10:55:20Z</time>
      </trkpt>
      <trkpt lat="47.16418" lon="-1.48939">
        <ele>65</ele>
        <time>2022-03-06T10:55:22Z</time>
      </trkpt>
      <trkpt lat="47.16429" lon="-1.48928">
        <ele>66</ele>
        <time>2022-03-06T10:55:24Z</time>
      </trkpt>
      <trkpt lat="47.1644" lon="-1.48916">
        <ele>66</ele>
        <time>2022-03-06T10:55:26Z</time>
      </trkpt>
      <trkpt lat="47.1645" lon="-1.48903">
        <ele>66</ele>
        <time>2022-03-06T10:55:28Z</time>
      </trkpt>
      <trkpt lat="47.16458" lon="-1.48889">
        <ele>65</ele>
        <time>2022-03-06T10:55:30Z</time>
      </trkpt>
      <trkpt lat="47.16467" lon="-1.48875">
        <ele>64</ele>
        <time>2022-03-06T10:55:32Z</time>
      </trkpt>
      <trkpt lat="47.16474" lon="-1.4886">
        <ele>64</ele>
        <time>2022-03-06T10:55:34Z</time>
      </trkpt>
      <trkpt lat="47.16481" lon="-1.48842">
        <ele>63</ele>
        <time>2022-03-06T10:55:36Z</time>
      </trkpt>
      <trkpt lat="47.16488" lon="-1.48825">
        <ele>63</ele>
        <time>2022-03-06T10:55:38Z</time>
      </trkpt>
      <trkpt lat="47.16496" lon="-1.48808">
        <ele>63</ele>
        <time>2022-03-06T10:55:40Z</time>
      </trkpt>
      <trkpt lat="47.16503" lon="-1.48793">
        <ele>63</ele>
        <time>2022-03-06T10:55:42Z</time>
      </trkpt>
      <trkpt lat="47.1651" lon="-1.48775">
        <ele>63</ele>
        <time>2022-03-06T10:55:44Z</time>
      </trkpt>
      <trkpt lat="47.16515" lon="-1.48758">
        <ele>63</ele>
        <time>2022-03-06T10:55:46Z</time>
      </trkpt>
      <trkpt lat="47.1652" lon="-1.48739">
        <ele>63</ele>
        <time>2022-03-06T10:55:48Z</time>
      </trkpt>
      <trkpt lat="47.16523" lon="-1.4872">
        <ele>63</ele>
        <time>2022-03-06T10:55:50Z</time>
      </trkpt>
      <trkpt lat="47.16526" lon="-1.48702">
        <ele>63</ele>
        <time>2022-03-06T10:55:52Z</time>
      </trkpt>
      <trkpt lat="47.16528" lon="-1.48683">
        <ele>63</ele>
        <time>2022-03-06T10:55:54Z</time>
      </trkpt>
      <trkpt lat="47.16531" lon="-1.48664">
        <ele>63</ele>
        <time>2022-03-06T10:55:56Z</time>
      </trkpt>
      <trkpt lat="47.16534" lon="-1.48646">
        <ele>63</ele>
        <time>2022-03-06T10:55:58Z</time>
      </trkpt>
      <trkpt lat="47.16536" lon="-1.48628">
        <ele>64</ele>
        <time>2022-03-06T10:56:00Z</time>
      </trkpt>
      <trkpt lat="47.16539" lon="-1.4861">
        <ele>63</ele>
        <time>2022-03-06T10:56:02Z</time>
      </trkpt>
      <trkpt lat="47.16541" lon="-1.48591">
        <ele>62</ele>
        <time>2022-03-06T10:56:04Z</time>
      </trkpt>
      <trkpt lat="47.16542" lon="-1.48571">
        <ele>61</ele>
        <time>2022-03-06T10:56:06Z</time>
      </trkpt>
      <trkpt lat="47.16541" lon="-1.48551">
        <ele>61</ele>
        <time>2022-03-06T10:56:08Z</time>
      </trkpt>
      <trkpt lat="47.16539" lon="-1.48531">
        <ele>61</ele>
        <time>2022-03-06T10:56:10Z</time>
      </trkpt>
      <trkpt lat="47.16536" lon="-1.48511">
        <ele>61</ele>
        <time>2022-03-06T10:56:12Z</time>
      </trkpt>
      <trkpt lat="47.16533" lon="-1.48491">
        <ele>61</ele>
        <time>2022-03-06T10:56:14Z</time>
      </trkpt>
      <trkpt lat="47.1653" lon="-1.48472">
        <ele>60</ele>
        <time>2022-03-06T10:56:16Z</time>
      </trkpt>
      <trkpt lat="47.16527" lon="-1.48451">
        <ele>60</ele>
        <time>2022-03-06T10:56:18Z</time>
      </trkpt>
      <trkpt lat="47.16524" lon="-1.48431">
        <ele>60</ele>
        <time>2022-03-06T10:56:20Z</time>
      </trkpt>
      <trkpt lat="47.16521" lon="-1.48413">
        <ele>60</ele>
        <time>2022-03-06T10:56:22Z</time>
      </trkpt>
      <trkpt lat="47.16517" lon="-1.48398">
        <ele>59</ele>
        <time>2022-03-06T10:56:24Z</time>
      </trkpt>
      <trkpt lat="47.16512" lon="-1.48383">
        <ele>59</ele>
        <time>2022-03-06T10:56:26Z</time>
      </trkpt>
      <trkpt lat="47.1651" lon="-1.48365">
        <ele>59</ele>
        <time>2022-03-06T10:56:28Z</time>
      </trkpt>
      <trkpt lat="47.16508" lon="-1.48345">
        <ele>59</ele>
        <time>2022-03-06T10:56:30Z</time>
      </trkpt>
      <trkpt lat="47.1651" lon="-1.48324">
        <ele>58</ele>
        <time>2022-03-06T10:56:32Z</time>
      </trkpt>
      <trkpt lat="47.16513" lon="-1.48304">
        <ele>57</ele>
        <time>2022-03-06T10:56:34Z</time>
      </trkpt>
      <trkpt lat="47.16516" lon="-1.48284">
        <ele>58</ele>
        <time>2022-03-06T10:56:36Z</time>
      </trkpt>
      <trkpt lat="47.16518" lon="-1.48265">
        <ele>58</ele>
        <time>2022-03-06T10:56:38Z</time>
      </trkpt>
      <trkpt lat="47.16519" lon="-1.48248">
        <ele>58</ele>
        <time>2022-03-06T10:56:40Z</time>
      </trkpt>
      <trkpt lat="47.16517" lon="-1.48231">
        <ele>57</ele>
        <time>2022-03-06T10:56:42Z</time>
      </trkpt>
      <trkpt lat="47.16514" lon="-1.48215">
        <ele>57</ele>
        <time>2022-03-06T10:56:44Z</time>
      </trkpt>
      <trkpt lat="47.16509" lon="-1.48198">
        <ele>57</ele>
        <time>2022-03-06T10:56:46Z</time>
      </trkpt>
      <trkpt lat="47.16505" lon="-1.48181">
        <ele>56</ele>
        <time>2022-03-06T10:56:48Z</time>
      </trkpt>
      <trkpt lat="47.16502" lon="-1.48163">
        <ele>56</ele>
        <time>2022-03-06T10:56:50Z</time>
      </trkpt>
      <trkpt lat="47.16497" lon="-1.48145">
        <ele>56</ele>
        <time>2022-03-06T10:56:52Z</time>
      </trkpt>
      <trkpt lat="47.16492" lon="-1.48127">
        <ele>55</ele>
        <time>2022-03-06T10:56:54Z</time>
      </trkpt>
      <trkpt lat="47.16487" lon="-1.48109">
        <ele>55</ele>
        <time>2022-03-06T10:56:56Z</time>
      </trkpt>
      <trkpt lat="47.16482" lon="-1.48091">
        <ele>54</ele>
        <time>2022-03-06T10:56:58Z</time>
      </trkpt>
      <trkpt lat="47.16477" lon="-1.48071">
        <ele>54</ele>
        <time>2022-03-06T10:57:00Z</time>
      </trkpt>
      <trkpt lat="47.16472" lon="-1.48052">
        <ele>54</ele>
        <time>2022-03-06T10:57:02Z</time>
      </trkpt>
      <trkpt lat="47.16466" lon="-1.48032">
        <ele>55</ele>
        <time>2022-03-06T10:57:04Z</time>
      </trkpt>
      <trkpt lat="47.16462" lon="-1.48013">
        <ele>55</ele>
        <time>2022-03-06T10:57:06Z</time>
      </trkpt>
      <trkpt lat="47.16457" lon="-1.47994">
        <ele>54</ele>
        <time>2022-03-06T10:57:08Z</time>
      </trkpt>
      <trkpt lat="47.16452" lon="-1.47975">
        <ele>54</ele>
        <time>2022-03-06T10:57:10Z</time>
      </trkpt>
      <trkpt lat="47.16448" lon="-1.47955">
        <ele>54</ele>
        <time>2022-03-06T10:57:12Z</time>
      </trkpt>
      <trkpt lat="47.16443" lon="-1.47936">
        <ele>53</ele>
        <time>2022-03-06T10:57:14Z</time>
      </trkpt>
      <trkpt lat="47.16439" lon="-1.47918">
        <ele>54</ele>
        <time>2022-03-06T10:57:16Z</time>
      </trkpt>
      <trkpt lat="47.16435" lon="-1.47899">
        <ele>54</ele>
        <time>2022-03-06T10:57:18Z</time>
      </trkpt>
      <trkpt lat="47.16432" lon="-1.47882">
        <ele>54</ele>
        <time>2022-03-06T10:57:20Z</time>
      </trkpt>
      <trkpt lat="47.16428" lon="-1.47863">
        <ele>54</ele>
        <time>2022-03-06T10:57:22Z</time>
      </trkpt>
      <trkpt lat="47.16424" lon="-1.47845">
        <ele>54</ele>
        <time>2022-03-06T10:57:24Z</time>
      </trkpt>
      <trkpt lat="47.16421" lon="-1.47826">
        <ele>54</ele>
        <time>2022-03-06T10:57:26Z</time>
      </trkpt>
      <trkpt lat="47.16418" lon="-1.47808">
        <ele>54</ele>
        <time>2022-03-06T10:57:28Z</time>
      </trkpt>
      <trkpt lat="47.16414" lon="-1.4779">
        <ele>54</ele>
        <time>2022-03-06T10:57:30Z</time>
      </trkpt>
      <trkpt lat="47.1641" lon="-1.47772">
        <ele>54</ele>
        <time>2022-03-06T10:57:32Z</time>
      </trkpt>
      <trkpt lat="47.16407" lon="-1.47753">
        <ele>54</ele>
        <time>2022-03-06T10:57:34Z</time>
      </trkpt>
      <trkpt lat="47.16403" lon="-1.47735">
        <ele>54</ele>
        <time>2022-03-06T10:57:36Z</time>
      </trkpt>
      <trkpt lat="47.164" lon="-1.47718">
        <ele>54</ele>
        <time>2022-03-06T10:57:38Z</time>
      </trkpt>
      <trkpt lat="47.16395" lon="-1.47701">
        <ele>54</ele>
        <time>2022-03-06T10:57:40Z</time>
      </trkpt>
      <trkpt lat="47.16391" lon="-1.47684">
        <ele>54</ele>
        <time>2022-03-06T10:57:42Z</time>
      </trkpt>
      <trkpt lat="47.16387" lon="-1.47667">
        <ele>54</ele>
        <time>2022-03-06T10:57:44Z</time>
      </trkpt>
      <trkpt lat="47.16383" lon="-1.4765">
        <ele>54</ele>
        <time>2022-03-06T10:57:46Z</time>
      </trkpt>
      <trkpt lat="47.16379" lon="-1.47633">
        <ele>55</ele>
        <time>2022-03-06T10:57:48Z</time>
      </trkpt>
      <trkpt lat="47.16376" lon="-1.47617">
        <ele>55</ele>
        <time>2022-03-06T10:57:50Z</time>
      </trkpt>
      <trkpt lat="47.16372" lon="-1.47599">
        <ele>55</ele>
        <time>2022-03-06T10:57:52Z</time>
      </trkpt>
      <trkpt lat="47.16369" lon="-1.47582">
        <ele>55</ele>
        <time>2022-03-06T10:57:54Z</time>
      </trkpt>
      <trkpt lat="47.16366" lon="-1.47564">
        <ele>55</ele>
        <time>2022-03-06T10:57:56Z</time>
      </trkpt>
      <trkpt lat="47.16362" lon="-1.47547">
        <ele>56</ele>
        <time>2022-03-06T10:57:58Z</time>
      </trkpt>
      <trkpt lat="47.16359" lon="-1.4753">
        <ele>56</ele>
        <time>2022-03-06T10:58:00Z</time>
      </trkpt>
      <trkpt lat="47.16355" lon="-1.47513">
        <ele>56</ele>
        <time>2022-03-06T10:58:02Z</time>
      </trkpt>
      <trkpt lat="47.16351" lon="-1.47497">
        <ele>56</ele>
        <time>2022-03-06T10:58:04Z</time>
      </trkpt>
      <trkpt lat="47.16347" lon="-1.4748">
        <ele>57</ele>
        <time>2022-03-06T10:58:06Z</time>
      </trkpt>
      <trkpt lat="47.16342" lon="-1.47464">
        <ele>57</ele>
        <time>2022-03-06T10:58:08Z</time>
      </trkpt>
      <trkpt lat="47.16338" lon="-1.47448">
        <ele>57</ele>
        <time>2022-03-06T10:58:10Z</time>
      </trkpt>
      <trkpt lat="47.16335" lon="-1.47431">
        <ele>57</ele>
        <time>2022-03-06T10:58:12Z</time>
      </trkpt>
      <trkpt lat="47.16331" lon="-1.47415">
        <ele>57</ele>
        <time>2022-03-06T10:58:14Z</time>
      </trkpt>
      <trkpt lat="47.16327" lon="-1.47398">
        <ele>58</ele>
        <time>2022-03-06T10:58:16Z</time>
      </trkpt>
      <trkpt lat="47.16325" lon="-1.47383">
        <ele>58</ele>
        <time>2022-03-06T10:58:18Z</time>
      </trkpt>
      <trkpt lat="47.16323" lon="-1.47366">
        <ele>58</ele>
        <time>2022-03-06T10:58:20Z</time>
      </trkpt>
      <trkpt lat="47.16319" lon="-1.47351">
        <ele>58</ele>
        <time>2022-03-06T10:58:22Z</time>
      </trkpt>
      <trkpt lat="47.16318" lon="-1.47334">
        <ele>58</ele>
        <time>2022-03-06T10:58:24Z</time>
      </trkpt>
      <trkpt lat="47.1632" lon="-1.47319">
        <ele>59</ele>
        <time>2022-03-06T10:58:26Z</time>
      </trkpt>
      <trkpt lat="47.1632" lon="-1.47303">
        <ele>59</ele>
        <time>2022-03-06T10:58:28Z</time>
      </trkpt>
      <trkpt lat="47.16315" lon="-1.47289">
        <ele>59</ele>
        <time>2022-03-06T10:58:30Z</time>
      </trkpt>
      <trkpt lat="47.16311" lon="-1.47276">
        <ele>59</ele>
        <time>2022-03-06T10:58:32Z</time>
      </trkpt>
      <trkpt lat="47.16306" lon="-1.47263">
        <ele>60</ele>
        <time>2022-03-06T10:58:34Z</time>
      </trkpt>
      <trkpt lat="47.16302" lon="-1.4725">
        <ele>60</ele>
        <time>2022-03-06T10:58:36Z</time>
      </trkpt>
      <trkpt lat="47.16298" lon="-1.47237">
        <ele>60</ele>
        <time>2022-03-06T10:58:38Z</time>
      </trkpt>
      <trkpt lat="47.16294" lon="-1.47224">
        <ele>61</ele>
        <time>2022-03-06T10:58:40Z</time>
      </trkpt>
      <trkpt lat="47.16291" lon="-1.47212">
        <ele>61</ele>
        <time>2022-03-06T10:58:42Z</time>
      </trkpt>
      <trkpt lat="47.16287" lon="-1.472">
        <ele>61</ele>
        <time>2022-03-06T10:58:44Z</time>
      </trkpt>
      <trkpt lat="47.16284" lon="-1.47187">
        <ele>62</ele>
        <time>2022-03-06T10:58:46Z</time>
      </trkpt>
      <trkpt lat="47.1628" lon="-1.47174">
        <ele>62</ele>
        <time>2022-03-06T10:58:48Z</time>
      </trkpt>
      <trkpt lat="47.16277" lon="-1.47162">
        <ele>63</ele>
        <time>2022-03-06T10:58:50Z</time>
      </trkpt>
      <trkpt lat="47.16273" lon="-1.47144">
        <ele>63</ele>
        <time>2022-03-06T10:58:53Z</time>
      </trkpt>
      <trkpt lat="47.1627" lon="-1.47131">
        <ele>64</ele>
        <time>2022-03-06T10:58:55Z</time>
      </trkpt>
      <trkpt lat="47.16266" lon="-1.47113">
        <ele>65</ele>
        <time>2022-03-06T10:58:58Z</time>
      </trkpt>
      <trkpt lat="47.16263" lon="-1.471">
        <ele>66</ele>
        <time>2022-03-06T10:59:00Z</time>
      </trkpt>
      <trkpt lat="47.16261" lon="-1.47081">
        <ele>67</ele>
        <time>2022-03-06T10:59:03Z</time>
      </trkpt>
      <trkpt lat="47.16259" lon="-1.47068">
        <ele>67</ele>
        <time>2022-03-06T10:59:05Z</time>
      </trkpt>
      <trkpt lat="47.16258" lon="-1.47055">
        <ele>68</ele>
        <time>2022-03-06T10:59:07Z</time>
      </trkpt>
      <trkpt lat="47.16257" lon="-1.47041">
        <ele>68</ele>
        <time>2022-03-06T10:59:09Z</time>
      </trkpt>
      <trkpt lat="47.16257" lon="-1.47028">
        <ele>68</ele>
        <time>2022-03-06T10:59:11Z</time>
      </trkpt>
      <trkpt lat="47.16256" lon="-1.47014">
        <ele>69</ele>
        <time>2022-03-06T10:59:13Z</time>
      </trkpt>
      <trkpt lat="47.16255" lon="-1.47001">
        <ele>69</ele>
        <time>2022-03-06T10:59:15Z</time>
      </trkpt>
      <trkpt lat="47.16255" lon="-1.46987">
        <ele>68</ele>
        <time>2022-03-06T10:59:17Z</time>
      </trkpt>
      <trkpt lat="47.16256" lon="-1.46967">
        <ele>68</ele>
        <time>2022-03-06T10:59:20Z</time>
      </trkpt>
      <trkpt lat="47.16256" lon="-1.46953">
        <ele>69</ele>
        <time>2022-03-06T10:59:22Z</time>
      </trkpt>
      <trkpt lat="47.16257" lon="-1.4694">
        <ele>69</ele>
        <time>2022-03-06T10:59:24Z</time>
      </trkpt>
      <trkpt lat="47.16257" lon="-1.46926">
        <ele>70</ele>
        <time>2022-03-06T10:59:26Z</time>
      </trkpt>
      <trkpt lat="47.16257" lon="-1.46913">
        <ele>70</ele>
        <time>2022-03-06T10:59:28Z</time>
      </trkpt>
      <trkpt lat="47.16257" lon="-1.46899">
        <ele>70</ele>
        <time>2022-03-06T10:59:30Z</time>
      </trkpt>
      <trkpt lat="47.16258" lon="-1.46884">
        <ele>70</ele>
        <time>2022-03-06T10:59:32Z</time>
      </trkpt>
      <trkpt lat="47.16259" lon="-1.4687">
        <ele>70</ele>
        <time>2022-03-06T10:59:34Z</time>
      </trkpt>
      <trkpt lat="47.16259" lon="-1.46857">
        <ele>71</ele>
        <time>2022-03-06T10:59:36Z</time>
      </trkpt>
      <trkpt lat="47.16259" lon="-1.46843">
        <ele>71</ele>
        <time>2022-03-06T10:59:38Z</time>
      </trkpt>
      <trkpt lat="47.16256" lon="-1.46831">
        <ele>71</ele>
        <time>2022-03-06T10:59:40Z</time>
      </trkpt>
      <trkpt lat="47.16254" lon="-1.46817">
        <ele>71</ele>
        <time>2022-03-06T10:59:42Z</time>
      </trkpt>
      <trkpt lat="47.16256" lon="-1.46803">
        <ele>72</ele>
        <time>2022-03-06T10:59:44Z</time>
      </trkpt>
      <trkpt lat="47.16261" lon="-1.4679">
        <ele>72</ele>
        <time>2022-03-06T10:59:46Z</time>
      </trkpt>
      <trkpt lat="47.16265" lon="-1.46777">
        <ele>73</ele>
        <time>2022-03-06T10:59:48Z</time>
      </trkpt>
      <trkpt lat="47.16268" lon="-1.46763">
        <ele>73</ele>
        <time>2022-03-06T10:59:50Z</time>
      </trkpt>
      <trkpt lat="47.16269" lon="-1.4675">
        <ele>73</ele>
        <time>2022-03-06T10:59:52Z</time>
      </trkpt>
      <trkpt lat="47.1627" lon="-1.46736">
        <ele>73</ele>
        <time>2022-03-06T10:59:54Z</time>
      </trkpt>
      <trkpt lat="47.16272" lon="-1.46723">
        <ele>73</ele>
        <time>2022-03-06T10:59:56Z</time>
      </trkpt>
      <trkpt lat="47.16274" lon="-1.46708">
        <ele>73</ele>
        <time>2022-03-06T10:59:58Z</time>
      </trkpt>
      <trkpt lat="47.16275" lon="-1.46695">
        <ele>73</ele>
        <time>2022-03-06T11:00:00Z</time>
      </trkpt>
      <trkpt lat="47.16277" lon="-1.46682">
        <ele>73</ele>
        <time>2022-03-06T11:00:02Z</time>
      </trkpt>
      <trkpt lat="47.16278" lon="-1.46669">
        <ele>74</ele>
        <time>2022-03-06T11:00:04Z</time>
      </trkpt>
      <trkpt lat="47.1628" lon="-1.4665">
        <ele>75</ele>
        <time>2022-03-06T11:00:07Z</time>
      </trkpt>
      <trkpt lat="47.16281" lon="-1.46631">
        <ele>75</ele>
        <time>2022-03-06T11:00:10Z</time>
      </trkpt>
      <trkpt lat="47.16283" lon="-1.46611">
        <ele>76</ele>
        <time>2022-03-06T11:00:13Z</time>
      </trkpt>
      <trkpt lat="47.16284" lon="-1.46598">
        <ele>76</ele>
        <time>2022-03-06T11:00:15Z</time>
      </trkpt>
      <trkpt lat="47.16286" lon="-1.46584">
        <ele>77</ele>
        <time>2022-03-06T11:00:17Z</time>
      </trkpt>
      <trkpt lat="47.16287" lon="-1.46571">
        <ele>77</ele>
        <time>2022-03-06T11:00:19Z</time>
      </trkpt>
      <trkpt lat="47.16289" lon="-1.46551">
        <ele>78</ele>
        <time>2022-03-06T11:00:22Z</time>
      </trkpt>
      <trkpt lat="47.1629" lon="-1.46537">
        <ele>78</ele>
        <time>2022-03-06T11:00:24Z</time>
      </trkpt>
      <trkpt lat="47.16292" lon="-1.46523">
        <ele>78</ele>
        <time>2022-03-06T11:00:26Z</time>
      </trkpt>
      <trkpt lat="47.16293" lon="-1.4651">
        <ele>78</ele>
        <time>2022-03-06T11:00:28Z</time>
      </trkpt>
      <trkpt lat="47.16295" lon="-1.46496">
        <ele>79</ele>
        <time>2022-03-06T11:00:30Z</time>
      </trkpt>
      <trkpt lat="47.16297" lon="-1.46483">
        <ele>79</ele>
        <time>2022-03-06T11:00:32Z</time>
      </trkpt>
      <trkpt lat="47.16299" lon="-1.46469">
        <ele>79</ele>
        <time>2022-03-06T11:00:34Z</time>
      </trkpt>
      <trkpt lat="47.163" lon="-1.46455">
        <ele>79</ele>
        <time>2022-03-06T11:00:36Z</time>
      </trkpt>
      <trkpt lat="47.16303" lon="-1.46442">
        <ele>79</ele>
        <time>2022-03-06T11:00:38Z</time>
      </trkpt>
      <trkpt lat="47.16305" lon="-1.46428">
        <ele>80</ele>
        <time>2022-03-06T11:00:40Z</time>
      </trkpt>
      <trkpt lat="47.16308" lon="-1.46415">
        <ele>80</ele>
        <time>2022-03-06T11:00:42Z</time>
      </trkpt>
      <trkpt lat="47.16311" lon="-1.46401">
        <ele>80</ele>
        <time>2022-03-06T11:00:44Z</time>
      </trkpt>
      <trkpt lat="47.16314" lon="-1.46388">
        <ele>80</ele>
        <time>2022-03-06T11:00:46Z</time>
      </trkpt>
      <trkpt lat="47.16318" lon="-1.46375">
        <ele>81</ele>
        <time>2022-03-06T11:00:48Z</time>
      </trkpt>
      <trkpt lat="47.16322" lon="-1.46362">
        <ele>81</ele>
        <time>2022-03-06T11:00:50Z</time>
      </trkpt>
      <trkpt lat="47.16326" lon="-1.46349">
        <ele>82</ele>
        <time>2022-03-06T11:00:52Z</time>
      </trkpt>
      <trkpt lat="47.1633" lon="-1.46336">
        <ele>82</ele>
        <time>2022-03-06T11:00:54Z</time>
      </trkpt>
      <trkpt lat="47.16334" lon="-1.46324">
        <ele>81</ele>
        <time>2022-03-06T11:00:56Z</time>
      </trkpt>
      <trkpt lat="47.1634" lon="-1.46312">
        <ele>81</ele>
        <time>2022-03-06T11:00:58Z</time>
      </trkpt>
      <trkpt lat="47.16345" lon="-1.46299">
        <ele>82</ele>
        <time>2022-03-06T11:01:00Z</time>
      </trkpt>
      <trkpt lat="47.16351" lon="-1.46287">
        <ele>82</ele>
        <time>2022-03-06T11:01:02Z</time>
      </trkpt>
      <trkpt lat="47.16357" lon="-1.46275">
        <ele>82</ele>
        <time>2022-03-06T11:01:04Z</time>
      </trkpt>
      <trkpt lat="47.16363" lon="-1.46264">
        <ele>82</ele>
        <time>2022-03-06T11:01:06Z</time>
      </trkpt>
      <trkpt lat="47.1637" lon="-1.46253">
        <ele>82</ele>
        <time>2022-03-06T11:01:08Z</time>
      </trkpt>
      <trkpt lat="47.16377" lon="-1.46242">
        <ele>82</ele>
        <time>2022-03-06T11:01:10Z</time>
      </trkpt>
      <trkpt lat="47.16383" lon="-1.46231">
        <ele>82</ele>
        <time>2022-03-06T11:01:12Z</time>
      </trkpt>
      <trkpt lat="47.16391" lon="-1.4622">
        <ele>82</ele>
        <time>2022-03-06T11:01:14Z</time>
      </trkpt>
      <trkpt lat="47.16398" lon="-1.4621">
        <ele>82</ele>
        <time>2022-03-06T11:01:16Z</time>
      </trkpt>
      <trkpt lat="47.16406" lon="-1.462">
        <ele>82</ele>
        <time>2022-03-06T11:01:18Z</time>
      </trkpt>
      <trkpt lat="47.16414" lon="-1.4619">
        <ele>82</ele>
        <time>2022-03-06T11:01:20Z</time>
      </trkpt>
      <trkpt lat="47.16422" lon="-1.46181">
        <ele>82</ele>
        <time>2022-03-06T11:01:22Z</time>
      </trkpt>
      <trkpt lat="47.1643" lon="-1.46172">
        <ele>82</ele>
        <time>2022-03-06T11:01:24Z</time>
      </trkpt>
      <trkpt lat="47.16438" lon="-1.46163">
        <ele>82</ele>
        <time>2022-03-06T11:01:26Z</time>
      </trkpt>
      <trkpt lat="47.16446" lon="-1.46153">
        <ele>82</ele>
        <time>2022-03-06T11:01:28Z</time>
      </trkpt>
      <trkpt lat="47.16454" lon="-1.46143">
        <ele>82</ele>
        <time>2022-03-06T11:01:30Z</time>
      </trkpt>
      <trkpt lat="47.16462" lon="-1.46133">
        <ele>82</ele>
        <time>2022-03-06T11:01:32Z</time>
      </trkpt>
      <trkpt lat="47.1647" lon="-1.46123">
        <ele>82</ele>
        <time>2022-03-06T11:01:34Z</time>
      </trkpt>
      <trkpt lat="47.16478" lon="-1.46113">
        <ele>82</ele>
        <time>2022-03-06T11:01:36Z</time>
      </trkpt>
      <trkpt lat="47.16486" lon="-1.46103">
        <ele>82</ele>
        <time>2022-03-06T11:01:38Z</time>
      </trkpt>
      <trkpt lat="47.16494" lon="-1.46094">
        <ele>82</ele>
        <time>2022-03-06T11:01:40Z</time>
      </trkpt>
      <trkpt lat="47.16501" lon="-1.46085">
        <ele>82</ele>
        <time>2022-03-06T11:01:42Z</time>
      </trkpt>
      <trkpt lat="47.16506" lon="-1.46072">
        <ele>82</ele>
        <time>2022-03-06T11:01:46Z</time>
      </trkpt>
      <trkpt lat="47.16509" lon="-1.46053">
        <ele>82</ele>
        <time>2022-03-06T11:01:50Z</time>
      </trkpt>
      <trkpt lat="47.16514" lon="-1.46041">
        <ele>82</ele>
        <time>2022-03-06T11:01:52Z</time>
      </trkpt>
      <trkpt lat="47.16523" lon="-1.46032">
        <ele>81</ele>
        <time>2022-03-06T11:01:54Z</time>
      </trkpt>
      <trkpt lat="47.16534" lon="-1.46029">
        <ele>81</ele>
        <time>2022-03-06T11:01:56Z</time>
      </trkpt>
      <trkpt lat="47.16544" lon="-1.46032">
        <ele>81</ele>
        <time>2022-03-06T11:01:58Z</time>
      </trkpt>
      <trkpt lat="47.16554" lon="-1.4603">
        <ele>81</ele>
        <time>2022-03-06T11:02:00Z</time>
      </trkpt>
      <trkpt lat="47.16563" lon="-1.46022">
        <ele>81</ele>
        <time>2022-03-06T11:02:02Z</time>
      </trkpt>
      <trkpt lat="47.16572" lon="-1.46014">
        <ele>81</ele>
        <time>2022-03-06T11:02:04Z</time>
      </trkpt>
      <trkpt lat="47.1658" lon="-1.46006">
        <ele>82</ele>
        <time>2022-03-06T11:02:06Z</time>
      </trkpt>
      <trkpt lat="47.16588" lon="-1.45997">
        <ele>82</ele>
        <time>2022-03-06T11:02:08Z</time>
      </trkpt>
      <trkpt lat="47.16597" lon="-1.45989">
        <ele>82</ele>
        <time>2022-03-06T11:02:10Z</time>
      </trkpt>
      <trkpt lat="47.16606" lon="-1.45981">
        <ele>82</ele>
        <time>2022-03-06T11:02:12Z</time>
      </trkpt>
      <trkpt lat="47.16615" lon="-1.45972">
        <ele>82</ele>
        <time>2022-03-06T11:02:14Z</time>
      </trkpt>
      <trkpt lat="47.16624" lon="-1.45964">
        <ele>82</ele>
        <time>2022-03-06T11:02:16Z</time>
      </trkpt>
      <trkpt lat="47.16633" lon="-1.45955">
        <ele>82</ele>
        <time>2022-03-06T11:02:18Z</time>
      </trkpt>
      <trkpt lat="47.16642" lon="-1.45948">
        <ele>82</ele>
        <time>2022-03-06T11:02:20Z</time>
      </trkpt>
      <trkpt lat="47.16651" lon="-1.45941">
        <ele>82</ele>
        <time>2022-03-06T11:02:22Z</time>
      </trkpt>
      <trkpt lat="47.1666" lon="-1.45934">
        <ele>82</ele>
        <time>2022-03-06T11:02:24Z</time>
      </trkpt>
      <trkpt lat="47.16669" lon="-1.45928">
        <ele>82</ele>
        <time>2022-03-06T11:02:26Z</time>
      </trkpt>
      <trkpt lat="47.16678" lon="-1.45921">
        <ele>82</ele>
        <time>2022-03-06T11:02:28Z</time>
      </trkpt>
      <trkpt lat="47.16687" lon="-1.45916">
        <ele>82</ele>
        <time>2022-03-06T11:02:30Z</time>
      </trkpt>
      <trkpt lat="47.16696" lon="-1.45909">
        <ele>82</ele>
        <time>2022-03-06T11:02:32Z</time>
      </trkpt>
      <trkpt lat="47.16705" lon="-1.45903">
        <ele>83</ele>
        <time>2022-03-06T11:02:34Z</time>
      </trkpt>
      <trkpt lat="47.16715" lon="-1.45897">
        <ele>83</ele>
        <time>2022-03-06T11:02:36Z</time>
      </trkpt>
      <trkpt lat="47.16724" lon="-1.4589">
        <ele>83</ele>
        <time>2022-03-06T11:02:38Z</time>
      </trkpt>
      <trkpt lat="47.16734" lon="-1.45884">
        <ele>83</ele>
        <time>2022-03-06T11:02:40Z</time>
      </trkpt>
      <trkpt lat="47.16743" lon="-1.45878">
        <ele>84</ele>
        <time>2022-03-06T11:02:42Z</time>
      </trkpt>
      <trkpt lat="47.16752" lon="-1.45872">
        <ele>84</ele>
        <time>2022-03-06T11:02:44Z</time>
      </trkpt>
      <trkpt lat="47.16761" lon="-1.45866">
        <ele>84</ele>
        <time>2022-03-06T11:02:46Z</time>
      </trkpt>
      <trkpt lat="47.1677" lon="-1.4586">
        <ele>84</ele>
        <time>2022-03-06T11:02:48Z</time>
      </trkpt>
      <trkpt lat="47.1678" lon="-1.45854">
        <ele>84</ele>
        <time>2022-03-06T11:02:50Z</time>
      </trkpt>
      <trkpt lat="47.16789" lon="-1.45848">
        <ele>85</ele>
        <time>2022-03-06T11:02:52Z</time>
      </trkpt>
      <trkpt lat="47.16799" lon="-1.45842">
        <ele>85</ele>
        <time>2022-03-06T11:02:54Z</time>
      </trkpt>
      <trkpt lat="47.16808" lon="-1.45835">
        <ele>85</ele>
        <time>2022-03-06T11:02:56Z</time>
      </trkpt>
      <trkpt lat="47.16821" lon="-1.45827">
        <ele>85</ele>
        <time>2022-03-06T11:02:59Z</time>
      </trkpt>
      <trkpt lat="47.16835" lon="-1.45818">
        <ele>85</ele>
        <time>2022-03-06T11:03:02Z</time>
      </trkpt>
      <trkpt lat="47.16843" lon="-1.45812">
        <ele>85</ele>
        <time>2022-03-06T11:03:04Z</time>
      </trkpt>
      <trkpt lat="47.16852" lon="-1.45806">
        <ele>86</ele>
        <time>2022-03-06T11:03:06Z</time>
      </trkpt>
      <trkpt lat="47.16861" lon="-1.45799">
        <ele>86</ele>
        <time>2022-03-06T11:03:08Z</time>
      </trkpt>
      <trkpt lat="47.16869" lon="-1.45789">
        <ele>86</ele>
        <time>2022-03-06T11:03:10Z</time>
      </trkpt>
      <trkpt lat="47.16874" lon="-1.45776">
        <ele>86</ele>
        <time>2022-03-06T11:03:12Z</time>
      </trkpt>
      <trkpt lat="47.16882" lon="-1.45767">
        <ele>86</ele>
        <time>2022-03-06T11:03:14Z</time>
      </trkpt>
      <trkpt lat="47.16894" lon="-1.45764">
        <ele>86</ele>
        <time>2022-03-06T11:03:16Z</time>
      </trkpt>
      <trkpt lat="47.16904" lon="-1.45763">
        <ele>86</ele>
        <time>2022-03-06T11:03:18Z</time>
      </trkpt>
      <trkpt lat="47.16915" lon="-1.45759">
        <ele>86</ele>
        <time>2022-03-06T11:03:20Z</time>
      </trkpt>
      <trkpt lat="47.16925" lon="-1.45753">
        <ele>86</ele>
        <time>2022-03-06T11:03:22Z</time>
      </trkpt>
      <trkpt lat="47.16935" lon="-1.45746">
        <ele>85</ele>
        <time>2022-03-06T11:03:24Z</time>
      </trkpt>
      <trkpt lat="47.16946" lon="-1.45739">
        <ele>85</ele>
        <time>2022-03-06T11:03:26Z</time>
      </trkpt>
      <trkpt lat="47.16956" lon="-1.45733">
        <ele>84</ele>
        <time>2022-03-06T11:03:28Z</time>
      </trkpt>
      <trkpt lat="47.16966" lon="-1.45726">
        <ele>84</ele>
        <time>2022-03-06T11:03:30Z</time>
      </trkpt>
      <trkpt lat="47.16977" lon="-1.45719">
        <ele>84</ele>
        <time>2022-03-06T11:03:32Z</time>
      </trkpt>
      <trkpt lat="47.16988" lon="-1.45711">
        <ele>84</ele>
        <time>2022-03-06T11:03:34Z</time>
      </trkpt>
      <trkpt lat="47.17" lon="-1.45703">
        <ele>83</ele>
        <time>2022-03-06T11:03:36Z</time>
      </trkpt>
      <trkpt lat="47.17011" lon="-1.45696">
        <ele>83</ele>
        <time>2022-03-06T11:03:38Z</time>
      </trkpt>
      <trkpt lat="47.17023" lon="-1.45688">
        <ele>83</ele>
        <time>2022-03-06T11:03:40Z</time>
      </trkpt>
      <trkpt lat="47.17035" lon="-1.4568">
        <ele>82</ele>
        <time>2022-03-06T11:03:42Z</time>
      </trkpt>
      <trkpt lat="47.17047" lon="-1.45672">
        <ele>82</ele>
        <time>2022-03-06T11:03:44Z</time>
      </trkpt>
      <trkpt lat="47.17059" lon="-1.45664">
        <ele>81</ele>
        <time>2022-03-06T11:03:46Z</time>
      </trkpt>
      <trkpt lat="47.17072" lon="-1.45655">
        <ele>81</ele>
        <time>2022-03-06T11:03:48Z</time>
      </trkpt>
      <trkpt lat="47.17085" lon="-1.45647">
        <ele>81</ele>
        <time>2022-03-06T11:03:50Z</time>
      </trkpt>
      <trkpt lat="47.17099" lon="-1.4564">
        <ele>81</ele>
        <time>2022-03-06T11:03:52Z</time>
      </trkpt>
      <trkpt lat="47.17112" lon="-1.45634">
        <ele>81</ele>
        <time>2022-03-06T11:03:54Z</time>
      </trkpt>
      <trkpt lat="47.17126" lon="-1.45628">
        <ele>81</ele>
        <time>2022-03-06T11:03:56Z</time>
      </trkpt>
      <trkpt lat="47.17139" lon="-1.45624">
        <ele>81</ele>
        <time>2022-03-06T11:03:58Z</time>
      </trkpt>
      <trkpt lat="47.17152" lon="-1.4562">
        <ele>81</ele>
        <time>2022-03-06T11:04:00Z</time>
      </trkpt>
      <trkpt lat="47.17166" lon="-1.45616">
        <ele>80</ele>
        <time>2022-03-06T11:04:02Z</time>
      </trkpt>
      <trkpt lat="47.1718" lon="-1.45614">
        <ele>80</ele>
        <time>2022-03-06T11:04:04Z</time>
      </trkpt>
      <trkpt lat="47.17195" lon="-1.45612">
        <ele>80</ele>
        <time>2022-03-06T11:04:06Z</time>
      </trkpt>
      <trkpt lat="47.17208" lon="-1.45611">
        <ele>80</ele>
        <time>2022-03-06T11:04:08Z</time>
      </trkpt>
      <trkpt lat="47.17222" lon="-1.45611">
        <ele>80</ele>
        <time>2022-03-06T11:04:10Z</time>
      </trkpt>
      <trkpt lat="47.17234" lon="-1.45611">
        <ele>80</ele>
        <time>2022-03-06T11:04:12Z</time>
      </trkpt>
      <trkpt lat="47.17246" lon="-1.45612">
        <ele>80</ele>
        <time>2022-03-06T11:04:14Z</time>
      </trkpt>
      <trkpt lat="47.17257" lon="-1.45604">
        <ele>79</ele>
        <time>2022-03-06T11:04:16Z</time>
      </trkpt>
      <trkpt lat="47.17264" lon="-1.45589">
        <ele>79</ele>
        <time>2022-03-06T11:04:18Z</time>
      </trkpt>
      <trkpt lat="47.17265" lon="-1.45569">
        <ele>78</ele>
        <time>2022-03-06T11:04:20Z</time>
      </trkpt>
      <trkpt lat="47.17266" lon="-1.4555">
        <ele>77</ele>
        <time>2022-03-06T11:04:22Z</time>
      </trkpt>
      <trkpt lat="47.17267" lon="-1.4553">
        <ele>77</ele>
        <time>2022-03-06T11:04:24Z</time>
      </trkpt>
      <trkpt lat="47.17267" lon="-1.4551">
        <ele>77</ele>
        <time>2022-03-06T11:04:26Z</time>
      </trkpt>
      <trkpt lat="47.17267" lon="-1.4549">
        <ele>77</ele>
        <time>2022-03-06T11:04:28Z</time>
      </trkpt>
      <trkpt lat="47.17267" lon="-1.4547">
        <ele>76</ele>
        <time>2022-03-06T11:04:30Z</time>
      </trkpt>
      <trkpt lat="47.17267" lon="-1.4545">
        <ele>76</ele>
        <time>2022-03-06T11:04:32Z</time>
      </trkpt>
      <trkpt lat="47.17267" lon="-1.4543">
        <ele>76</ele>
        <time>2022-03-06T11:04:34Z</time>
      </trkpt>
      <trkpt lat="47.17267" lon="-1.45411">
        <ele>76</ele>
        <time>2022-03-06T11:04:36Z</time>
      </trkpt>
      <trkpt lat="47.17268" lon="-1.45393">
        <ele>76</ele>
        <time>2022-03-06T11:04:38Z</time>
      </trkpt>
      <trkpt lat="47.17269" lon="-1.45374">
        <ele>76</ele>
        <time>2022-03-06T11:04:40Z</time>
      </trkpt>
      <trkpt lat="47.17271" lon="-1.45356">
        <ele>76</ele>
        <time>2022-03-06T11:04:42Z</time>
      </trkpt>
      <trkpt lat="47.17273" lon="-1.45338">
        <ele>76</ele>
        <time>2022-03-06T11:04:44Z</time>
      </trkpt>
      <trkpt lat="47.17274" lon="-1.45321">
        <ele>75</ele>
        <time>2022-03-06T11:04:46Z</time>
      </trkpt>
      <trkpt lat="47.1728" lon="-1.45304">
        <ele>75</ele>
        <time>2022-03-06T11:04:48Z</time>
      </trkpt>
      <trkpt lat="47.17287" lon="-1.45288">
        <ele>75</ele>
        <time>2022-03-06T11:04:50Z</time>
      </trkpt>
      <trkpt lat="47.17292" lon="-1.45271">
        <ele>75</ele>
        <time>2022-03-06T11:04:52Z</time>
      </trkpt>
      <trkpt lat="47.17297" lon="-1.45254">
        <ele>75</ele>
        <time>2022-03-06T11:04:54Z</time>
      </trkpt>
      <trkpt lat="47.17302" lon="-1.45238">
        <ele>75</ele>
        <time>2022-03-06T11:04:56Z</time>
      </trkpt>
      <trkpt lat="47.17307" lon="-1.45222">
        <ele>75</ele>
        <time>2022-03-06T11:04:58Z</time>
      </trkpt>
      <trkpt lat="47.17312" lon="-1.45206">
        <ele>75</ele>
        <time>2022-03-06T11:05:00Z</time>
      </trkpt>
      <trkpt lat="47.17317" lon="-1.4519">
        <ele>75</ele>
        <time>2022-03-06T11:05:02Z</time>
      </trkpt>
      <trkpt lat="47.17322" lon="-1.45173">
        <ele>75</ele>
        <time>2022-03-06T11:05:04Z</time>
      </trkpt>
      <trkpt lat="47.17327" lon="-1.45157">
        <ele>74</ele>
        <time>2022-03-06T11:05:06Z</time>
      </trkpt>
      <trkpt lat="47.17332" lon="-1.45141">
        <ele>74</ele>
        <time>2022-03-06T11:05:08Z</time>
      </trkpt>
      <trkpt lat="47.17337" lon="-1.45125">
        <ele>74</ele>
        <time>2022-03-06T11:05:10Z</time>
      </trkpt>
      <trkpt lat="47.17342" lon="-1.45108">
        <ele>74</ele>
        <time>2022-03-06T11:05:12Z</time>
      </trkpt>
      <trkpt lat="47.17347" lon="-1.45092">
        <ele>75</ele>
        <time>2022-03-06T11:05:14Z</time>
      </trkpt>
      <trkpt lat="47.17353" lon="-1.45077">
        <ele>75</ele>
        <time>2022-03-06T11:05:16Z</time>
      </trkpt>
      <trkpt lat="47.17357" lon="-1.45062">
        <ele>75</ele>
        <time>2022-03-06T11:05:18Z</time>
      </trkpt>
      <trkpt lat="47.17361" lon="-1.45047">
        <ele>75</ele>
        <time>2022-03-06T11:05:20Z</time>
      </trkpt>
      <trkpt lat="47.17365" lon="-1.45033">
        <ele>76</ele>
        <time>2022-03-06T11:05:22Z</time>
      </trkpt>
      <trkpt lat="47.17369" lon="-1.45019">
        <ele>76</ele>
        <time>2022-03-06T11:05:24Z</time>
      </trkpt>
      <trkpt lat="47.17373" lon="-1.45005">
        <ele>76</ele>
        <time>2022-03-06T11:05:26Z</time>
      </trkpt>
      <trkpt lat="47.17377" lon="-1.44992">
        <ele>76</ele>
        <time>2022-03-06T11:05:28Z</time>
      </trkpt>
      <trkpt lat="47.17381" lon="-1.44978">
        <ele>76</ele>
        <time>2022-03-06T11:05:30Z</time>
      </trkpt>
      <trkpt lat="47.17384" lon="-1.44965">
        <ele>77</ele>
        <time>2022-03-06T11:05:32Z</time>
      </trkpt>
      <trkpt lat="47.17388" lon="-1.44952">
        <ele>77</ele>
        <time>2022-03-06T11:05:34Z</time>
      </trkpt>
      <trkpt lat="47.17393" lon="-1.44939">
        <ele>77</ele>
        <time>2022-03-06T11:05:36Z</time>
      </trkpt>
      <trkpt lat="47.17396" lon="-1.44925">
        <ele>78</ele>
        <time>2022-03-06T11:05:38Z</time>
      </trkpt>
      <trkpt lat="47.17401" lon="-1.44912">
        <ele>78</ele>
        <time>2022-03-06T11:05:40Z</time>
      </trkpt>
      <trkpt lat="47.17406" lon="-1.44899">
        <ele>79</ele>
        <time>2022-03-06T11:05:42Z</time>
      </trkpt>
      <trkpt lat="47.17411" lon="-1.44887">
        <ele>79</ele>
        <time>2022-03-06T11:05:44Z</time>
      </trkpt>
      <trkpt lat="47.17417" lon="-1.44876">
        <ele>79</ele>
        <time>2022-03-06T11:05:46Z</time>
      </trkpt>
      <trkpt lat="47.17423" lon="-1.44864">
        <ele>80</ele>
        <time>2022-03-06T11:05:48Z</time>
      </trkpt>
      <trkpt lat="47.17431" lon="-1.44855">
        <ele>80</ele>
        <time>2022-03-06T11:05:50Z</time>
      </trkpt>
      <trkpt lat="47.17439" lon="-1.44846">
        <ele>80</ele>
        <time>2022-03-06T11:05:52Z</time>
      </trkpt>
      <trkpt lat="47.17448" lon="-1.44838">
        <ele>81</ele>
        <time>2022-03-06T11:05:54Z</time>
      </trkpt>
      <trkpt lat="47.17456" lon="-1.44831">
        <ele>81</ele>
        <time>2022-03-06T11:05:56Z</time>
      </trkpt>
      <trkpt lat="47.17465" lon="-1.44824">
        <ele>81</ele>
        <time>2022-03-06T11:05:58Z</time>
      </trkpt>
      <trkpt lat="47.17473" lon="-1.44818">
        <ele>81</ele>
        <time>2022-03-06T11:06:00Z</time>
      </trkpt>
      <trkpt lat="47.17482" lon="-1.44811">
        <ele>81</ele>
        <time>2022-03-06T11:06:02Z</time>
      </trkpt>
      <trkpt lat="47.17491" lon="-1.44804">
        <ele>81</ele>
        <time>2022-03-06T11:06:04Z</time>
      </trkpt>
      <trkpt lat="47.175" lon="-1.44797">
        <ele>81</ele>
        <time>2022-03-06T11:06:06Z</time>
      </trkpt>
      <trkpt lat="47.17509" lon="-1.4479">
        <ele>81</ele>
        <time>2022-03-06T11:06:08Z</time>
      </trkpt>
      <trkpt lat="47.17519" lon="-1.44782">
        <ele>81</ele>
        <time>2022-03-06T11:06:10Z</time>
      </trkpt>
      <trkpt lat="47.17528" lon="-1.44774">
        <ele>81</ele>
        <time>2022-03-06T11:06:12Z</time>
      </trkpt>
      <trkpt lat="47.17538" lon="-1.44766">
        <ele>80</ele>
        <time>2022-03-06T11:06:14Z</time>
      </trkpt>
      <trkpt lat="47.17549" lon="-1.44758">
        <ele>80</ele>
        <time>2022-03-06T11:06:16Z</time>
      </trkpt>
      <trkpt lat="47.17559" lon="-1.4475">
        <ele>79</ele>
        <time>2022-03-06T11:06:18Z</time>
      </trkpt>
      <trkpt lat="47.1757" lon="-1.44741">
        <ele>79</ele>
        <time>2022-03-06T11:06:20Z</time>
      </trkpt>
      <trkpt lat="47.17582" lon="-1.44733">
        <ele>78</ele>
        <time>2022-03-06T11:06:22Z</time>
      </trkpt>
      <trkpt lat="47.17594" lon="-1.44723">
        <ele>78</ele>
        <time>2022-03-06T11:06:24Z</time>
      </trkpt>
      <trkpt lat="47.17605" lon="-1.44714">
        <ele>77</ele>
        <time>2022-03-06T11:06:26Z</time>
      </trkpt>
      <trkpt lat="47.17616" lon="-1.44705">
        <ele>76</ele>
        <time>2022-03-06T11:06:28Z</time>
      </trkpt>
      <trkpt lat="47.17627" lon="-1.44697">
        <ele>76</ele>
        <time>2022-03-06T11:06:30Z</time>
      </trkpt>
      <trkpt lat="47.17638" lon="-1.44689">
        <ele>76</ele>
        <time>2022-03-06T11:06:32Z</time>
      </trkpt>
      <trkpt lat="47.1765" lon="-1.44681">
        <ele>76</ele>
        <time>2022-03-06T11:06:34Z</time>
      </trkpt>
      <trkpt lat="47.17661" lon="-1.44671">
        <ele>75</ele>
        <time>2022-03-06T11:06:36Z</time>
      </trkpt>
      <trkpt lat="47.17673" lon="-1.44661">
        <ele>74</ele>
        <time>2022-03-06T11:06:38Z</time>
      </trkpt>
      <trkpt lat="47.17686" lon="-1.44652">
        <ele>74</ele>
        <time>2022-03-06T11:06:40Z</time>
      </trkpt>
      <trkpt lat="47.17698" lon="-1.44642">
        <ele>73</ele>
        <time>2022-03-06T11:06:42Z</time>
      </trkpt>
      <trkpt lat="47.17711" lon="-1.44633">
        <ele>73</ele>
        <time>2022-03-06T11:06:44Z</time>
      </trkpt>
      <trkpt lat="47.17724" lon="-1.44625">
        <ele>73</ele>
        <time>2022-03-06T11:06:46Z</time>
      </trkpt>
      <trkpt lat="47.17737" lon="-1.4462">
        <ele>73</ele>
        <time>2022-03-06T11:06:48Z</time>
      </trkpt>
      <trkpt lat="47.17751" lon="-1.44616">
        <ele>73</ele>
        <time>2022-03-06T11:06:50Z</time>
      </trkpt>
      <trkpt lat="47.17764" lon="-1.44616">
        <ele>73</ele>
        <time>2022-03-06T11:06:52Z</time>
      </trkpt>
      <trkpt lat="47.17777" lon="-1.44618">
        <ele>73</ele>
        <time>2022-03-06T11:06:54Z</time>
      </trkpt>
      <trkpt lat="47.17791" lon="-1.4462">
        <ele>73</ele>
        <time>2022-03-06T11:06:56Z</time>
      </trkpt>
      <trkpt lat="47.17804" lon="-1.44623">
        <ele>73</ele>
        <time>2022-03-06T11:06:58Z</time>
      </trkpt>
      <trkpt lat="47.17817" lon="-1.44626">
        <ele>73</ele>
        <time>2022-03-06T11:07:00Z</time>
      </trkpt>
      <trkpt lat="47.17829" lon="-1.44628">
        <ele>73</ele>
        <time>2022-03-06T11:07:02Z</time>
      </trkpt>
      <trkpt lat="47.17841" lon="-1.44631">
        <ele>73</ele>
        <time>2022-03-06T11:07:04Z</time>
      </trkpt>
      <trkpt lat="47.17853" lon="-1.44634">
        <ele>73</ele>
        <time>2022-03-06T11:07:06Z</time>
      </trkpt>
      <trkpt lat="47.17864" lon="-1.44636">
        <ele>73</ele>
        <time>2022-03-06T11:07:08Z</time>
      </trkpt>
      <trkpt lat="47.17876" lon="-1.44638">
        <ele>73</ele>
        <time>2022-03-06T11:07:10Z</time>
      </trkpt>
      <trkpt lat="47.17887" lon="-1.44636">
        <ele>73</ele>
        <time>2022-03-06T11:07:12Z</time>
      </trkpt>
      <trkpt lat="47.17898" lon="-1.44631">
        <ele>73</ele>
        <time>2022-03-06T11:07:14Z</time>
      </trkpt>
      <trkpt lat="47.17908" lon="-1.44624">
        <ele>72</ele>
        <time>2022-03-06T11:07:16Z</time>
      </trkpt>
      <trkpt lat="47.17919" lon="-1.44617">
        <ele>72</ele>
        <time>2022-03-06T11:07:18Z</time>
      </trkpt>
      <trkpt lat="47.1793" lon="-1.44609">
        <ele>73</ele>
        <time>2022-03-06T11:07:20Z</time>
      </trkpt>
      <trkpt lat="47.17941" lon="-1.44602">
        <ele>73</ele>
        <time>2022-03-06T11:07:22Z</time>
      </trkpt>
      <trkpt lat="47.17952" lon="-1.44593">
        <ele>73</ele>
        <time>2022-03-06T11:07:24Z</time>
      </trkpt>
      <trkpt lat="47.17962" lon="-1.44584">
        <ele>74</ele>
        <time>2022-03-06T11:07:26Z</time>
      </trkpt>
      <trkpt lat="47.17972" lon="-1.44573">
        <ele>74</ele>
        <time>2022-03-06T11:07:28Z</time>
      </trkpt>
      <trkpt lat="47.17981" lon="-1.44563">
        <ele>74</ele>
        <time>2022-03-06T11:07:30Z</time>
      </trkpt>
      <trkpt lat="47.17989" lon="-1.44552">
        <ele>75</ele>
        <time>2022-03-06T11:07:32Z</time>
      </trkpt>
      <trkpt lat="47.17998" lon="-1.44541">
        <ele>75</ele>
        <time>2022-03-06T11:07:34Z</time>
      </trkpt>
      <trkpt lat="47.18007" lon="-1.44531">
        <ele>75</ele>
        <time>2022-03-06T11:07:36Z</time>
      </trkpt>
      <trkpt lat="47.18016" lon="-1.4452">
        <ele>75</ele>
        <time>2022-03-06T11:07:38Z</time>
      </trkpt>
      <trkpt lat="47.18024" lon="-1.4451">
        <ele>75</ele>
        <time>2022-03-06T11:07:40Z</time>
      </trkpt>
      <trkpt lat="47.18032" lon="-1.44499">
        <ele>75</ele>
        <time>2022-03-06T11:07:42Z</time>
      </trkpt>
      <trkpt lat="47.1804" lon="-1.44489">
        <ele>75</ele>
        <time>2022-03-06T11:07:44Z</time>
      </trkpt>
      <trkpt lat="47.18049" lon="-1.44478">
        <ele>76</ele>
        <time>2022-03-06T11:07:46Z</time>
      </trkpt>
      <trkpt lat="47.18056" lon="-1.44467">
        <ele>76</ele>
        <time>2022-03-06T11:07:48Z</time>
      </trkpt>
      <trkpt lat="47.18063" lon="-1.44455">
        <ele>76</ele>
        <time>2022-03-06T11:07:50Z</time>
      </trkpt>
      <trkpt lat="47.18069" lon="-1.44442">
        <ele>76</ele>
        <time>2022-03-06T11:07:52Z</time>
      </trkpt>
      <trkpt lat="47.18074" lon="-1.44429">
        <ele>76</ele>
        <time>2022-03-06T11:07:54Z</time>
      </trkpt>
      <trkpt lat="47.1808" lon="-1.44416">
        <ele>76</ele>
        <time>2022-03-06T11:07:56Z</time>
      </trkpt>
      <trkpt lat="47.18085" lon="-1.44401">
        <ele>77</ele>
        <time>2022-03-06T11:07:58Z</time>
      </trkpt>
      <trkpt lat="47.18091" lon="-1.44387">
        <ele>77</ele>
        <time>2022-03-06T11:08:00Z</time>
      </trkpt>
      <trkpt lat="47.18096" lon="-1.44374">
        <ele>77</ele>
        <time>2022-03-06T11:08:02Z</time>
      </trkpt>
      <trkpt lat="47.18101" lon="-1.44361">
        <ele>78</ele>
        <time>2022-03-06T11:08:04Z</time>
      </trkpt>
      <trkpt lat="47.18106" lon="-1.44348">
        <ele>78</ele>
        <time>2022-03-06T11:08:06Z</time>
      </trkpt>
      <trkpt lat="47.18111" lon="-1.44334">
        <ele>77</ele>
        <time>2022-03-06T11:08:08Z</time>
      </trkpt>
      <trkpt lat="47.18116" lon="-1.4432">
        <ele>78</ele>
        <time>2022-03-06T11:08:10Z</time>
      </trkpt>
      <trkpt lat="47.18122" lon="-1.44307">
        <ele>78</ele>
        <time>2022-03-06T11:08:12Z</time>
      </trkpt>
      <trkpt lat="47.18127" lon="-1.44292">
        <ele>78</ele>
        <time>2022-03-06T11:08:14Z</time>
      </trkpt>
      <trkpt lat="47.18132" lon="-1.44278">
        <ele>78</ele>
        <time>2022-03-06T11:08:16Z</time>
      </trkpt>
      <trkpt lat="47.18137" lon="-1.44264">
        <ele>78</ele>
        <time>2022-03-06T11:08:18Z</time>
      </trkpt>
      <trkpt lat="47.18143" lon="-1.4425">
        <ele>78</ele>
        <time>2022-03-06T11:08:20Z</time>
      </trkpt>
      <trkpt lat="47.18148" lon="-1.44237">
        <ele>79</ele>
        <time>2022-03-06T11:08:22Z</time>
      </trkpt>
      <trkpt lat="47.18153" lon="-1.44223">
        <ele>78</ele>
        <time>2022-03-06T11:08:24Z</time>
      </trkpt>
      <trkpt lat="47.18159" lon="-1.44209">
        <ele>79</ele>
        <time>2022-03-06T11:08:26Z</time>
      </trkpt>
      <trkpt lat="47.18164" lon="-1.44195">
        <ele>79</ele>
        <time>2022-03-06T11:08:28Z</time>
      </trkpt>
      <trkpt lat="47.18169" lon="-1.44181">
        <ele>80</ele>
        <time>2022-03-06T11:08:30Z</time>
      </trkpt>
      <trkpt lat="47.18174" lon="-1.44167">
        <ele>80</ele>
        <time>2022-03-06T11:08:32Z</time>
      </trkpt>
      <trkpt lat="47.18179" lon="-1.44153">
        <ele>80</ele>
        <time>2022-03-06T11:08:34Z</time>
      </trkpt>
      <trkpt lat="47.18184" lon="-1.4414">
        <ele>80</ele>
        <time>2022-03-06T11:08:36Z</time>
      </trkpt>
      <trkpt lat="47.18189" lon="-1.44126">
        <ele>80</ele>
        <time>2022-03-06T11:08:38Z</time>
      </trkpt>
      <trkpt lat="47.18194" lon="-1.44113">
        <ele>80</ele>
        <time>2022-03-06T11:08:40Z</time>
      </trkpt>
      <trkpt lat="47.18199" lon="-1.44099">
        <ele>80</ele>
        <time>2022-03-06T11:08:42Z</time>
      </trkpt>
      <trkpt lat="47.18205" lon="-1.44086">
        <ele>80</ele>
        <time>2022-03-06T11:08:44Z</time>
      </trkpt>
      <trkpt lat="47.18211" lon="-1.44074">
        <ele>81</ele>
        <time>2022-03-06T11:08:46Z</time>
      </trkpt>
      <trkpt lat="47.18218" lon="-1.44062">
        <ele>81</ele>
        <time>2022-03-06T11:08:48Z</time>
      </trkpt>
      <trkpt lat="47.18225" lon="-1.4405">
        <ele>81</ele>
        <time>2022-03-06T11:08:50Z</time>
      </trkpt>
      <trkpt lat="47.18233" lon="-1.4404">
        <ele>82</ele>
        <time>2022-03-06T11:08:52Z</time>
      </trkpt>
      <trkpt lat="47.18242" lon="-1.44031">
        <ele>82</ele>
        <time>2022-03-06T11:08:54Z</time>
      </trkpt>
      <trkpt lat="47.18251" lon="-1.44023">
        <ele>82</ele>
        <time>2022-03-06T11:08:56Z</time>
      </trkpt>
      <trkpt lat="47.18261" lon="-1.44015">
        <ele>83</ele>
        <time>2022-03-06T11:08:58Z</time>
      </trkpt>
      <trkpt lat="47.1827" lon="-1.44009">
        <ele>84</ele>
        <time>2022-03-06T11:09:00Z</time>
      </trkpt>
      <trkpt lat="47.1828" lon="-1.44003">
        <ele>84</ele>
        <time>2022-03-06T11:09:02Z</time>
      </trkpt>
      <trkpt lat="47.1829" lon="-1.43999">
        <ele>85</ele>
        <time>2022-03-06T11:09:04Z</time>
      </trkpt>
      <trkpt lat="47.18299" lon="-1.43994">
        <ele>85</ele>
        <time>2022-03-06T11:09:06Z</time>
      </trkpt>
      <trkpt lat="47.18309" lon="-1.43988">
        <ele>85</ele>
        <time>2022-03-06T11:09:08Z</time>
      </trkpt>
      <trkpt lat="47.18319" lon="-1.43982">
        <ele>85</ele>
        <time>2022-03-06T11:09:10Z</time>
      </trkpt>
      <trkpt lat="47.18328" lon="-1.43977">
        <ele>86</ele>
        <time>2022-03-06T11:09:12Z</time>
      </trkpt>
      <trkpt lat="47.18338" lon="-1.43971">
        <ele>86</ele>
        <time>2022-03-06T11:09:14Z</time>
      </trkpt>
      <trkpt lat="47.18348" lon="-1.43966">
        <ele>86</ele>
        <time>2022-03-06T11:09:16Z</time>
      </trkpt>
      <trkpt lat="47.18358" lon="-1.43961">
        <ele>86</ele>
        <time>2022-03-06T11:09:18Z</time>
      </trkpt>
      <trkpt lat="47.18367" lon="-1.43956">
        <ele>86</ele>
        <time>2022-03-06T11:09:20Z</time>
      </trkpt>
      <trkpt lat="47.18376" lon="-1.43951">
        <ele>86</ele>
        <time>2022-03-06T11:09:22Z</time>
      </trkpt>
      <trkpt lat="47.18385" lon="-1.43946">
        <ele>87</ele>
        <time>2022-03-06T11:09:24Z</time>
      </trkpt>
      <trkpt lat="47.18394" lon="-1.43941">
        <ele>87</ele>
        <time>2022-03-06T11:09:26Z</time>
      </trkpt>
      <trkpt lat="47.18403" lon="-1.43937">
        <ele>87</ele>
        <time>2022-03-06T11:09:28Z</time>
      </trkpt>
      <trkpt lat="47.18411" lon="-1.43932">
        <ele>88</ele>
        <time>2022-03-06T11:09:30Z</time>
      </trkpt>
      <trkpt lat="47.1842" lon="-1.43928">
        <ele>88</ele>
        <time>2022-03-06T11:09:32Z</time>
      </trkpt>
      <trkpt lat="47.18432" lon="-1.43919">
        <ele>88</ele>
        <time>2022-03-06T11:09:35Z</time>
      </trkpt>
      <trkpt lat="47.18439" lon="-1.43909">
        <ele>89</ele>
        <time>2022-03-06T11:09:38Z</time>
      </trkpt>
      <trkpt lat="47.18444" lon="-1.43895">
        <ele>89</ele>
        <time>2022-03-06T11:09:41Z</time>
      </trkpt>
      <trkpt lat="47.18448" lon="-1.43882">
        <ele>89</ele>
        <time>2022-03-06T11:09:43Z</time>
      </trkpt>
      <trkpt lat="47.18458" lon="-1.43875">
        <ele>89</ele>
        <time>2022-03-06T11:09:45Z</time>
      </trkpt>
      <trkpt lat="47.18467" lon="-1.43873">
        <ele>89</ele>
        <time>2022-03-06T11:09:47Z</time>
      </trkpt>
      <trkpt lat="47.18478" lon="-1.43874">
        <ele>89</ele>
        <time>2022-03-06T11:09:49Z</time>
      </trkpt>
      <trkpt lat="47.18489" lon="-1.43874">
        <ele>88</ele>
        <time>2022-03-06T11:09:51Z</time>
      </trkpt>
      <trkpt lat="47.185" lon="-1.4387">
        <ele>88</ele>
        <time>2022-03-06T11:09:53Z</time>
      </trkpt>
      <trkpt lat="47.1851" lon="-1.43866">
        <ele>88</ele>
        <time>2022-03-06T11:09:55Z</time>
      </trkpt>
      <trkpt lat="47.1852" lon="-1.4386">
        <ele>88</ele>
        <time>2022-03-06T11:09:57Z</time>
      </trkpt>
      <trkpt lat="47.1853" lon="-1.43854">
        <ele>88</ele>
        <time>2022-03-06T11:09:59Z</time>
      </trkpt>
      <trkpt lat="47.18539" lon="-1.43848">
        <ele>89</ele>
        <time>2022-03-06T11:10:01Z</time>
      </trkpt>
      <trkpt lat="47.18549" lon="-1.43842">
        <ele>89</ele>
        <time>2022-03-06T11:10:03Z</time>
      </trkpt>
      <trkpt lat="47.18558" lon="-1.43836">
        <ele>89</ele>
        <time>2022-03-06T11:10:05Z</time>
      </trkpt>
      <trkpt lat="47.18567" lon="-1.43829">
        <ele>89</ele>
        <time>2022-03-06T11:10:07Z</time>
      </trkpt>
      <trkpt lat="47.18576" lon="-1.43823">
        <ele>90</ele>
        <time>2022-03-06T11:10:09Z</time>
      </trkpt>
      <trkpt lat="47.18585" lon="-1.43817">
        <ele>90</ele>
        <time>2022-03-06T11:10:11Z</time>
      </trkpt>
      <trkpt lat="47.18594" lon="-1.4381">
        <ele>90</ele>
        <time>2022-03-06T11:10:13Z</time>
      </trkpt>
      <trkpt lat="47.18604" lon="-1.43803">
        <ele>90</ele>
        <time>2022-03-06T11:10:15Z</time>
      </trkpt>
      <trkpt lat="47.18613" lon="-1.43797">
        <ele>90</ele>
        <time>2022-03-06T11:10:17Z</time>
      </trkpt>
      <trkpt lat="47.18622" lon="-1.43791">
        <ele>90</ele>
        <time>2022-03-06T11:10:19Z</time>
      </trkpt>
      <trkpt lat="47.18631" lon="-1.43784">
        <ele>91</ele>
        <time>2022-03-06T11:10:21Z</time>
      </trkpt>
      <trkpt lat="47.1864" lon="-1.43777">
        <ele>91</ele>
        <time>2022-03-06T11:10:23Z</time>
      </trkpt>
      <trkpt lat="47.18649" lon="-1.43771">
        <ele>91</ele>
        <time>2022-03-06T11:10:25Z</time>
      </trkpt>
      <trkpt lat="47.18659" lon="-1.43766">
        <ele>92</ele>
        <time>2022-03-06T11:10:27Z</time>
      </trkpt>
      <trkpt lat="47.18668" lon="-1.4376">
        <ele>93</ele>
        <time>2022-03-06T11:10:29Z</time>
      </trkpt>
      <trkpt lat="47.18678" lon="-1.43754">
        <ele>93</ele>
        <time>2022-03-06T11:10:31Z</time>
      </trkpt>
      <trkpt lat="47.18687" lon="-1.43748">
        <ele>93</ele>
        <time>2022-03-06T11:10:33Z</time>
      </trkpt>
      <trkpt lat="47.18696" lon="-1.43743">
        <ele>94</ele>
        <time>2022-03-06T11:10:35Z</time>
      </trkpt>
      <trkpt lat="47.18705" lon="-1.43737">
        <ele>94</ele>
        <time>2022-03-06T11:10:37Z</time>
      </trkpt>
      <trkpt lat="47.18714" lon="-1.43731">
        <ele>95</ele>
        <time>2022-03-06T11:10:39Z</time>
      </trkpt>
      <trkpt lat="47.18724" lon="-1.43725">
        <ele>95</ele>
        <time>2022-03-06T11:10:41Z</time>
      </trkpt>
      <trkpt lat="47.18734" lon="-1.4372">
        <ele>95</ele>
        <time>2022-03-06T11:10:43Z</time>
      </trkpt>
      <trkpt lat="47.18742" lon="-1.43713">
        <ele>95</ele>
        <time>2022-03-06T11:10:45Z</time>
      </trkpt>
      <trkpt lat="47.18752" lon="-1.43708">
        <ele>95</ele>
        <time>2022-03-06T11:10:47Z</time>
      </trkpt>
      <trkpt lat="47.18761" lon="-1.43701">
        <ele>94</ele>
        <time>2022-03-06T11:10:49Z</time>
      </trkpt>
      <trkpt lat="47.18771" lon="-1.43694">
        <ele>94</ele>
        <time>2022-03-06T11:10:51Z</time>
      </trkpt>
      <trkpt lat="47.18779" lon="-1.43686">
        <ele>94</ele>
        <time>2022-03-06T11:10:53Z</time>
      </trkpt>
      <trkpt lat="47.18788" lon="-1.43676">
        <ele>94</ele>
        <time>2022-03-06T11:10:55Z</time>
      </trkpt>
      <trkpt lat="47.18796" lon="-1.43667">
        <ele>94</ele>
        <time>2022-03-06T11:10:57Z</time>
      </trkpt>
      <trkpt lat="47.18805" lon="-1.43658">
        <ele>94</ele>
        <time>2022-03-06T11:10:59Z</time>
      </trkpt>
      <trkpt lat="47.18814" lon="-1.43648">
        <ele>94</ele>
        <time>2022-03-06T11:11:01Z</time>
      </trkpt>
      <trkpt lat="47.18822" lon="-1.43638">
        <ele>94</ele>
        <time>2022-03-06T11:11:03Z</time>
      </trkpt>
      <trkpt lat="47.18832" lon="-1.43629">
        <ele>94</ele>
        <time>2022-03-06T11:11:05Z</time>
      </trkpt>
      <trkpt lat="47.18841" lon="-1.43619">
        <ele>93</ele>
        <time>2022-03-06T11:11:07Z</time>
      </trkpt>
      <trkpt lat="47.18849" lon="-1.4361">
        <ele>93</ele>
        <time>2022-03-06T11:11:09Z</time>
      </trkpt>
      <trkpt lat="47.18858" lon="-1.43601">
        <ele>94</ele>
        <time>2022-03-06T11:11:11Z</time>
      </trkpt>
      <trkpt lat="47.18867" lon="-1.43593">
        <ele>93</ele>
        <time>2022-03-06T11:11:13Z</time>
      </trkpt>
      <trkpt lat="47.18876" lon="-1.43584">
        <ele>94</ele>
        <time>2022-03-06T11:11:15Z</time>
      </trkpt>
      <trkpt lat="47.18886" lon="-1.43576">
        <ele>94</ele>
        <time>2022-03-06T11:11:17Z</time>
      </trkpt>
      <trkpt lat="47.18895" lon="-1.43568">
        <ele>94</ele>
        <time>2022-03-06T11:11:19Z</time>
      </trkpt>
      <trkpt lat="47.18906" lon="-1.4356">
        <ele>94</ele>
        <time>2022-03-06T11:11:21Z</time>
      </trkpt>
      <trkpt lat="47.18918" lon="-1.43554">
        <ele>94</ele>
        <time>2022-03-06T11:11:23Z</time>
      </trkpt>
      <trkpt lat="47.18929" lon="-1.43548">
        <ele>95</ele>
        <time>2022-03-06T11:11:25Z</time>
      </trkpt>
      <trkpt lat="47.18941" lon="-1.43544">
        <ele>94</ele>
        <time>2022-03-06T11:11:27Z</time>
      </trkpt>
      <trkpt lat="47.18952" lon="-1.43539">
        <ele>94</ele>
        <time>2022-03-06T11:11:29Z</time>
      </trkpt>
      <trkpt lat="47.18966" lon="-1.43534">
        <ele>93</ele>
        <time>2022-03-06T11:11:31Z</time>
      </trkpt>
      <trkpt lat="47.1898" lon="-1.4353">
        <ele>92</ele>
        <time>2022-03-06T11:11:33Z</time>
      </trkpt>
      <trkpt lat="47.18994" lon="-1.43524">
        <ele>90</ele>
        <time>2022-03-06T11:11:35Z</time>
      </trkpt>
      <trkpt lat="47.19007" lon="-1.43521">
        <ele>90</ele>
        <time>2022-03-06T11:11:37Z</time>
      </trkpt>
      <trkpt lat="47.19019" lon="-1.43529">
        <ele>90</ele>
        <time>2022-03-06T11:11:39Z</time>
      </trkpt>
      <trkpt lat="47.19031" lon="-1.43538">
        <ele>90</ele>
        <time>2022-03-06T11:11:41Z</time>
      </trkpt>
      <trkpt lat="47.19046" lon="-1.43538">
        <ele>89</ele>
        <time>2022-03-06T11:11:43Z</time>
      </trkpt>
      <trkpt lat="47.19059" lon="-1.43536">
        <ele>89</ele>
        <time>2022-03-06T11:11:45Z</time>
      </trkpt>
      <trkpt lat="47.19073" lon="-1.43533">
        <ele>89</ele>
        <time>2022-03-06T11:11:47Z</time>
      </trkpt>
      <trkpt lat="47.19086" lon="-1.43531">
        <ele>89</ele>
        <time>2022-03-06T11:11:49Z</time>
      </trkpt>
      <trkpt lat="47.19099" lon="-1.4353">
        <ele>89</ele>
        <time>2022-03-06T11:11:51Z</time>
      </trkpt>
      <trkpt lat="47.19111" lon="-1.43529">
        <ele>88</ele>
        <time>2022-03-06T11:11:53Z</time>
      </trkpt>
      <trkpt lat="47.19123" lon="-1.43527">
        <ele>88</ele>
        <time>2022-03-06T11:11:55Z</time>
      </trkpt>
      <trkpt lat="47.19136" lon="-1.43524">
        <ele>88</ele>
        <time>2022-03-06T11:11:57Z</time>
      </trkpt>
      <trkpt lat="47.19148" lon="-1.4352">
        <ele>88</ele>
        <time>2022-03-06T11:11:59Z</time>
      </trkpt>
      <trkpt lat="47.1916" lon="-1.43516">
        <ele>87</ele>
        <time>2022-03-06T11:12:01Z</time>
      </trkpt>
      <trkpt lat="47.19173" lon="-1.43511">
        <ele>87</ele>
        <time>2022-03-06T11:12:03Z</time>
      </trkpt>
      <trkpt lat="47.19186" lon="-1.43507">
        <ele>86</ele>
        <time>2022-03-06T11:12:05Z</time>
      </trkpt>
      <trkpt lat="47.19198" lon="-1.43502">
        <ele>86</ele>
        <time>2022-03-06T11:12:07Z</time>
      </trkpt>
      <trkpt lat="47.19211" lon="-1.43497">
        <ele>86</ele>
        <time>2022-03-06T11:12:09Z</time>
      </trkpt>
      <trkpt lat="47.19224" lon="-1.43491">
        <ele>86</ele>
        <time>2022-03-06T11:12:11Z</time>
      </trkpt>
      <trkpt lat="47.19236" lon="-1.43484">
        <ele>85</ele>
        <time>2022-03-06T11:12:13Z</time>
      </trkpt>
      <trkpt lat="47.19249" lon="-1.43477">
        <ele>85</ele>
        <time>2022-03-06T11:12:15Z</time>
      </trkpt>
      <trkpt lat="47.19261" lon="-1.43469">
        <ele>84</ele>
        <time>2022-03-06T11:12:17Z</time>
      </trkpt>
      <trkpt lat="47.19273" lon="-1.43456">
        <ele>84</ele>
        <time>2022-03-06T11:12:19Z</time>
      </trkpt>
      <trkpt lat="47.19286" lon="-1.43447">
        <ele>83</ele>
        <time>2022-03-06T11:12:21Z</time>
      </trkpt>
      <trkpt lat="47.19301" lon="-1.43442">
        <ele>82</ele>
        <time>2022-03-06T11:12:23Z</time>
      </trkpt>
      <trkpt lat="47.19315" lon="-1.43433">
        <ele>81</ele>
        <time>2022-03-06T11:12:25Z</time>
      </trkpt>
      <trkpt lat="47.19331" lon="-1.43424">
        <ele>80</ele>
        <time>2022-03-06T11:12:27Z</time>
      </trkpt>
      <trkpt lat="47.19346" lon="-1.43413">
        <ele>79</ele>
        <time>2022-03-06T11:12:29Z</time>
      </trkpt>
      <trkpt lat="47.19361" lon="-1.43403">
        <ele>79</ele>
        <time>2022-03-06T11:12:31Z</time>
      </trkpt>
      <trkpt lat="47.19375" lon="-1.43393">
        <ele>78</ele>
        <time>2022-03-06T11:12:33Z</time>
      </trkpt>
      <trkpt lat="47.19388" lon="-1.43383">
        <ele>78</ele>
        <time>2022-03-06T11:12:35Z</time>
      </trkpt>
      <trkpt lat="47.19402" lon="-1.43374">
        <ele>77</ele>
        <time>2022-03-06T11:12:37Z</time>
      </trkpt>
      <trkpt lat="47.19416" lon="-1.43364">
        <ele>77</ele>
        <time>2022-03-06T11:12:39Z</time>
      </trkpt>
      <trkpt lat="47.19436" lon="-1.43347">
        <ele>77</ele>
        <time>2022-03-06T11:12:42Z</time>
      </trkpt>
      <trkpt lat="47.19448" lon="-1.43335">
        <ele>76</ele>
        <time>2022-03-06T11:12:44Z</time>
      </trkpt>
      <trkpt lat="47.1946" lon="-1.43323">
        <ele>76</ele>
        <time>2022-03-06T11:12:46Z</time>
      </trkpt>
      <trkpt lat="47.19472" lon="-1.43313">
        <ele>76</ele>
        <time>2022-03-06T11:12:48Z</time>
      </trkpt>
      <trkpt lat="47.19484" lon="-1.43302">
        <ele>75</ele>
        <time>2022-03-06T11:12:50Z</time>
      </trkpt>
      <trkpt lat="47.19497" lon="-1.43291">
        <ele>75</ele>
        <time>2022-03-06T11:12:52Z</time>
      </trkpt>
      <trkpt lat="47.1951" lon="-1.43283">
        <ele>75</ele>
        <time>2022-03-06T11:12:54Z</time>
      </trkpt>
      <trkpt lat="47.19523" lon="-1.43274">
        <ele>75</ele>
        <time>2022-03-06T11:12:56Z</time>
      </trkpt>
      <trkpt lat="47.19536" lon="-1.43266">
        <ele>75</ele>
        <time>2022-03-06T11:12:58Z</time>
      </trkpt>
      <trkpt lat="47.1955" lon="-1.43257">
        <ele>74</ele>
        <time>2022-03-06T11:13:00Z</time>
      </trkpt>
      <trkpt lat="47.19564" lon="-1.43248">
        <ele>74</ele>
        <time>2022-03-06T11:13:02Z</time>
      </trkpt>
      <trkpt lat="47.19576" lon="-1.43241">
        <ele>74</ele>
        <time>2022-03-06T11:13:04Z</time>
      </trkpt>
      <trkpt lat="47.19588" lon="-1.43234">
        <ele>74</ele>
        <time>2022-03-06T11:13:06Z</time>
      </trkpt>
      <trkpt lat="47.19601" lon="-1.43227">
        <ele>74</ele>
        <time>2022-03-06T11:13:08Z</time>
      </trkpt>
      <trkpt lat="47.19611" lon="-1.43217">
        <ele>74</ele>
        <time>2022-03-06T11:13:10Z</time>
      </trkpt>
      <trkpt lat="47.19619" lon="-1.43204">
        <ele>73</ele>
        <time>2022-03-06T11:13:12Z</time>
      </trkpt>
      <trkpt lat="47.1963" lon="-1.43197">
        <ele>72</ele>
        <time>2022-03-06T11:13:14Z</time>
      </trkpt>
      <trkpt lat="47.19644" lon="-1.43196">
        <ele>71</ele>
        <time>2022-03-06T11:13:16Z</time>
      </trkpt>
      <trkpt lat="47.19656" lon="-1.43191">
        <ele>70</ele>
        <time>2022-03-06T11:13:18Z</time>
      </trkpt>
      <trkpt lat="47.19669" lon="-1.43184">
        <ele>70</ele>
        <time>2022-03-06T11:13:20Z</time>
      </trkpt>
      <trkpt lat="47.19681" lon="-1.43176">
        <ele>69</ele>
        <time>2022-03-06T11:13:22Z</time>
      </trkpt>
      <trkpt lat="47.19694" lon="-1.43168">
        <ele>69</ele>
        <time>2022-03-06T11:13:24Z</time>
      </trkpt>
      <trkpt lat="47.19705" lon="-1.43158">
        <ele>69</ele>
        <time>2022-03-06T11:13:26Z</time>
      </trkpt>
      <trkpt lat="47.19716" lon="-1.43147">
        <ele>69</ele>
        <time>2022-03-06T11:13:28Z</time>
      </trkpt>
      <trkpt lat="47.19727" lon="-1.43136">
        <ele>69</ele>
        <time>2022-03-06T11:13:30Z</time>
      </trkpt>
      <trkpt lat="47.19738" lon="-1.43124">
        <ele>69</ele>
        <time>2022-03-06T11:13:32Z</time>
      </trkpt>
      <trkpt lat="47.19749" lon="-1.43112">
        <ele>69</ele>
        <time>2022-03-06T11:13:34Z</time>
      </trkpt>
      <trkpt lat="47.19759" lon="-1.43102">
        <ele>69</ele>
        <time>2022-03-06T11:13:36Z</time>
      </trkpt>
      <trkpt lat="47.19769" lon="-1.43091">
        <ele>69</ele>
        <time>2022-03-06T11:13:38Z</time>
      </trkpt>
      <trkpt lat="47.19778" lon="-1.43081">
        <ele>69</ele>
        <time>2022-03-06T11:13:40Z</time>
      </trkpt>
      <trkpt lat="47.19788" lon="-1.43072">
        <ele>69</ele>
        <time>2022-03-06T11:13:42Z</time>
      </trkpt>
      <trkpt lat="47.19799" lon="-1.4307">
        <ele>69</ele>
        <time>2022-03-06T11:13:44Z</time>
      </trkpt>
      <trkpt lat="47.19811" lon="-1.43069">
        <ele>69</ele>
        <time>2022-03-06T11:13:46Z</time>
      </trkpt>
      <trkpt lat="47.19823" lon="-1.4307">
        <ele>69</ele>
        <time>2022-03-06T11:13:48Z</time>
      </trkpt>
      <trkpt lat="47.19836" lon="-1.43071">
        <ele>69</ele>
        <time>2022-03-06T11:13:50Z</time>
      </trkpt>
      <trkpt lat="47.19849" lon="-1.43071">
        <ele>69</ele>
        <time>2022-03-06T11:13:52Z</time>
      </trkpt>
      <trkpt lat="47.19861" lon="-1.43072">
        <ele>69</ele>
        <time>2022-03-06T11:13:54Z</time>
      </trkpt>
      <trkpt lat="47.19871" lon="-1.43072">
        <ele>69</ele>
        <time>2022-03-06T11:13:56Z</time>
      </trkpt>
      <trkpt lat="47.19882" lon="-1.43071">
        <ele>69</ele>
        <time>2022-03-06T11:13:59Z</time>
      </trkpt>
      <trkpt lat="47.19886" lon="-1.43056">
        <ele>68</ele>
        <time>2022-03-06T11:14:04Z</time>
      </trkpt>
      <trkpt lat="47.19886" lon="-1.43043">
        <ele>68</ele>
        <time>2022-03-06T11:14:06Z</time>
      </trkpt>
      <trkpt lat="47.19885" lon="-1.43029">
        <ele>68</ele>
        <time>2022-03-06T11:14:08Z</time>
      </trkpt>
      <trkpt lat="47.19886" lon="-1.43016">
        <ele>68</ele>
        <time>2022-03-06T11:14:10Z</time>
      </trkpt>
      <trkpt lat="47.19887" lon="-1.43">
        <ele>68</ele>
        <time>2022-03-06T11:14:12Z</time>
      </trkpt>
      <trkpt lat="47.19888" lon="-1.42984">
        <ele>68</ele>
        <time>2022-03-06T11:14:14Z</time>
      </trkpt>
      <trkpt lat="47.1989" lon="-1.42967">
        <ele>67</ele>
        <time>2022-03-06T11:14:16Z</time>
      </trkpt>
      <trkpt lat="47.19891" lon="-1.42952">
        <ele>67</ele>
        <time>2022-03-06T11:14:18Z</time>
      </trkpt>
      <trkpt lat="47.19893" lon="-1.42937">
        <ele>68</ele>
        <time>2022-03-06T11:14:20Z</time>
      </trkpt>
      <trkpt lat="47.19897" lon="-1.42924">
        <ele>69</ele>
        <time>2022-03-06T11:14:22Z</time>
      </trkpt>
      <trkpt lat="47.19906" lon="-1.4292">
        <ele>70</ele>
        <time>2022-03-06T11:14:24Z</time>
      </trkpt>
      <trkpt lat="47.19919" lon="-1.42918">
        <ele>70</ele>
        <time>2022-03-06T11:14:26Z</time>
      </trkpt>
      <trkpt lat="47.19928" lon="-1.42913">
        <ele>69</ele>
        <time>2022-03-06T11:14:28Z</time>
      </trkpt>
      <trkpt lat="47.19936" lon="-1.42901">
        <ele>70</ele>
        <time>2022-03-06T11:14:30Z</time>
      </trkpt>
      <trkpt lat="47.19946" lon="-1.4289">
        <ele>71</ele>
        <time>2022-03-06T11:14:32Z</time>
      </trkpt>
      <trkpt lat="47.19956" lon="-1.42881">
        <ele>71</ele>
        <time>2022-03-06T11:14:34Z</time>
      </trkpt>
      <trkpt lat="47.19968" lon="-1.42874">
        <ele>71</ele>
        <time>2022-03-06T11:14:36Z</time>
      </trkpt>
      <trkpt lat="47.19979" lon="-1.42866">
        <ele>71</ele>
        <time>2022-03-06T11:14:38Z</time>
      </trkpt>
      <trkpt lat="47.19989" lon="-1.42859">
        <ele>72</ele>
        <time>2022-03-06T11:14:40Z</time>
      </trkpt>
      <trkpt lat="47.2" lon="-1.42852">
        <ele>72</ele>
        <time>2022-03-06T11:14:42Z</time>
      </trkpt>
      <trkpt lat="47.20011" lon="-1.42847">
        <ele>72</ele>
        <time>2022-03-06T11:14:44Z</time>
      </trkpt>
      <trkpt lat="47.20021" lon="-1.42843">
        <ele>72</ele>
        <time>2022-03-06T11:14:46Z</time>
      </trkpt>
      <trkpt lat="47.20032" lon="-1.42838">
        <ele>71</ele>
        <time>2022-03-06T11:14:48Z</time>
      </trkpt>
      <trkpt lat="47.20044" lon="-1.42833">
        <ele>71</ele>
        <time>2022-03-06T11:14:50Z</time>
      </trkpt>
      <trkpt lat="47.20055" lon="-1.42829">
        <ele>71</ele>
        <time>2022-03-06T11:14:52Z</time>
      </trkpt>
      <trkpt lat="47.20066" lon="-1.42824">
        <ele>71</ele>
        <time>2022-03-06T11:14:54Z</time>
      </trkpt>
      <trkpt lat="47.20078" lon="-1.4282">
        <ele>72</ele>
        <time>2022-03-06T11:14:56Z</time>
      </trkpt>
      <trkpt lat="47.20089" lon="-1.42815">
        <ele>72</ele>
        <time>2022-03-06T11:14:58Z</time>
      </trkpt>
      <trkpt lat="47.20098" lon="-1.4281">
        <ele>72</ele>
        <time>2022-03-06T11:15:00Z</time>
      </trkpt>
      <trkpt lat="47.2011" lon="-1.42805">
        <ele>72</ele>
        <time>2022-03-06T11:15:02Z</time>
      </trkpt>
      <trkpt lat="47.20121" lon="-1.428">
        <ele>72</ele>
        <time>2022-03-06T11:15:04Z</time>
      </trkpt>
      <trkpt lat="47.20131" lon="-1.42796">
        <ele>71</ele>
        <time>2022-03-06T11:15:06Z</time>
      </trkpt>
      <trkpt lat="47.20142" lon="-1.42791">
        <ele>71</ele>
        <time>2022-03-06T11:15:08Z</time>
      </trkpt>
      <trkpt lat="47.20153" lon="-1.42786">
        <ele>71</ele>
        <time>2022-03-06T11:15:10Z</time>
      </trkpt>
      <trkpt lat="47.20164" lon="-1.42782">
        <ele>71</ele>
        <time>2022-03-06T11:15:12Z</time>
      </trkpt>
      <trkpt lat="47.20175" lon="-1.42778">
        <ele>72</ele>
        <time>2022-03-06T11:15:14Z</time>
      </trkpt>
      <trkpt lat="47.20186" lon="-1.42775">
        <ele>71</ele>
        <time>2022-03-06T11:15:16Z</time>
      </trkpt>
      <trkpt lat="47.20196" lon="-1.42773">
        <ele>72</ele>
        <time>2022-03-06T11:15:18Z</time>
      </trkpt>
      <trkpt lat="47.20206" lon="-1.42773">
        <ele>72</ele>
        <time>2022-03-06T11:15:20Z</time>
      </trkpt>
      <trkpt lat="47.20217" lon="-1.42774">
        <ele>72</ele>
        <time>2022-03-06T11:15:22Z</time>
      </trkpt>
      <trkpt lat="47.20228" lon="-1.42775">
        <ele>72</ele>
        <time>2022-03-06T11:15:24Z</time>
      </trkpt>
      <trkpt lat="47.20239" lon="-1.42778">
        <ele>72</ele>
        <time>2022-03-06T11:15:26Z</time>
      </trkpt>
      <trkpt lat="47.2025" lon="-1.42781">
        <ele>72</ele>
        <time>2022-03-06T11:15:28Z</time>
      </trkpt>
      <trkpt lat="47.20261" lon="-1.42785">
        <ele>72</ele>
        <time>2022-03-06T11:15:30Z</time>
      </trkpt>
      <trkpt lat="47.20272" lon="-1.42787">
        <ele>72</ele>
        <time>2022-03-06T11:15:32Z</time>
      </trkpt>
      <trkpt lat="47.20283" lon="-1.42788">
        <ele>71</ele>
        <time>2022-03-06T11:15:34Z</time>
      </trkpt>
      <trkpt lat="47.20296" lon="-1.42789">
        <ele>71</ele>
        <time>2022-03-06T11:15:36Z</time>
      </trkpt>
      <trkpt lat="47.20308" lon="-1.4279">
        <ele>71</ele>
        <time>2022-03-06T11:15:38Z</time>
      </trkpt>
      <trkpt lat="47.2032" lon="-1.42793">
        <ele>71</ele>
        <time>2022-03-06T11:15:40Z</time>
      </trkpt>
      <trkpt lat="47.20331" lon="-1.42798">
        <ele>71</ele>
        <time>2022-03-06T11:15:42Z</time>
      </trkpt>
      <trkpt lat="47.20343" lon="-1.42802">
        <ele>71</ele>
        <time>2022-03-06T11:15:44Z</time>
      </trkpt>
      <trkpt lat="47.20354" lon="-1.42806">
        <ele>70</ele>
        <time>2022-03-06T11:15:46Z</time>
      </trkpt>
      <trkpt lat="47.20366" lon="-1.4281">
        <ele>70</ele>
        <time>2022-03-06T11:15:48Z</time>
      </trkpt>
      <trkpt lat="47.20378" lon="-1.42812">
        <ele>70</ele>
        <time>2022-03-06T11:15:50Z</time>
      </trkpt>
      <trkpt lat="47.20389" lon="-1.42813">
        <ele>70</ele>
        <time>2022-03-06T11:15:52Z</time>
      </trkpt>
      <trkpt lat="47.204" lon="-1.4282">
        <ele>70</ele>
        <time>2022-03-06T11:15:54Z</time>
      </trkpt>
      <trkpt lat="47.2041" lon="-1.42826">
        <ele>70</ele>
        <time>2022-03-06T11:15:56Z</time>
      </trkpt>
      <trkpt lat="47.20422" lon="-1.42831">
        <ele>70</ele>
        <time>2022-03-06T11:15:58Z</time>
      </trkpt>
      <trkpt lat="47.20433" lon="-1.42837">
        <ele>70</ele>
        <time>2022-03-06T11:16:00Z</time>
      </trkpt>
      <trkpt lat="47.20445" lon="-1.42844">
        <ele>70</ele>
        <time>2022-03-06T11:16:02Z</time>
      </trkpt>
      <trkpt lat="47.20456" lon="-1.42851">
        <ele>70</ele>
        <time>2022-03-06T11:16:04Z</time>
      </trkpt>
      <trkpt lat="47.20468" lon="-1.42857">
        <ele>70</ele>
        <time>2022-03-06T11:16:06Z</time>
      </trkpt>
      <trkpt lat="47.2048" lon="-1.42864">
        <ele>69</ele>
        <time>2022-03-06T11:16:08Z</time>
      </trkpt>
      <trkpt lat="47.20492" lon="-1.42871">
        <ele>69</ele>
        <time>2022-03-06T11:16:10Z</time>
      </trkpt>
      <trkpt lat="47.20504" lon="-1.42877">
        <ele>68</ele>
        <time>2022-03-06T11:16:12Z</time>
      </trkpt>
      <trkpt lat="47.20515" lon="-1.42882">
        <ele>68</ele>
        <time>2022-03-06T11:16:14Z</time>
      </trkpt>
      <trkpt lat="47.20528" lon="-1.42885">
        <ele>68</ele>
        <time>2022-03-06T11:16:16Z</time>
      </trkpt>
      <trkpt lat="47.2054" lon="-1.42889">
        <ele>68</ele>
        <time>2022-03-06T11:16:18Z</time>
      </trkpt>
      <trkpt lat="47.20552" lon="-1.42892">
        <ele>68</ele>
        <time>2022-03-06T11:16:20Z</time>
      </trkpt>
      <trkpt lat="47.20564" lon="-1.42894">
        <ele>68</ele>
        <time>2022-03-06T11:16:22Z</time>
      </trkpt>
      <trkpt lat="47.20577" lon="-1.42896">
        <ele>68</ele>
        <time>2022-03-06T11:16:24Z</time>
      </trkpt>
      <trkpt lat="47.20589" lon="-1.42898">
        <ele>68</ele>
        <time>2022-03-06T11:16:26Z</time>
      </trkpt>
      <trkpt lat="47.20602" lon="-1.429">
        <ele>68</ele>
        <time>2022-03-06T11:16:28Z</time>
      </trkpt>
      <trkpt lat="47.20614" lon="-1.42902">
        <ele>68</ele>
        <time>2022-03-06T11:16:30Z</time>
      </trkpt>
      <trkpt lat="47.20626" lon="-1.42904">
        <ele>67</ele>
        <time>2022-03-06T11:16:32Z</time>
      </trkpt>
      <trkpt lat="47.20638" lon="-1.42905">
        <ele>68</ele>
        <time>2022-03-06T11:16:34Z</time>
      </trkpt>
      <trkpt lat="47.2065" lon="-1.42907">
        <ele>67</ele>
        <time>2022-03-06T11:16:36Z</time>
      </trkpt>
      <trkpt lat="47.20662" lon="-1.42909">
        <ele>67</ele>
        <time>2022-03-06T11:16:38Z</time>
      </trkpt>
      <trkpt lat="47.20675" lon="-1.4291">
        <ele>67</ele>
        <time>2022-03-06T11:16:40Z</time>
      </trkpt>
      <trkpt lat="47.20687" lon="-1.42912">
        <ele>66</ele>
        <time>2022-03-06T11:16:42Z</time>
      </trkpt>
      <trkpt lat="47.20699" lon="-1.42915">
        <ele>66</ele>
        <time>2022-03-06T11:16:44Z</time>
      </trkpt>
      <trkpt lat="47.20711" lon="-1.42917">
        <ele>66</ele>
        <time>2022-03-06T11:16:46Z</time>
      </trkpt>
      <trkpt lat="47.20723" lon="-1.42921">
        <ele>67</ele>
        <time>2022-03-06T11:16:48Z</time>
      </trkpt>
      <trkpt lat="47.20735" lon="-1.42924">
        <ele>66</ele>
        <time>2022-03-06T11:16:50Z</time>
      </trkpt>
      <trkpt lat="47.20746" lon="-1.42928">
        <ele>66</ele>
        <time>2022-03-06T11:16:52Z</time>
      </trkpt>
      <trkpt lat="47.20758" lon="-1.42932">
        <ele>66</ele>
        <time>2022-03-06T11:16:54Z</time>
      </trkpt>
      <trkpt lat="47.20769" lon="-1.42936">
        <ele>66</ele>
        <time>2022-03-06T11:16:56Z</time>
      </trkpt>
      <trkpt lat="47.20781" lon="-1.42938">
        <ele>66</ele>
        <time>2022-03-06T11:16:58Z</time>
      </trkpt>
      <trkpt lat="47.20792" lon="-1.4294">
        <ele>65</ele>
        <time>2022-03-06T11:17:00Z</time>
      </trkpt>
      <trkpt lat="47.20804" lon="-1.42941">
        <ele>65</ele>
        <time>2022-03-06T11:17:02Z</time>
      </trkpt>
      <trkpt lat="47.20816" lon="-1.42941">
        <ele>65</ele>
        <time>2022-03-06T11:17:04Z</time>
      </trkpt>
      <trkpt lat="47.20828" lon="-1.4294">
        <ele>65</ele>
        <time>2022-03-06T11:17:06Z</time>
      </trkpt>
      <trkpt lat="47.20839" lon="-1.42939">
        <ele>65</ele>
        <time>2022-03-06T11:17:08Z</time>
      </trkpt>
      <trkpt lat="47.2085" lon="-1.42939">
        <ele>65</ele>
        <time>2022-03-06T11:17:10Z</time>
      </trkpt>
      <trkpt lat="47.20862" lon="-1.4294">
        <ele>65</ele>
        <time>2022-03-06T11:17:12Z</time>
      </trkpt>
      <trkpt lat="47.20873" lon="-1.42943">
        <ele>65</ele>
        <time>2022-03-06T11:17:14Z</time>
      </trkpt>
      <trkpt lat="47.20885" lon="-1.42948">
        <ele>65</ele>
        <time>2022-03-06T11:17:16Z</time>
      </trkpt>
      <trkpt lat="47.20895" lon="-1.42954">
        <ele>65</ele>
        <time>2022-03-06T11:17:18Z</time>
      </trkpt>
      <trkpt lat="47.20906" lon="-1.42961">
        <ele>65</ele>
        <time>2022-03-06T11:17:20Z</time>
      </trkpt>
      <trkpt lat="47.20917" lon="-1.42969">
        <ele>65</ele>
        <time>2022-03-06T11:17:22Z</time>
      </trkpt>
      <trkpt lat="47.20928" lon="-1.42976">
        <ele>65</ele>
        <time>2022-03-06T11:17:24Z</time>
      </trkpt>
      <trkpt lat="47.20938" lon="-1.42984">
        <ele>65</ele>
        <time>2022-03-06T11:17:26Z</time>
      </trkpt>
      <trkpt lat="47.20949" lon="-1.42992">
        <ele>65</ele>
        <time>2022-03-06T11:17:28Z</time>
      </trkpt>
      <trkpt lat="47.2096" lon="-1.43">
        <ele>65</ele>
        <time>2022-03-06T11:17:30Z</time>
      </trkpt>
      <trkpt lat="47.20971" lon="-1.43007">
        <ele>65</ele>
        <time>2022-03-06T11:17:32Z</time>
      </trkpt>
      <trkpt lat="47.20982" lon="-1.43015">
        <ele>65</ele>
        <time>2022-03-06T11:17:34Z</time>
      </trkpt>
      <trkpt lat="47.20993" lon="-1.43023">
        <ele>65</ele>
        <time>2022-03-06T11:17:36Z</time>
      </trkpt>
      <trkpt lat="47.21004" lon="-1.43032">
        <ele>65</ele>
        <time>2022-03-06T11:17:38Z</time>
      </trkpt>
      <trkpt lat="47.21015" lon="-1.43039">
        <ele>65</ele>
        <time>2022-03-06T11:17:40Z</time>
      </trkpt>
      <trkpt lat="47.21027" lon="-1.43045">
        <ele>64</ele>
        <time>2022-03-06T11:17:42Z</time>
      </trkpt>
      <trkpt lat="47.21038" lon="-1.4305">
        <ele>64</ele>
        <time>2022-03-06T11:17:44Z</time>
      </trkpt>
      <trkpt lat="47.2105" lon="-1.43053">
        <ele>65</ele>
        <time>2022-03-06T11:17:46Z</time>
      </trkpt>
      <trkpt lat="47.21061" lon="-1.43055">
        <ele>65</ele>
        <time>2022-03-06T11:17:48Z</time>
      </trkpt>
      <trkpt lat="47.21073" lon="-1.43056">
        <ele>65</ele>
        <time>2022-03-06T11:17:50Z</time>
      </trkpt>
      <trkpt lat="47.21085" lon="-1.43056">
        <ele>64</ele>
        <time>2022-03-06T11:17:52Z</time>
      </trkpt>
      <trkpt lat="47.21096" lon="-1.43056">
        <ele>64</ele>
        <time>2022-03-06T11:17:54Z</time>
      </trkpt>
      <trkpt lat="47.21108" lon="-1.43056">
        <ele>64</ele>
        <time>2022-03-06T11:17:56Z</time>
      </trkpt>
      <trkpt lat="47.2112" lon="-1.43057">
        <ele>64</ele>
        <time>2022-03-06T11:17:58Z</time>
      </trkpt>
      <trkpt lat="47.21131" lon="-1.43058">
        <ele>64</ele>
        <time>2022-03-06T11:18:00Z</time>
      </trkpt>
      <trkpt lat="47.21141" lon="-1.4306">
        <ele>64</ele>
        <time>2022-03-06T11:18:02Z</time>
      </trkpt>
      <trkpt lat="47.21152" lon="-1.43063">
        <ele>64</ele>
        <time>2022-03-06T11:18:04Z</time>
      </trkpt>
      <trkpt lat="47.21164" lon="-1.43067">
        <ele>64</ele>
        <time>2022-03-06T11:18:06Z</time>
      </trkpt>
      <trkpt lat="47.21175" lon="-1.43071">
        <ele>63</ele>
        <time>2022-03-06T11:18:08Z</time>
      </trkpt>
      <trkpt lat="47.21186" lon="-1.43075">
        <ele>63</ele>
        <time>2022-03-06T11:18:10Z</time>
      </trkpt>
      <trkpt lat="47.21197" lon="-1.43079">
        <ele>63</ele>
        <time>2022-03-06T11:18:12Z</time>
      </trkpt>
      <trkpt lat="47.21208" lon="-1.43082">
        <ele>63</ele>
        <time>2022-03-06T11:18:14Z</time>
      </trkpt>
      <trkpt lat="47.21219" lon="-1.43082">
        <ele>62</ele>
        <time>2022-03-06T11:18:16Z</time>
      </trkpt>
      <trkpt lat="47.21231" lon="-1.43082">
        <ele>62</ele>
        <time>2022-03-06T11:18:18Z</time>
      </trkpt>
      <trkpt lat="47.21242" lon="-1.43081">
        <ele>62</ele>
        <time>2022-03-06T11:18:20Z</time>
      </trkpt>
      <trkpt lat="47.21254" lon="-1.43081">
        <ele>61</ele>
        <time>2022-03-06T11:18:22Z</time>
      </trkpt>
      <trkpt lat="47.21265" lon="-1.43083">
        <ele>61</ele>
        <time>2022-03-06T11:18:24Z</time>
      </trkpt>
      <trkpt lat="47.21277" lon="-1.43088">
        <ele>61</ele>
        <time>2022-03-06T11:18:26Z</time>
      </trkpt>
      <trkpt lat="47.21288" lon="-1.43095">
        <ele>60</ele>
        <time>2022-03-06T11:18:28Z</time>
      </trkpt>
      <trkpt lat="47.21299" lon="-1.43102">
        <ele>60</ele>
        <time>2022-03-06T11:18:30Z</time>
      </trkpt>
      <trkpt lat="47.2131" lon="-1.4311">
        <ele>60</ele>
        <time>2022-03-06T11:18:32Z</time>
      </trkpt>
      <trkpt lat="47.21322" lon="-1.43117">
        <ele>60</ele>
        <time>2022-03-06T11:18:34Z</time>
      </trkpt>
      <trkpt lat="47.21333" lon="-1.43126">
        <ele>60</ele>
        <time>2022-03-06T11:18:36Z</time>
      </trkpt>
      <trkpt lat="47.21344" lon="-1.43134">
        <ele>60</ele>
        <time>2022-03-06T11:18:38Z</time>
      </trkpt>
      <trkpt lat="47.21356" lon="-1.43142">
        <ele>59</ele>
        <time>2022-03-06T11:18:40Z</time>
      </trkpt>
      <trkpt lat="47.21367" lon="-1.43152">
        <ele>59</ele>
        <time>2022-03-06T11:18:42Z</time>
      </trkpt>
      <trkpt lat="47.21374" lon="-1.43167">
        <ele>59</ele>
        <time>2022-03-06T11:18:44Z</time>
      </trkpt>
      <trkpt lat="47.21379" lon="-1.43186">
        <ele>58</ele>
        <time>2022-03-06T11:18:46Z</time>
      </trkpt>
      <trkpt lat="47.21382" lon="-1.43206">
        <ele>57</ele>
        <time>2022-03-06T11:18:48Z</time>
      </trkpt>
      <trkpt lat="47.21384" lon="-1.43226">
        <ele>57</ele>
        <time>2022-03-06T11:18:50Z</time>
      </trkpt>
      <trkpt lat="47.21387" lon="-1.43247">
        <ele>56</ele>
        <time>2022-03-06T11:18:52Z</time>
      </trkpt>
      <trkpt lat="47.21391" lon="-1.43269">
        <ele>56</ele>
        <time>2022-03-06T11:18:54Z</time>
      </trkpt>
      <trkpt lat="47.21394" lon="-1.43292">
        <ele>55</ele>
        <time>2022-03-06T11:18:56Z</time>
      </trkpt>
      <trkpt lat="47.21398" lon="-1.43315">
        <ele>54</ele>
        <time>2022-03-06T11:18:58Z</time>
      </trkpt>
      <trkpt lat="47.21404" lon="-1.43338">
        <ele>53</ele>
        <time>2022-03-06T11:19:00Z</time>
      </trkpt>
      <trkpt lat="47.21412" lon="-1.4336">
        <ele>52</ele>
        <time>2022-03-06T11:19:02Z</time>
      </trkpt>
      <trkpt lat="47.21424" lon="-1.43377">
        <ele>52</ele>
        <time>2022-03-06T11:19:04Z</time>
      </trkpt>
      <trkpt lat="47.21439" lon="-1.43387">
        <ele>51</ele>
        <time>2022-03-06T11:19:06Z</time>
      </trkpt>
      <trkpt lat="47.21454" lon="-1.43397">
        <ele>51</ele>
        <time>2022-03-06T11:19:08Z</time>
      </trkpt>
      <trkpt lat="47.21467" lon="-1.43406">
        <ele>51</ele>
        <time>2022-03-06T11:19:10Z</time>
      </trkpt>
      <trkpt lat="47.2148" lon="-1.43413">
        <ele>51</ele>
        <time>2022-03-06T11:19:12Z</time>
      </trkpt>
      <trkpt lat="47.21492" lon="-1.43422">
        <ele>51</ele>
        <time>2022-03-06T11:19:14Z</time>
      </trkpt>
      <trkpt lat="47.21502" lon="-1.43432">
        <ele>51</ele>
        <time>2022-03-06T11:19:16Z</time>
      </trkpt>
      <trkpt lat="47.21509" lon="-1.43444">
        <ele>52</ele>
        <time>2022-03-06T11:19:18Z</time>
      </trkpt>
      <trkpt lat="47.21515" lon="-1.43458">
        <ele>51</ele>
        <time>2022-03-06T11:19:20Z</time>
      </trkpt>
      <trkpt lat="47.21521" lon="-1.43474">
        <ele>52</ele>
        <time>2022-03-06T11:19:22Z</time>
      </trkpt>
      <trkpt lat="47.21524" lon="-1.43491">
        <ele>51</ele>
        <time>2022-03-06T11:19:24Z</time>
      </trkpt>
      <trkpt lat="47.21528" lon="-1.43508">
        <ele>52</ele>
        <time>2022-03-06T11:19:26Z</time>
      </trkpt>
      <trkpt lat="47.21534" lon="-1.43524">
        <ele>51</ele>
        <time>2022-03-06T11:19:28Z</time>
      </trkpt>
      <trkpt lat="47.21541" lon="-1.4354">
        <ele>52</ele>
        <time>2022-03-06T11:19:30Z</time>
      </trkpt>
      <trkpt lat="47.21549" lon="-1.43553">
        <ele>52</ele>
        <time>2022-03-06T11:19:32Z</time>
      </trkpt>
      <trkpt lat="47.21557" lon="-1.43564">
        <ele>52</ele>
        <time>2022-03-06T11:19:34Z</time>
      </trkpt>
      <trkpt lat="47.21566" lon="-1.43576">
        <ele>52</ele>
        <time>2022-03-06T11:19:36Z</time>
      </trkpt>
      <trkpt lat="47.21574" lon="-1.43587">
        <ele>52</ele>
        <time>2022-03-06T11:19:38Z</time>
      </trkpt>
      <trkpt lat="47.21583" lon="-1.43598">
        <ele>52</ele>
        <time>2022-03-06T11:19:40Z</time>
      </trkpt>
      <trkpt lat="47.21592" lon="-1.43607">
        <ele>53</ele>
        <time>2022-03-06T11:19:42Z</time>
      </trkpt>
      <trkpt lat="47.216" lon="-1.43615">
        <ele>54</ele>
        <time>2022-03-06T11:19:44Z</time>
      </trkpt>
      <trkpt lat="47.21608" lon="-1.43623">
        <ele>54</ele>
        <time>2022-03-06T11:19:46Z</time>
      </trkpt>
      <trkpt lat="47.21616" lon="-1.43633">
        <ele>54</ele>
        <time>2022-03-06T11:19:48Z</time>
      </trkpt>
      <trkpt lat="47.21625" lon="-1.43642">
        <ele>54</ele>
        <time>2022-03-06T11:19:50Z</time>
      </trkpt>
      <trkpt lat="47.2163" lon="-1.43655">
        <ele>54</ele>
        <time>2022-03-06T11:19:52Z</time>
      </trkpt>
      <trkpt lat="47.2163" lon="-1.43671">
        <ele>54</ele>
        <time>2022-03-06T11:19:54Z</time>
      </trkpt>
      <trkpt lat="47.21628" lon="-1.43689">
        <ele>54</ele>
        <time>2022-03-06T11:19:56Z</time>
      </trkpt>
      <trkpt lat="47.21626" lon="-1.43706">
        <ele>53</ele>
        <time>2022-03-06T11:19:58Z</time>
      </trkpt>
      <trkpt lat="47.21625" lon="-1.43725">
        <ele>53</ele>
        <time>2022-03-06T11:20:00Z</time>
      </trkpt>
      <trkpt lat="47.21623" lon="-1.43746">
        <ele>52</ele>
        <time>2022-03-06T11:20:02Z</time>
      </trkpt>
      <trkpt lat="47.21621" lon="-1.43767">
        <ele>51</ele>
        <time>2022-03-06T11:20:04Z</time>
      </trkpt>
      <trkpt lat="47.21619" lon="-1.43788">
        <ele>51</ele>
        <time>2022-03-06T11:20:06Z</time>
      </trkpt>
      <trkpt lat="47.21618" lon="-1.43809">
        <ele>51</ele>
        <time>2022-03-06T11:20:08Z</time>
      </trkpt>
      <trkpt lat="47.21616" lon="-1.4383">
        <ele>51</ele>
        <time>2022-03-06T11:20:10Z</time>
      </trkpt>
      <trkpt lat="47.21615" lon="-1.4385">
        <ele>50</ele>
        <time>2022-03-06T11:20:12Z</time>
      </trkpt>
      <trkpt lat="47.21613" lon="-1.43871">
        <ele>50</ele>
        <time>2022-03-06T11:20:14Z</time>
      </trkpt>
      <trkpt lat="47.21612" lon="-1.43891">
        <ele>50</ele>
        <time>2022-03-06T11:20:16Z</time>
      </trkpt>
      <trkpt lat="47.21611" lon="-1.43911">
        <ele>50</ele>
        <time>2022-03-06T11:20:18Z</time>
      </trkpt>
      <trkpt lat="47.21609" lon="-1.43931">
        <ele>50</ele>
        <time>2022-03-06T11:20:20Z</time>
      </trkpt>
      <trkpt lat="47.21608" lon="-1.43951">
        <ele>51</ele>
        <time>2022-03-06T11:20:22Z</time>
      </trkpt>
      <trkpt lat="47.21606" lon="-1.4397">
        <ele>51</ele>
        <time>2022-03-06T11:20:24Z</time>
      </trkpt>
      <trkpt lat="47.21604" lon="-1.43989">
        <ele>50</ele>
        <time>2022-03-06T11:20:26Z</time>
      </trkpt>
      <trkpt lat="47.216" lon="-1.44009">
        <ele>50</ele>
        <time>2022-03-06T11:20:28Z</time>
      </trkpt>
      <trkpt lat="47.21596" lon="-1.44028">
        <ele>50</ele>
        <time>2022-03-06T11:20:30Z</time>
      </trkpt>
      <trkpt lat="47.21592" lon="-1.44047">
        <ele>50</ele>
        <time>2022-03-06T11:20:32Z</time>
      </trkpt>
      <trkpt lat="47.21589" lon="-1.44067">
        <ele>50</ele>
        <time>2022-03-06T11:20:34Z</time>
      </trkpt>
      <trkpt lat="47.21586" lon="-1.44087">
        <ele>50</ele>
        <time>2022-03-06T11:20:36Z</time>
      </trkpt>
      <trkpt lat="47.21585" lon="-1.44107">
        <ele>50</ele>
        <time>2022-03-06T11:20:38Z</time>
      </trkpt>
      <trkpt lat="47.21587" lon="-1.44126">
        <ele>50</ele>
        <time>2022-03-06T11:20:40Z</time>
      </trkpt>
      <trkpt lat="47.21591" lon="-1.44145">
        <ele>50</ele>
        <time>2022-03-06T11:20:42Z</time>
      </trkpt>
      <trkpt lat="47.21596" lon="-1.44163">
        <ele>51</ele>
        <time>2022-03-06T11:20:44Z</time>
      </trkpt>
      <trkpt lat="47.21603" lon="-1.44181">
        <ele>50</ele>
        <time>2022-03-06T11:20:46Z</time>
      </trkpt>
      <trkpt lat="47.21611" lon="-1.44198">
        <ele>50</ele>
        <time>2022-03-06T11:20:48Z</time>
      </trkpt>
      <trkpt lat="47.21618" lon="-1.44214">
        <ele>50</ele>
        <time>2022-03-06T11:20:50Z</time>
      </trkpt>
      <trkpt lat="47.21625" lon="-1.44231">
        <ele>50</ele>
        <time>2022-03-06T11:20:52Z</time>
      </trkpt>
      <trkpt lat="47.21631" lon="-1.44247">
        <ele>50</ele>
        <time>2022-03-06T11:20:54Z</time>
      </trkpt>
      <trkpt lat="47.21638" lon="-1.44264">
        <ele>50</ele>
        <time>2022-03-06T11:20:56Z</time>
      </trkpt>
      <trkpt lat="47.21645" lon="-1.4428">
        <ele>51</ele>
        <time>2022-03-06T11:20:58Z</time>
      </trkpt>
      <trkpt lat="47.21652" lon="-1.44296">
        <ele>51</ele>
        <time>2022-03-06T11:21:00Z</time>
      </trkpt>
      <trkpt lat="47.21661" lon="-1.44311">
        <ele>51</ele>
        <time>2022-03-06T11:21:02Z</time>
      </trkpt>
      <trkpt lat="47.21671" lon="-1.44326">
        <ele>50</ele>
        <time>2022-03-06T11:21:04Z</time>
      </trkpt>
      <trkpt lat="47.21683" lon="-1.44337">
        <ele>50</ele>
        <time>2022-03-06T11:21:06Z</time>
      </trkpt>
      <trkpt lat="47.21694" lon="-1.44347">
        <ele>51</ele>
        <time>2022-03-06T11:21:08Z</time>
      </trkpt>
      <trkpt lat="47.21706" lon="-1.44355">
        <ele>51</ele>
        <time>2022-03-06T11:21:10Z</time>
      </trkpt>
      <trkpt lat="47.21717" lon="-1.44363">
        <ele>51</ele>
        <time>2022-03-06T11:21:12Z</time>
      </trkpt>
      <trkpt lat="47.21729" lon="-1.44372">
        <ele>52</ele>
        <time>2022-03-06T11:21:14Z</time>
      </trkpt>
      <trkpt lat="47.21741" lon="-1.44381">
        <ele>52</ele>
        <time>2022-03-06T11:21:16Z</time>
      </trkpt>
      <trkpt lat="47.21753" lon="-1.44392">
        <ele>52</ele>
        <time>2022-03-06T11:21:18Z</time>
      </trkpt>
      <trkpt lat="47.21764" lon="-1.44404">
        <ele>51</ele>
        <time>2022-03-06T11:21:20Z</time>
      </trkpt>
      <trkpt lat="47.21773" lon="-1.4442">
        <ele>51</ele>
        <time>2022-03-06T11:21:22Z</time>
      </trkpt>
      <trkpt lat="47.2178" lon="-1.44437">
        <ele>51</ele>
        <time>2022-03-06T11:21:24Z</time>
      </trkpt>
      <trkpt lat="47.21786" lon="-1.44455">
        <ele>50</ele>
        <time>2022-03-06T11:21:26Z</time>
      </trkpt>
      <trkpt lat="47.21789" lon="-1.44474">
        <ele>50</ele>
        <time>2022-03-06T11:21:28Z</time>
      </trkpt>
      <trkpt lat="47.21791" lon="-1.44493">
        <ele>50</ele>
        <time>2022-03-06T11:21:30Z</time>
      </trkpt>
      <trkpt lat="47.21791" lon="-1.44513">
        <ele>50</ele>
        <time>2022-03-06T11:21:32Z</time>
      </trkpt>
      <trkpt lat="47.21792" lon="-1.44532">
        <ele>50</ele>
        <time>2022-03-06T11:21:34Z</time>
      </trkpt>
      <trkpt lat="47.21793" lon="-1.44551">
        <ele>50</ele>
        <time>2022-03-06T11:21:36Z</time>
      </trkpt>
      <trkpt lat="47.21795" lon="-1.4457">
        <ele>51</ele>
        <time>2022-03-06T11:21:38Z</time>
      </trkpt>
      <trkpt lat="47.21799" lon="-1.44588">
        <ele>51</ele>
        <time>2022-03-06T11:21:40Z</time>
      </trkpt>
      <trkpt lat="47.21806" lon="-1.44605">
        <ele>51</ele>
        <time>2022-03-06T11:21:42Z</time>
      </trkpt>
      <trkpt lat="47.21814" lon="-1.44621">
        <ele>50</ele>
        <time>2022-03-06T11:21:44Z</time>
      </trkpt>
      <trkpt lat="47.21823" lon="-1.44633">
        <ele>50</ele>
        <time>2022-03-06T11:21:46Z</time>
      </trkpt>
      <trkpt lat="47.21835" lon="-1.4464">
        <ele>50</ele>
        <time>2022-03-06T11:21:48Z</time>
      </trkpt>
      <trkpt lat="47.21845" lon="-1.44648">
        <ele>50</ele>
        <time>2022-03-06T11:21:50Z</time>
      </trkpt>
      <trkpt lat="47.21855" lon="-1.4466">
        <ele>50</ele>
        <time>2022-03-06T11:21:52Z</time>
      </trkpt>
      <trkpt lat="47.21865" lon="-1.44669">
        <ele>51</ele>
        <time>2022-03-06T11:21:54Z</time>
      </trkpt>
      <trkpt lat="47.21876" lon="-1.44675">
        <ele>50</ele>
        <time>2022-03-06T11:21:56Z</time>
      </trkpt>
      <trkpt lat="47.21887" lon="-1.44683">
        <ele>50</ele>
        <time>2022-03-06T11:21:58Z</time>
      </trkpt>
      <trkpt lat="47.21899" lon="-1.44691">
        <ele>50</ele>
        <time>2022-03-06T11:22:00Z</time>
      </trkpt>
      <trkpt lat="47.2191" lon="-1.447">
        <ele>50</ele>
        <time>2022-03-06T11:22:02Z</time>
      </trkpt>
      <trkpt lat="47.21922" lon="-1.44708">
        <ele>50</ele>
        <time>2022-03-06T11:22:04Z</time>
      </trkpt>
      <trkpt lat="47.21933" lon="-1.44717">
        <ele>50</ele>
        <time>2022-03-06T11:22:06Z</time>
      </trkpt>
      <trkpt lat="47.21945" lon="-1.44726">
        <ele>50</ele>
        <time>2022-03-06T11:22:08Z</time>
      </trkpt>
      <trkpt lat="47.21955" lon="-1.44734">
        <ele>50</ele>
        <time>2022-03-06T11:22:10Z</time>
      </trkpt>
      <trkpt lat="47.21965" lon="-1.44743">
        <ele>51</ele>
        <time>2022-03-06T11:22:12Z</time>
      </trkpt>
      <trkpt lat="47.21975" lon="-1.44752">
        <ele>51</ele>
        <time>2022-03-06T11:22:14Z</time>
      </trkpt>
      <trkpt lat="47.21985" lon="-1.44764">
        <ele>51</ele>
        <time>2022-03-06T11:22:16Z</time>
      </trkpt>
      <trkpt lat="47.21994" lon="-1.44775">
        <ele>51</ele>
        <time>2022-03-06T11:22:18Z</time>
      </trkpt>
      <trkpt lat="47.22002" lon="-1.44788">
        <ele>51</ele>
        <time>2022-03-06T11:22:20Z</time>
      </trkpt>
      <trkpt lat="47.22009" lon="-1.44804">
        <ele>51</ele>
        <time>2022-03-06T11:22:22Z</time>
      </trkpt>
      <trkpt lat="47.22014" lon="-1.44821">
        <ele>51</ele>
        <time>2022-03-06T11:22:24Z</time>
      </trkpt>
      <trkpt lat="47.22018" lon="-1.44841">
        <ele>50</ele>
        <time>2022-03-06T11:22:26Z</time>
      </trkpt>
      <trkpt lat="47.22019" lon="-1.44861">
        <ele>50</ele>
        <time>2022-03-06T11:22:28Z</time>
      </trkpt>
      <trkpt lat="47.22018" lon="-1.4488">
        <ele>51</ele>
        <time>2022-03-06T11:22:30Z</time>
      </trkpt>
      <trkpt lat="47.22017" lon="-1.44899">
        <ele>50</ele>
        <time>2022-03-06T11:22:32Z</time>
      </trkpt>
      <trkpt lat="47.22014" lon="-1.44928">
        <ele>50</ele>
        <time>2022-03-06T11:22:35Z</time>
      </trkpt>
      <trkpt lat="47.22012" lon="-1.44948">
        <ele>50</ele>
        <time>2022-03-06T11:22:37Z</time>
      </trkpt>
      <trkpt lat="47.22011" lon="-1.44978">
        <ele>50</ele>
        <time>2022-03-06T11:22:40Z</time>
      </trkpt>
      <trkpt lat="47.2201" lon="-1.45008">
        <ele>49</ele>
        <time>2022-03-06T11:22:43Z</time>
      </trkpt>
      <trkpt lat="47.2201" lon="-1.45028">
        <ele>49</ele>
        <time>2022-03-06T11:22:45Z</time>
      </trkpt>
      <trkpt lat="47.2201" lon="-1.45048">
        <ele>49</ele>
        <time>2022-03-06T11:22:47Z</time>
      </trkpt>
      <trkpt lat="47.22009" lon="-1.45068">
        <ele>49</ele>
        <time>2022-03-06T11:22:49Z</time>
      </trkpt>
      <trkpt lat="47.22009" lon="-1.45086">
        <ele>49</ele>
        <time>2022-03-06T11:22:51Z</time>
      </trkpt>
      <trkpt lat="47.22009" lon="-1.45105">
        <ele>49</ele>
        <time>2022-03-06T11:22:53Z</time>
      </trkpt>
      <trkpt lat="47.22009" lon="-1.45122">
        <ele>49</ele>
        <time>2022-03-06T11:22:55Z</time>
      </trkpt>
      <trkpt lat="47.22008" lon="-1.45139">
        <ele>50</ele>
        <time>2022-03-06T11:22:57Z</time>
      </trkpt>
      <trkpt lat="47.22006" lon="-1.45156">
        <ele>50</ele>
        <time>2022-03-06T11:22:59Z</time>
      </trkpt>
      <trkpt lat="47.22002" lon="-1.45169">
        <ele>49</ele>
        <time>2022-03-06T11:23:01Z</time>
      </trkpt>
      <trkpt lat="47.21991" lon="-1.45172">
        <ele>49</ele>
        <time>2022-03-06T11:23:03Z</time>
      </trkpt>
      <trkpt lat="47.21982" lon="-1.45183">
        <ele>48</ele>
        <time>2022-03-06T11:23:05Z</time>
      </trkpt>
      <trkpt lat="47.2198" lon="-1.45201">
        <ele>48</ele>
        <time>2022-03-06T11:23:07Z</time>
      </trkpt>
      <trkpt lat="47.21978" lon="-1.45218">
        <ele>48</ele>
        <time>2022-03-06T11:23:09Z</time>
      </trkpt>
      <trkpt lat="47.21975" lon="-1.45235">
        <ele>48</ele>
        <time>2022-03-06T11:23:11Z</time>
      </trkpt>
      <trkpt lat="47.21971" lon="-1.45252">
        <ele>48</ele>
        <time>2022-03-06T11:23:13Z</time>
      </trkpt>
      <trkpt lat="47.21964" lon="-1.45267">
        <ele>49</ele>
        <time>2022-03-06T11:23:15Z</time>
      </trkpt>
      <trkpt lat="47.21954" lon="-1.45277">
        <ele>49</ele>
        <time>2022-03-06T11:23:17Z</time>
      </trkpt>
      <trkpt lat="47.21945" lon="-1.45289">
        <ele>49</ele>
        <time>2022-03-06T11:23:19Z</time>
      </trkpt>
      <trkpt lat="47.21941" lon="-1.45305">
        <ele>49</ele>
        <time>2022-03-06T11:23:21Z</time>
      </trkpt>
      <trkpt lat="47.21937" lon="-1.45319">
        <ele>49</ele>
        <time>2022-03-06T11:23:23Z</time>
      </trkpt>
      <trkpt lat="47.21935" lon="-1.45337">
        <ele>49</ele>
        <time>2022-03-06T11:23:25Z</time>
      </trkpt>
      <trkpt lat="47.21937" lon="-1.45354">
        <ele>50</ele>
        <time>2022-03-06T11:23:27Z</time>
      </trkpt>
      <trkpt lat="47.21941" lon="-1.45369">
        <ele>50</ele>
        <time>2022-03-06T11:23:29Z</time>
      </trkpt>
      <trkpt lat="47.21944" lon="-1.45385">
        <ele>50</ele>
        <time>2022-03-06T11:23:31Z</time>
      </trkpt>
      <trkpt lat="47.21946" lon="-1.45401">
        <ele>50</ele>
        <time>2022-03-06T11:23:33Z</time>
      </trkpt>
      <trkpt lat="47.21941" lon="-1.45414">
        <ele>51</ele>
        <time>2022-03-06T11:23:35Z</time>
      </trkpt>
      <trkpt lat="47.21932" lon="-1.45419">
        <ele>51</ele>
        <time>2022-03-06T11:23:37Z</time>
      </trkpt>
      <trkpt lat="47.21921" lon="-1.45428">
        <ele>52</ele>
        <time>2022-03-06T11:23:40Z</time>
      </trkpt>
      <trkpt lat="47.21915" lon="-1.45438">
        <ele>53</ele>
        <time>2022-03-06T11:23:42Z</time>
      </trkpt>
      <trkpt lat="47.21907" lon="-1.45451">
        <ele>54</ele>
        <time>2022-03-06T11:23:44Z</time>
      </trkpt>
      <trkpt lat="47.21901" lon="-1.45463">
        <ele>55</ele>
        <time>2022-03-06T11:23:46Z</time>
      </trkpt>
      <trkpt lat="47.21895" lon="-1.45474">
        <ele>55</ele>
        <time>2022-03-06T11:23:48Z</time>
      </trkpt>
      <trkpt lat="47.2189" lon="-1.45485">
        <ele>56</ele>
        <time>2022-03-06T11:23:50Z</time>
      </trkpt>
      <trkpt lat="47.21884" lon="-1.45496">
        <ele>56</ele>
        <time>2022-03-06T11:23:52Z</time>
      </trkpt>
      <trkpt lat="47.21878" lon="-1.45507">
        <ele>57</ele>
        <time>2022-03-06T11:23:54Z</time>
      </trkpt>
      <trkpt lat="47.21871" lon="-1.45518">
        <ele>57</ele>
        <time>2022-03-06T11:23:56Z</time>
      </trkpt>
      <trkpt lat="47.21866" lon="-1.4553">
        <ele>57</ele>
        <time>2022-03-06T11:23:58Z</time>
      </trkpt>
      <trkpt lat="47.2186" lon="-1.45544">
        <ele>56</ele>
        <time>2022-03-06T11:24:00Z</time>
      </trkpt>
      <trkpt lat="47.21852" lon="-1.45558">
        <ele>55</ele>
        <time>2022-03-06T11:24:02Z</time>
      </trkpt>
      <trkpt lat="47.21843" lon="-1.45574">
        <ele>54</ele>
        <time>2022-03-06T11:24:04Z</time>
      </trkpt>
      <trkpt lat="47.21835" lon="-1.45589">
        <ele>54</ele>
        <time>2022-03-06T11:24:06Z</time>
      </trkpt>
      <trkpt lat="47.21826" lon="-1.45606">
        <ele>53</ele>
        <time>2022-03-06T11:24:08Z</time>
      </trkpt>
      <trkpt lat="47.21816" lon="-1.45624">
        <ele>53</ele>
        <time>2022-03-06T11:24:10Z</time>
      </trkpt>
      <trkpt lat="47.21808" lon="-1.45641">
        <ele>53</ele>
        <time>2022-03-06T11:24:12Z</time>
      </trkpt>
      <trkpt lat="47.21798" lon="-1.45658">
        <ele>52</ele>
        <time>2022-03-06T11:24:14Z</time>
      </trkpt>
      <trkpt lat="47.2179" lon="-1.45675">
        <ele>52</ele>
        <time>2022-03-06T11:24:16Z</time>
      </trkpt>
      <trkpt lat="47.21781" lon="-1.45691">
        <ele>52</ele>
        <time>2022-03-06T11:24:18Z</time>
      </trkpt>
      <trkpt lat="47.21772" lon="-1.45707">
        <ele>52</ele>
        <time>2022-03-06T11:24:20Z</time>
      </trkpt>
      <trkpt lat="47.21764" lon="-1.45724">
        <ele>51</ele>
        <time>2022-03-06T11:24:22Z</time>
      </trkpt>
      <trkpt lat="47.21761" lon="-1.45744">
        <ele>51</ele>
        <time>2022-03-06T11:24:24Z</time>
      </trkpt>
      <trkpt lat="47.2176" lon="-1.45765">
        <ele>50</ele>
        <time>2022-03-06T11:24:26Z</time>
      </trkpt>
      <trkpt lat="47.21758" lon="-1.45787">
        <ele>50</ele>
        <time>2022-03-06T11:24:28Z</time>
      </trkpt>
      <trkpt lat="47.21757" lon="-1.4581">
        <ele>50</ele>
        <time>2022-03-06T11:24:30Z</time>
      </trkpt>
      <trkpt lat="47.21757" lon="-1.45831">
        <ele>50</ele>
        <time>2022-03-06T11:24:32Z</time>
      </trkpt>
      <trkpt lat="47.21755" lon="-1.45853">
        <ele>50</ele>
        <time>2022-03-06T11:24:34Z</time>
      </trkpt>
      <trkpt lat="47.21753" lon="-1.45873">
        <ele>50</ele>
        <time>2022-03-06T11:24:36Z</time>
      </trkpt>
      <trkpt lat="47.21752" lon="-1.45894">
        <ele>49</ele>
        <time>2022-03-06T11:24:38Z</time>
      </trkpt>
      <trkpt lat="47.2175" lon="-1.45914">
        <ele>49</ele>
        <time>2022-03-06T11:24:40Z</time>
      </trkpt>
      <trkpt lat="47.21748" lon="-1.45934">
        <ele>49</ele>
        <time>2022-03-06T11:24:42Z</time>
      </trkpt>
      <trkpt lat="47.21746" lon="-1.45955">
        <ele>50</ele>
        <time>2022-03-06T11:24:44Z</time>
      </trkpt>
      <trkpt lat="47.21744" lon="-1.45974">
        <ele>50</ele>
        <time>2022-03-06T11:24:46Z</time>
      </trkpt>
      <trkpt lat="47.21742" lon="-1.45994">
        <ele>50</ele>
        <time>2022-03-06T11:24:48Z</time>
      </trkpt>
      <trkpt lat="47.21739" lon="-1.46013">
        <ele>50</ele>
        <time>2022-03-06T11:24:50Z</time>
      </trkpt>
      <trkpt lat="47.21736" lon="-1.46032">
        <ele>50</ele>
        <time>2022-03-06T11:24:52Z</time>
      </trkpt>
      <trkpt lat="47.21732" lon="-1.46051">
        <ele>50</ele>
        <time>2022-03-06T11:24:54Z</time>
      </trkpt>
      <trkpt lat="47.21728" lon="-1.46068">
        <ele>50</ele>
        <time>2022-03-06T11:24:56Z</time>
      </trkpt>
      <trkpt lat="47.21723" lon="-1.46084">
        <ele>50</ele>
        <time>2022-03-06T11:24:58Z</time>
      </trkpt>
      <trkpt lat="47.21718" lon="-1.46099">
        <ele>50</ele>
        <time>2022-03-06T11:25:00Z</time>
      </trkpt>
      <trkpt lat="47.21713" lon="-1.46112">
        <ele>50</ele>
        <time>2022-03-06T11:25:02Z</time>
      </trkpt>
      <trkpt lat="47.21717" lon="-1.46125">
        <ele>49</ele>
        <time>2022-03-06T11:25:04Z</time>
      </trkpt>
      <trkpt lat="47.21727" lon="-1.4613">
        <ele>49</ele>
        <time>2022-03-06T11:25:06Z</time>
      </trkpt>
      <trkpt lat="47.21737" lon="-1.46136">
        <ele>50</ele>
        <time>2022-03-06T11:25:08Z</time>
      </trkpt>
      <trkpt lat="47.21747" lon="-1.46141">
        <ele>49</ele>
        <time>2022-03-06T11:25:10Z</time>
      </trkpt>
      <trkpt lat="47.21756" lon="-1.46146">
        <ele>49</ele>
        <time>2022-03-06T11:25:12Z</time>
      </trkpt>
      <trkpt lat="47.21765" lon="-1.4615">
        <ele>49</ele>
        <time>2022-03-06T11:25:14Z</time>
      </trkpt>
      <trkpt lat="47.21774" lon="-1.46157">
        <ele>50</ele>
        <time>2022-03-06T11:25:16Z</time>
      </trkpt>
      <trkpt lat="47.21782" lon="-1.46164">
        <ele>49</ele>
        <time>2022-03-06T11:25:18Z</time>
      </trkpt>
      <trkpt lat="47.21793" lon="-1.46168">
        <ele>49</ele>
        <time>2022-03-06T11:25:21Z</time>
      </trkpt>
      <trkpt lat="47.21802" lon="-1.4617">
        <ele>49</ele>
        <time>2022-03-06T11:25:23Z</time>
      </trkpt>
      <trkpt lat="47.21812" lon="-1.46175">
        <ele>49</ele>
        <time>2022-03-06T11:25:25Z</time>
      </trkpt>
      <trkpt lat="47.21823" lon="-1.46181">
        <ele>49</ele>
        <time>2022-03-06T11:25:27Z</time>
      </trkpt>
      <trkpt lat="47.21833" lon="-1.46186">
        <ele>49</ele>
        <time>2022-03-06T11:25:29Z</time>
      </trkpt>
      <trkpt lat="47.21845" lon="-1.46192">
        <ele>49</ele>
        <time>2022-03-06T11:25:31Z</time>
      </trkpt>
      <trkpt lat="47.21856" lon="-1.46199">
        <ele>49</ele>
        <time>2022-03-06T11:25:33Z</time>
      </trkpt>
      <trkpt lat="47.21868" lon="-1.46204">
        <ele>49</ele>
        <time>2022-03-06T11:25:35Z</time>
      </trkpt>
      <trkpt lat="47.21879" lon="-1.4621">
        <ele>49</ele>
        <time>2022-03-06T11:25:37Z</time>
      </trkpt>
      <trkpt lat="47.2189" lon="-1.46215">
        <ele>49</ele>
        <time>2022-03-06T11:25:39Z</time>
      </trkpt>
      <trkpt lat="47.21902" lon="-1.46221">
        <ele>49</ele>
        <time>2022-03-06T11:25:41Z</time>
      </trkpt>
      <trkpt lat="47.21913" lon="-1.46226">
        <ele>50</ele>
        <time>2022-03-06T11:25:43Z</time>
      </trkpt>
      <trkpt lat="47.21924" lon="-1.46233">
        <ele>50</ele>
        <time>2022-03-06T11:25:45Z</time>
      </trkpt>
      <trkpt lat="47.21935" lon="-1.46239">
        <ele>50</ele>
        <time>2022-03-06T11:25:47Z</time>
      </trkpt>
      <trkpt lat="47.21946" lon="-1.46245">
        <ele>50</ele>
        <time>2022-03-06T11:25:49Z</time>
      </trkpt>
      <trkpt lat="47.21957" lon="-1.4625">
        <ele>51</ele>
        <time>2022-03-06T11:25:51Z</time>
      </trkpt>
      <trkpt lat="47.21967" lon="-1.46255">
        <ele>51</ele>
        <time>2022-03-06T11:25:53Z</time>
      </trkpt>
      <trkpt lat="47.21977" lon="-1.4626">
        <ele>51</ele>
        <time>2022-03-06T11:25:55Z</time>
      </trkpt>
      <trkpt lat="47.21987" lon="-1.46266">
        <ele>51</ele>
        <time>2022-03-06T11:25:57Z</time>
      </trkpt>
      <trkpt lat="47.21999" lon="-1.46272">
        <ele>50</ele>
        <time>2022-03-06T11:25:59Z</time>
      </trkpt>
      <trkpt lat="47.22011" lon="-1.46278">
        <ele>49</ele>
        <time>2022-03-06T11:26:01Z</time>
      </trkpt>
      <trkpt lat="47.22024" lon="-1.46284">
        <ele>49</ele>
        <time>2022-03-06T11:26:03Z</time>
      </trkpt>
      <trkpt lat="47.22035" lon="-1.4629">
        <ele>49</ele>
        <time>2022-03-06T11:26:05Z</time>
      </trkpt>
      <trkpt lat="47.22047" lon="-1.46296">
        <ele>49</ele>
        <time>2022-03-06T11:26:07Z</time>
      </trkpt>
      <trkpt lat="47.22058" lon="-1.46302">
        <ele>49</ele>
        <time>2022-03-06T11:26:09Z</time>
      </trkpt>
      <trkpt lat="47.22069" lon="-1.46307">
        <ele>49</ele>
        <time>2022-03-06T11:26:11Z</time>
      </trkpt>
      <trkpt lat="47.22081" lon="-1.46313">
        <ele>49</ele>
        <time>2022-03-06T11:26:13Z</time>
      </trkpt>
      <trkpt lat="47.22092" lon="-1.46319">
        <ele>49</ele>
        <time>2022-03-06T11:26:15Z</time>
      </trkpt>
      <trkpt lat="47.22104" lon="-1.46326">
        <ele>49</ele>
        <time>2022-03-06T11:26:17Z</time>
      </trkpt>
      <trkpt lat="47.22115" lon="-1.46331">
        <ele>49</ele>
        <time>2022-03-06T11:26:19Z</time>
      </trkpt>
      <trkpt lat="47.22126" lon="-1.46337">
        <ele>49</ele>
        <time>2022-03-06T11:26:21Z</time>
      </trkpt>
      <trkpt lat="47.22138" lon="-1.46343">
        <ele>49</ele>
        <time>2022-03-06T11:26:23Z</time>
      </trkpt>
      <trkpt lat="47.22149" lon="-1.46348">
        <ele>49</ele>
        <time>2022-03-06T11:26:25Z</time>
      </trkpt>
      <trkpt lat="47.2216" lon="-1.46354">
        <ele>49</ele>
        <time>2022-03-06T11:26:27Z</time>
      </trkpt>
      <trkpt lat="47.22171" lon="-1.4636">
        <ele>49</ele>
        <time>2022-03-06T11:26:29Z</time>
      </trkpt>
      <trkpt lat="47.22182" lon="-1.46366">
        <ele>49</ele>
        <time>2022-03-06T11:26:31Z</time>
      </trkpt>
      <trkpt lat="47.22193" lon="-1.46372">
        <ele>49</ele>
        <time>2022-03-06T11:26:33Z</time>
      </trkpt>
      <trkpt lat="47.22204" lon="-1.46378">
        <ele>49</ele>
        <time>2022-03-06T11:26:35Z</time>
      </trkpt>
      <trkpt lat="47.22214" lon="-1.46383">
        <ele>49</ele>
        <time>2022-03-06T11:26:37Z</time>
      </trkpt>
      <trkpt lat="47.22225" lon="-1.46389">
        <ele>49</ele>
        <time>2022-03-06T11:26:39Z</time>
      </trkpt>
      <trkpt lat="47.22236" lon="-1.46394">
        <ele>49</ele>
        <time>2022-03-06T11:26:41Z</time>
      </trkpt>
      <trkpt lat="47.22246" lon="-1.464">
        <ele>49</ele>
        <time>2022-03-06T11:26:43Z</time>
      </trkpt>
      <trkpt lat="47.22256" lon="-1.46405">
        <ele>49</ele>
        <time>2022-03-06T11:26:45Z</time>
      </trkpt>
      <trkpt lat="47.22267" lon="-1.46411">
        <ele>49</ele>
        <time>2022-03-06T11:26:47Z</time>
      </trkpt>
      <trkpt lat="47.22278" lon="-1.46416">
        <ele>50</ele>
        <time>2022-03-06T11:26:49Z</time>
      </trkpt>
      <trkpt lat="47.22289" lon="-1.46421">
        <ele>49</ele>
        <time>2022-03-06T11:26:51Z</time>
      </trkpt>
      <trkpt lat="47.223" lon="-1.46426">
        <ele>50</ele>
        <time>2022-03-06T11:26:53Z</time>
      </trkpt>
      <trkpt lat="47.22311" lon="-1.46431">
        <ele>50</ele>
        <time>2022-03-06T11:26:55Z</time>
      </trkpt>
      <trkpt lat="47.22323" lon="-1.46436">
        <ele>50</ele>
        <time>2022-03-06T11:26:57Z</time>
      </trkpt>
      <trkpt lat="47.22333" lon="-1.46443">
        <ele>50</ele>
        <time>2022-03-06T11:26:59Z</time>
      </trkpt>
      <trkpt lat="47.22344" lon="-1.46452">
        <ele>50</ele>
        <time>2022-03-06T11:27:01Z</time>
      </trkpt>
      <trkpt lat="47.22353" lon="-1.46462">
        <ele>50</ele>
        <time>2022-03-06T11:27:03Z</time>
      </trkpt>
      <trkpt lat="47.22362" lon="-1.46473">
        <ele>51</ele>
        <time>2022-03-06T11:27:05Z</time>
      </trkpt>
      <trkpt lat="47.22371" lon="-1.46484">
        <ele>51</ele>
        <time>2022-03-06T11:27:07Z</time>
      </trkpt>
      <trkpt lat="47.22379" lon="-1.46496">
        <ele>51</ele>
        <time>2022-03-06T11:27:09Z</time>
      </trkpt>
      <trkpt lat="47.22388" lon="-1.46508">
        <ele>51</ele>
        <time>2022-03-06T11:27:11Z</time>
      </trkpt>
      <trkpt lat="47.22397" lon="-1.4652">
        <ele>51</ele>
        <time>2022-03-06T11:27:13Z</time>
      </trkpt>
      <trkpt lat="47.22406" lon="-1.46532">
        <ele>51</ele>
        <time>2022-03-06T11:27:15Z</time>
      </trkpt>
      <trkpt lat="47.22414" lon="-1.46544">
        <ele>51</ele>
        <time>2022-03-06T11:27:17Z</time>
      </trkpt>
      <trkpt lat="47.22423" lon="-1.46556">
        <ele>51</ele>
        <time>2022-03-06T11:27:19Z</time>
      </trkpt>
      <trkpt lat="47.22433" lon="-1.46567">
        <ele>51</ele>
        <time>2022-03-06T11:27:21Z</time>
      </trkpt>
      <trkpt lat="47.22441" lon="-1.4658">
        <ele>51</ele>
        <time>2022-03-06T11:27:23Z</time>
      </trkpt>
      <trkpt lat="47.2245" lon="-1.46591">
        <ele>51</ele>
        <time>2022-03-06T11:27:25Z</time>
      </trkpt>
      <trkpt lat="47.22459" lon="-1.46602">
        <ele>51</ele>
        <time>2022-03-06T11:27:27Z</time>
      </trkpt>
      <trkpt lat="47.22467" lon="-1.46614">
        <ele>51</ele>
        <time>2022-03-06T11:27:29Z</time>
      </trkpt>
      <trkpt lat="47.22476" lon="-1.46626">
        <ele>50</ele>
        <time>2022-03-06T11:27:31Z</time>
      </trkpt>
      <trkpt lat="47.22484" lon="-1.46637">
        <ele>50</ele>
        <time>2022-03-06T11:27:33Z</time>
      </trkpt>
      <trkpt lat="47.2249" lon="-1.46648">
        <ele>50</ele>
        <time>2022-03-06T11:27:35Z</time>
      </trkpt>
      <trkpt lat="47.225" lon="-1.46659">
        <ele>50</ele>
        <time>2022-03-06T11:27:38Z</time>
      </trkpt>
      <trkpt lat="47.22508" lon="-1.46666">
        <ele>51</ele>
        <time>2022-03-06T11:27:40Z</time>
      </trkpt>
      <trkpt lat="47.22516" lon="-1.46676">
        <ele>51</ele>
        <time>2022-03-06T11:27:42Z</time>
      </trkpt>
      <trkpt lat="47.22525" lon="-1.46684">
        <ele>51</ele>
        <time>2022-03-06T11:27:44Z</time>
      </trkpt>
      <trkpt lat="47.22534" lon="-1.46692">
        <ele>51</ele>
        <time>2022-03-06T11:27:46Z</time>
      </trkpt>
      <trkpt lat="47.22541" lon="-1.467">
        <ele>51</ele>
        <time>2022-03-06T11:27:48Z</time>
      </trkpt>
      <trkpt lat="47.22547" lon="-1.46711">
        <ele>51</ele>
        <time>2022-03-06T11:27:50Z</time>
      </trkpt>
      <trkpt lat="47.22554" lon="-1.46722">
        <ele>51</ele>
        <time>2022-03-06T11:27:52Z</time>
      </trkpt>
      <trkpt lat="47.22561" lon="-1.46734">
        <ele>51</ele>
        <time>2022-03-06T11:27:54Z</time>
      </trkpt>
      <trkpt lat="47.2257" lon="-1.46746">
        <ele>50</ele>
        <time>2022-03-06T11:27:56Z</time>
      </trkpt>
      <trkpt lat="47.2258" lon="-1.46755">
        <ele>50</ele>
        <time>2022-03-06T11:27:58Z</time>
      </trkpt>
      <trkpt lat="47.2259" lon="-1.46764">
        <ele>50</ele>
        <time>2022-03-06T11:28:00Z</time>
      </trkpt>
      <trkpt lat="47.226" lon="-1.4677">
        <ele>50</ele>
        <time>2022-03-06T11:28:02Z</time>
      </trkpt>
      <trkpt lat="47.22616" lon="-1.46781">
        <ele>51</ele>
        <time>2022-03-06T11:28:05Z</time>
      </trkpt>
      <trkpt lat="47.22626" lon="-1.46788">
        <ele>51</ele>
        <time>2022-03-06T11:28:07Z</time>
      </trkpt>
      <trkpt lat="47.22632" lon="-1.468">
        <ele>51</ele>
        <time>2022-03-06T11:28:09Z</time>
      </trkpt>
      <trkpt lat="47.22634" lon="-1.46814">
        <ele>51</ele>
        <time>2022-03-06T11:28:11Z</time>
      </trkpt>
      <trkpt lat="47.2263" lon="-1.4683">
        <ele>52</ele>
        <time>2022-03-06T11:28:13Z</time>
      </trkpt>
      <trkpt lat="47.22622" lon="-1.46844">
        <ele>52</ele>
        <time>2022-03-06T11:28:15Z</time>
      </trkpt>
      <trkpt lat="47.22615" lon="-1.46856">
        <ele>52</ele>
        <time>2022-03-06T11:28:17Z</time>
      </trkpt>
      <trkpt lat="47.22609" lon="-1.4687">
        <ele>52</ele>
        <time>2022-03-06T11:28:19Z</time>
      </trkpt>
      <trkpt lat="47.22608" lon="-1.46886">
        <ele>52</ele>
        <time>2022-03-06T11:28:21Z</time>
      </trkpt>
      <trkpt lat="47.22608" lon="-1.46904">
        <ele>52</ele>
        <time>2022-03-06T11:28:23Z</time>
      </trkpt>
      <trkpt lat="47.22608" lon="-1.46922">
        <ele>52</ele>
        <time>2022-03-06T11:28:25Z</time>
      </trkpt>
      <trkpt lat="47.22608" lon="-1.46939">
        <ele>52</ele>
        <time>2022-03-06T11:28:27Z</time>
      </trkpt>
      <trkpt lat="47.22607" lon="-1.46957">
        <ele>52</ele>
        <time>2022-03-06T11:28:29Z</time>
      </trkpt>
      <trkpt lat="47.22608" lon="-1.46977">
        <ele>52</ele>
        <time>2022-03-06T11:28:31Z</time>
      </trkpt>
      <trkpt lat="47.22607" lon="-1.46995">
        <ele>52</ele>
        <time>2022-03-06T11:28:33Z</time>
      </trkpt>
      <trkpt lat="47.22606" lon="-1.47012">
        <ele>51</ele>
        <time>2022-03-06T11:28:35Z</time>
      </trkpt>
      <trkpt lat="47.22603" lon="-1.47029">
        <ele>51</ele>
        <time>2022-03-06T11:28:37Z</time>
      </trkpt>
      <trkpt lat="47.22598" lon="-1.47045">
        <ele>52</ele>
        <time>2022-03-06T11:28:39Z</time>
      </trkpt>
      <trkpt lat="47.22592" lon="-1.4706">
        <ele>52</ele>
        <time>2022-03-06T11:28:41Z</time>
      </trkpt>
      <trkpt lat="47.22585" lon="-1.47073">
        <ele>52</ele>
        <time>2022-03-06T11:28:43Z</time>
      </trkpt>
      <trkpt lat="47.22577" lon="-1.47083">
        <ele>52</ele>
        <time>2022-03-06T11:28:45Z</time>
      </trkpt>
      <trkpt lat="47.22567" lon="-1.47092">
        <ele>53</ele>
        <time>2022-03-06T11:28:47Z</time>
      </trkpt>
      <trkpt lat="47.22558" lon="-1.47099">
        <ele>53</ele>
        <time>2022-03-06T11:28:49Z</time>
      </trkpt>
      <trkpt lat="47.2255" lon="-1.47106">
        <ele>53</ele>
        <time>2022-03-06T11:28:51Z</time>
      </trkpt>
      <trkpt lat="47.22541" lon="-1.47111">
        <ele>53</ele>
        <time>2022-03-06T11:28:53Z</time>
      </trkpt>
      <trkpt lat="47.22532" lon="-1.47116">
        <ele>53</ele>
        <time>2022-03-06T11:28:55Z</time>
      </trkpt>
      <trkpt lat="47.22541" lon="-1.47124">
        <ele>53</ele>
        <time>2022-03-06T11:29:01Z</time>
      </trkpt>
      <trkpt lat="47.22552" lon="-1.4712">
        <ele>52</ele>
        <time>2022-03-06T11:29:03Z</time>
      </trkpt>
      <trkpt lat="47.22563" lon="-1.47117">
        <ele>52</ele>
        <time>2022-03-06T11:29:05Z</time>
      </trkpt>
      <trkpt lat="47.22574" lon="-1.47112">
        <ele>52</ele>
        <time>2022-03-06T11:29:07Z</time>
      </trkpt>
      <trkpt lat="47.22585" lon="-1.47105">
        <ele>52</ele>
        <time>2022-03-06T11:29:09Z</time>
      </trkpt>
      <trkpt lat="47.22595" lon="-1.47096">
        <ele>52</ele>
        <time>2022-03-06T11:29:11Z</time>
      </trkpt>
      <trkpt lat="47.22605" lon="-1.47084">
        <ele>52</ele>
        <time>2022-03-06T11:29:13Z</time>
      </trkpt>
      <trkpt lat="47.22613" lon="-1.47069">
        <ele>51</ele>
        <time>2022-03-06T11:29:15Z</time>
      </trkpt>
      <trkpt lat="47.2262" lon="-1.47055">
        <ele>51</ele>
        <time>2022-03-06T11:29:17Z</time>
      </trkpt>
      <trkpt lat="47.22628" lon="-1.47041">
        <ele>51</ele>
        <time>2022-03-06T11:29:19Z</time>
      </trkpt>
      <trkpt lat="47.22636" lon="-1.47028">
        <ele>51</ele>
        <time>2022-03-06T11:29:21Z</time>
      </trkpt>
      <trkpt lat="47.22645" lon="-1.47016">
        <ele>51</ele>
        <time>2022-03-06T11:29:23Z</time>
      </trkpt>
      <trkpt lat="47.22654" lon="-1.47005">
        <ele>51</ele>
        <time>2022-03-06T11:29:25Z</time>
      </trkpt>
      <trkpt lat="47.22664" lon="-1.46996">
        <ele>50</ele>
        <time>2022-03-06T11:29:27Z</time>
      </trkpt>
      <trkpt lat="47.22673" lon="-1.46987">
        <ele>51</ele>
        <time>2022-03-06T11:29:29Z</time>
      </trkpt>
      <trkpt lat="47.22683" lon="-1.46979">
        <ele>50</ele>
        <time>2022-03-06T11:29:31Z</time>
      </trkpt>
      <trkpt lat="47.22694" lon="-1.46973">
        <ele>50</ele>
        <time>2022-03-06T11:29:33Z</time>
      </trkpt>
      <trkpt lat="47.22705" lon="-1.46967">
        <ele>50</ele>
        <time>2022-03-06T11:29:35Z</time>
      </trkpt>
      <trkpt lat="47.22716" lon="-1.46962">
        <ele>50</ele>
        <time>2022-03-06T11:29:37Z</time>
      </trkpt>
      <trkpt lat="47.22726" lon="-1.46958">
        <ele>50</ele>
        <time>2022-03-06T11:29:39Z</time>
      </trkpt>
      <trkpt lat="47.22737" lon="-1.46955">
        <ele>50</ele>
        <time>2022-03-06T11:29:41Z</time>
      </trkpt>
      <trkpt lat="47.22748" lon="-1.46954">
        <ele>50</ele>
        <time>2022-03-06T11:29:43Z</time>
      </trkpt>
      <trkpt lat="47.22758" lon="-1.46949">
        <ele>51</ele>
        <time>2022-03-06T11:29:45Z</time>
      </trkpt>
      <trkpt lat="47.22765" lon="-1.46937">
        <ele>51</ele>
        <time>2022-03-06T11:29:47Z</time>
      </trkpt>
      <trkpt lat="47.22774" lon="-1.46929">
        <ele>51</ele>
        <time>2022-03-06T11:29:49Z</time>
      </trkpt>
      <trkpt lat="47.22784" lon="-1.46928">
        <ele>52</ele>
        <time>2022-03-06T11:29:51Z</time>
      </trkpt>
      <trkpt lat="47.22795" lon="-1.46933">
        <ele>52</ele>
        <time>2022-03-06T11:29:53Z</time>
      </trkpt>
      <trkpt lat="47.22805" lon="-1.46937">
        <ele>52</ele>
        <time>2022-03-06T11:29:55Z</time>
      </trkpt>
      <trkpt lat="47.22816" lon="-1.46942">
        <ele>53</ele>
        <time>2022-03-06T11:29:57Z</time>
      </trkpt>
      <trkpt lat="47.22826" lon="-1.46946">
        <ele>53</ele>
        <time>2022-03-06T11:29:59Z</time>
      </trkpt>
      <trkpt lat="47.22837" lon="-1.4695">
        <ele>53</ele>
        <time>2022-03-06T11:30:01Z</time>
      </trkpt>
      <trkpt lat="47.22848" lon="-1.46955">
        <ele>53</ele>
        <time>2022-03-06T11:30:03Z</time>
      </trkpt>
      <trkpt lat="47.22858" lon="-1.4696">
        <ele>53</ele>
        <time>2022-03-06T11:30:05Z</time>
      </trkpt>
      <trkpt lat="47.22868" lon="-1.46964">
        <ele>53</ele>
        <time>2022-03-06T11:30:07Z</time>
      </trkpt>
      <trkpt lat="47.22878" lon="-1.46969">
        <ele>53</ele>
        <time>2022-03-06T11:30:09Z</time>
      </trkpt>
      <trkpt lat="47.22889" lon="-1.46973">
        <ele>54</ele>
        <time>2022-03-06T11:30:11Z</time>
      </trkpt>
      <trkpt lat="47.22898" lon="-1.46976">
        <ele>54</ele>
        <time>2022-03-06T11:30:13Z</time>
      </trkpt>
      <trkpt lat="47.22908" lon="-1.46978">
        <ele>55</ele>
        <time>2022-03-06T11:30:15Z</time>
      </trkpt>
      <trkpt lat="47.22918" lon="-1.4698">
        <ele>55</ele>
        <time>2022-03-06T11:30:17Z</time>
      </trkpt>
      <trkpt lat="47.22929" lon="-1.46981">
        <ele>54</ele>
        <time>2022-03-06T11:30:19Z</time>
      </trkpt>
      <trkpt lat="47.22939" lon="-1.46982">
        <ele>54</ele>
        <time>2022-03-06T11:30:21Z</time>
      </trkpt>
      <trkpt lat="47.22949" lon="-1.46982">
        <ele>55</ele>
        <time>2022-03-06T11:30:23Z</time>
      </trkpt>
      <trkpt lat="47.22959" lon="-1.46984">
        <ele>55</ele>
        <time>2022-03-06T11:30:25Z</time>
      </trkpt>
      <trkpt lat="47.22969" lon="-1.46985">
        <ele>55</ele>
        <time>2022-03-06T11:30:27Z</time>
      </trkpt>
      <trkpt lat="47.22979" lon="-1.46988">
        <ele>55</ele>
        <time>2022-03-06T11:30:29Z</time>
      </trkpt>
      <trkpt lat="47.2299" lon="-1.46991">
        <ele>55</ele>
        <time>2022-03-06T11:30:31Z</time>
      </trkpt>
      <trkpt lat="47.23" lon="-1.46996">
        <ele>55</ele>
        <time>2022-03-06T11:30:33Z</time>
      </trkpt>
      <trkpt lat="47.23009" lon="-1.47001">
        <ele>55</ele>
        <time>2022-03-06T11:30:35Z</time>
      </trkpt>
      <trkpt lat="47.2302" lon="-1.47008">
        <ele>55</ele>
        <time>2022-03-06T11:30:37Z</time>
      </trkpt>
      <trkpt lat="47.23029" lon="-1.47016">
        <ele>55</ele>
        <time>2022-03-06T11:30:39Z</time>
      </trkpt>
      <trkpt lat="47.23038" lon="-1.47024">
        <ele>55</ele>
        <time>2022-03-06T11:30:41Z</time>
      </trkpt>
      <trkpt lat="47.23047" lon="-1.47034">
        <ele>55</ele>
        <time>2022-03-06T11:30:43Z</time>
      </trkpt>
      <trkpt lat="47.23055" lon="-1.47046">
        <ele>54</ele>
        <time>2022-03-06T11:30:45Z</time>
      </trkpt>
      <trkpt lat="47.23063" lon="-1.47059">
        <ele>54</ele>
        <time>2022-03-06T11:30:47Z</time>
      </trkpt>
      <trkpt lat="47.23071" lon="-1.47073">
        <ele>53</ele>
        <time>2022-03-06T11:30:49Z</time>
      </trkpt>
      <trkpt lat="47.2308" lon="-1.47088">
        <ele>53</ele>
        <time>2022-03-06T11:30:51Z</time>
      </trkpt>
      <trkpt lat="47.23088" lon="-1.47103">
        <ele>52</ele>
        <time>2022-03-06T11:30:53Z</time>
      </trkpt>
      <trkpt lat="47.23097" lon="-1.47118">
        <ele>52</ele>
        <time>2022-03-06T11:30:55Z</time>
      </trkpt>
      <trkpt lat="47.23107" lon="-1.47128">
        <ele>52</ele>
        <time>2022-03-06T11:30:57Z</time>
      </trkpt>
      <trkpt lat="47.23119" lon="-1.47125">
        <ele>51</ele>
        <time>2022-03-06T11:30:59Z</time>
      </trkpt>
      <trkpt lat="47.23127" lon="-1.47115">
        <ele>51</ele>
        <time>2022-03-06T11:31:01Z</time>
      </trkpt>
      <trkpt lat="47.23136" lon="-1.47105">
        <ele>51</ele>
        <time>2022-03-06T11:31:03Z</time>
      </trkpt>
      <trkpt lat="47.2314" lon="-1.4709">
        <ele>51</ele>
        <time>2022-03-06T11:31:05Z</time>
      </trkpt>
      <trkpt lat="47.23133" lon="-1.47072">
        <ele>51</ele>
        <time>2022-03-06T11:31:07Z</time>
      </trkpt>
      <trkpt lat="47.23124" lon="-1.47058">
        <ele>51</ele>
        <time>2022-03-06T11:31:09Z</time>
      </trkpt>
      <trkpt lat="47.23116" lon="-1.47045">
        <ele>50</ele>
        <time>2022-03-06T11:31:11Z</time>
      </trkpt>
      <trkpt lat="47.23109" lon="-1.47031">
        <ele>51</ele>
        <time>2022-03-06T11:31:13Z</time>
      </trkpt>
      <trkpt lat="47.23103" lon="-1.47019">
        <ele>51</ele>
        <time>2022-03-06T11:31:15Z</time>
      </trkpt>
      <trkpt lat="47.23097" lon="-1.47006">
        <ele>52</ele>
        <time>2022-03-06T11:31:17Z</time>
      </trkpt>
      <trkpt lat="47.23091" lon="-1.46994">
        <ele>52</ele>
        <time>2022-03-06T11:31:19Z</time>
      </trkpt>
      <trkpt lat="47.2308" lon="-1.46987">
        <ele>51</ele>
        <time>2022-03-06T11:31:22Z</time>
      </trkpt>
      <trkpt lat="47.23079" lon="-1.47004">
        <ele>53</ele>
        <time>2022-03-06T11:31:25Z</time>
      </trkpt>
      <trkpt lat="47.23089" lon="-1.4702">
        <ele>54</ele>
        <time>2022-03-06T11:31:28Z</time>
      </trkpt>
      <trkpt lat="47.23096" lon="-1.47032">
        <ele>54</ele>
        <time>2022-03-06T11:31:30Z</time>
      </trkpt>
      <trkpt lat="47.23103" lon="-1.47044">
        <ele>54</ele>
        <time>2022-03-06T11:31:32Z</time>
      </trkpt>
      <trkpt lat="47.23109" lon="-1.47056">
        <ele>55</ele>
        <time>2022-03-06T11:31:34Z</time>
      </trkpt>
      <trkpt lat="47.23115" lon="-1.47067">
        <ele>55</ele>
        <time>2022-03-06T11:31:36Z</time>
      </trkpt>
      <trkpt lat="47.23121" lon="-1.47079">
        <ele>56</ele>
        <time>2022-03-06T11:31:38Z</time>
      </trkpt>
      <trkpt lat="47.23126" lon="-1.47091">
        <ele>56</ele>
        <time>2022-03-06T11:31:40Z</time>
      </trkpt>
      <trkpt lat="47.23133" lon="-1.47103">
        <ele>56</ele>
        <time>2022-03-06T11:31:42Z</time>
      </trkpt>
      <trkpt lat="47.2314" lon="-1.47114">
        <ele>56</ele>
        <time>2022-03-06T11:31:44Z</time>
      </trkpt>
      <trkpt lat="47.23146" lon="-1.47126">
        <ele>57</ele>
        <time>2022-03-06T11:31:46Z</time>
      </trkpt>
      <trkpt lat="47.23153" lon="-1.47137">
        <ele>57</ele>
        <time>2022-03-06T11:31:48Z</time>
      </trkpt>
      <trkpt lat="47.2316" lon="-1.47148">
        <ele>57</ele>
        <time>2022-03-06T11:31:50Z</time>
      </trkpt>
      <trkpt lat="47.23166" lon="-1.4716">
        <ele>58</ele>
        <time>2022-03-06T11:31:52Z</time>
      </trkpt>
      <trkpt lat="47.23173" lon="-1.47171">
        <ele>58</ele>
        <time>2022-03-06T11:31:54Z</time>
      </trkpt>
      <trkpt lat="47.23179" lon="-1.47183">
        <ele>58</ele>
        <time>2022-03-06T11:31:56Z</time>
      </trkpt>
      <trkpt lat="47.23186" lon="-1.47194">
        <ele>58</ele>
        <time>2022-03-06T11:31:58Z</time>
      </trkpt>
      <trkpt lat="47.23193" lon="-1.47206">
        <ele>59</ele>
        <time>2022-03-06T11:32:00Z</time>
      </trkpt>
      <trkpt lat="47.232" lon="-1.47217">
        <ele>58</ele>
        <time>2022-03-06T11:32:02Z</time>
      </trkpt>
      <trkpt lat="47.23206" lon="-1.47229">
        <ele>58</ele>
        <time>2022-03-06T11:32:04Z</time>
      </trkpt>
      <trkpt lat="47.23213" lon="-1.4724">
        <ele>59</ele>
        <time>2022-03-06T11:32:06Z</time>
      </trkpt>
      <trkpt lat="47.23219" lon="-1.47251">
        <ele>59</ele>
        <time>2022-03-06T11:32:08Z</time>
      </trkpt>
      <trkpt lat="47.23226" lon="-1.47262">
        <ele>59</ele>
        <time>2022-03-06T11:32:10Z</time>
      </trkpt>
      <trkpt lat="47.23232" lon="-1.47274">
        <ele>59</ele>
        <time>2022-03-06T11:32:12Z</time>
      </trkpt>
      <trkpt lat="47.23239" lon="-1.47285">
        <ele>59</ele>
        <time>2022-03-06T11:32:14Z</time>
      </trkpt>
      <trkpt lat="47.23246" lon="-1.47297">
        <ele>59</ele>
        <time>2022-03-06T11:32:16Z</time>
      </trkpt>
      <trkpt lat="47.23252" lon="-1.47309">
        <ele>59</ele>
        <time>2022-03-06T11:32:18Z</time>
      </trkpt>
      <trkpt lat="47.23259" lon="-1.4732">
        <ele>59</ele>
        <time>2022-03-06T11:32:20Z</time>
      </trkpt>
      <trkpt lat="47.23266" lon="-1.47331">
        <ele>59</ele>
        <time>2022-03-06T11:32:22Z</time>
      </trkpt>
      <trkpt lat="47.23273" lon="-1.47343">
        <ele>59</ele>
        <time>2022-03-06T11:32:24Z</time>
      </trkpt>
      <trkpt lat="47.2328" lon="-1.47355">
        <ele>59</ele>
        <time>2022-03-06T11:32:26Z</time>
      </trkpt>
      <trkpt lat="47.23287" lon="-1.47367">
        <ele>59</ele>
        <time>2022-03-06T11:32:28Z</time>
      </trkpt>
      <trkpt lat="47.23294" lon="-1.47379">
        <ele>59</ele>
        <time>2022-03-06T11:32:30Z</time>
      </trkpt>
      <trkpt lat="47.23301" lon="-1.47392">
        <ele>59</ele>
        <time>2022-03-06T11:32:32Z</time>
      </trkpt>
      <trkpt lat="47.23308" lon="-1.47405">
        <ele>59</ele>
        <time>2022-03-06T11:32:34Z</time>
      </trkpt>
      <trkpt lat="47.23316" lon="-1.47417">
        <ele>59</ele>
        <time>2022-03-06T11:32:36Z</time>
      </trkpt>
      <trkpt lat="47.23323" lon="-1.4743">
        <ele>59</ele>
        <time>2022-03-06T11:32:38Z</time>
      </trkpt>
      <trkpt lat="47.23331" lon="-1.47443">
        <ele>59</ele>
        <time>2022-03-06T11:32:40Z</time>
      </trkpt>
      <trkpt lat="47.23339" lon="-1.47456">
        <ele>58</ele>
        <time>2022-03-06T11:32:42Z</time>
      </trkpt>
      <trkpt lat="47.23346" lon="-1.47469">
        <ele>58</ele>
        <time>2022-03-06T11:32:44Z</time>
      </trkpt>
      <trkpt lat="47.23354" lon="-1.47482">
        <ele>58</ele>
        <time>2022-03-06T11:32:46Z</time>
      </trkpt>
      <trkpt lat="47.23362" lon="-1.47496">
        <ele>57</ele>
        <time>2022-03-06T11:32:48Z</time>
      </trkpt>
      <trkpt lat="47.23376" lon="-1.47515">
        <ele>56</ele>
        <time>2022-03-06T11:32:51Z</time>
      </trkpt>
      <trkpt lat="47.23386" lon="-1.47528">
        <ele>56</ele>
        <time>2022-03-06T11:32:53Z</time>
      </trkpt>
      <trkpt lat="47.23396" lon="-1.47541">
        <ele>56</ele>
        <time>2022-03-06T11:32:55Z</time>
      </trkpt>
      <trkpt lat="47.23405" lon="-1.47555">
        <ele>56</ele>
        <time>2022-03-06T11:32:57Z</time>
      </trkpt>
      <trkpt lat="47.23413" lon="-1.4757">
        <ele>55</ele>
        <time>2022-03-06T11:32:59Z</time>
      </trkpt>
      <trkpt lat="47.23423" lon="-1.47584">
        <ele>55</ele>
        <time>2022-03-06T11:33:01Z</time>
      </trkpt>
      <trkpt lat="47.23432" lon="-1.47598">
        <ele>55</ele>
        <time>2022-03-06T11:33:03Z</time>
      </trkpt>
      <trkpt lat="47.23441" lon="-1.47612">
        <ele>54</ele>
        <time>2022-03-06T11:33:05Z</time>
      </trkpt>
      <trkpt lat="47.23451" lon="-1.47625">
        <ele>54</ele>
        <time>2022-03-06T11:33:07Z</time>
      </trkpt>
      <trkpt lat="47.23461" lon="-1.47638">
        <ele>53</ele>
        <time>2022-03-06T11:33:09Z</time>
      </trkpt>
      <trkpt lat="47.2347" lon="-1.4765">
        <ele>53</ele>
        <time>2022-03-06T11:33:11Z</time>
      </trkpt>
      <trkpt lat="47.23481" lon="-1.47659">
        <ele>53</ele>
        <time>2022-03-06T11:33:13Z</time>
      </trkpt>
      <trkpt lat="47.23493" lon="-1.47668">
        <ele>53</ele>
        <time>2022-03-06T11:33:15Z</time>
      </trkpt>
      <trkpt lat="47.23505" lon="-1.47677">
        <ele>52</ele>
        <time>2022-03-06T11:33:17Z</time>
      </trkpt>
      <trkpt lat="47.23516" lon="-1.47684">
        <ele>52</ele>
        <time>2022-03-06T11:33:19Z</time>
      </trkpt>
      <trkpt lat="47.23527" lon="-1.47691">
        <ele>52</ele>
        <time>2022-03-06T11:33:21Z</time>
      </trkpt>
      <trkpt lat="47.23537" lon="-1.47698">
        <ele>52</ele>
        <time>2022-03-06T11:33:23Z</time>
      </trkpt>
      <trkpt lat="47.23547" lon="-1.47701">
        <ele>51</ele>
        <time>2022-03-06T11:33:25Z</time>
      </trkpt>
      <trkpt lat="47.23557" lon="-1.47696">
        <ele>51</ele>
        <time>2022-03-06T11:33:27Z</time>
      </trkpt>
      <trkpt lat="47.23565" lon="-1.47683">
        <ele>51</ele>
        <time>2022-03-06T11:33:30Z</time>
      </trkpt>
      <trkpt lat="47.2356" lon="-1.47671">
        <ele>52</ele>
        <time>2022-03-06T11:33:32Z</time>
      </trkpt>
      <trkpt lat="47.23552" lon="-1.47658">
        <ele>51</ele>
        <time>2022-03-06T11:33:34Z</time>
      </trkpt>
      <trkpt lat="47.23545" lon="-1.47645">
        <ele>51</ele>
        <time>2022-03-06T11:33:36Z</time>
      </trkpt>
      <trkpt lat="47.23537" lon="-1.47632">
        <ele>51</ele>
        <time>2022-03-06T11:33:38Z</time>
      </trkpt>
      <trkpt lat="47.23528" lon="-1.47619">
        <ele>51</ele>
        <time>2022-03-06T11:33:40Z</time>
      </trkpt>
      <trkpt lat="47.23519" lon="-1.47606">
        <ele>52</ele>
        <time>2022-03-06T11:33:42Z</time>
      </trkpt>
      <trkpt lat="47.23511" lon="-1.47593">
        <ele>52</ele>
        <time>2022-03-06T11:33:44Z</time>
      </trkpt>
      <trkpt lat="47.23503" lon="-1.4758">
        <ele>52</ele>
        <time>2022-03-06T11:33:46Z</time>
      </trkpt>
      <trkpt lat="47.23495" lon="-1.47567">
        <ele>52</ele>
        <time>2022-03-06T11:33:48Z</time>
      </trkpt>
      <trkpt lat="47.23487" lon="-1.47554">
        <ele>52</ele>
        <time>2022-03-06T11:33:50Z</time>
      </trkpt>
      <trkpt lat="47.23478" lon="-1.47541">
        <ele>52</ele>
        <time>2022-03-06T11:33:52Z</time>
      </trkpt>
      <trkpt lat="47.2347" lon="-1.47528">
        <ele>52</ele>
        <time>2022-03-06T11:33:54Z</time>
      </trkpt>
      <trkpt lat="47.23462" lon="-1.47515">
        <ele>52</ele>
        <time>2022-03-06T11:33:56Z</time>
      </trkpt>
      <trkpt lat="47.23454" lon="-1.47502">
        <ele>52</ele>
        <time>2022-03-06T11:33:58Z</time>
      </trkpt>
      <trkpt lat="47.23447" lon="-1.47489">
        <ele>52</ele>
        <time>2022-03-06T11:34:00Z</time>
      </trkpt>
      <trkpt lat="47.23439" lon="-1.47477">
        <ele>52</ele>
        <time>2022-03-06T11:34:02Z</time>
      </trkpt>
      <trkpt lat="47.23431" lon="-1.47464">
        <ele>52</ele>
        <time>2022-03-06T11:34:04Z</time>
      </trkpt>
      <trkpt lat="47.23424" lon="-1.47452">
        <ele>52</ele>
        <time>2022-03-06T11:34:06Z</time>
      </trkpt>
      <trkpt lat="47.23417" lon="-1.47442">
        <ele>52</ele>
        <time>2022-03-06T11:34:08Z</time>
      </trkpt>
      <trkpt lat="47.23407" lon="-1.47442">
        <ele>52</ele>
        <time>2022-03-06T11:34:10Z</time>
      </trkpt>
      <trkpt lat="47.23396" lon="-1.4745">
        <ele>51</ele>
        <time>2022-03-06T11:34:12Z</time>
      </trkpt>
      <trkpt lat="47.23385" lon="-1.47457">
        <ele>51</ele>
        <time>2022-03-06T11:34:14Z</time>
      </trkpt>
      <trkpt lat="47.23373" lon="-1.47464">
        <ele>51</ele>
        <time>2022-03-06T11:34:16Z</time>
      </trkpt>
      <trkpt lat="47.23362" lon="-1.47469">
        <ele>51</ele>
        <time>2022-03-06T11:34:18Z</time>
      </trkpt>
      <trkpt lat="47.23349" lon="-1.47474">
        <ele>51</ele>
        <time>2022-03-06T11:34:20Z</time>
      </trkpt>
      <trkpt lat="47.23338" lon="-1.47479">
        <ele>50</ele>
        <time>2022-03-06T11:34:22Z</time>
      </trkpt>
      <trkpt lat="47.23327" lon="-1.47487">
        <ele>50</ele>
        <time>2022-03-06T11:34:24Z</time>
      </trkpt>
      <trkpt lat="47.23317" lon="-1.47497">
        <ele>50</ele>
        <time>2022-03-06T11:34:26Z</time>
      </trkpt>
      <trkpt lat="47.23307" lon="-1.47505">
        <ele>51</ele>
        <time>2022-03-06T11:34:28Z</time>
      </trkpt>
      <trkpt lat="47.23296" lon="-1.47511">
        <ele>51</ele>
        <time>2022-03-06T11:34:30Z</time>
      </trkpt>
      <trkpt lat="47.23284" lon="-1.47517">
        <ele>51</ele>
        <time>2022-03-06T11:34:32Z</time>
      </trkpt>
      <trkpt lat="47.23274" lon="-1.47523">
        <ele>51</ele>
        <time>2022-03-06T11:34:34Z</time>
      </trkpt>
      <trkpt lat="47.23264" lon="-1.47533">
        <ele>51</ele>
        <time>2022-03-06T11:34:36Z</time>
      </trkpt>
      <trkpt lat="47.23257" lon="-1.47547">
        <ele>51</ele>
        <time>2022-03-06T11:34:38Z</time>
      </trkpt>
      <trkpt lat="47.2325" lon="-1.47561">
        <ele>51</ele>
        <time>2022-03-06T11:34:40Z</time>
      </trkpt>
      <trkpt lat="47.23242" lon="-1.47575">
        <ele>51</ele>
        <time>2022-03-06T11:34:42Z</time>
      </trkpt>
      <trkpt lat="47.23235" lon="-1.47588">
        <ele>51</ele>
        <time>2022-03-06T11:34:44Z</time>
      </trkpt>
      <trkpt lat="47.23228" lon="-1.47601">
        <ele>51</ele>
        <time>2022-03-06T11:34:46Z</time>
      </trkpt>
      <trkpt lat="47.23221" lon="-1.47616">
        <ele>51</ele>
        <time>2022-03-06T11:34:48Z</time>
      </trkpt>
      <trkpt lat="47.23215" lon="-1.4763">
        <ele>51</ele>
        <time>2022-03-06T11:34:50Z</time>
      </trkpt>
      <trkpt lat="47.2321" lon="-1.47644">
        <ele>51</ele>
        <time>2022-03-06T11:34:52Z</time>
      </trkpt>
      <trkpt lat="47.23205" lon="-1.47658">
        <ele>51</ele>
        <time>2022-03-06T11:34:54Z</time>
      </trkpt>
      <trkpt lat="47.23199" lon="-1.47671">
        <ele>52</ele>
        <time>2022-03-06T11:34:56Z</time>
      </trkpt>
      <trkpt lat="47.23192" lon="-1.47687">
        <ele>52</ele>
        <time>2022-03-06T11:34:58Z</time>
      </trkpt>
      <trkpt lat="47.23184" lon="-1.47702">
        <ele>52</ele>
        <time>2022-03-06T11:35:00Z</time>
      </trkpt>
      <trkpt lat="47.23177" lon="-1.47718">
        <ele>52</ele>
        <time>2022-03-06T11:35:02Z</time>
      </trkpt>
      <trkpt lat="47.23171" lon="-1.47733">
        <ele>52</ele>
        <time>2022-03-06T11:35:04Z</time>
      </trkpt>
      <trkpt lat="47.23164" lon="-1.47748">
        <ele>51</ele>
        <time>2022-03-06T11:35:06Z</time>
      </trkpt>
      <trkpt lat="47.23158" lon="-1.47763">
        <ele>51</ele>
        <time>2022-03-06T11:35:08Z</time>
      </trkpt>
      <trkpt lat="47.23152" lon="-1.47778">
        <ele>52</ele>
        <time>2022-03-06T11:35:10Z</time>
      </trkpt>
      <trkpt lat="47.23148" lon="-1.47792">
        <ele>52</ele>
        <time>2022-03-06T11:35:12Z</time>
      </trkpt>
      <trkpt lat="47.23143" lon="-1.47806">
        <ele>52</ele>
        <time>2022-03-06T11:35:14Z</time>
      </trkpt>
      <trkpt lat="47.23138" lon="-1.47819">
        <ele>51</ele>
        <time>2022-03-06T11:35:16Z</time>
      </trkpt>
      <trkpt lat="47.23132" lon="-1.47836">
        <ele>50</ele>
        <time>2022-03-06T11:35:18Z</time>
      </trkpt>
      <trkpt lat="47.23124" lon="-1.47849">
        <ele>50</ele>
        <time>2022-03-06T11:35:20Z</time>
      </trkpt>
      <trkpt lat="47.23116" lon="-1.47863">
        <ele>50</ele>
        <time>2022-03-06T11:35:22Z</time>
      </trkpt>
      <trkpt lat="47.23108" lon="-1.47876">
        <ele>50</ele>
        <time>2022-03-06T11:35:24Z</time>
      </trkpt>
      <trkpt lat="47.231" lon="-1.47888">
        <ele>50</ele>
        <time>2022-03-06T11:35:26Z</time>
      </trkpt>
      <trkpt lat="47.2309" lon="-1.479">
        <ele>50</ele>
        <time>2022-03-06T11:35:28Z</time>
      </trkpt>
      <trkpt lat="47.23081" lon="-1.47912">
        <ele>50</ele>
        <time>2022-03-06T11:35:30Z</time>
      </trkpt>
      <trkpt lat="47.23072" lon="-1.47925">
        <ele>51</ele>
        <time>2022-03-06T11:35:32Z</time>
      </trkpt>
      <trkpt lat="47.23062" lon="-1.47938">
        <ele>51</ele>
        <time>2022-03-06T11:35:34Z</time>
      </trkpt>
      <trkpt lat="47.23053" lon="-1.4795">
        <ele>51</ele>
        <time>2022-03-06T11:35:36Z</time>
      </trkpt>
      <trkpt lat="47.23044" lon="-1.47962">
        <ele>51</ele>
        <time>2022-03-06T11:35:38Z</time>
      </trkpt>
      <trkpt lat="47.23035" lon="-1.47973">
        <ele>51</ele>
        <time>2022-03-06T11:35:40Z</time>
      </trkpt>
      <trkpt lat="47.23026" lon="-1.47985">
        <ele>51</ele>
        <time>2022-03-06T11:35:42Z</time>
      </trkpt>
      <trkpt lat="47.23018" lon="-1.47998">
        <ele>51</ele>
        <time>2022-03-06T11:35:44Z</time>
      </trkpt>
      <trkpt lat="47.2301" lon="-1.48011">
        <ele>51</ele>
        <time>2022-03-06T11:35:46Z</time>
      </trkpt>
      <trkpt lat="47.23001" lon="-1.48025">
        <ele>51</ele>
        <time>2022-03-06T11:35:48Z</time>
      </trkpt>
      <trkpt lat="47.22993" lon="-1.48039">
        <ele>51</ele>
        <time>2022-03-06T11:35:50Z</time>
      </trkpt>
      <trkpt lat="47.22985" lon="-1.48053">
        <ele>51</ele>
        <time>2022-03-06T11:35:52Z</time>
      </trkpt>
      <trkpt lat="47.22976" lon="-1.48066">
        <ele>51</ele>
        <time>2022-03-06T11:35:54Z</time>
      </trkpt>
      <trkpt lat="47.22968" lon="-1.48079">
        <ele>51</ele>
        <time>2022-03-06T11:35:56Z</time>
      </trkpt>
      <trkpt lat="47.22961" lon="-1.48091">
        <ele>51</ele>
        <time>2022-03-06T11:35:58Z</time>
      </trkpt>
      <trkpt lat="47.22954" lon="-1.48103">
        <ele>51</ele>
        <time>2022-03-06T11:36:00Z</time>
      </trkpt>
      <trkpt lat="47.22944" lon="-1.48108">
        <ele>51</ele>
        <time>2022-03-06T11:36:02Z</time>
      </trkpt>
      <trkpt lat="47.22932" lon="-1.4811">
        <ele>51</ele>
        <time>2022-03-06T11:36:04Z</time>
      </trkpt>
      <trkpt lat="47.2292" lon="-1.48114">
        <ele>51</ele>
        <time>2022-03-06T11:36:06Z</time>
      </trkpt>
      <trkpt lat="47.22908" lon="-1.4812">
        <ele>51</ele>
        <time>2022-03-06T11:36:08Z</time>
      </trkpt>
      <trkpt lat="47.22899" lon="-1.48132">
        <ele>51</ele>
        <time>2022-03-06T11:36:10Z</time>
      </trkpt>
      <trkpt lat="47.22891" lon="-1.48145">
        <ele>51</ele>
        <time>2022-03-06T11:36:12Z</time>
      </trkpt>
      <trkpt lat="47.22882" lon="-1.48158">
        <ele>51</ele>
        <time>2022-03-06T11:36:14Z</time>
      </trkpt>
      <trkpt lat="47.22874" lon="-1.48172">
        <ele>51</ele>
        <time>2022-03-06T11:36:16Z</time>
      </trkpt>
      <trkpt lat="47.22866" lon="-1.48186">
        <ele>52</ele>
        <time>2022-03-06T11:36:18Z</time>
      </trkpt>
      <trkpt lat="47.22858" lon="-1.48199">
        <ele>52</ele>
        <time>2022-03-06T11:36:20Z</time>
      </trkpt>
      <trkpt lat="47.22849" lon="-1.48212">
        <ele>52</ele>
        <time>2022-03-06T11:36:22Z</time>
      </trkpt>
      <trkpt lat="47.22841" lon="-1.48225">
        <ele>52</ele>
        <time>2022-03-06T11:36:24Z</time>
      </trkpt>
      <trkpt lat="47.22832" lon="-1.48237">
        <ele>51</ele>
        <time>2022-03-06T11:36:26Z</time>
      </trkpt>
      <trkpt lat="47.22824" lon="-1.48249">
        <ele>51</ele>
        <time>2022-03-06T11:36:28Z</time>
      </trkpt>
      <trkpt lat="47.22815" lon="-1.48262">
        <ele>52</ele>
        <time>2022-03-06T11:36:30Z</time>
      </trkpt>
      <trkpt lat="47.22807" lon="-1.48275">
        <ele>51</ele>
        <time>2022-03-06T11:36:32Z</time>
      </trkpt>
      <trkpt lat="47.22799" lon="-1.48288">
        <ele>51</ele>
        <time>2022-03-06T11:36:34Z</time>
      </trkpt>
      <trkpt lat="47.22791" lon="-1.48301">
        <ele>51</ele>
        <time>2022-03-06T11:36:36Z</time>
      </trkpt>
      <trkpt lat="47.22783" lon="-1.48316">
        <ele>51</ele>
        <time>2022-03-06T11:36:38Z</time>
      </trkpt>
      <trkpt lat="47.22775" lon="-1.48328">
        <ele>51</ele>
        <time>2022-03-06T11:36:40Z</time>
      </trkpt>
      <trkpt lat="47.22766" lon="-1.4834">
        <ele>51</ele>
        <time>2022-03-06T11:36:42Z</time>
      </trkpt>
      <trkpt lat="47.22757" lon="-1.48352">
        <ele>51</ele>
        <time>2022-03-06T11:36:44Z</time>
      </trkpt>
      <trkpt lat="47.22748" lon="-1.48365">
        <ele>51</ele>
        <time>2022-03-06T11:36:46Z</time>
      </trkpt>
      <trkpt lat="47.22739" lon="-1.48376">
        <ele>51</ele>
        <time>2022-03-06T11:36:48Z</time>
      </trkpt>
      <trkpt lat="47.2273" lon="-1.48388">
        <ele>51</ele>
        <time>2022-03-06T11:36:50Z</time>
      </trkpt>
      <trkpt lat="47.2272" lon="-1.48399">
        <ele>51</ele>
        <time>2022-03-06T11:36:52Z</time>
      </trkpt>
      <trkpt lat="47.22712" lon="-1.48413">
        <ele>51</ele>
        <time>2022-03-06T11:36:54Z</time>
      </trkpt>
      <trkpt lat="47.22705" lon="-1.48429">
        <ele>51</ele>
        <time>2022-03-06T11:36:56Z</time>
      </trkpt>
      <trkpt lat="47.227" lon="-1.48446">
        <ele>51</ele>
        <time>2022-03-06T11:36:58Z</time>
      </trkpt>
      <trkpt lat="47.22694" lon="-1.48462">
        <ele>51</ele>
        <time>2022-03-06T11:37:00Z</time>
      </trkpt>
      <trkpt lat="47.22687" lon="-1.48478">
        <ele>51</ele>
        <time>2022-03-06T11:37:02Z</time>
      </trkpt>
      <trkpt lat="47.2268" lon="-1.48493">
        <ele>51</ele>
        <time>2022-03-06T11:37:04Z</time>
      </trkpt>
      <trkpt lat="47.22674" lon="-1.48509">
        <ele>51</ele>
        <time>2022-03-06T11:37:06Z</time>
      </trkpt>
      <trkpt lat="47.22668" lon="-1.48525">
        <ele>50</ele>
        <time>2022-03-06T11:37:08Z</time>
      </trkpt>
      <trkpt lat="47.22663" lon="-1.48543">
        <ele>50</ele>
        <time>2022-03-06T11:37:10Z</time>
      </trkpt>
      <trkpt lat="47.22657" lon="-1.48561">
        <ele>50</ele>
        <time>2022-03-06T11:37:12Z</time>
      </trkpt>
      <trkpt lat="47.22651" lon="-1.48576">
        <ele>50</ele>
        <time>2022-03-06T11:37:14Z</time>
      </trkpt>
      <trkpt lat="47.22645" lon="-1.48591">
        <ele>51</ele>
        <time>2022-03-06T11:37:16Z</time>
      </trkpt>
      <trkpt lat="47.2264" lon="-1.48606">
        <ele>51</ele>
        <time>2022-03-06T11:37:18Z</time>
      </trkpt>
      <trkpt lat="47.22634" lon="-1.4862">
        <ele>52</ele>
        <time>2022-03-06T11:37:20Z</time>
      </trkpt>
      <trkpt lat="47.22629" lon="-1.48636">
        <ele>52</ele>
        <time>2022-03-06T11:37:22Z</time>
      </trkpt>
      <trkpt lat="47.22625" lon="-1.48651">
        <ele>52</ele>
        <time>2022-03-06T11:37:24Z</time>
      </trkpt>
      <trkpt lat="47.22619" lon="-1.48667">
        <ele>52</ele>
        <time>2022-03-06T11:37:26Z</time>
      </trkpt>
      <trkpt lat="47.22614" lon="-1.48685">
        <ele>52</ele>
        <time>2022-03-06T11:37:28Z</time>
      </trkpt>
      <trkpt lat="47.2261" lon="-1.48702">
        <ele>51</ele>
        <time>2022-03-06T11:37:30Z</time>
      </trkpt>
      <trkpt lat="47.22604" lon="-1.4872">
        <ele>52</ele>
        <time>2022-03-06T11:37:32Z</time>
      </trkpt>
      <trkpt lat="47.226" lon="-1.48736">
        <ele>52</ele>
        <time>2022-03-06T11:37:34Z</time>
      </trkpt>
      <trkpt lat="47.22595" lon="-1.48753">
        <ele>52</ele>
        <time>2022-03-06T11:37:36Z</time>
      </trkpt>
      <trkpt lat="47.22591" lon="-1.4877">
        <ele>51</ele>
        <time>2022-03-06T11:37:38Z</time>
      </trkpt>
      <trkpt lat="47.22585" lon="-1.48787">
        <ele>51</ele>
        <time>2022-03-06T11:37:40Z</time>
      </trkpt>
      <trkpt lat="47.22579" lon="-1.48804">
        <ele>51</ele>
        <time>2022-03-06T11:37:42Z</time>
      </trkpt>
      <trkpt lat="47.22573" lon="-1.48819">
        <ele>51</ele>
        <time>2022-03-06T11:37:44Z</time>
      </trkpt>
      <trkpt lat="47.22568" lon="-1.48834">
        <ele>52</ele>
        <time>2022-03-06T11:37:46Z</time>
      </trkpt>
      <trkpt lat="47.22564" lon="-1.48848">
        <ele>52</ele>
        <time>2022-03-06T11:37:48Z</time>
      </trkpt>
      <trkpt lat="47.2256" lon="-1.48864">
        <ele>52</ele>
        <time>2022-03-06T11:37:50Z</time>
      </trkpt>
      <trkpt lat="47.22555" lon="-1.4888">
        <ele>53</ele>
        <time>2022-03-06T11:37:52Z</time>
      </trkpt>
      <trkpt lat="47.22551" lon="-1.48896">
        <ele>53</ele>
        <time>2022-03-06T11:37:54Z</time>
      </trkpt>
      <trkpt lat="47.22547" lon="-1.48912">
        <ele>52</ele>
        <time>2022-03-06T11:37:56Z</time>
      </trkpt>
      <trkpt lat="47.22542" lon="-1.4893">
        <ele>52</ele>
        <time>2022-03-06T11:37:58Z</time>
      </trkpt>
      <trkpt lat="47.22535" lon="-1.48948">
        <ele>52</ele>
        <time>2022-03-06T11:38:00Z</time>
      </trkpt>
      <trkpt lat="47.22528" lon="-1.48964">
        <ele>52</ele>
        <time>2022-03-06T11:38:02Z</time>
      </trkpt>
      <trkpt lat="47.22522" lon="-1.4898">
        <ele>52</ele>
        <time>2022-03-06T11:38:04Z</time>
      </trkpt>
      <trkpt lat="47.22516" lon="-1.48996">
        <ele>52</ele>
        <time>2022-03-06T11:38:06Z</time>
      </trkpt>
      <trkpt lat="47.22512" lon="-1.49013">
        <ele>51</ele>
        <time>2022-03-06T11:38:08Z</time>
      </trkpt>
      <trkpt lat="47.22508" lon="-1.49029">
        <ele>51</ele>
        <time>2022-03-06T11:38:10Z</time>
      </trkpt>
      <trkpt lat="47.22504" lon="-1.49045">
        <ele>51</ele>
        <time>2022-03-06T11:38:12Z</time>
      </trkpt>
      <trkpt lat="47.22499" lon="-1.49061">
        <ele>51</ele>
        <time>2022-03-06T11:38:14Z</time>
      </trkpt>
      <trkpt lat="47.22494" lon="-1.49078">
        <ele>51</ele>
        <time>2022-03-06T11:38:16Z</time>
      </trkpt>
      <trkpt lat="47.22489" lon="-1.49094">
        <ele>52</ele>
        <time>2022-03-06T11:38:18Z</time>
      </trkpt>
      <trkpt lat="47.22483" lon="-1.49111">
        <ele>52</ele>
        <time>2022-03-06T11:38:20Z</time>
      </trkpt>
      <trkpt lat="47.22479" lon="-1.49128">
        <ele>51</ele>
        <time>2022-03-06T11:38:22Z</time>
      </trkpt>
      <trkpt lat="47.22474" lon="-1.49145">
        <ele>52</ele>
        <time>2022-03-06T11:38:24Z</time>
      </trkpt>
      <trkpt lat="47.22468" lon="-1.49162">
        <ele>51</ele>
        <time>2022-03-06T11:38:26Z</time>
      </trkpt>
      <trkpt lat="47.22461" lon="-1.49178">
        <ele>51</ele>
        <time>2022-03-06T11:38:28Z</time>
      </trkpt>
      <trkpt lat="47.22455" lon="-1.49194">
        <ele>51</ele>
        <time>2022-03-06T11:38:30Z</time>
      </trkpt>
      <trkpt lat="47.22449" lon="-1.4921">
        <ele>51</ele>
        <time>2022-03-06T11:38:32Z</time>
      </trkpt>
      <trkpt lat="47.22443" lon="-1.49227">
        <ele>51</ele>
        <time>2022-03-06T11:38:34Z</time>
      </trkpt>
      <trkpt lat="47.22437" lon="-1.49243">
        <ele>52</ele>
        <time>2022-03-06T11:38:36Z</time>
      </trkpt>
      <trkpt lat="47.22431" lon="-1.49259">
        <ele>52</ele>
        <time>2022-03-06T11:38:38Z</time>
      </trkpt>
      <trkpt lat="47.22424" lon="-1.49274">
        <ele>52</ele>
        <time>2022-03-06T11:38:40Z</time>
      </trkpt>
      <trkpt lat="47.22418" lon="-1.49289">
        <ele>52</ele>
        <time>2022-03-06T11:38:42Z</time>
      </trkpt>
      <trkpt lat="47.22412" lon="-1.49305">
        <ele>51</ele>
        <time>2022-03-06T11:38:44Z</time>
      </trkpt>
      <trkpt lat="47.22406" lon="-1.49322">
        <ele>51</ele>
        <time>2022-03-06T11:38:46Z</time>
      </trkpt>
      <trkpt lat="47.22401" lon="-1.49338">
        <ele>51</ele>
        <time>2022-03-06T11:38:48Z</time>
      </trkpt>
      <trkpt lat="47.22395" lon="-1.49354">
        <ele>52</ele>
        <time>2022-03-06T11:38:50Z</time>
      </trkpt>
      <trkpt lat="47.22388" lon="-1.49368">
        <ele>52</ele>
        <time>2022-03-06T11:38:52Z</time>
      </trkpt>
      <trkpt lat="47.22381" lon="-1.49383">
        <ele>53</ele>
        <time>2022-03-06T11:38:54Z</time>
      </trkpt>
      <trkpt lat="47.22374" lon="-1.49399">
        <ele>53</ele>
        <time>2022-03-06T11:38:56Z</time>
      </trkpt>
      <trkpt lat="47.22367" lon="-1.49414">
        <ele>52</ele>
        <time>2022-03-06T11:38:58Z</time>
      </trkpt>
      <trkpt lat="47.22361" lon="-1.49429">
        <ele>52</ele>
        <time>2022-03-06T11:39:00Z</time>
      </trkpt>
      <trkpt lat="47.22355" lon="-1.49445">
        <ele>52</ele>
        <time>2022-03-06T11:39:02Z</time>
      </trkpt>
      <trkpt lat="47.22349" lon="-1.4946">
        <ele>53</ele>
        <time>2022-03-06T11:39:04Z</time>
      </trkpt>
      <trkpt lat="47.22344" lon="-1.49476">
        <ele>54</ele>
        <time>2022-03-06T11:39:06Z</time>
      </trkpt>
      <trkpt lat="47.22339" lon="-1.49494">
        <ele>54</ele>
        <time>2022-03-06T11:39:08Z</time>
      </trkpt>
      <trkpt lat="47.22334" lon="-1.49511">
        <ele>54</ele>
        <time>2022-03-06T11:39:10Z</time>
      </trkpt>
      <trkpt lat="47.22328" lon="-1.49527">
        <ele>54</ele>
        <time>2022-03-06T11:39:12Z</time>
      </trkpt>
      <trkpt lat="47.22323" lon="-1.49544">
        <ele>53</ele>
        <time>2022-03-06T11:39:14Z</time>
      </trkpt>
      <trkpt lat="47.22317" lon="-1.4956">
        <ele>53</ele>
        <time>2022-03-06T11:39:16Z</time>
      </trkpt>
      <trkpt lat="47.22312" lon="-1.49576">
        <ele>53</ele>
        <time>2022-03-06T11:39:18Z</time>
      </trkpt>
      <trkpt lat="47.22305" lon="-1.49591">
        <ele>53</ele>
        <time>2022-03-06T11:39:20Z</time>
      </trkpt>
      <trkpt lat="47.22299" lon="-1.49607">
        <ele>53</ele>
        <time>2022-03-06T11:39:22Z</time>
      </trkpt>
      <trkpt lat="47.22294" lon="-1.49624">
        <ele>53</ele>
        <time>2022-03-06T11:39:24Z</time>
      </trkpt>
      <trkpt lat="47.2229" lon="-1.49641">
        <ele>53</ele>
        <time>2022-03-06T11:39:26Z</time>
      </trkpt>
      <trkpt lat="47.22286" lon="-1.49658">
        <ele>52</ele>
        <time>2022-03-06T11:39:28Z</time>
      </trkpt>
      <trkpt lat="47.22281" lon="-1.49674">
        <ele>51</ele>
        <time>2022-03-06T11:39:30Z</time>
      </trkpt>
      <trkpt lat="47.22276" lon="-1.49691">
        <ele>52</ele>
        <time>2022-03-06T11:39:32Z</time>
      </trkpt>
      <trkpt lat="47.2227" lon="-1.49706">
        <ele>52</ele>
        <time>2022-03-06T11:39:34Z</time>
      </trkpt>
      <trkpt lat="47.22265" lon="-1.49723">
        <ele>52</ele>
        <time>2022-03-06T11:39:36Z</time>
      </trkpt>
      <trkpt lat="47.2226" lon="-1.49739">
        <ele>52</ele>
        <time>2022-03-06T11:39:38Z</time>
      </trkpt>
      <trkpt lat="47.22256" lon="-1.49755">
        <ele>52</ele>
        <time>2022-03-06T11:39:40Z</time>
      </trkpt>
      <trkpt lat="47.22254" lon="-1.49773">
        <ele>52</ele>
        <time>2022-03-06T11:39:42Z</time>
      </trkpt>
      <trkpt lat="47.22253" lon="-1.49791">
        <ele>52</ele>
        <time>2022-03-06T11:39:44Z</time>
      </trkpt>
      <trkpt lat="47.2225" lon="-1.49808">
        <ele>51</ele>
        <time>2022-03-06T11:39:46Z</time>
      </trkpt>
      <trkpt lat="47.22247" lon="-1.49825">
        <ele>52</ele>
        <time>2022-03-06T11:39:48Z</time>
      </trkpt>
      <trkpt lat="47.22244" lon="-1.49843">
        <ele>52</ele>
        <time>2022-03-06T11:39:50Z</time>
      </trkpt>
      <trkpt lat="47.22241" lon="-1.49859">
        <ele>51</ele>
        <time>2022-03-06T11:39:52Z</time>
      </trkpt>
      <trkpt lat="47.22237" lon="-1.49876">
        <ele>51</ele>
        <time>2022-03-06T11:39:54Z</time>
      </trkpt>
      <trkpt lat="47.22233" lon="-1.49893">
        <ele>50</ele>
        <time>2022-03-06T11:39:56Z</time>
      </trkpt>
      <trkpt lat="47.22228" lon="-1.49911">
        <ele>50</ele>
        <time>2022-03-06T11:39:58Z</time>
      </trkpt>
      <trkpt lat="47.22223" lon="-1.49929">
        <ele>50</ele>
        <time>2022-03-06T11:40:00Z</time>
      </trkpt>
      <trkpt lat="47.22219" lon="-1.49947">
        <ele>50</ele>
        <time>2022-03-06T11:40:02Z</time>
      </trkpt>
      <trkpt lat="47.22215" lon="-1.49964">
        <ele>51</ele>
        <time>2022-03-06T11:40:04Z</time>
      </trkpt>
      <trkpt lat="47.22211" lon="-1.4998">
        <ele>51</ele>
        <time>2022-03-06T11:40:06Z</time>
      </trkpt>
      <trkpt lat="47.22207" lon="-1.49995">
        <ele>51</ele>
        <time>2022-03-06T11:40:08Z</time>
      </trkpt>
      <trkpt lat="47.22202" lon="-1.50011">
        <ele>51</ele>
        <time>2022-03-06T11:40:10Z</time>
      </trkpt>
      <trkpt lat="47.22198" lon="-1.50028">
        <ele>50</ele>
        <time>2022-03-06T11:40:12Z</time>
      </trkpt>
      <trkpt lat="47.22194" lon="-1.50044">
        <ele>50</ele>
        <time>2022-03-06T11:40:14Z</time>
      </trkpt>
      <trkpt lat="47.2219" lon="-1.50062">
        <ele>50</ele>
        <time>2022-03-06T11:40:16Z</time>
      </trkpt>
      <trkpt lat="47.22187" lon="-1.50079">
        <ele>49</ele>
        <time>2022-03-06T11:40:18Z</time>
      </trkpt>
      <trkpt lat="47.22183" lon="-1.50096">
        <ele>49</ele>
        <time>2022-03-06T11:40:20Z</time>
      </trkpt>
      <trkpt lat="47.22177" lon="-1.50113">
        <ele>49</ele>
        <time>2022-03-06T11:40:22Z</time>
      </trkpt>
      <trkpt lat="47.22171" lon="-1.50129">
        <ele>49</ele>
        <time>2022-03-06T11:40:24Z</time>
      </trkpt>
      <trkpt lat="47.22165" lon="-1.50145">
        <ele>50</ele>
        <time>2022-03-06T11:40:26Z</time>
      </trkpt>
      <trkpt lat="47.22159" lon="-1.50161">
        <ele>49</ele>
        <time>2022-03-06T11:40:28Z</time>
      </trkpt>
      <trkpt lat="47.22154" lon="-1.50177">
        <ele>50</ele>
        <time>2022-03-06T11:40:30Z</time>
      </trkpt>
      <trkpt lat="47.22151" lon="-1.50194">
        <ele>50</ele>
        <time>2022-03-06T11:40:32Z</time>
      </trkpt>
      <trkpt lat="47.22147" lon="-1.5021">
        <ele>50</ele>
        <time>2022-03-06T11:40:34Z</time>
      </trkpt>
      <trkpt lat="47.22143" lon="-1.50227">
        <ele>50</ele>
        <time>2022-03-06T11:40:36Z</time>
      </trkpt>
      <trkpt lat="47.22139" lon="-1.50243">
        <ele>50</ele>
        <time>2022-03-06T11:40:38Z</time>
      </trkpt>
      <trkpt lat="47.22134" lon="-1.50259">
        <ele>50</ele>
        <time>2022-03-06T11:40:40Z</time>
      </trkpt>
      <trkpt lat="47.22128" lon="-1.50275">
        <ele>50</ele>
        <time>2022-03-06T11:40:42Z</time>
      </trkpt>
      <trkpt lat="47.2212" lon="-1.50291">
        <ele>51</ele>
        <time>2022-03-06T11:40:44Z</time>
      </trkpt>
      <trkpt lat="47.22112" lon="-1.50305">
        <ele>51</ele>
        <time>2022-03-06T11:40:46Z</time>
      </trkpt>
      <trkpt lat="47.22105" lon="-1.50319">
        <ele>51</ele>
        <time>2022-03-06T11:40:48Z</time>
      </trkpt>
      <trkpt lat="47.22098" lon="-1.50332">
        <ele>51</ele>
        <time>2022-03-06T11:40:50Z</time>
      </trkpt>
      <trkpt lat="47.22093" lon="-1.50346">
        <ele>51</ele>
        <time>2022-03-06T11:40:52Z</time>
      </trkpt>
      <trkpt lat="47.22089" lon="-1.50363">
        <ele>51</ele>
        <time>2022-03-06T11:40:54Z</time>
      </trkpt>
      <trkpt lat="47.22086" lon="-1.50379">
        <ele>50</ele>
        <time>2022-03-06T11:40:56Z</time>
      </trkpt>
      <trkpt lat="47.22081" lon="-1.50396">
        <ele>50</ele>
        <time>2022-03-06T11:40:58Z</time>
      </trkpt>
      <trkpt lat="47.22077" lon="-1.50412">
        <ele>50</ele>
        <time>2022-03-06T11:41:00Z</time>
      </trkpt>
      <trkpt lat="47.22074" lon="-1.50428">
        <ele>50</ele>
        <time>2022-03-06T11:41:02Z</time>
      </trkpt>
      <trkpt lat="47.22071" lon="-1.50445">
        <ele>49</ele>
        <time>2022-03-06T11:41:04Z</time>
      </trkpt>
      <trkpt lat="47.22068" lon="-1.50462">
        <ele>50</ele>
        <time>2022-03-06T11:41:06Z</time>
      </trkpt>
      <trkpt lat="47.22065" lon="-1.5048">
        <ele>50</ele>
        <time>2022-03-06T11:41:08Z</time>
      </trkpt>
      <trkpt lat="47.22064" lon="-1.50498">
        <ele>50</ele>
        <time>2022-03-06T11:41:10Z</time>
      </trkpt>
      <trkpt lat="47.22063" lon="-1.50516">
        <ele>51</ele>
        <time>2022-03-06T11:41:12Z</time>
      </trkpt>
      <trkpt lat="47.22061" lon="-1.50533">
        <ele>51</ele>
        <time>2022-03-06T11:41:14Z</time>
      </trkpt>
      <trkpt lat="47.22059" lon="-1.50551">
        <ele>51</ele>
        <time>2022-03-06T11:41:16Z</time>
      </trkpt>
      <trkpt lat="47.22058" lon="-1.50569">
        <ele>51</ele>
        <time>2022-03-06T11:41:18Z</time>
      </trkpt>
      <trkpt lat="47.22058" lon="-1.50587">
        <ele>52</ele>
        <time>2022-03-06T11:41:20Z</time>
      </trkpt>
      <trkpt lat="47.22058" lon="-1.50606">
        <ele>51</ele>
        <time>2022-03-06T11:41:22Z</time>
      </trkpt>
      <trkpt lat="47.22058" lon="-1.50624">
        <ele>51</ele>
        <time>2022-03-06T11:41:24Z</time>
      </trkpt>
      <trkpt lat="47.22056" lon="-1.50644">
        <ele>51</ele>
        <time>2022-03-06T11:41:26Z</time>
      </trkpt>
      <trkpt lat="47.22054" lon="-1.50662">
        <ele>51</ele>
        <time>2022-03-06T11:41:28Z</time>
      </trkpt>
      <trkpt lat="47.22052" lon="-1.50679">
        <ele>51</ele>
        <time>2022-03-06T11:41:30Z</time>
      </trkpt>
      <trkpt lat="47.22051" lon="-1.50695">
        <ele>52</ele>
        <time>2022-03-06T11:41:32Z</time>
      </trkpt>
      <trkpt lat="47.2205" lon="-1.50713">
        <ele>52</ele>
        <time>2022-03-06T11:41:34Z</time>
      </trkpt>
      <trkpt lat="47.22047" lon="-1.5073">
        <ele>52</ele>
        <time>2022-03-06T11:41:36Z</time>
      </trkpt>
      <trkpt lat="47.22044" lon="-1.50749">
        <ele>52</ele>
        <time>2022-03-06T11:41:38Z</time>
      </trkpt>
      <trkpt lat="47.22043" lon="-1.50766">
        <ele>52</ele>
        <time>2022-03-06T11:41:40Z</time>
      </trkpt>
      <trkpt lat="47.22039" lon="-1.50784">
        <ele>52</ele>
        <time>2022-03-06T11:41:42Z</time>
      </trkpt>
      <trkpt lat="47.22033" lon="-1.508">
        <ele>52</ele>
        <time>2022-03-06T11:41:44Z</time>
      </trkpt>
      <trkpt lat="47.22028" lon="-1.50816">
        <ele>52</ele>
        <time>2022-03-06T11:41:46Z</time>
      </trkpt>
      <trkpt lat="47.22022" lon="-1.50831">
        <ele>51</ele>
        <time>2022-03-06T11:41:48Z</time>
      </trkpt>
      <trkpt lat="47.22017" lon="-1.50846">
        <ele>51</ele>
        <time>2022-03-06T11:41:50Z</time>
      </trkpt>
      <trkpt lat="47.2201" lon="-1.50863">
        <ele>51</ele>
        <time>2022-03-06T11:41:52Z</time>
      </trkpt>
      <trkpt lat="47.22004" lon="-1.5088">
        <ele>50</ele>
        <time>2022-03-06T11:41:54Z</time>
      </trkpt>
      <trkpt lat="47.21998" lon="-1.50897">
        <ele>50</ele>
        <time>2022-03-06T11:41:56Z</time>
      </trkpt>
      <trkpt lat="47.21993" lon="-1.50913">
        <ele>50</ele>
        <time>2022-03-06T11:41:58Z</time>
      </trkpt>
      <trkpt lat="47.21989" lon="-1.50929">
        <ele>50</ele>
        <time>2022-03-06T11:42:00Z</time>
      </trkpt>
      <trkpt lat="47.21984" lon="-1.50946">
        <ele>50</ele>
        <time>2022-03-06T11:42:02Z</time>
      </trkpt>
      <trkpt lat="47.21979" lon="-1.50962">
        <ele>50</ele>
        <time>2022-03-06T11:42:04Z</time>
      </trkpt>
      <trkpt lat="47.21974" lon="-1.5098">
        <ele>50</ele>
        <time>2022-03-06T11:42:06Z</time>
      </trkpt>
      <trkpt lat="47.21969" lon="-1.50996">
        <ele>49</ele>
        <time>2022-03-06T11:42:08Z</time>
      </trkpt>
      <trkpt lat="47.21964" lon="-1.51012">
        <ele>49</ele>
        <time>2022-03-06T11:42:10Z</time>
      </trkpt>
      <trkpt lat="47.2196" lon="-1.51028">
        <ele>49</ele>
        <time>2022-03-06T11:42:12Z</time>
      </trkpt>
      <trkpt lat="47.21956" lon="-1.51043">
        <ele>49</ele>
        <time>2022-03-06T11:42:14Z</time>
      </trkpt>
      <trkpt lat="47.21952" lon="-1.51056">
        <ele>49</ele>
        <time>2022-03-06T11:42:16Z</time>
      </trkpt>
      <trkpt lat="47.21944" lon="-1.51066">
        <ele>50</ele>
        <time>2022-03-06T11:42:18Z</time>
      </trkpt>
      <trkpt lat="47.21937" lon="-1.51078">
        <ele>49</ele>
        <time>2022-03-06T11:42:20Z</time>
      </trkpt>
      <trkpt lat="47.21931" lon="-1.51093">
        <ele>49</ele>
        <time>2022-03-06T11:42:22Z</time>
      </trkpt>
      <trkpt lat="47.21925" lon="-1.5111">
        <ele>50</ele>
        <time>2022-03-06T11:42:24Z</time>
      </trkpt>
      <trkpt lat="47.2192" lon="-1.51127">
        <ele>50</ele>
        <time>2022-03-06T11:42:26Z</time>
      </trkpt>
      <trkpt lat="47.21915" lon="-1.51143">
        <ele>50</ele>
        <time>2022-03-06T11:42:28Z</time>
      </trkpt>
      <trkpt lat="47.2191" lon="-1.51158">
        <ele>50</ele>
        <time>2022-03-06T11:42:30Z</time>
      </trkpt>
      <trkpt lat="47.21905" lon="-1.51173">
        <ele>50</ele>
        <time>2022-03-06T11:42:32Z</time>
      </trkpt>
      <trkpt lat="47.21899" lon="-1.51189">
        <ele>50</ele>
        <time>2022-03-06T11:42:34Z</time>
      </trkpt>
      <trkpt lat="47.21894" lon="-1.51206">
        <ele>50</ele>
        <time>2022-03-06T11:42:36Z</time>
      </trkpt>
      <trkpt lat="47.21888" lon="-1.51223">
        <ele>50</ele>
        <time>2022-03-06T11:42:38Z</time>
      </trkpt>
      <trkpt lat="47.21883" lon="-1.51239">
        <ele>50</ele>
        <time>2022-03-06T11:42:40Z</time>
      </trkpt>
      <trkpt lat="47.21877" lon="-1.51256">
        <ele>50</ele>
        <time>2022-03-06T11:42:42Z</time>
      </trkpt>
      <trkpt lat="47.21872" lon="-1.51272">
        <ele>50</ele>
        <time>2022-03-06T11:42:44Z</time>
      </trkpt>
      <trkpt lat="47.21867" lon="-1.51288">
        <ele>50</ele>
        <time>2022-03-06T11:42:46Z</time>
      </trkpt>
      <trkpt lat="47.21862" lon="-1.51304">
        <ele>50</ele>
        <time>2022-03-06T11:42:48Z</time>
      </trkpt>
      <trkpt lat="47.21857" lon="-1.51321">
        <ele>50</ele>
        <time>2022-03-06T11:42:50Z</time>
      </trkpt>
      <trkpt lat="47.21852" lon="-1.51337">
        <ele>50</ele>
        <time>2022-03-06T11:42:52Z</time>
      </trkpt>
      <trkpt lat="47.21848" lon="-1.51354">
        <ele>50</ele>
        <time>2022-03-06T11:42:54Z</time>
      </trkpt>
      <trkpt lat="47.21844" lon="-1.51371">
        <ele>50</ele>
        <time>2022-03-06T11:42:56Z</time>
      </trkpt>
      <trkpt lat="47.21838" lon="-1.51397">
        <ele>50</ele>
        <time>2022-03-06T11:42:59Z</time>
      </trkpt>
      <trkpt lat="47.21835" lon="-1.51413">
        <ele>51</ele>
        <time>2022-03-06T11:43:01Z</time>
      </trkpt>
      <trkpt lat="47.21831" lon="-1.51429">
        <ele>50</ele>
        <time>2022-03-06T11:43:03Z</time>
      </trkpt>
      <trkpt lat="47.21827" lon="-1.51445">
        <ele>50</ele>
        <time>2022-03-06T11:43:05Z</time>
      </trkpt>
      <trkpt lat="47.21823" lon="-1.51462">
        <ele>49</ele>
        <time>2022-03-06T11:43:07Z</time>
      </trkpt>
      <trkpt lat="47.2182" lon="-1.51478">
        <ele>49</ele>
        <time>2022-03-06T11:43:09Z</time>
      </trkpt>
      <trkpt lat="47.21815" lon="-1.51493">
        <ele>49</ele>
        <time>2022-03-06T11:43:11Z</time>
      </trkpt>
      <trkpt lat="47.21809" lon="-1.51508">
        <ele>50</ele>
        <time>2022-03-06T11:43:13Z</time>
      </trkpt>
      <trkpt lat="47.21802" lon="-1.51522">
        <ele>50</ele>
        <time>2022-03-06T11:43:15Z</time>
      </trkpt>
      <trkpt lat="47.21797" lon="-1.51537">
        <ele>50</ele>
        <time>2022-03-06T11:43:17Z</time>
      </trkpt>
      <trkpt lat="47.21791" lon="-1.51552">
        <ele>50</ele>
        <time>2022-03-06T11:43:19Z</time>
      </trkpt>
      <trkpt lat="47.21784" lon="-1.51565">
        <ele>50</ele>
        <time>2022-03-06T11:43:21Z</time>
      </trkpt>
      <trkpt lat="47.21778" lon="-1.51578">
        <ele>51</ele>
        <time>2022-03-06T11:43:23Z</time>
      </trkpt>
      <trkpt lat="47.2177" lon="-1.5159">
        <ele>51</ele>
        <time>2022-03-06T11:43:25Z</time>
      </trkpt>
      <trkpt lat="47.21761" lon="-1.51601">
        <ele>51</ele>
        <time>2022-03-06T11:43:27Z</time>
      </trkpt>
      <trkpt lat="47.21754" lon="-1.51614">
        <ele>51</ele>
        <time>2022-03-06T11:43:29Z</time>
      </trkpt>
      <trkpt lat="47.21748" lon="-1.51626">
        <ele>51</ele>
        <time>2022-03-06T11:43:31Z</time>
      </trkpt>
      <trkpt lat="47.21741" lon="-1.51638">
        <ele>51</ele>
        <time>2022-03-06T11:43:33Z</time>
      </trkpt>
      <trkpt lat="47.21735" lon="-1.51654">
        <ele>51</ele>
        <time>2022-03-06T11:43:35Z</time>
      </trkpt>
      <trkpt lat="47.21728" lon="-1.51669">
        <ele>51</ele>
        <time>2022-03-06T11:43:37Z</time>
      </trkpt>
      <trkpt lat="47.21722" lon="-1.51685">
        <ele>51</ele>
        <time>2022-03-06T11:43:39Z</time>
      </trkpt>
      <trkpt lat="47.21714" lon="-1.517">
        <ele>51</ele>
        <time>2022-03-06T11:43:41Z</time>
      </trkpt>
      <trkpt lat="47.21708" lon="-1.51714">
        <ele>51</ele>
        <time>2022-03-06T11:43:43Z</time>
      </trkpt>
      <trkpt lat="47.21702" lon="-1.5173">
        <ele>51</ele>
        <time>2022-03-06T11:43:45Z</time>
      </trkpt>
      <trkpt lat="47.21695" lon="-1.51745">
        <ele>50</ele>
        <time>2022-03-06T11:43:47Z</time>
      </trkpt>
      <trkpt lat="47.21688" lon="-1.51761">
        <ele>50</ele>
        <time>2022-03-06T11:43:49Z</time>
      </trkpt>
      <trkpt lat="47.21681" lon="-1.51777">
        <ele>51</ele>
        <time>2022-03-06T11:43:51Z</time>
      </trkpt>
      <trkpt lat="47.21674" lon="-1.51792">
        <ele>51</ele>
        <time>2022-03-06T11:43:53Z</time>
      </trkpt>
      <trkpt lat="47.21667" lon="-1.51808">
        <ele>51</ele>
        <time>2022-03-06T11:43:55Z</time>
      </trkpt>
      <trkpt lat="47.21661" lon="-1.51823">
        <ele>51</ele>
        <time>2022-03-06T11:43:57Z</time>
      </trkpt>
      <trkpt lat="47.21656" lon="-1.51839">
        <ele>51</ele>
        <time>2022-03-06T11:43:59Z</time>
      </trkpt>
      <trkpt lat="47.21651" lon="-1.51854">
        <ele>51</ele>
        <time>2022-03-06T11:44:01Z</time>
      </trkpt>
      <trkpt lat="47.21648" lon="-1.5187">
        <ele>51</ele>
        <time>2022-03-06T11:44:03Z</time>
      </trkpt>
      <trkpt lat="47.21645" lon="-1.51887">
        <ele>52</ele>
        <time>2022-03-06T11:44:05Z</time>
      </trkpt>
      <trkpt lat="47.21637" lon="-1.519">
        <ele>51</ele>
        <time>2022-03-06T11:44:07Z</time>
      </trkpt>
      <trkpt lat="47.21631" lon="-1.51915">
        <ele>51</ele>
        <time>2022-03-06T11:44:09Z</time>
      </trkpt>
      <trkpt lat="47.21626" lon="-1.51932">
        <ele>51</ele>
        <time>2022-03-06T11:44:11Z</time>
      </trkpt>
      <trkpt lat="47.21623" lon="-1.51949">
        <ele>51</ele>
        <time>2022-03-06T11:44:13Z</time>
      </trkpt>
      <trkpt lat="47.21619" lon="-1.51967">
        <ele>51</ele>
        <time>2022-03-06T11:44:15Z</time>
      </trkpt>
      <trkpt lat="47.21611" lon="-1.51982">
        <ele>51</ele>
        <time>2022-03-06T11:44:17Z</time>
      </trkpt>
      <trkpt lat="47.21606" lon="-1.51995">
        <ele>50</ele>
        <time>2022-03-06T11:44:19Z</time>
      </trkpt>
      <trkpt lat="47.21601" lon="-1.52011">
        <ele>50</ele>
        <time>2022-03-06T11:44:21Z</time>
      </trkpt>
      <trkpt lat="47.21595" lon="-1.52027">
        <ele>51</ele>
        <time>2022-03-06T11:44:23Z</time>
      </trkpt>
      <trkpt lat="47.21589" lon="-1.52044">
        <ele>51</ele>
        <time>2022-03-06T11:44:25Z</time>
      </trkpt>
      <trkpt lat="47.21584" lon="-1.5206">
        <ele>51</ele>
        <time>2022-03-06T11:44:27Z</time>
      </trkpt>
      <trkpt lat="47.21578" lon="-1.52077">
        <ele>52</ele>
        <time>2022-03-06T11:44:29Z</time>
      </trkpt>
      <trkpt lat="47.21573" lon="-1.52094">
        <ele>51</ele>
        <time>2022-03-06T11:44:31Z</time>
      </trkpt>
      <trkpt lat="47.21568" lon="-1.52111">
        <ele>52</ele>
        <time>2022-03-06T11:44:33Z</time>
      </trkpt>
      <trkpt lat="47.21563" lon="-1.52127">
        <ele>51</ele>
        <time>2022-03-06T11:44:35Z</time>
      </trkpt>
      <trkpt lat="47.21557" lon="-1.52144">
        <ele>51</ele>
        <time>2022-03-06T11:44:37Z</time>
      </trkpt>
      <trkpt lat="47.21552" lon="-1.52161">
        <ele>51</ele>
        <time>2022-03-06T11:44:39Z</time>
      </trkpt>
      <trkpt lat="47.21546" lon="-1.52177">
        <ele>51</ele>
        <time>2022-03-06T11:44:41Z</time>
      </trkpt>
      <trkpt lat="47.21541" lon="-1.52194">
        <ele>51</ele>
        <time>2022-03-06T11:44:43Z</time>
      </trkpt>
      <trkpt lat="47.21535" lon="-1.5221">
        <ele>51</ele>
        <time>2022-03-06T11:44:45Z</time>
      </trkpt>
      <trkpt lat="47.2153" lon="-1.52227">
        <ele>52</ele>
        <time>2022-03-06T11:44:47Z</time>
      </trkpt>
      <trkpt lat="47.21525" lon="-1.52243">
        <ele>52</ele>
        <time>2022-03-06T11:44:49Z</time>
      </trkpt>
      <trkpt lat="47.2152" lon="-1.52259">
        <ele>52</ele>
        <time>2022-03-06T11:44:51Z</time>
      </trkpt>
      <trkpt lat="47.21516" lon="-1.52275">
        <ele>52</ele>
        <time>2022-03-06T11:44:53Z</time>
      </trkpt>
      <trkpt lat="47.2151" lon="-1.52291">
        <ele>52</ele>
        <time>2022-03-06T11:44:55Z</time>
      </trkpt>
      <trkpt lat="47.21505" lon="-1.52308">
        <ele>52</ele>
        <time>2022-03-06T11:44:57Z</time>
      </trkpt>
      <trkpt lat="47.215" lon="-1.52325">
        <ele>52</ele>
        <time>2022-03-06T11:44:59Z</time>
      </trkpt>
      <trkpt lat="47.21495" lon="-1.52341">
        <ele>52</ele>
        <time>2022-03-06T11:45:01Z</time>
      </trkpt>
      <trkpt lat="47.2149" lon="-1.52357">
        <ele>52</ele>
        <time>2022-03-06T11:45:03Z</time>
      </trkpt>
      <trkpt lat="47.21485" lon="-1.52374">
        <ele>51</ele>
        <time>2022-03-06T11:45:05Z</time>
      </trkpt>
      <trkpt lat="47.2148" lon="-1.52391">
        <ele>51</ele>
        <time>2022-03-06T11:45:07Z</time>
      </trkpt>
      <trkpt lat="47.21474" lon="-1.52408">
        <ele>51</ele>
        <time>2022-03-06T11:45:09Z</time>
      </trkpt>
      <trkpt lat="47.21468" lon="-1.52424">
        <ele>51</ele>
        <time>2022-03-06T11:45:11Z</time>
      </trkpt>
      <trkpt lat="47.21462" lon="-1.5244">
        <ele>51</ele>
        <time>2022-03-06T11:45:13Z</time>
      </trkpt>
      <trkpt lat="47.21457" lon="-1.52457">
        <ele>51</ele>
        <time>2022-03-06T11:45:15Z</time>
      </trkpt>
      <trkpt lat="47.21452" lon="-1.52474">
        <ele>51</ele>
        <time>2022-03-06T11:45:17Z</time>
      </trkpt>
      <trkpt lat="47.21446" lon="-1.52491">
        <ele>52</ele>
        <time>2022-03-06T11:45:19Z</time>
      </trkpt>
      <trkpt lat="47.21441" lon="-1.52508">
        <ele>51</ele>
        <time>2022-03-06T11:45:21Z</time>
      </trkpt>
      <trkpt lat="47.21436" lon="-1.52524">
        <ele>51</ele>
        <time>2022-03-06T11:45:23Z</time>
      </trkpt>
      <trkpt lat="47.21431" lon="-1.5254">
        <ele>51</ele>
        <time>2022-03-06T11:45:25Z</time>
      </trkpt>
      <trkpt lat="47.21426" lon="-1.52556">
        <ele>51</ele>
        <time>2022-03-06T11:45:27Z</time>
      </trkpt>
      <trkpt lat="47.21421" lon="-1.52571">
        <ele>51</ele>
        <time>2022-03-06T11:45:29Z</time>
      </trkpt>
      <trkpt lat="47.21415" lon="-1.52588">
        <ele>51</ele>
        <time>2022-03-06T11:45:31Z</time>
      </trkpt>
      <trkpt lat="47.2141" lon="-1.52605">
        <ele>51</ele>
        <time>2022-03-06T11:45:33Z</time>
      </trkpt>
      <trkpt lat="47.21404" lon="-1.52622">
        <ele>51</ele>
        <time>2022-03-06T11:45:35Z</time>
      </trkpt>
      <trkpt lat="47.21399" lon="-1.52639">
        <ele>52</ele>
        <time>2022-03-06T11:45:37Z</time>
      </trkpt>
      <trkpt lat="47.21395" lon="-1.52657">
        <ele>51</ele>
        <time>2022-03-06T11:45:39Z</time>
      </trkpt>
      <trkpt lat="47.21391" lon="-1.52675">
        <ele>51</ele>
        <time>2022-03-06T11:45:41Z</time>
      </trkpt>
      <trkpt lat="47.21386" lon="-1.52692">
        <ele>51</ele>
        <time>2022-03-06T11:45:43Z</time>
      </trkpt>
      <trkpt lat="47.21382" lon="-1.52709">
        <ele>51</ele>
        <time>2022-03-06T11:45:45Z</time>
      </trkpt>
      <trkpt lat="47.21379" lon="-1.52726">
        <ele>51</ele>
        <time>2022-03-06T11:45:47Z</time>
      </trkpt>
      <trkpt lat="47.21375" lon="-1.52745">
        <ele>51</ele>
        <time>2022-03-06T11:45:49Z</time>
      </trkpt>
      <trkpt lat="47.21373" lon="-1.52763">
        <ele>50</ele>
        <time>2022-03-06T11:45:51Z</time>
      </trkpt>
      <trkpt lat="47.2137" lon="-1.52781">
        <ele>50</ele>
        <time>2022-03-06T11:45:53Z</time>
      </trkpt>
      <trkpt lat="47.21368" lon="-1.52797">
        <ele>52</ele>
        <time>2022-03-06T11:45:55Z</time>
      </trkpt>
      <trkpt lat="47.21365" lon="-1.52813">
        <ele>52</ele>
        <time>2022-03-06T11:45:57Z</time>
      </trkpt>
      <trkpt lat="47.21361" lon="-1.5283">
        <ele>51</ele>
        <time>2022-03-06T11:45:59Z</time>
      </trkpt>
      <trkpt lat="47.21357" lon="-1.52847">
        <ele>50</ele>
        <time>2022-03-06T11:46:01Z</time>
      </trkpt>
      <trkpt lat="47.21354" lon="-1.52865">
        <ele>50</ele>
        <time>2022-03-06T11:46:03Z</time>
      </trkpt>
      <trkpt lat="47.2135" lon="-1.52884">
        <ele>50</ele>
        <time>2022-03-06T11:46:05Z</time>
      </trkpt>
      <trkpt lat="47.21346" lon="-1.52902">
        <ele>50</ele>
        <time>2022-03-06T11:46:07Z</time>
      </trkpt>
      <trkpt lat="47.21343" lon="-1.52921">
        <ele>50</ele>
        <time>2022-03-06T11:46:09Z</time>
      </trkpt>
      <trkpt lat="47.21341" lon="-1.5294">
        <ele>50</ele>
        <time>2022-03-06T11:46:11Z</time>
      </trkpt>
      <trkpt lat="47.21338" lon="-1.52957">
        <ele>50</ele>
        <time>2022-03-06T11:46:13Z</time>
      </trkpt>
      <trkpt lat="47.21336" lon="-1.52976">
        <ele>50</ele>
        <time>2022-03-06T11:46:15Z</time>
      </trkpt>
      <trkpt lat="47.21334" lon="-1.52995">
        <ele>50</ele>
        <time>2022-03-06T11:46:17Z</time>
      </trkpt>
      <trkpt lat="47.21333" lon="-1.53014">
        <ele>50</ele>
        <time>2022-03-06T11:46:19Z</time>
      </trkpt>
      <trkpt lat="47.21332" lon="-1.53032">
        <ele>49</ele>
        <time>2022-03-06T11:46:21Z</time>
      </trkpt>
      <trkpt lat="47.2133" lon="-1.53049">
        <ele>49</ele>
        <time>2022-03-06T11:46:23Z</time>
      </trkpt>
      <trkpt lat="47.2133" lon="-1.53066">
        <ele>49</ele>
        <time>2022-03-06T11:46:25Z</time>
      </trkpt>
      <trkpt lat="47.21329" lon="-1.53082">
        <ele>50</ele>
        <time>2022-03-06T11:46:27Z</time>
      </trkpt>
      <trkpt lat="47.21328" lon="-1.53097">
        <ele>50</ele>
        <time>2022-03-06T11:46:29Z</time>
      </trkpt>
      <trkpt lat="47.21326" lon="-1.53113">
        <ele>50</ele>
        <time>2022-03-06T11:46:31Z</time>
      </trkpt>
      <trkpt lat="47.21323" lon="-1.53129">
        <ele>50</ele>
        <time>2022-03-06T11:46:33Z</time>
      </trkpt>
      <trkpt lat="47.2132" lon="-1.53147">
        <ele>50</ele>
        <time>2022-03-06T11:46:35Z</time>
      </trkpt>
      <trkpt lat="47.21319" lon="-1.53164">
        <ele>50</ele>
        <time>2022-03-06T11:46:37Z</time>
      </trkpt>
      <trkpt lat="47.21317" lon="-1.53182">
        <ele>50</ele>
        <time>2022-03-06T11:46:39Z</time>
      </trkpt>
      <trkpt lat="47.21314" lon="-1.532">
        <ele>50</ele>
        <time>2022-03-06T11:46:41Z</time>
      </trkpt>
      <trkpt lat="47.21312" lon="-1.53218">
        <ele>50</ele>
        <time>2022-03-06T11:46:43Z</time>
      </trkpt>
      <trkpt lat="47.21312" lon="-1.53236">
        <ele>50</ele>
        <time>2022-03-06T11:46:45Z</time>
      </trkpt>
      <trkpt lat="47.21312" lon="-1.53253">
        <ele>50</ele>
        <time>2022-03-06T11:46:47Z</time>
      </trkpt>
      <trkpt lat="47.21311" lon="-1.5327">
        <ele>51</ele>
        <time>2022-03-06T11:46:49Z</time>
      </trkpt>
      <trkpt lat="47.2131" lon="-1.53288">
        <ele>51</ele>
        <time>2022-03-06T11:46:51Z</time>
      </trkpt>
      <trkpt lat="47.2131" lon="-1.53304">
        <ele>51</ele>
        <time>2022-03-06T11:46:53Z</time>
      </trkpt>
      <trkpt lat="47.21307" lon="-1.53322">
        <ele>51</ele>
        <time>2022-03-06T11:46:55Z</time>
      </trkpt>
      <trkpt lat="47.21304" lon="-1.5334">
        <ele>51</ele>
        <time>2022-03-06T11:46:57Z</time>
      </trkpt>
      <trkpt lat="47.21301" lon="-1.53357">
        <ele>51</ele>
        <time>2022-03-06T11:46:59Z</time>
      </trkpt>
      <trkpt lat="47.21299" lon="-1.53375">
        <ele>51</ele>
        <time>2022-03-06T11:47:01Z</time>
      </trkpt>
      <trkpt lat="47.21296" lon="-1.53393">
        <ele>51</ele>
        <time>2022-03-06T11:47:03Z</time>
      </trkpt>
      <trkpt lat="47.21294" lon="-1.53411">
        <ele>50</ele>
        <time>2022-03-06T11:47:05Z</time>
      </trkpt>
      <trkpt lat="47.21293" lon="-1.53428">
        <ele>50</ele>
        <time>2022-03-06T11:47:07Z</time>
      </trkpt>
      <trkpt lat="47.21291" lon="-1.53447">
        <ele>50</ele>
        <time>2022-03-06T11:47:09Z</time>
      </trkpt>
      <trkpt lat="47.21295" lon="-1.53464">
        <ele>50</ele>
        <time>2022-03-06T11:47:11Z</time>
      </trkpt>
      <trkpt lat="47.213" lon="-1.53481">
        <ele>50</ele>
        <time>2022-03-06T11:47:13Z</time>
      </trkpt>
      <trkpt lat="47.21301" lon="-1.53498">
        <ele>50</ele>
        <time>2022-03-06T11:47:15Z</time>
      </trkpt>
      <trkpt lat="47.21303" lon="-1.53515">
        <ele>51</ele>
        <time>2022-03-06T11:47:17Z</time>
      </trkpt>
      <trkpt lat="47.21304" lon="-1.53531">
        <ele>51</ele>
        <time>2022-03-06T11:47:19Z</time>
      </trkpt>
      <trkpt lat="47.21304" lon="-1.53548">
        <ele>51</ele>
        <time>2022-03-06T11:47:21Z</time>
      </trkpt>
      <trkpt lat="47.21305" lon="-1.53564">
        <ele>52</ele>
        <time>2022-03-06T11:47:23Z</time>
      </trkpt>
      <trkpt lat="47.21305" lon="-1.53581">
        <ele>52</ele>
        <time>2022-03-06T11:47:25Z</time>
      </trkpt>
      <trkpt lat="47.21305" lon="-1.53596">
        <ele>52</ele>
        <time>2022-03-06T11:47:27Z</time>
      </trkpt>
      <trkpt lat="47.21305" lon="-1.53611">
        <ele>53</ele>
        <time>2022-03-06T11:47:29Z</time>
      </trkpt>
      <trkpt lat="47.21302" lon="-1.53624">
        <ele>53</ele>
        <time>2022-03-06T11:47:31Z</time>
      </trkpt>
      <trkpt lat="47.21296" lon="-1.53636">
        <ele>52</ele>
        <time>2022-03-06T11:47:34Z</time>
      </trkpt>
      <trkpt lat="47.21294" lon="-1.53655">
        <ele>52</ele>
        <time>2022-03-06T11:47:37Z</time>
      </trkpt>
      <trkpt lat="47.21294" lon="-1.53669">
        <ele>53</ele>
        <time>2022-03-06T11:47:39Z</time>
      </trkpt>
      <trkpt lat="47.21299" lon="-1.53681">
        <ele>52</ele>
        <time>2022-03-06T11:47:41Z</time>
      </trkpt>
      <trkpt lat="47.21305" lon="-1.53694">
        <ele>52</ele>
        <time>2022-03-06T11:47:43Z</time>
      </trkpt>
      <trkpt lat="47.2131" lon="-1.53709">
        <ele>52</ele>
        <time>2022-03-06T11:47:45Z</time>
      </trkpt>
      <trkpt lat="47.21313" lon="-1.53726">
        <ele>51</ele>
        <time>2022-03-06T11:47:47Z</time>
      </trkpt>
      <trkpt lat="47.21317" lon="-1.53742">
        <ele>52</ele>
        <time>2022-03-06T11:47:49Z</time>
      </trkpt>
      <trkpt lat="47.21319" lon="-1.5376">
        <ele>52</ele>
        <time>2022-03-06T11:47:51Z</time>
      </trkpt>
      <trkpt lat="47.21322" lon="-1.53777">
        <ele>51</ele>
        <time>2022-03-06T11:47:53Z</time>
      </trkpt>
      <trkpt lat="47.21324" lon="-1.53793">
        <ele>51</ele>
        <time>2022-03-06T11:47:55Z</time>
      </trkpt>
      <trkpt lat="47.21326" lon="-1.5381">
        <ele>51</ele>
        <time>2022-03-06T11:47:57Z</time>
      </trkpt>
      <trkpt lat="47.21329" lon="-1.53828">
        <ele>51</ele>
        <time>2022-03-06T11:47:59Z</time>
      </trkpt>
      <trkpt lat="47.21331" lon="-1.53845">
        <ele>51</ele>
        <time>2022-03-06T11:48:01Z</time>
      </trkpt>
      <trkpt lat="47.21333" lon="-1.53862">
        <ele>51</ele>
        <time>2022-03-06T11:48:03Z</time>
      </trkpt>
      <trkpt lat="47.21336" lon="-1.53878">
        <ele>52</ele>
        <time>2022-03-06T11:48:05Z</time>
      </trkpt>
      <trkpt lat="47.21339" lon="-1.53893">
        <ele>51</ele>
        <time>2022-03-06T11:48:07Z</time>
      </trkpt>
      <trkpt lat="47.21341" lon="-1.53907">
        <ele>52</ele>
        <time>2022-03-06T11:48:09Z</time>
      </trkpt>
      <trkpt lat="47.21344" lon="-1.53921">
        <ele>53</ele>
        <time>2022-03-06T11:48:13Z</time>
      </trkpt>
      <trkpt lat="47.21356" lon="-1.53922">
        <ele>53</ele>
        <time>2022-03-06T11:48:22Z</time>
      </trkpt>
      <trkpt lat="47.21365" lon="-1.53927">
        <ele>53</ele>
        <time>2022-03-06T11:48:24Z</time>
      </trkpt>
      <trkpt lat="47.21375" lon="-1.53928">
        <ele>54</ele>
        <time>2022-03-06T11:48:26Z</time>
      </trkpt>
      <trkpt lat="47.21387" lon="-1.5394">
        <ele>53</ele>
        <time>2022-03-06T11:48:28Z</time>
      </trkpt>
      <trkpt lat="47.21394" lon="-1.53957">
        <ele>53</ele>
        <time>2022-03-06T11:48:30Z</time>
      </trkpt>
      <trkpt lat="47.21391" lon="-1.53975">
        <ele>53</ele>
        <time>2022-03-06T11:48:32Z</time>
      </trkpt>
      <trkpt lat="47.21386" lon="-1.53992">
        <ele>52</ele>
        <time>2022-03-06T11:48:34Z</time>
      </trkpt>
      <trkpt lat="47.21392" lon="-1.54008">
        <ele>52</ele>
        <time>2022-03-06T11:48:36Z</time>
      </trkpt>
      <trkpt lat="47.21403" lon="-1.54022">
        <ele>52</ele>
        <time>2022-03-06T11:48:38Z</time>
      </trkpt>
      <trkpt lat="47.21411" lon="-1.54034">
        <ele>52</ele>
        <time>2022-03-06T11:48:40Z</time>
      </trkpt>
      <trkpt lat="47.2142" lon="-1.54047">
        <ele>52</ele>
        <time>2022-03-06T11:48:42Z</time>
      </trkpt>
      <trkpt lat="47.21428" lon="-1.54061">
        <ele>52</ele>
        <time>2022-03-06T11:48:44Z</time>
      </trkpt>
      <trkpt lat="47.21438" lon="-1.54074">
        <ele>52</ele>
        <time>2022-03-06T11:48:46Z</time>
      </trkpt>
      <trkpt lat="47.21446" lon="-1.54086">
        <ele>53</ele>
        <time>2022-03-06T11:48:48Z</time>
      </trkpt>
      <trkpt lat="47.21455" lon="-1.54099">
        <ele>53</ele>
        <time>2022-03-06T11:48:50Z</time>
      </trkpt>
      <trkpt lat="47.21463" lon="-1.54112">
        <ele>53</ele>
        <time>2022-03-06T11:48:52Z</time>
      </trkpt>
      <trkpt lat="47.21472" lon="-1.54125">
        <ele>54</ele>
        <time>2022-03-06T11:48:54Z</time>
      </trkpt>
      <trkpt lat="47.2148" lon="-1.54138">
        <ele>54</ele>
        <time>2022-03-06T11:48:56Z</time>
      </trkpt>
      <trkpt lat="47.21489" lon="-1.54151">
        <ele>54</ele>
        <time>2022-03-06T11:48:58Z</time>
      </trkpt>
      <trkpt lat="47.21497" lon="-1.54164">
        <ele>54</ele>
        <time>2022-03-06T11:49:00Z</time>
      </trkpt>
      <trkpt lat="47.21506" lon="-1.54175">
        <ele>54</ele>
        <time>2022-03-06T11:49:02Z</time>
      </trkpt>
      <trkpt lat="47.21514" lon="-1.54187">
        <ele>53</ele>
        <time>2022-03-06T11:49:04Z</time>
      </trkpt>
      <trkpt lat="47.21522" lon="-1.54199">
        <ele>52</ele>
        <time>2022-03-06T11:49:06Z</time>
      </trkpt>
      <trkpt lat="47.2153" lon="-1.54212">
        <ele>53</ele>
        <time>2022-03-06T11:49:08Z</time>
      </trkpt>
      <trkpt lat="47.21538" lon="-1.54224">
        <ele>52</ele>
        <time>2022-03-06T11:49:10Z</time>
      </trkpt>
      <trkpt lat="47.21545" lon="-1.54238">
        <ele>52</ele>
        <time>2022-03-06T11:49:12Z</time>
      </trkpt>
      <trkpt lat="47.2155" lon="-1.54253">
        <ele>53</ele>
        <time>2022-03-06T11:49:14Z</time>
      </trkpt>
      <trkpt lat="47.21555" lon="-1.54268">
        <ele>53</ele>
        <time>2022-03-06T11:49:16Z</time>
      </trkpt>
      <trkpt lat="47.21561" lon="-1.54282">
        <ele>54</ele>
        <time>2022-03-06T11:49:18Z</time>
      </trkpt>
      <trkpt lat="47.21567" lon="-1.54297">
        <ele>53</ele>
        <time>2022-03-06T11:49:20Z</time>
      </trkpt>
      <trkpt lat="47.21574" lon="-1.54308">
        <ele>53</ele>
        <time>2022-03-06T11:49:22Z</time>
      </trkpt>
      <trkpt lat="47.21582" lon="-1.5432">
        <ele>54</ele>
        <time>2022-03-06T11:49:24Z</time>
      </trkpt>
      <trkpt lat="47.2159" lon="-1.54329">
        <ele>55</ele>
        <time>2022-03-06T11:49:26Z</time>
      </trkpt>
      <trkpt lat="47.21598" lon="-1.5434">
        <ele>55</ele>
        <time>2022-03-06T11:49:28Z</time>
      </trkpt>
      <trkpt lat="47.21605" lon="-1.54353">
        <ele>55</ele>
        <time>2022-03-06T11:49:30Z</time>
      </trkpt>
      <trkpt lat="47.2161" lon="-1.54367">
        <ele>55</ele>
        <time>2022-03-06T11:49:32Z</time>
      </trkpt>
      <trkpt lat="47.21617" lon="-1.54379">
        <ele>56</ele>
        <time>2022-03-06T11:49:34Z</time>
      </trkpt>
      <trkpt lat="47.21623" lon="-1.54395">
        <ele>56</ele>
        <time>2022-03-06T11:49:36Z</time>
      </trkpt>
      <trkpt lat="47.2162" lon="-1.54415">
        <ele>55</ele>
        <time>2022-03-06T11:49:38Z</time>
      </trkpt>
      <trkpt lat="47.21616" lon="-1.54431">
        <ele>55</ele>
        <time>2022-03-06T11:49:40Z</time>
      </trkpt>
      <trkpt lat="47.21615" lon="-1.54449">
        <ele>55</ele>
        <time>2022-03-06T11:49:42Z</time>
      </trkpt>
      <trkpt lat="47.21613" lon="-1.54467">
        <ele>55</ele>
        <time>2022-03-06T11:49:44Z</time>
      </trkpt>
      <trkpt lat="47.2161" lon="-1.54484">
        <ele>55</ele>
        <time>2022-03-06T11:49:46Z</time>
      </trkpt>
      <trkpt lat="47.21606" lon="-1.545">
        <ele>55</ele>
        <time>2022-03-06T11:49:48Z</time>
      </trkpt>
      <trkpt lat="47.21601" lon="-1.54516">
        <ele>55</ele>
        <time>2022-03-06T11:49:50Z</time>
      </trkpt>
      <trkpt lat="47.21596" lon="-1.54531">
        <ele>55</ele>
        <time>2022-03-06T11:49:52Z</time>
      </trkpt>
      <trkpt lat="47.21591" lon="-1.54545">
        <ele>55</ele>
        <time>2022-03-06T11:49:54Z</time>
      </trkpt>
      <trkpt lat="47.21586" lon="-1.54559">
        <ele>55</ele>
        <time>2022-03-06T11:49:56Z</time>
      </trkpt>
      <trkpt lat="47.2158" lon="-1.54573">
        <ele>55</ele>
        <time>2022-03-06T11:49:58Z</time>
      </trkpt>
      <trkpt lat="47.21575" lon="-1.54589">
        <ele>54</ele>
        <time>2022-03-06T11:50:00Z</time>
      </trkpt>
      <trkpt lat="47.21569" lon="-1.54606">
        <ele>54</ele>
        <time>2022-03-06T11:50:02Z</time>
      </trkpt>
      <trkpt lat="47.21563" lon="-1.54622">
        <ele>54</ele>
        <time>2022-03-06T11:50:04Z</time>
      </trkpt>
      <trkpt lat="47.21557" lon="-1.54638">
        <ele>54</ele>
        <time>2022-03-06T11:50:06Z</time>
      </trkpt>
      <trkpt lat="47.21551" lon="-1.54653">
        <ele>54</ele>
        <time>2022-03-06T11:50:08Z</time>
      </trkpt>
      <trkpt lat="47.21546" lon="-1.54667">
        <ele>54</ele>
        <time>2022-03-06T11:50:10Z</time>
      </trkpt>
      <trkpt lat="47.21541" lon="-1.54685">
        <ele>55</ele>
        <time>2022-03-06T11:50:12Z</time>
      </trkpt>
      <trkpt lat="47.21538" lon="-1.547">
        <ele>55</ele>
        <time>2022-03-06T11:50:14Z</time>
      </trkpt>
      <trkpt lat="47.21532" lon="-1.54715">
        <ele>54</ele>
        <time>2022-03-06T11:50:16Z</time>
      </trkpt>
      <trkpt lat="47.21524" lon="-1.54731">
        <ele>55</ele>
        <time>2022-03-06T11:50:18Z</time>
      </trkpt>
      <trkpt lat="47.21517" lon="-1.54747">
        <ele>55</ele>
        <time>2022-03-06T11:50:20Z</time>
      </trkpt>
      <trkpt lat="47.21511" lon="-1.54764">
        <ele>54</ele>
        <time>2022-03-06T11:50:22Z</time>
      </trkpt>
      <trkpt lat="47.21505" lon="-1.5478">
        <ele>54</ele>
        <time>2022-03-06T11:50:24Z</time>
      </trkpt>
      <trkpt lat="47.21498" lon="-1.54796">
        <ele>55</ele>
        <time>2022-03-06T11:50:26Z</time>
      </trkpt>
      <trkpt lat="47.21491" lon="-1.54812">
        <ele>54</ele>
        <time>2022-03-06T11:50:28Z</time>
      </trkpt>
      <trkpt lat="47.21484" lon="-1.54827">
        <ele>53</ele>
        <time>2022-03-06T11:50:30Z</time>
      </trkpt>
      <trkpt lat="47.21476" lon="-1.54841">
        <ele>54</ele>
        <time>2022-03-06T11:50:32Z</time>
      </trkpt>
      <trkpt lat="47.21468" lon="-1.54857">
        <ele>54</ele>
        <time>2022-03-06T11:50:34Z</time>
      </trkpt>
      <trkpt lat="47.2146" lon="-1.54872">
        <ele>54</ele>
        <time>2022-03-06T11:50:36Z</time>
      </trkpt>
      <trkpt lat="47.21453" lon="-1.54887">
        <ele>54</ele>
        <time>2022-03-06T11:50:38Z</time>
      </trkpt>
      <trkpt lat="47.21446" lon="-1.54903">
        <ele>54</ele>
        <time>2022-03-06T11:50:40Z</time>
      </trkpt>
      <trkpt lat="47.21438" lon="-1.54918">
        <ele>54</ele>
        <time>2022-03-06T11:50:42Z</time>
      </trkpt>
      <trkpt lat="47.21432" lon="-1.54933">
        <ele>54</ele>
        <time>2022-03-06T11:50:44Z</time>
      </trkpt>
      <trkpt lat="47.21424" lon="-1.54949">
        <ele>53</ele>
        <time>2022-03-06T11:50:46Z</time>
      </trkpt>
      <trkpt lat="47.21416" lon="-1.54964">
        <ele>53</ele>
        <time>2022-03-06T11:50:48Z</time>
      </trkpt>
      <trkpt lat="47.21409" lon="-1.54979">
        <ele>53</ele>
        <time>2022-03-06T11:50:50Z</time>
      </trkpt>
      <trkpt lat="47.21403" lon="-1.54995">
        <ele>53</ele>
        <time>2022-03-06T11:50:52Z</time>
      </trkpt>
      <trkpt lat="47.21397" lon="-1.55011">
        <ele>52</ele>
        <time>2022-03-06T11:50:54Z</time>
      </trkpt>
      <trkpt lat="47.21391" lon="-1.55025">
        <ele>53</ele>
        <time>2022-03-06T11:50:56Z</time>
      </trkpt>
      <trkpt lat="47.21384" lon="-1.5504">
        <ele>53</ele>
        <time>2022-03-06T11:50:58Z</time>
      </trkpt>
      <trkpt lat="47.21378" lon="-1.55055">
        <ele>53</ele>
        <time>2022-03-06T11:51:00Z</time>
      </trkpt>
      <trkpt lat="47.21372" lon="-1.5507">
        <ele>53</ele>
        <time>2022-03-06T11:51:02Z</time>
      </trkpt>
      <trkpt lat="47.21366" lon="-1.55086">
        <ele>53</ele>
        <time>2022-03-06T11:51:04Z</time>
      </trkpt>
      <trkpt lat="47.2136" lon="-1.55101">
        <ele>53</ele>
        <time>2022-03-06T11:51:06Z</time>
      </trkpt>
      <trkpt lat="47.21354" lon="-1.55117">
        <ele>53</ele>
        <time>2022-03-06T11:51:08Z</time>
      </trkpt>
      <trkpt lat="47.21348" lon="-1.55132">
        <ele>53</ele>
        <time>2022-03-06T11:51:10Z</time>
      </trkpt>
      <trkpt lat="47.21342" lon="-1.55147">
        <ele>53</ele>
        <time>2022-03-06T11:51:12Z</time>
      </trkpt>
      <trkpt lat="47.21335" lon="-1.55162">
        <ele>53</ele>
        <time>2022-03-06T11:51:14Z</time>
      </trkpt>
      <trkpt lat="47.21329" lon="-1.55177">
        <ele>53</ele>
        <time>2022-03-06T11:51:16Z</time>
      </trkpt>
      <trkpt lat="47.21323" lon="-1.55194">
        <ele>52</ele>
        <time>2022-03-06T11:51:18Z</time>
      </trkpt>
      <trkpt lat="47.21317" lon="-1.55209">
        <ele>52</ele>
        <time>2022-03-06T11:51:20Z</time>
      </trkpt>
      <trkpt lat="47.21311" lon="-1.55225">
        <ele>53</ele>
        <time>2022-03-06T11:51:22Z</time>
      </trkpt>
      <trkpt lat="47.21305" lon="-1.5524">
        <ele>53</ele>
        <time>2022-03-06T11:51:24Z</time>
      </trkpt>
      <trkpt lat="47.21298" lon="-1.55255">
        <ele>53</ele>
        <time>2022-03-06T11:51:26Z</time>
      </trkpt>
      <trkpt lat="47.21292" lon="-1.5527">
        <ele>53</ele>
        <time>2022-03-06T11:51:28Z</time>
      </trkpt>
      <trkpt lat="47.21287" lon="-1.55284">
        <ele>54</ele>
        <time>2022-03-06T11:51:30Z</time>
      </trkpt>
      <trkpt lat="47.2128" lon="-1.55294">
        <ele>54</ele>
        <time>2022-03-06T11:51:32Z</time>
      </trkpt>
      <trkpt lat="47.2127" lon="-1.55295">
        <ele>54</ele>
        <time>2022-03-06T11:51:34Z</time>
      </trkpt>
      <trkpt lat="47.21259" lon="-1.55303">
        <ele>53</ele>
        <time>2022-03-06T11:51:37Z</time>
      </trkpt>
      <trkpt lat="47.21258" lon="-1.55318">
        <ele>53</ele>
        <time>2022-03-06T11:51:39Z</time>
      </trkpt>
      <trkpt lat="47.21262" lon="-1.55331">
        <ele>53</ele>
        <time>2022-03-06T11:51:41Z</time>
      </trkpt>
      <trkpt lat="47.2127" lon="-1.55344">
        <ele>53</ele>
        <time>2022-03-06T11:51:44Z</time>
      </trkpt>
      <trkpt lat="47.21282" lon="-1.55353">
        <ele>53</ele>
        <time>2022-03-06T11:51:47Z</time>
      </trkpt>
      <trkpt lat="47.21287" lon="-1.55371">
        <ele>54</ele>
        <time>2022-03-06T11:51:49Z</time>
      </trkpt>
      <trkpt lat="47.21281" lon="-1.55388">
        <ele>53</ele>
        <time>2022-03-06T11:51:51Z</time>
      </trkpt>
      <trkpt lat="47.21271" lon="-1.55404">
        <ele>53</ele>
        <time>2022-03-06T11:51:53Z</time>
      </trkpt>
      <trkpt lat="47.21262" lon="-1.55421">
        <ele>53</ele>
        <time>2022-03-06T11:51:55Z</time>
      </trkpt>
      <trkpt lat="47.21251" lon="-1.55436">
        <ele>53</ele>
        <time>2022-03-06T11:51:57Z</time>
      </trkpt>
      <trkpt lat="47.2124" lon="-1.55452">
        <ele>53</ele>
        <time>2022-03-06T11:51:59Z</time>
      </trkpt>
      <trkpt lat="47.2123" lon="-1.5547">
        <ele>53</ele>
        <time>2022-03-06T11:52:01Z</time>
      </trkpt>
      <trkpt lat="47.21223" lon="-1.55488">
        <ele>53</ele>
        <time>2022-03-06T11:52:03Z</time>
      </trkpt>
      <trkpt lat="47.21216" lon="-1.55507">
        <ele>53</ele>
        <time>2022-03-06T11:52:05Z</time>
      </trkpt>
      <trkpt lat="47.21211" lon="-1.55527">
        <ele>53</ele>
        <time>2022-03-06T11:52:07Z</time>
      </trkpt>
      <trkpt lat="47.21204" lon="-1.55547">
        <ele>53</ele>
        <time>2022-03-06T11:52:09Z</time>
      </trkpt>
      <trkpt lat="47.21198" lon="-1.55567">
        <ele>53</ele>
        <time>2022-03-06T11:52:11Z</time>
      </trkpt>
      <trkpt lat="47.21192" lon="-1.55586">
        <ele>53</ele>
        <time>2022-03-06T11:52:13Z</time>
      </trkpt>
      <trkpt lat="47.21186" lon="-1.55605">
        <ele>52</ele>
        <time>2022-03-06T11:52:15Z</time>
      </trkpt>
      <trkpt lat="47.2118" lon="-1.55624">
        <ele>52</ele>
        <time>2022-03-06T11:52:17Z</time>
      </trkpt>
      <trkpt lat="47.21175" lon="-1.55643">
        <ele>52</ele>
        <time>2022-03-06T11:52:19Z</time>
      </trkpt>
      <trkpt lat="47.21172" lon="-1.55662">
        <ele>52</ele>
        <time>2022-03-06T11:52:21Z</time>
      </trkpt>
      <trkpt lat="47.21176" lon="-1.55683">
        <ele>51</ele>
        <time>2022-03-06T11:52:23Z</time>
      </trkpt>
      <trkpt lat="47.21179" lon="-1.55704">
        <ele>51</ele>
        <time>2022-03-06T11:52:25Z</time>
      </trkpt>
      <trkpt lat="47.21173" lon="-1.55724">
        <ele>51</ele>
        <time>2022-03-06T11:52:27Z</time>
      </trkpt>
      <trkpt lat="47.21165" lon="-1.55742">
        <ele>51</ele>
        <time>2022-03-06T11:52:29Z</time>
      </trkpt>
      <trkpt lat="47.21159" lon="-1.5576">
        <ele>51</ele>
        <time>2022-03-06T11:52:31Z</time>
      </trkpt>
      <trkpt lat="47.21152" lon="-1.55778">
        <ele>51</ele>
        <time>2022-03-06T11:52:33Z</time>
      </trkpt>
      <trkpt lat="47.21148" lon="-1.55797">
        <ele>51</ele>
        <time>2022-03-06T11:52:35Z</time>
      </trkpt>
      <trkpt lat="47.21145" lon="-1.55817">
        <ele>51</ele>
        <time>2022-03-06T11:52:37Z</time>
      </trkpt>
      <trkpt lat="47.21143" lon="-1.55837">
        <ele>51</ele>
        <time>2022-03-06T11:52:39Z</time>
      </trkpt>
      <trkpt lat="47.21143" lon="-1.55857">
        <ele>51</ele>
        <time>2022-03-06T11:52:41Z</time>
      </trkpt>
      <trkpt lat="47.21147" lon="-1.55876">
        <ele>51</ele>
        <time>2022-03-06T11:52:43Z</time>
      </trkpt>
      <trkpt lat="47.21148" lon="-1.55896">
        <ele>51</ele>
        <time>2022-03-06T11:52:45Z</time>
      </trkpt>
      <trkpt lat="47.21139" lon="-1.55912">
        <ele>51</ele>
        <time>2022-03-06T11:52:47Z</time>
      </trkpt>
      <trkpt lat="47.21124" lon="-1.55921">
        <ele>51</ele>
        <time>2022-03-06T11:52:49Z</time>
      </trkpt>
      <trkpt lat="47.21111" lon="-1.5593">
        <ele>51</ele>
        <time>2022-03-06T11:52:51Z</time>
      </trkpt>
      <trkpt lat="47.21099" lon="-1.55941">
        <ele>52</ele>
        <time>2022-03-06T11:52:53Z</time>
      </trkpt>
      <trkpt lat="47.21088" lon="-1.55954">
        <ele>52</ele>
        <time>2022-03-06T11:52:55Z</time>
      </trkpt>
      <trkpt lat="47.21078" lon="-1.55969">
        <ele>52</ele>
        <time>2022-03-06T11:52:57Z</time>
      </trkpt>
      <trkpt lat="47.21068" lon="-1.55986">
        <ele>52</ele>
        <time>2022-03-06T11:52:59Z</time>
      </trkpt>
      <trkpt lat="47.2106" lon="-1.56011">
        <ele>52</ele>
        <time>2022-03-06T11:53:02Z</time>
      </trkpt>
      <trkpt lat="47.21047" lon="-1.56034">
        <ele>52</ele>
        <time>2022-03-06T11:53:05Z</time>
      </trkpt>
      <trkpt lat="47.21041" lon="-1.56052">
        <ele>52</ele>
        <time>2022-03-06T11:53:07Z</time>
      </trkpt>
      <trkpt lat="47.21034" lon="-1.5607">
        <ele>52</ele>
        <time>2022-03-06T11:53:09Z</time>
      </trkpt>
      <trkpt lat="47.21028" lon="-1.56086">
        <ele>52</ele>
        <time>2022-03-06T11:53:11Z</time>
      </trkpt>
      <trkpt lat="47.21022" lon="-1.56101">
        <ele>52</ele>
        <time>2022-03-06T11:53:13Z</time>
      </trkpt>
      <trkpt lat="47.21018" lon="-1.56115">
        <ele>51</ele>
        <time>2022-03-06T11:53:15Z</time>
      </trkpt>
      <trkpt lat="47.21013" lon="-1.56127">
        <ele>52</ele>
        <time>2022-03-06T11:53:17Z</time>
      </trkpt>
      <trkpt lat="47.21005" lon="-1.56141">
        <ele>52</ele>
        <time>2022-03-06T11:53:20Z</time>
      </trkpt>
      <trkpt lat="47.21001" lon="-1.56159">
        <ele>52</ele>
        <time>2022-03-06T11:53:23Z</time>
      </trkpt>
      <trkpt lat="47.20996" lon="-1.56172">
        <ele>52</ele>
        <time>2022-03-06T11:53:27Z</time>
      </trkpt>
      <trkpt lat="47.20984" lon="-1.56172">
        <ele>52</ele>
        <time>2022-03-06T11:53:30Z</time>
      </trkpt>
      <trkpt lat="47.20973" lon="-1.56168">
        <ele>53</ele>
        <time>2022-03-06T11:53:33Z</time>
      </trkpt>
      <trkpt lat="47.20962" lon="-1.56167">
        <ele>53</ele>
        <time>2022-03-06T11:53:35Z</time>
      </trkpt>
      <trkpt lat="47.20951" lon="-1.56164">
        <ele>54</ele>
        <time>2022-03-06T11:53:37Z</time>
      </trkpt>
      <trkpt lat="47.20937" lon="-1.56163">
        <ele>54</ele>
        <time>2022-03-06T11:53:39Z</time>
      </trkpt>
      <trkpt lat="47.20924" lon="-1.56159">
        <ele>54</ele>
        <time>2022-03-06T11:53:41Z</time>
      </trkpt>
      <trkpt lat="47.20911" lon="-1.56157">
        <ele>54</ele>
        <time>2022-03-06T11:53:43Z</time>
      </trkpt>
      <trkpt lat="47.20898" lon="-1.56154">
        <ele>54</ele>
        <time>2022-03-06T11:53:45Z</time>
      </trkpt>
      <trkpt lat="47.20887" lon="-1.5615">
        <ele>53</ele>
        <time>2022-03-06T11:53:47Z</time>
      </trkpt>
      <trkpt lat="47.20875" lon="-1.56147">
        <ele>53</ele>
        <time>2022-03-06T11:53:49Z</time>
      </trkpt>
      <trkpt lat="47.20863" lon="-1.56144">
        <ele>52</ele>
        <time>2022-03-06T11:53:51Z</time>
      </trkpt>
      <trkpt lat="47.20852" lon="-1.56141">
        <ele>52</ele>
        <time>2022-03-06T11:53:53Z</time>
      </trkpt>
      <trkpt lat="47.20843" lon="-1.56139">
        <ele>52</ele>
        <time>2022-03-06T11:53:55Z</time>
      </trkpt>
      <trkpt lat="47.20837" lon="-1.56153">
        <ele>51</ele>
        <time>2022-03-06T11:53:59Z</time>
      </trkpt>
      <trkpt lat="47.20836" lon="-1.56169">
        <ele>51</ele>
        <time>2022-03-06T11:54:01Z</time>
      </trkpt>
      <trkpt lat="47.20836" lon="-1.56186">
        <ele>51</ele>
        <time>2022-03-06T11:54:03Z</time>
      </trkpt>
      <trkpt lat="47.20835" lon="-1.56204">
        <ele>51</ele>
        <time>2022-03-06T11:54:05Z</time>
      </trkpt>
      <trkpt lat="47.20835" lon="-1.56221">
        <ele>51</ele>
        <time>2022-03-06T11:54:07Z</time>
      </trkpt>
      <trkpt lat="47.20834" lon="-1.56238">
        <ele>51</ele>
        <time>2022-03-06T11:54:09Z</time>
      </trkpt>
      <trkpt lat="47.20834" lon="-1.56256">
        <ele>50</ele>
        <time>2022-03-06T11:54:11Z</time>
      </trkpt>
      <trkpt lat="47.20834" lon="-1.56274">
        <ele>50</ele>
        <time>2022-03-06T11:54:13Z</time>
      </trkpt>
      <trkpt lat="47.20833" lon="-1.56292">
        <ele>50</ele>
        <time>2022-03-06T11:54:15Z</time>
      </trkpt>
      <trkpt lat="47.20831" lon="-1.5631">
        <ele>50</ele>
        <time>2022-03-06T11:54:17Z</time>
      </trkpt>
      <trkpt lat="47.20827" lon="-1.56328">
        <ele>50</ele>
        <time>2022-03-06T11:54:19Z</time>
      </trkpt>
      <trkpt lat="47.20823" lon="-1.56345">
        <ele>50</ele>
        <time>2022-03-06T11:54:21Z</time>
      </trkpt>
      <trkpt lat="47.20819" lon="-1.56362">
        <ele>51</ele>
        <time>2022-03-06T11:54:23Z</time>
      </trkpt>
      <trkpt lat="47.20815" lon="-1.5638">
        <ele>51</ele>
        <time>2022-03-06T11:54:25Z</time>
      </trkpt>
      <trkpt lat="47.20811" lon="-1.56396">
        <ele>51</ele>
        <time>2022-03-06T11:54:27Z</time>
      </trkpt>
      <trkpt lat="47.20807" lon="-1.56412">
        <ele>51</ele>
        <time>2022-03-06T11:54:29Z</time>
      </trkpt>
      <trkpt lat="47.20803" lon="-1.56428">
        <ele>51</ele>
        <time>2022-03-06T11:54:31Z</time>
      </trkpt>
      <trkpt lat="47.20798" lon="-1.56445">
        <ele>51</ele>
        <time>2022-03-06T11:54:33Z</time>
      </trkpt>
      <trkpt lat="47.20794" lon="-1.56461">
        <ele>51</ele>
        <time>2022-03-06T11:54:35Z</time>
      </trkpt>
      <trkpt lat="47.2079" lon="-1.56476">
        <ele>51</ele>
        <time>2022-03-06T11:54:37Z</time>
      </trkpt>
      <trkpt lat="47.20787" lon="-1.5649">
        <ele>51</ele>
        <time>2022-03-06T11:54:39Z</time>
      </trkpt>
      <trkpt lat="47.20783" lon="-1.56505">
        <ele>52</ele>
        <time>2022-03-06T11:54:41Z</time>
      </trkpt>
      <trkpt lat="47.20775" lon="-1.56517">
        <ele>52</ele>
        <time>2022-03-06T11:54:44Z</time>
      </trkpt>
      <trkpt lat="47.20763" lon="-1.56509">
        <ele>52</ele>
        <time>2022-03-06T11:54:47Z</time>
      </trkpt>
      <trkpt lat="47.20753" lon="-1.56499">
        <ele>52</ele>
        <time>2022-03-06T11:54:50Z</time>
      </trkpt>
      <trkpt lat="47.20744" lon="-1.56493">
        <ele>52</ele>
        <time>2022-03-06T11:54:53Z</time>
      </trkpt>
      <trkpt lat="47.20738" lon="-1.56509">
        <ele>52</ele>
        <time>2022-03-06T11:54:58Z</time>
      </trkpt>
      <trkpt lat="47.20735" lon="-1.56523">
        <ele>51</ele>
        <time>2022-03-06T11:55:00Z</time>
      </trkpt>
      <trkpt lat="47.20728" lon="-1.56538">
        <ele>51</ele>
        <time>2022-03-06T11:55:02Z</time>
      </trkpt>
      <trkpt lat="47.20721" lon="-1.56553">
        <ele>51</ele>
        <time>2022-03-06T11:55:04Z</time>
      </trkpt>
      <trkpt lat="47.20713" lon="-1.56564">
        <ele>51</ele>
        <time>2022-03-06T11:55:06Z</time>
      </trkpt>
      <trkpt lat="47.20702" lon="-1.56569">
        <ele>51</ele>
        <time>2022-03-06T11:55:08Z</time>
      </trkpt>
      <trkpt lat="47.2069" lon="-1.56573">
        <ele>51</ele>
        <time>2022-03-06T11:55:10Z</time>
      </trkpt>
      <trkpt lat="47.20681" lon="-1.56587">
        <ele>51</ele>
        <time>2022-03-06T11:55:12Z</time>
      </trkpt>
      <trkpt lat="47.20671" lon="-1.56601">
        <ele>51</ele>
        <time>2022-03-06T11:55:14Z</time>
      </trkpt>
      <trkpt lat="47.2066" lon="-1.56611">
        <ele>51</ele>
        <time>2022-03-06T11:55:16Z</time>
      </trkpt>
      <trkpt lat="47.20646" lon="-1.56615">
        <ele>51</ele>
        <time>2022-03-06T11:55:18Z</time>
      </trkpt>
      <trkpt lat="47.20633" lon="-1.56616">
        <ele>51</ele>
        <time>2022-03-06T11:55:20Z</time>
      </trkpt>
      <trkpt lat="47.2062" lon="-1.56619">
        <ele>51</ele>
        <time>2022-03-06T11:55:22Z</time>
      </trkpt>
      <trkpt lat="47.20608" lon="-1.56623">
        <ele>51</ele>
        <time>2022-03-06T11:55:24Z</time>
      </trkpt>
      <trkpt lat="47.20597" lon="-1.56629">
        <ele>51</ele>
        <time>2022-03-06T11:55:26Z</time>
      </trkpt>
      <trkpt lat="47.20586" lon="-1.56639">
        <ele>51</ele>
        <time>2022-03-06T11:55:28Z</time>
      </trkpt>
      <trkpt lat="47.20578" lon="-1.56652">
        <ele>51</ele>
        <time>2022-03-06T11:55:30Z</time>
      </trkpt>
      <trkpt lat="47.20571" lon="-1.56668">
        <ele>51</ele>
        <time>2022-03-06T11:55:32Z</time>
      </trkpt>
      <trkpt lat="47.20565" lon="-1.56683">
        <ele>51</ele>
        <time>2022-03-06T11:55:34Z</time>
      </trkpt>
      <trkpt lat="47.20562" lon="-1.56701">
        <ele>51</ele>
        <time>2022-03-06T11:55:36Z</time>
      </trkpt>
      <trkpt lat="47.2056" lon="-1.5672">
        <ele>50</ele>
        <time>2022-03-06T11:55:38Z</time>
      </trkpt>
      <trkpt lat="47.20558" lon="-1.56738">
        <ele>51</ele>
        <time>2022-03-06T11:55:40Z</time>
      </trkpt>
      <trkpt lat="47.20555" lon="-1.56755">
        <ele>51</ele>
        <time>2022-03-06T11:55:42Z</time>
      </trkpt>
      <trkpt lat="47.20551" lon="-1.56772">
        <ele>51</ele>
        <time>2022-03-06T11:55:44Z</time>
      </trkpt>
      <trkpt lat="47.20547" lon="-1.56789">
        <ele>51</ele>
        <time>2022-03-06T11:55:46Z</time>
      </trkpt>
      <trkpt lat="47.20543" lon="-1.56807">
        <ele>51</ele>
        <time>2022-03-06T11:55:48Z</time>
      </trkpt>
      <trkpt lat="47.2054" lon="-1.56825">
        <ele>51</ele>
        <time>2022-03-06T11:55:50Z</time>
      </trkpt>
      <trkpt lat="47.20538" lon="-1.56843">
        <ele>50</ele>
        <time>2022-03-06T11:55:52Z</time>
      </trkpt>
      <trkpt lat="47.20534" lon="-1.5686">
        <ele>50</ele>
        <time>2022-03-06T11:55:54Z</time>
      </trkpt>
      <trkpt lat="47.20526" lon="-1.56871">
        <ele>51</ele>
        <time>2022-03-06T11:55:56Z</time>
      </trkpt>
      <trkpt lat="47.20515" lon="-1.56871">
        <ele>51</ele>
        <time>2022-03-06T11:55:58Z</time>
      </trkpt>
      <trkpt lat="47.20503" lon="-1.56867">
        <ele>50</ele>
        <time>2022-03-06T11:56:00Z</time>
      </trkpt>
      <trkpt lat="47.20496" lon="-1.56875">
        <ele>51</ele>
        <time>2022-03-06T11:56:02Z</time>
      </trkpt>
      <trkpt lat="47.20493" lon="-1.56892">
        <ele>51</ele>
        <time>2022-03-06T11:56:04Z</time>
      </trkpt>
      <trkpt lat="47.2049" lon="-1.56909">
        <ele>51</ele>
        <time>2022-03-06T11:56:06Z</time>
      </trkpt>
      <trkpt lat="47.20487" lon="-1.56928">
        <ele>51</ele>
        <time>2022-03-06T11:56:08Z</time>
      </trkpt>
      <trkpt lat="47.20483" lon="-1.56945">
        <ele>51</ele>
        <time>2022-03-06T11:56:10Z</time>
      </trkpt>
      <trkpt lat="47.2048" lon="-1.56963">
        <ele>51</ele>
        <time>2022-03-06T11:56:12Z</time>
      </trkpt>
      <trkpt lat="47.20476" lon="-1.56981">
        <ele>51</ele>
        <time>2022-03-06T11:56:14Z</time>
      </trkpt>
      <trkpt lat="47.20472" lon="-1.56999">
        <ele>51</ele>
        <time>2022-03-06T11:56:16Z</time>
      </trkpt>
      <trkpt lat="47.20469" lon="-1.57017">
        <ele>52</ele>
        <time>2022-03-06T11:56:18Z</time>
      </trkpt>
      <trkpt lat="47.20464" lon="-1.57034">
        <ele>52</ele>
        <time>2022-03-06T11:56:20Z</time>
      </trkpt>
      <trkpt lat="47.2046" lon="-1.57053">
        <ele>51</ele>
        <time>2022-03-06T11:56:22Z</time>
      </trkpt>
      <trkpt lat="47.20457" lon="-1.57071">
        <ele>51</ele>
        <time>2022-03-06T11:56:24Z</time>
      </trkpt>
      <trkpt lat="47.20453" lon="-1.57088">
        <ele>51</ele>
        <time>2022-03-06T11:56:26Z</time>
      </trkpt>
      <trkpt lat="47.20448" lon="-1.57104">
        <ele>51</ele>
        <time>2022-03-06T11:56:28Z</time>
      </trkpt>
      <trkpt lat="47.20439" lon="-1.57117">
        <ele>51</ele>
        <time>2022-03-06T11:56:30Z</time>
      </trkpt>
      <trkpt lat="47.2043" lon="-1.57126">
        <ele>51</ele>
        <time>2022-03-06T11:56:32Z</time>
      </trkpt>
      <trkpt lat="47.20422" lon="-1.57134">
        <ele>52</ele>
        <time>2022-03-06T11:56:34Z</time>
      </trkpt>
      <trkpt lat="47.20408" lon="-1.57137">
        <ele>52</ele>
        <time>2022-03-06T11:56:37Z</time>
      </trkpt>
      <trkpt lat="47.20397" lon="-1.57145">
        <ele>52</ele>
        <time>2022-03-06T11:56:39Z</time>
      </trkpt>
      <trkpt lat="47.20385" lon="-1.57152">
        <ele>52</ele>
        <time>2022-03-06T11:56:41Z</time>
      </trkpt>
      <trkpt lat="47.20373" lon="-1.5716">
        <ele>52</ele>
        <time>2022-03-06T11:56:43Z</time>
      </trkpt>
      <trkpt lat="47.20361" lon="-1.57167">
        <ele>52</ele>
        <time>2022-03-06T11:56:45Z</time>
      </trkpt>
      <trkpt lat="47.20349" lon="-1.57174">
        <ele>52</ele>
        <time>2022-03-06T11:56:47Z</time>
      </trkpt>
      <trkpt lat="47.20337" lon="-1.57181">
        <ele>52</ele>
        <time>2022-03-06T11:56:49Z</time>
      </trkpt>
      <trkpt lat="47.20326" lon="-1.57188">
        <ele>52</ele>
        <time>2022-03-06T11:56:51Z</time>
      </trkpt>
      <trkpt lat="47.20314" lon="-1.57191">
        <ele>53</ele>
        <time>2022-03-06T11:56:53Z</time>
      </trkpt>
      <trkpt lat="47.20301" lon="-1.57198">
        <ele>53</ele>
        <time>2022-03-06T11:56:55Z</time>
      </trkpt>
      <trkpt lat="47.20289" lon="-1.57206">
        <ele>53</ele>
        <time>2022-03-06T11:56:57Z</time>
      </trkpt>
      <trkpt lat="47.20276" lon="-1.57212">
        <ele>53</ele>
        <time>2022-03-06T11:56:59Z</time>
      </trkpt>
      <trkpt lat="47.20264" lon="-1.57217">
        <ele>53</ele>
        <time>2022-03-06T11:57:01Z</time>
      </trkpt>
      <trkpt lat="47.20252" lon="-1.57219">
        <ele>53</ele>
        <time>2022-03-06T11:57:03Z</time>
      </trkpt>
      <trkpt lat="47.2024" lon="-1.57217">
        <ele>53</ele>
        <time>2022-03-06T11:57:05Z</time>
      </trkpt>
      <trkpt lat="47.20231" lon="-1.57205">
        <ele>53</ele>
        <time>2022-03-06T11:57:07Z</time>
      </trkpt>
      <trkpt lat="47.20227" lon="-1.57191">
        <ele>53</ele>
        <time>2022-03-06T11:57:09Z</time>
      </trkpt>
      <trkpt lat="47.20217" lon="-1.57183">
        <ele>52</ele>
        <time>2022-03-06T11:57:12Z</time>
      </trkpt>
      <trkpt lat="47.20208" lon="-1.5719">
        <ele>52</ele>
        <time>2022-03-06T11:57:14Z</time>
      </trkpt>
      <trkpt lat="47.20197" lon="-1.57199">
        <ele>52</ele>
        <time>2022-03-06T11:57:16Z</time>
      </trkpt>
      <trkpt lat="47.20184" lon="-1.57207">
        <ele>52</ele>
        <time>2022-03-06T11:57:18Z</time>
      </trkpt>
      <trkpt lat="47.20172" lon="-1.57215">
        <ele>52</ele>
        <time>2022-03-06T11:57:20Z</time>
      </trkpt>
      <trkpt lat="47.2016" lon="-1.57223">
        <ele>52</ele>
        <time>2022-03-06T11:57:22Z</time>
      </trkpt>
      <trkpt lat="47.20148" lon="-1.57231">
        <ele>52</ele>
        <time>2022-03-06T11:57:24Z</time>
      </trkpt>
      <trkpt lat="47.20137" lon="-1.5724">
        <ele>53</ele>
        <time>2022-03-06T11:57:26Z</time>
      </trkpt>
      <trkpt lat="47.20125" lon="-1.57248">
        <ele>53</ele>
        <time>2022-03-06T11:57:28Z</time>
      </trkpt>
      <trkpt lat="47.20114" lon="-1.57256">
        <ele>52</ele>
        <time>2022-03-06T11:57:30Z</time>
      </trkpt>
      <trkpt lat="47.20102" lon="-1.57264">
        <ele>52</ele>
        <time>2022-03-06T11:57:32Z</time>
      </trkpt>
      <trkpt lat="47.20091" lon="-1.57272">
        <ele>52</ele>
        <time>2022-03-06T11:57:34Z</time>
      </trkpt>
      <trkpt lat="47.20079" lon="-1.57281">
        <ele>51</ele>
        <time>2022-03-06T11:57:36Z</time>
      </trkpt>
      <trkpt lat="47.20068" lon="-1.57292">
        <ele>51</ele>
        <time>2022-03-06T11:57:38Z</time>
      </trkpt>
      <trkpt lat="47.20056" lon="-1.57302">
        <ele>51</ele>
        <time>2022-03-06T11:57:40Z</time>
      </trkpt>
      <trkpt lat="47.20044" lon="-1.5731">
        <ele>51</ele>
        <time>2022-03-06T11:57:42Z</time>
      </trkpt>
      <trkpt lat="47.20032" lon="-1.57318">
        <ele>51</ele>
        <time>2022-03-06T11:57:44Z</time>
      </trkpt>
      <trkpt lat="47.20021" lon="-1.57327">
        <ele>52</ele>
        <time>2022-03-06T11:57:46Z</time>
      </trkpt>
      <trkpt lat="47.20009" lon="-1.57334">
        <ele>52</ele>
        <time>2022-03-06T11:57:48Z</time>
      </trkpt>
      <trkpt lat="47.19999" lon="-1.57339">
        <ele>52</ele>
        <time>2022-03-06T11:57:50Z</time>
      </trkpt>
      <trkpt lat="47.19987" lon="-1.57335">
        <ele>52</ele>
        <time>2022-03-06T11:57:52Z</time>
      </trkpt>
      <trkpt lat="47.19982" lon="-1.57317">
        <ele>51</ele>
        <time>2022-03-06T11:57:54Z</time>
      </trkpt>
      <trkpt lat="47.19981" lon="-1.57299">
        <ele>52</ele>
        <time>2022-03-06T11:57:56Z</time>
      </trkpt>
      <trkpt lat="47.19981" lon="-1.57281">
        <ele>52</ele>
        <time>2022-03-06T11:57:58Z</time>
      </trkpt>
      <trkpt lat="47.1998" lon="-1.57263">
        <ele>52</ele>
        <time>2022-03-06T11:58:00Z</time>
      </trkpt>
      <trkpt lat="47.19979" lon="-1.57246">
        <ele>52</ele>
        <time>2022-03-06T11:58:02Z</time>
      </trkpt>
      <trkpt lat="47.1998" lon="-1.57228">
        <ele>52</ele>
        <time>2022-03-06T11:58:04Z</time>
      </trkpt>
      <trkpt lat="47.1998" lon="-1.5721">
        <ele>52</ele>
        <time>2022-03-06T11:58:06Z</time>
      </trkpt>
      <trkpt lat="47.19981" lon="-1.57192">
        <ele>51</ele>
        <time>2022-03-06T11:58:08Z</time>
      </trkpt>
      <trkpt lat="47.1998" lon="-1.57175">
        <ele>51</ele>
        <time>2022-03-06T11:58:10Z</time>
      </trkpt>
      <trkpt lat="47.1998" lon="-1.57158">
        <ele>51</ele>
        <time>2022-03-06T11:58:12Z</time>
      </trkpt>
      <trkpt lat="47.19978" lon="-1.5714">
        <ele>51</ele>
        <time>2022-03-06T11:58:14Z</time>
      </trkpt>
      <trkpt lat="47.19975" lon="-1.57123">
        <ele>51</ele>
        <time>2022-03-06T11:58:16Z</time>
      </trkpt>
      <trkpt lat="47.19971" lon="-1.57107">
        <ele>51</ele>
        <time>2022-03-06T11:58:18Z</time>
      </trkpt>
      <trkpt lat="47.19967" lon="-1.5709">
        <ele>51</ele>
        <time>2022-03-06T11:58:20Z</time>
      </trkpt>
      <trkpt lat="47.19963" lon="-1.57073">
        <ele>51</ele>
        <time>2022-03-06T11:58:22Z</time>
      </trkpt>
      <trkpt lat="47.19958" lon="-1.57056">
        <ele>51</ele>
        <time>2022-03-06T11:58:24Z</time>
      </trkpt>
      <trkpt lat="47.19953" lon="-1.5704">
        <ele>51</ele>
        <time>2022-03-06T11:58:26Z</time>
      </trkpt>
      <trkpt lat="47.19951" lon="-1.57023">
        <ele>51</ele>
        <time>2022-03-06T11:58:28Z</time>
      </trkpt>
      <trkpt lat="47.19951" lon="-1.57005">
        <ele>51</ele>
        <time>2022-03-06T11:58:30Z</time>
      </trkpt>
      <trkpt lat="47.19951" lon="-1.56988">
        <ele>52</ele>
        <time>2022-03-06T11:58:32Z</time>
      </trkpt>
      <trkpt lat="47.19951" lon="-1.5697">
        <ele>52</ele>
        <time>2022-03-06T11:58:34Z</time>
      </trkpt>
      <trkpt lat="47.19952" lon="-1.56952">
        <ele>52</ele>
        <time>2022-03-06T11:58:36Z</time>
      </trkpt>
      <trkpt lat="47.19952" lon="-1.56935">
        <ele>52</ele>
        <time>2022-03-06T11:58:38Z</time>
      </trkpt>
      <trkpt lat="47.19951" lon="-1.56917">
        <ele>52</ele>
        <time>2022-03-06T11:58:40Z</time>
      </trkpt>
      <trkpt lat="47.19951" lon="-1.56899">
        <ele>53</ele>
        <time>2022-03-06T11:58:42Z</time>
      </trkpt>
      <trkpt lat="47.19951" lon="-1.56881">
        <ele>53</ele>
        <time>2022-03-06T11:58:44Z</time>
      </trkpt>
      <trkpt lat="47.19952" lon="-1.56863">
        <ele>53</ele>
        <time>2022-03-06T11:58:46Z</time>
      </trkpt>
      <trkpt lat="47.19951" lon="-1.56846">
        <ele>53</ele>
        <time>2022-03-06T11:58:48Z</time>
      </trkpt>
      <trkpt lat="47.19951" lon="-1.56828">
        <ele>52</ele>
        <time>2022-03-06T11:58:50Z</time>
      </trkpt>
      <trkpt lat="47.19952" lon="-1.56811">
        <ele>52</ele>
        <time>2022-03-06T11:58:52Z</time>
      </trkpt>
      <trkpt lat="47.19951" lon="-1.56794">
        <ele>52</ele>
        <time>2022-03-06T11:58:54Z</time>
      </trkpt>
      <trkpt lat="47.19952" lon="-1.56777">
        <ele>53</ele>
        <time>2022-03-06T11:58:56Z</time>
      </trkpt>
      <trkpt lat="47.19952" lon="-1.56759">
        <ele>53</ele>
        <time>2022-03-06T11:58:58Z</time>
      </trkpt>
      <trkpt lat="47.19952" lon="-1.56742">
        <ele>52</ele>
        <time>2022-03-06T11:59:00Z</time>
      </trkpt>
      <trkpt lat="47.19952" lon="-1.56725">
        <ele>52</ele>
        <time>2022-03-06T11:59:02Z</time>
      </trkpt>
      <trkpt lat="47.19952" lon="-1.56707">
        <ele>53</ele>
        <time>2022-03-06T11:59:04Z</time>
      </trkpt>
      <trkpt lat="47.19952" lon="-1.5669">
        <ele>53</ele>
        <time>2022-03-06T11:59:06Z</time>
      </trkpt>
      <trkpt lat="47.19951" lon="-1.56673">
        <ele>52</ele>
        <time>2022-03-06T11:59:08Z</time>
      </trkpt>
      <trkpt lat="47.19952" lon="-1.56656">
        <ele>52</ele>
        <time>2022-03-06T11:59:10Z</time>
      </trkpt>
      <trkpt lat="47.19952" lon="-1.56638">
        <ele>52</ele>
        <time>2022-03-06T11:59:12Z</time>
      </trkpt>
      <trkpt lat="47.19952" lon="-1.56621">
        <ele>52</ele>
        <time>2022-03-06T11:59:14Z</time>
      </trkpt>
      <trkpt lat="47.19952" lon="-1.56603">
        <ele>52</ele>
        <time>2022-03-06T11:59:16Z</time>
      </trkpt>
      <trkpt lat="47.19952" lon="-1.56586">
        <ele>52</ele>
        <time>2022-03-06T11:59:18Z</time>
      </trkpt>
      <trkpt lat="47.19952" lon="-1.56569">
        <ele>52</ele>
        <time>2022-03-06T11:59:20Z</time>
      </trkpt>
      <trkpt lat="47.19952" lon="-1.56551">
        <ele>52</ele>
        <time>2022-03-06T11:59:22Z</time>
      </trkpt>
      <trkpt lat="47.19952" lon="-1.56534">
        <ele>52</ele>
        <time>2022-03-06T11:59:24Z</time>
      </trkpt>
      <trkpt lat="47.19952" lon="-1.56517">
        <ele>52</ele>
        <time>2022-03-06T11:59:26Z</time>
      </trkpt>
      <trkpt lat="47.19954" lon="-1.565">
        <ele>52</ele>
        <time>2022-03-06T11:59:28Z</time>
      </trkpt>
      <trkpt lat="47.19954" lon="-1.56482">
        <ele>52</ele>
        <time>2022-03-06T11:59:30Z</time>
      </trkpt>
      <trkpt lat="47.19956" lon="-1.56465">
        <ele>52</ele>
        <time>2022-03-06T11:59:32Z</time>
      </trkpt>
      <trkpt lat="47.19959" lon="-1.56447">
        <ele>52</ele>
        <time>2022-03-06T11:59:34Z</time>
      </trkpt>
      <trkpt lat="47.19964" lon="-1.5643">
        <ele>52</ele>
        <time>2022-03-06T11:59:36Z</time>
      </trkpt>
      <trkpt lat="47.19968" lon="-1.56413">
        <ele>52</ele>
        <time>2022-03-06T11:59:38Z</time>
      </trkpt>
      <trkpt lat="47.19971" lon="-1.56395">
        <ele>51</ele>
        <time>2022-03-06T11:59:40Z</time>
      </trkpt>
      <trkpt lat="47.19972" lon="-1.56377">
        <ele>52</ele>
        <time>2022-03-06T11:59:42Z</time>
      </trkpt>
      <trkpt lat="47.19972" lon="-1.56358">
        <ele>51</ele>
        <time>2022-03-06T11:59:44Z</time>
      </trkpt>
      <trkpt lat="47.19973" lon="-1.56341">
        <ele>51</ele>
        <time>2022-03-06T11:59:46Z</time>
      </trkpt>
      <trkpt lat="47.19975" lon="-1.56324">
        <ele>51</ele>
        <time>2022-03-06T11:59:48Z</time>
      </trkpt>
      <trkpt lat="47.19977" lon="-1.56306">
        <ele>51</ele>
        <time>2022-03-06T11:59:50Z</time>
      </trkpt>
      <trkpt lat="47.19978" lon="-1.56289">
        <ele>51</ele>
        <time>2022-03-06T11:59:52Z</time>
      </trkpt>
      <trkpt lat="47.19978" lon="-1.56271">
        <ele>51</ele>
        <time>2022-03-06T11:59:54Z</time>
      </trkpt>
      <trkpt lat="47.19977" lon="-1.56254">
        <ele>52</ele>
        <time>2022-03-06T11:59:56Z</time>
      </trkpt>
      <trkpt lat="47.19977" lon="-1.56237">
        <ele>52</ele>
        <time>2022-03-06T11:59:58Z</time>
      </trkpt>
      <trkpt lat="47.19977" lon="-1.56219">
        <ele>52</ele>
        <time>2022-03-06T12:00:00Z</time>
      </trkpt>
      <trkpt lat="47.19977" lon="-1.56203">
        <ele>53</ele>
        <time>2022-03-06T12:00:02Z</time>
      </trkpt>
      <trkpt lat="47.19977" lon="-1.56186">
        <ele>53</ele>
        <time>2022-03-06T12:00:04Z</time>
      </trkpt>
      <trkpt lat="47.19974" lon="-1.56172">
        <ele>53</ele>
        <time>2022-03-06T12:00:06Z</time>
      </trkpt>
      <trkpt lat="47.19965" lon="-1.56166">
        <ele>53</ele>
        <time>2022-03-06T12:00:08Z</time>
      </trkpt>
      <trkpt lat="47.19954" lon="-1.56168">
        <ele>54</ele>
        <time>2022-03-06T12:00:10Z</time>
      </trkpt>
      <trkpt lat="47.19941" lon="-1.56171">
        <ele>55</ele>
        <time>2022-03-06T12:00:12Z</time>
      </trkpt>
      <trkpt lat="47.19929" lon="-1.56173">
        <ele>56</ele>
        <time>2022-03-06T12:00:14Z</time>
      </trkpt>
      <trkpt lat="47.19918" lon="-1.56175">
        <ele>57</ele>
        <time>2022-03-06T12:00:16Z</time>
      </trkpt>
      <trkpt lat="47.19907" lon="-1.56177">
        <ele>57</ele>
        <time>2022-03-06T12:00:18Z</time>
      </trkpt>
      <trkpt lat="47.19895" lon="-1.56179">
        <ele>57</ele>
        <time>2022-03-06T12:00:20Z</time>
      </trkpt>
      <trkpt lat="47.19883" lon="-1.5618">
        <ele>58</ele>
        <time>2022-03-06T12:00:22Z</time>
      </trkpt>
      <trkpt lat="47.19871" lon="-1.56183">
        <ele>58</ele>
        <time>2022-03-06T12:00:24Z</time>
      </trkpt>
      <trkpt lat="47.1986" lon="-1.56185">
        <ele>58</ele>
        <time>2022-03-06T12:00:26Z</time>
      </trkpt>
      <trkpt lat="47.19849" lon="-1.56187">
        <ele>59</ele>
        <time>2022-03-06T12:00:28Z</time>
      </trkpt>
      <trkpt lat="47.19838" lon="-1.56189">
        <ele>59</ele>
        <time>2022-03-06T12:00:30Z</time>
      </trkpt>
      <trkpt lat="47.19827" lon="-1.56191">
        <ele>59</ele>
        <time>2022-03-06T12:00:32Z</time>
      </trkpt>
      <trkpt lat="47.19816" lon="-1.56193">
        <ele>59</ele>
        <time>2022-03-06T12:00:34Z</time>
      </trkpt>
      <trkpt lat="47.19805" lon="-1.56196">
        <ele>59</ele>
        <time>2022-03-06T12:00:36Z</time>
      </trkpt>
      <trkpt lat="47.19793" lon="-1.56198">
        <ele>59</ele>
        <time>2022-03-06T12:00:38Z</time>
      </trkpt>
      <trkpt lat="47.19782" lon="-1.562">
        <ele>59</ele>
        <time>2022-03-06T12:00:40Z</time>
      </trkpt>
      <trkpt lat="47.1977" lon="-1.56202">
        <ele>58</ele>
        <time>2022-03-06T12:00:42Z</time>
      </trkpt>
      <trkpt lat="47.19758" lon="-1.56204">
        <ele>58</ele>
        <time>2022-03-06T12:00:44Z</time>
      </trkpt>
      <trkpt lat="47.19745" lon="-1.56207">
        <ele>58</ele>
        <time>2022-03-06T12:00:46Z</time>
      </trkpt>
      <trkpt lat="47.19731" lon="-1.56209">
        <ele>57</ele>
        <time>2022-03-06T12:00:48Z</time>
      </trkpt>
      <trkpt lat="47.19716" lon="-1.56212">
        <ele>56</ele>
        <time>2022-03-06T12:00:50Z</time>
      </trkpt>
      <trkpt lat="47.197" lon="-1.56215">
        <ele>55</ele>
        <time>2022-03-06T12:00:52Z</time>
      </trkpt>
      <trkpt lat="47.19684" lon="-1.56218">
        <ele>54</ele>
        <time>2022-03-06T12:00:54Z</time>
      </trkpt>
      <trkpt lat="47.19666" lon="-1.56224">
        <ele>53</ele>
        <time>2022-03-06T12:00:56Z</time>
      </trkpt>
      <trkpt lat="47.19649" lon="-1.56229">
        <ele>52</ele>
        <time>2022-03-06T12:00:58Z</time>
      </trkpt>
      <trkpt lat="47.19637" lon="-1.56243">
        <ele>52</ele>
        <time>2022-03-06T12:01:00Z</time>
      </trkpt>
      <trkpt lat="47.19633" lon="-1.56266">
        <ele>52</ele>
        <time>2022-03-06T12:01:02Z</time>
      </trkpt>
      <trkpt lat="47.19633" lon="-1.56288">
        <ele>52</ele>
        <time>2022-03-06T12:01:04Z</time>
      </trkpt>
      <trkpt lat="47.19633" lon="-1.56308">
        <ele>51</ele>
        <time>2022-03-06T12:01:06Z</time>
      </trkpt>
      <trkpt lat="47.19632" lon="-1.56329">
        <ele>51</ele>
        <time>2022-03-06T12:01:08Z</time>
      </trkpt>
      <trkpt lat="47.19631" lon="-1.56348">
        <ele>50</ele>
        <time>2022-03-06T12:01:10Z</time>
      </trkpt>
      <trkpt lat="47.1963" lon="-1.56368">
        <ele>50</ele>
        <time>2022-03-06T12:01:12Z</time>
      </trkpt>
      <trkpt lat="47.19631" lon="-1.56387">
        <ele>50</ele>
        <time>2022-03-06T12:01:14Z</time>
      </trkpt>
      <trkpt lat="47.19631" lon="-1.56406">
        <ele>50</ele>
        <time>2022-03-06T12:01:16Z</time>
      </trkpt>
      <trkpt lat="47.19632" lon="-1.56426">
        <ele>50</ele>
        <time>2022-03-06T12:01:18Z</time>
      </trkpt>
      <trkpt lat="47.19633" lon="-1.56445">
        <ele>50</ele>
        <time>2022-03-06T12:01:20Z</time>
      </trkpt>
      <trkpt lat="47.19633" lon="-1.56464">
        <ele>50</ele>
        <time>2022-03-06T12:01:22Z</time>
      </trkpt>
      <trkpt lat="47.19634" lon="-1.56483">
        <ele>51</ele>
        <time>2022-03-06T12:01:24Z</time>
      </trkpt>
      <trkpt lat="47.19634" lon="-1.56501">
        <ele>50</ele>
        <time>2022-03-06T12:01:26Z</time>
      </trkpt>
      <trkpt lat="47.19634" lon="-1.5652">
        <ele>50</ele>
        <time>2022-03-06T12:01:28Z</time>
      </trkpt>
      <trkpt lat="47.19635" lon="-1.56539">
        <ele>51</ele>
        <time>2022-03-06T12:01:30Z</time>
      </trkpt>
      <trkpt lat="47.19635" lon="-1.56558">
        <ele>51</ele>
        <time>2022-03-06T12:01:32Z</time>
      </trkpt>
      <trkpt lat="47.19634" lon="-1.56577">
        <ele>50</ele>
        <time>2022-03-06T12:01:34Z</time>
      </trkpt>
      <trkpt lat="47.19633" lon="-1.56596">
        <ele>50</ele>
        <time>2022-03-06T12:01:36Z</time>
      </trkpt>
      <trkpt lat="47.19632" lon="-1.56615">
        <ele>50</ele>
        <time>2022-03-06T12:01:38Z</time>
      </trkpt>
      <trkpt lat="47.19632" lon="-1.56634">
        <ele>50</ele>
        <time>2022-03-06T12:01:40Z</time>
      </trkpt>
      <trkpt lat="47.19631" lon="-1.56653">
        <ele>50</ele>
        <time>2022-03-06T12:01:42Z</time>
      </trkpt>
      <trkpt lat="47.19632" lon="-1.56672">
        <ele>50</ele>
        <time>2022-03-06T12:01:44Z</time>
      </trkpt>
      <trkpt lat="47.19632" lon="-1.5669">
        <ele>49</ele>
        <time>2022-03-06T12:01:46Z</time>
      </trkpt>
      <trkpt lat="47.1963" lon="-1.56709">
        <ele>49</ele>
        <time>2022-03-06T12:01:48Z</time>
      </trkpt>
      <trkpt lat="47.1963" lon="-1.56727">
        <ele>49</ele>
        <time>2022-03-06T12:01:50Z</time>
      </trkpt>
      <trkpt lat="47.19627" lon="-1.56746">
        <ele>49</ele>
        <time>2022-03-06T12:01:52Z</time>
      </trkpt>
      <trkpt lat="47.19623" lon="-1.56765">
        <ele>49</ele>
        <time>2022-03-06T12:01:54Z</time>
      </trkpt>
      <trkpt lat="47.19622" lon="-1.56784">
        <ele>49</ele>
        <time>2022-03-06T12:01:56Z</time>
      </trkpt>
      <trkpt lat="47.19621" lon="-1.56802">
        <ele>49</ele>
        <time>2022-03-06T12:01:58Z</time>
      </trkpt>
      <trkpt lat="47.19619" lon="-1.56821">
        <ele>49</ele>
        <time>2022-03-06T12:02:00Z</time>
      </trkpt>
      <trkpt lat="47.19619" lon="-1.56839">
        <ele>49</ele>
        <time>2022-03-06T12:02:02Z</time>
      </trkpt>
      <trkpt lat="47.19619" lon="-1.56857">
        <ele>49</ele>
        <time>2022-03-06T12:02:04Z</time>
      </trkpt>
      <trkpt lat="47.19618" lon="-1.56875">
        <ele>49</ele>
        <time>2022-03-06T12:02:06Z</time>
      </trkpt>
      <trkpt lat="47.19616" lon="-1.56892">
        <ele>49</ele>
        <time>2022-03-06T12:02:08Z</time>
      </trkpt>
      <trkpt lat="47.19615" lon="-1.5691">
        <ele>49</ele>
        <time>2022-03-06T12:02:10Z</time>
      </trkpt>
      <trkpt lat="47.19613" lon="-1.56928">
        <ele>50</ele>
        <time>2022-03-06T12:02:12Z</time>
      </trkpt>
      <trkpt lat="47.19611" lon="-1.56946">
        <ele>49</ele>
        <time>2022-03-06T12:02:14Z</time>
      </trkpt>
      <trkpt lat="47.19609" lon="-1.56964">
        <ele>49</ele>
        <time>2022-03-06T12:02:16Z</time>
      </trkpt>
      <trkpt lat="47.19607" lon="-1.56983">
        <ele>49</ele>
        <time>2022-03-06T12:02:18Z</time>
      </trkpt>
      <trkpt lat="47.19606" lon="-1.57001">
        <ele>49</ele>
        <time>2022-03-06T12:02:20Z</time>
      </trkpt>
      <trkpt lat="47.19605" lon="-1.5702">
        <ele>49</ele>
        <time>2022-03-06T12:02:22Z</time>
      </trkpt>
      <trkpt lat="47.19605" lon="-1.57038">
        <ele>49</ele>
        <time>2022-03-06T12:02:24Z</time>
      </trkpt>
      <trkpt lat="47.19604" lon="-1.57058">
        <ele>49</ele>
        <time>2022-03-06T12:02:26Z</time>
      </trkpt>
      <trkpt lat="47.19603" lon="-1.57077">
        <ele>49</ele>
        <time>2022-03-06T12:02:28Z</time>
      </trkpt>
      <trkpt lat="47.19602" lon="-1.57094">
        <ele>49</ele>
        <time>2022-03-06T12:02:30Z</time>
      </trkpt>
      <trkpt lat="47.19601" lon="-1.57111">
        <ele>49</ele>
        <time>2022-03-06T12:02:32Z</time>
      </trkpt>
      <trkpt lat="47.196" lon="-1.57128">
        <ele>49</ele>
        <time>2022-03-06T12:02:34Z</time>
      </trkpt>
      <trkpt lat="47.19599" lon="-1.57145">
        <ele>49</ele>
        <time>2022-03-06T12:02:36Z</time>
      </trkpt>
      <trkpt lat="47.19598" lon="-1.57163">
        <ele>49</ele>
        <time>2022-03-06T12:02:38Z</time>
      </trkpt>
      <trkpt lat="47.19597" lon="-1.57181">
        <ele>49</ele>
        <time>2022-03-06T12:02:40Z</time>
      </trkpt>
      <trkpt lat="47.19596" lon="-1.57199">
        <ele>49</ele>
        <time>2022-03-06T12:02:42Z</time>
      </trkpt>
      <trkpt lat="47.19594" lon="-1.57218">
        <ele>49</ele>
        <time>2022-03-06T12:02:44Z</time>
      </trkpt>
      <trkpt lat="47.19592" lon="-1.57245">
        <ele>49</ele>
        <time>2022-03-06T12:02:47Z</time>
      </trkpt>
      <trkpt lat="47.19591" lon="-1.57263">
        <ele>48</ele>
        <time>2022-03-06T12:02:49Z</time>
      </trkpt>
      <trkpt lat="47.1959" lon="-1.57281">
        <ele>49</ele>
        <time>2022-03-06T12:02:51Z</time>
      </trkpt>
      <trkpt lat="47.19589" lon="-1.57298">
        <ele>50</ele>
        <time>2022-03-06T12:02:53Z</time>
      </trkpt>
      <trkpt lat="47.19587" lon="-1.57316">
        <ele>50</ele>
        <time>2022-03-06T12:02:55Z</time>
      </trkpt>
      <trkpt lat="47.19585" lon="-1.57333">
        <ele>49</ele>
        <time>2022-03-06T12:02:57Z</time>
      </trkpt>
      <trkpt lat="47.19581" lon="-1.57349">
        <ele>49</ele>
        <time>2022-03-06T12:02:59Z</time>
      </trkpt>
      <trkpt lat="47.19577" lon="-1.57366">
        <ele>49</ele>
        <time>2022-03-06T12:03:01Z</time>
      </trkpt>
      <trkpt lat="47.19574" lon="-1.57383">
        <ele>50</ele>
        <time>2022-03-06T12:03:03Z</time>
      </trkpt>
      <trkpt lat="47.19568" lon="-1.5741">
        <ele>50</ele>
        <time>2022-03-06T12:03:06Z</time>
      </trkpt>
      <trkpt lat="47.19564" lon="-1.57428">
        <ele>50</ele>
        <time>2022-03-06T12:03:08Z</time>
      </trkpt>
      <trkpt lat="47.19559" lon="-1.57454">
        <ele>51</ele>
        <time>2022-03-06T12:03:11Z</time>
      </trkpt>
      <trkpt lat="47.19556" lon="-1.57471">
        <ele>50</ele>
        <time>2022-03-06T12:03:13Z</time>
      </trkpt>
      <trkpt lat="47.19553" lon="-1.57489">
        <ele>50</ele>
        <time>2022-03-06T12:03:15Z</time>
      </trkpt>
      <trkpt lat="47.1955" lon="-1.57508">
        <ele>50</ele>
        <time>2022-03-06T12:03:17Z</time>
      </trkpt>
      <trkpt lat="47.19546" lon="-1.57525">
        <ele>50</ele>
        <time>2022-03-06T12:03:19Z</time>
      </trkpt>
      <trkpt lat="47.19542" lon="-1.57543">
        <ele>50</ele>
        <time>2022-03-06T12:03:21Z</time>
      </trkpt>
      <trkpt lat="47.19539" lon="-1.57561">
        <ele>50</ele>
        <time>2022-03-06T12:03:23Z</time>
      </trkpt>
      <trkpt lat="47.19535" lon="-1.57579">
        <ele>50</ele>
        <time>2022-03-06T12:03:25Z</time>
      </trkpt>
      <trkpt lat="47.19532" lon="-1.57596">
        <ele>50</ele>
        <time>2022-03-06T12:03:27Z</time>
      </trkpt>
      <trkpt lat="47.19528" lon="-1.57613">
        <ele>49</ele>
        <time>2022-03-06T12:03:29Z</time>
      </trkpt>
      <trkpt lat="47.19524" lon="-1.57631">
        <ele>49</ele>
        <time>2022-03-06T12:03:31Z</time>
      </trkpt>
      <trkpt lat="47.19521" lon="-1.57649">
        <ele>49</ele>
        <time>2022-03-06T12:03:33Z</time>
      </trkpt>
      <trkpt lat="47.19517" lon="-1.57666">
        <ele>49</ele>
        <time>2022-03-06T12:03:35Z</time>
      </trkpt>
      <trkpt lat="47.19514" lon="-1.57684">
        <ele>48</ele>
        <time>2022-03-06T12:03:37Z</time>
      </trkpt>
      <trkpt lat="47.1951" lon="-1.57703">
        <ele>48</ele>
        <time>2022-03-06T12:03:39Z</time>
      </trkpt>
      <trkpt lat="47.19506" lon="-1.57719">
        <ele>48</ele>
        <time>2022-03-06T12:03:41Z</time>
      </trkpt>
      <trkpt lat="47.19503" lon="-1.57737">
        <ele>48</ele>
        <time>2022-03-06T12:03:43Z</time>
      </trkpt>
      <trkpt lat="47.195" lon="-1.57754">
        <ele>48</ele>
        <time>2022-03-06T12:03:45Z</time>
      </trkpt>
      <trkpt lat="47.19496" lon="-1.57772">
        <ele>48</ele>
        <time>2022-03-06T12:03:47Z</time>
      </trkpt>
      <trkpt lat="47.19492" lon="-1.5779">
        <ele>48</ele>
        <time>2022-03-06T12:03:49Z</time>
      </trkpt>
      <trkpt lat="47.19488" lon="-1.57807">
        <ele>48</ele>
        <time>2022-03-06T12:03:51Z</time>
      </trkpt>
      <trkpt lat="47.19484" lon="-1.57824">
        <ele>49</ele>
        <time>2022-03-06T12:03:53Z</time>
      </trkpt>
      <trkpt lat="47.19482" lon="-1.5784">
        <ele>49</ele>
        <time>2022-03-06T12:03:55Z</time>
      </trkpt>
      <trkpt lat="47.19482" lon="-1.57855">
        <ele>49</ele>
        <time>2022-03-06T12:03:57Z</time>
      </trkpt>
      <trkpt lat="47.1948" lon="-1.57871">
        <ele>49</ele>
        <time>2022-03-06T12:03:59Z</time>
      </trkpt>
      <trkpt lat="47.19476" lon="-1.57886">
        <ele>49</ele>
        <time>2022-03-06T12:04:01Z</time>
      </trkpt>
      <trkpt lat="47.19472" lon="-1.57901">
        <ele>49</ele>
        <time>2022-03-06T12:04:03Z</time>
      </trkpt>
      <trkpt lat="47.19471" lon="-1.57916">
        <ele>49</ele>
        <time>2022-03-06T12:04:05Z</time>
      </trkpt>
      <trkpt lat="47.1947" lon="-1.5793">
        <ele>49</ele>
        <time>2022-03-06T12:04:07Z</time>
      </trkpt>
      <trkpt lat="47.19469" lon="-1.57946">
        <ele>49</ele>
        <time>2022-03-06T12:04:10Z</time>
      </trkpt>
      <trkpt lat="47.19467" lon="-1.57962">
        <ele>48</ele>
        <time>2022-03-06T12:04:14Z</time>
      </trkpt>
      <trkpt lat="47.19467" lon="-1.57976">
        <ele>48</ele>
        <time>2022-03-06T12:04:17Z</time>
      </trkpt>
      <trkpt lat="47.19465" lon="-1.57994">
        <ele>49</ele>
        <time>2022-03-06T12:04:20Z</time>
      </trkpt>
      <trkpt lat="47.19464" lon="-1.58008">
        <ele>48</ele>
        <time>2022-03-06T12:04:22Z</time>
      </trkpt>
      <trkpt lat="47.19463" lon="-1.58022">
        <ele>49</ele>
        <time>2022-03-06T12:04:24Z</time>
      </trkpt>
      <trkpt lat="47.19462" lon="-1.58036">
        <ele>49</ele>
        <time>2022-03-06T12:04:26Z</time>
      </trkpt>
      <trkpt lat="47.1946" lon="-1.58055">
        <ele>49</ele>
        <time>2022-03-06T12:04:29Z</time>
      </trkpt>
      <trkpt lat="47.19459" lon="-1.5807">
        <ele>48</ele>
        <time>2022-03-06T12:04:32Z</time>
      </trkpt>
      <trkpt lat="47.19458" lon="-1.58086">
        <ele>49</ele>
        <time>2022-03-06T12:04:36Z</time>
      </trkpt>
      <trkpt lat="47.19451" lon="-1.581">
        <ele>48</ele>
        <time>2022-03-06T12:04:39Z</time>
      </trkpt>
      <trkpt lat="47.19442" lon="-1.5811">
        <ele>49</ele>
        <time>2022-03-06T12:04:45Z</time>
      </trkpt>
      <trkpt lat="47.19434" lon="-1.58117">
        <ele>49</ele>
        <time>2022-03-06T12:04:48Z</time>
      </trkpt>
      <trkpt lat="47.19426" lon="-1.58128">
        <ele>48</ele>
        <time>2022-03-06T12:04:50Z</time>
      </trkpt>
      <trkpt lat="47.19417" lon="-1.58139">
        <ele>49</ele>
        <time>2022-03-06T12:04:52Z</time>
      </trkpt>
      <trkpt lat="47.19407" lon="-1.58151">
        <ele>49</ele>
        <time>2022-03-06T12:04:54Z</time>
      </trkpt>
      <trkpt lat="47.19401" lon="-1.58161">
        <ele>49</ele>
        <time>2022-03-06T12:04:56Z</time>
      </trkpt>
      <trkpt lat="47.19395" lon="-1.58173">
        <ele>50</ele>
        <time>2022-03-06T12:05:00Z</time>
      </trkpt>
      <trkpt lat="47.19391" lon="-1.58185">
        <ele>50</ele>
        <time>2022-03-06T12:05:03Z</time>
      </trkpt>
      <trkpt lat="47.19386" lon="-1.58198">
        <ele>50</ele>
        <time>2022-03-06T12:05:06Z</time>
      </trkpt>
      <trkpt lat="47.19378" lon="-1.58215">
        <ele>50</ele>
        <time>2022-03-06T12:05:09Z</time>
      </trkpt>
      <trkpt lat="47.19374" lon="-1.58227">
        <ele>50</ele>
        <time>2022-03-06T12:05:11Z</time>
      </trkpt>
      <trkpt lat="47.1937" lon="-1.58239">
        <ele>49</ele>
        <time>2022-03-06T12:05:13Z</time>
      </trkpt>
      <trkpt lat="47.19364" lon="-1.58252">
        <ele>49</ele>
        <time>2022-03-06T12:05:15Z</time>
      </trkpt>
      <trkpt lat="47.19358" lon="-1.58266">
        <ele>49</ele>
        <time>2022-03-06T12:05:17Z</time>
      </trkpt>
      <trkpt lat="47.1935" lon="-1.58281">
        <ele>49</ele>
        <time>2022-03-06T12:05:19Z</time>
      </trkpt>
      <trkpt lat="47.19339" lon="-1.58291">
        <ele>49</ele>
        <time>2022-03-06T12:05:21Z</time>
      </trkpt>
      <trkpt lat="47.19329" lon="-1.58301">
        <ele>50</ele>
        <time>2022-03-06T12:05:23Z</time>
      </trkpt>
      <trkpt lat="47.19318" lon="-1.58311">
        <ele>50</ele>
        <time>2022-03-06T12:05:25Z</time>
      </trkpt>
      <trkpt lat="47.19308" lon="-1.5832">
        <ele>50</ele>
        <time>2022-03-06T12:05:27Z</time>
      </trkpt>
      <trkpt lat="47.19297" lon="-1.58329">
        <ele>50</ele>
        <time>2022-03-06T12:05:29Z</time>
      </trkpt>
      <trkpt lat="47.19286" lon="-1.58339">
        <ele>50</ele>
        <time>2022-03-06T12:05:31Z</time>
      </trkpt>
      <trkpt lat="47.19276" lon="-1.5835">
        <ele>49</ele>
        <time>2022-03-06T12:05:33Z</time>
      </trkpt>
      <trkpt lat="47.19266" lon="-1.5836">
        <ele>49</ele>
        <time>2022-03-06T12:05:35Z</time>
      </trkpt>
      <trkpt lat="47.19255" lon="-1.58371">
        <ele>49</ele>
        <time>2022-03-06T12:05:37Z</time>
      </trkpt>
      <trkpt lat="47.19245" lon="-1.5838">
        <ele>49</ele>
        <time>2022-03-06T12:05:39Z</time>
      </trkpt>
      <trkpt lat="47.19234" lon="-1.5839">
        <ele>49</ele>
        <time>2022-03-06T12:05:41Z</time>
      </trkpt>
      <trkpt lat="47.19223" lon="-1.584">
        <ele>49</ele>
        <time>2022-03-06T12:05:43Z</time>
      </trkpt>
      <trkpt lat="47.19212" lon="-1.5841">
        <ele>50</ele>
        <time>2022-03-06T12:05:45Z</time>
      </trkpt>
      <trkpt lat="47.19201" lon="-1.5842">
        <ele>50</ele>
        <time>2022-03-06T12:05:47Z</time>
      </trkpt>
      <trkpt lat="47.1919" lon="-1.5843">
        <ele>51</ele>
        <time>2022-03-06T12:05:49Z</time>
      </trkpt>
      <trkpt lat="47.1918" lon="-1.5844">
        <ele>51</ele>
        <time>2022-03-06T12:05:51Z</time>
      </trkpt>
      <trkpt lat="47.1917" lon="-1.58451">
        <ele>51</ele>
        <time>2022-03-06T12:05:53Z</time>
      </trkpt>
      <trkpt lat="47.1916" lon="-1.58461">
        <ele>51</ele>
        <time>2022-03-06T12:05:55Z</time>
      </trkpt>
      <trkpt lat="47.1915" lon="-1.58471">
        <ele>51</ele>
        <time>2022-03-06T12:05:57Z</time>
      </trkpt>
      <trkpt lat="47.1914" lon="-1.58481">
        <ele>51</ele>
        <time>2022-03-06T12:05:59Z</time>
      </trkpt>
      <trkpt lat="47.19129" lon="-1.58491">
        <ele>51</ele>
        <time>2022-03-06T12:06:01Z</time>
      </trkpt>
      <trkpt lat="47.19117" lon="-1.58501">
        <ele>51</ele>
        <time>2022-03-06T12:06:03Z</time>
      </trkpt>
      <trkpt lat="47.19106" lon="-1.58511">
        <ele>51</ele>
        <time>2022-03-06T12:06:05Z</time>
      </trkpt>
      <trkpt lat="47.19095" lon="-1.58522">
        <ele>50</ele>
        <time>2022-03-06T12:06:07Z</time>
      </trkpt>
      <trkpt lat="47.19085" lon="-1.58532">
        <ele>50</ele>
        <time>2022-03-06T12:06:09Z</time>
      </trkpt>
      <trkpt lat="47.19074" lon="-1.58542">
        <ele>51</ele>
        <time>2022-03-06T12:06:11Z</time>
      </trkpt>
      <trkpt lat="47.19064" lon="-1.58553">
        <ele>51</ele>
        <time>2022-03-06T12:06:13Z</time>
      </trkpt>
      <trkpt lat="47.19054" lon="-1.58564">
        <ele>51</ele>
        <time>2022-03-06T12:06:15Z</time>
      </trkpt>
      <trkpt lat="47.19044" lon="-1.58575">
        <ele>51</ele>
        <time>2022-03-06T12:06:17Z</time>
      </trkpt>
      <trkpt lat="47.19034" lon="-1.58586">
        <ele>51</ele>
        <time>2022-03-06T12:06:19Z</time>
      </trkpt>
      <trkpt lat="47.19024" lon="-1.58597">
        <ele>50</ele>
        <time>2022-03-06T12:06:21Z</time>
      </trkpt>
      <trkpt lat="47.19014" lon="-1.58607">
        <ele>51</ele>
        <time>2022-03-06T12:06:23Z</time>
      </trkpt>
      <trkpt lat="47.19003" lon="-1.58617">
        <ele>51</ele>
        <time>2022-03-06T12:06:25Z</time>
      </trkpt>
      <trkpt lat="47.18993" lon="-1.58627">
        <ele>51</ele>
        <time>2022-03-06T12:06:27Z</time>
      </trkpt>
      <trkpt lat="47.18982" lon="-1.58637">
        <ele>51</ele>
        <time>2022-03-06T12:06:29Z</time>
      </trkpt>
      <trkpt lat="47.18972" lon="-1.58648">
        <ele>52</ele>
        <time>2022-03-06T12:06:31Z</time>
      </trkpt>
      <trkpt lat="47.18961" lon="-1.58658">
        <ele>51</ele>
        <time>2022-03-06T12:06:33Z</time>
      </trkpt>
      <trkpt lat="47.18951" lon="-1.58668">
        <ele>51</ele>
        <time>2022-03-06T12:06:35Z</time>
      </trkpt>
      <trkpt lat="47.1894" lon="-1.58678">
        <ele>51</ele>
        <time>2022-03-06T12:06:37Z</time>
      </trkpt>
      <trkpt lat="47.18929" lon="-1.58688">
        <ele>51</ele>
        <time>2022-03-06T12:06:39Z</time>
      </trkpt>
      <trkpt lat="47.18918" lon="-1.58698">
        <ele>51</ele>
        <time>2022-03-06T12:06:41Z</time>
      </trkpt>
      <trkpt lat="47.18907" lon="-1.58707">
        <ele>51</ele>
        <time>2022-03-06T12:06:43Z</time>
      </trkpt>
      <trkpt lat="47.18897" lon="-1.58715">
        <ele>51</ele>
        <time>2022-03-06T12:06:45Z</time>
      </trkpt>
      <trkpt lat="47.18886" lon="-1.58721">
        <ele>51</ele>
        <time>2022-03-06T12:06:47Z</time>
      </trkpt>
      <trkpt lat="47.18875" lon="-1.58728">
        <ele>51</ele>
        <time>2022-03-06T12:06:49Z</time>
      </trkpt>
      <trkpt lat="47.18865" lon="-1.58734">
        <ele>51</ele>
        <time>2022-03-06T12:06:51Z</time>
      </trkpt>
      <trkpt lat="47.18854" lon="-1.58738">
        <ele>51</ele>
        <time>2022-03-06T12:06:53Z</time>
      </trkpt>
      <trkpt lat="47.18843" lon="-1.58744">
        <ele>51</ele>
        <time>2022-03-06T12:06:55Z</time>
      </trkpt>
      <trkpt lat="47.18834" lon="-1.58753">
        <ele>52</ele>
        <time>2022-03-06T12:06:57Z</time>
      </trkpt>
      <trkpt lat="47.18832" lon="-1.5877">
        <ele>52</ele>
        <time>2022-03-06T12:06:59Z</time>
      </trkpt>
      <trkpt lat="47.18826" lon="-1.58786">
        <ele>52</ele>
        <time>2022-03-06T12:07:01Z</time>
      </trkpt>
      <trkpt lat="47.18817" lon="-1.58799">
        <ele>52</ele>
        <time>2022-03-06T12:07:03Z</time>
      </trkpt>
      <trkpt lat="47.18806" lon="-1.58808">
        <ele>52</ele>
        <time>2022-03-06T12:07:05Z</time>
      </trkpt>
      <trkpt lat="47.18795" lon="-1.58814">
        <ele>53</ele>
        <time>2022-03-06T12:07:07Z</time>
      </trkpt>
      <trkpt lat="47.18788" lon="-1.5883">
        <ele>53</ele>
        <time>2022-03-06T12:07:09Z</time>
      </trkpt>
      <trkpt lat="47.18784" lon="-1.58849">
        <ele>52</ele>
        <time>2022-03-06T12:07:11Z</time>
      </trkpt>
      <trkpt lat="47.18781" lon="-1.58868">
        <ele>52</ele>
        <time>2022-03-06T12:07:13Z</time>
      </trkpt>
      <trkpt lat="47.18777" lon="-1.58888">
        <ele>52</ele>
        <time>2022-03-06T12:07:15Z</time>
      </trkpt>
      <trkpt lat="47.18775" lon="-1.58909">
        <ele>52</ele>
        <time>2022-03-06T12:07:17Z</time>
      </trkpt>
      <trkpt lat="47.18772" lon="-1.5893">
        <ele>52</ele>
        <time>2022-03-06T12:07:19Z</time>
      </trkpt>
      <trkpt lat="47.1877" lon="-1.58951">
        <ele>52</ele>
        <time>2022-03-06T12:07:21Z</time>
      </trkpt>
      <trkpt lat="47.18767" lon="-1.58972">
        <ele>52</ele>
        <time>2022-03-06T12:07:23Z</time>
      </trkpt>
      <trkpt lat="47.18765" lon="-1.58993">
        <ele>52</ele>
        <time>2022-03-06T12:07:25Z</time>
      </trkpt>
      <trkpt lat="47.18762" lon="-1.59014">
        <ele>52</ele>
        <time>2022-03-06T12:07:27Z</time>
      </trkpt>
      <trkpt lat="47.1876" lon="-1.59035">
        <ele>53</ele>
        <time>2022-03-06T12:07:29Z</time>
      </trkpt>
      <trkpt lat="47.18757" lon="-1.59056">
        <ele>52</ele>
        <time>2022-03-06T12:07:31Z</time>
      </trkpt>
      <trkpt lat="47.18756" lon="-1.59076">
        <ele>53</ele>
        <time>2022-03-06T12:07:33Z</time>
      </trkpt>
      <trkpt lat="47.18753" lon="-1.59098">
        <ele>53</ele>
        <time>2022-03-06T12:07:35Z</time>
      </trkpt>
      <trkpt lat="47.18751" lon="-1.59119">
        <ele>52</ele>
        <time>2022-03-06T12:07:37Z</time>
      </trkpt>
      <trkpt lat="47.18749" lon="-1.5914">
        <ele>52</ele>
        <time>2022-03-06T12:07:39Z</time>
      </trkpt>
      <trkpt lat="47.18747" lon="-1.59161">
        <ele>52</ele>
        <time>2022-03-06T12:07:41Z</time>
      </trkpt>
      <trkpt lat="47.18744" lon="-1.59182">
        <ele>52</ele>
        <time>2022-03-06T12:07:43Z</time>
      </trkpt>
      <trkpt lat="47.18742" lon="-1.59203">
        <ele>52</ele>
        <time>2022-03-06T12:07:45Z</time>
      </trkpt>
      <trkpt lat="47.18739" lon="-1.59224">
        <ele>52</ele>
        <time>2022-03-06T12:07:47Z</time>
      </trkpt>
      <trkpt lat="47.18737" lon="-1.59245">
        <ele>52</ele>
        <time>2022-03-06T12:07:49Z</time>
      </trkpt>
      <trkpt lat="47.18735" lon="-1.59266">
        <ele>52</ele>
        <time>2022-03-06T12:07:51Z</time>
      </trkpt>
      <trkpt lat="47.18732" lon="-1.59287">
        <ele>52</ele>
        <time>2022-03-06T12:07:53Z</time>
      </trkpt>
      <trkpt lat="47.1873" lon="-1.59307">
        <ele>52</ele>
        <time>2022-03-06T12:07:55Z</time>
      </trkpt>
      <trkpt lat="47.18728" lon="-1.59328">
        <ele>52</ele>
        <time>2022-03-06T12:07:57Z</time>
      </trkpt>
      <trkpt lat="47.18726" lon="-1.59349">
        <ele>52</ele>
        <time>2022-03-06T12:07:59Z</time>
      </trkpt>
      <trkpt lat="47.18724" lon="-1.5937">
        <ele>52</ele>
        <time>2022-03-06T12:08:01Z</time>
      </trkpt>
      <trkpt lat="47.18722" lon="-1.59391">
        <ele>52</ele>
        <time>2022-03-06T12:08:03Z</time>
      </trkpt>
      <trkpt lat="47.1872" lon="-1.59411">
        <ele>52</ele>
        <time>2022-03-06T12:08:05Z</time>
      </trkpt>
      <trkpt lat="47.18717" lon="-1.59432">
        <ele>52</ele>
        <time>2022-03-06T12:08:07Z</time>
      </trkpt>
      <trkpt lat="47.18715" lon="-1.59452">
        <ele>52</ele>
        <time>2022-03-06T12:08:09Z</time>
      </trkpt>
      <trkpt lat="47.18713" lon="-1.59472">
        <ele>52</ele>
        <time>2022-03-06T12:08:11Z</time>
      </trkpt>
      <trkpt lat="47.1871" lon="-1.59493">
        <ele>52</ele>
        <time>2022-03-06T12:08:13Z</time>
      </trkpt>
      <trkpt lat="47.18708" lon="-1.59513">
        <ele>52</ele>
        <time>2022-03-06T12:08:15Z</time>
      </trkpt>
      <trkpt lat="47.18706" lon="-1.59533">
        <ele>52</ele>
        <time>2022-03-06T12:08:17Z</time>
      </trkpt>
      <trkpt lat="47.18703" lon="-1.59554">
        <ele>53</ele>
        <time>2022-03-06T12:08:19Z</time>
      </trkpt>
      <trkpt lat="47.18701" lon="-1.59574">
        <ele>53</ele>
        <time>2022-03-06T12:08:21Z</time>
      </trkpt>
      <trkpt lat="47.18699" lon="-1.59596">
        <ele>53</ele>
        <time>2022-03-06T12:08:23Z</time>
      </trkpt>
      <trkpt lat="47.18696" lon="-1.59617">
        <ele>53</ele>
        <time>2022-03-06T12:08:25Z</time>
      </trkpt>
      <trkpt lat="47.18693" lon="-1.59638">
        <ele>53</ele>
        <time>2022-03-06T12:08:27Z</time>
      </trkpt>
      <trkpt lat="47.1869" lon="-1.59659">
        <ele>53</ele>
        <time>2022-03-06T12:08:29Z</time>
      </trkpt>
      <trkpt lat="47.18687" lon="-1.59679">
        <ele>53</ele>
        <time>2022-03-06T12:08:31Z</time>
      </trkpt>
      <trkpt lat="47.18685" lon="-1.597">
        <ele>52</ele>
        <time>2022-03-06T12:08:33Z</time>
      </trkpt>
      <trkpt lat="47.18683" lon="-1.5972">
        <ele>53</ele>
        <time>2022-03-06T12:08:35Z</time>
      </trkpt>
      <trkpt lat="47.18683" lon="-1.59739">
        <ele>52</ele>
        <time>2022-03-06T12:08:37Z</time>
      </trkpt>
      <trkpt lat="47.18683" lon="-1.59756">
        <ele>52</ele>
        <time>2022-03-06T12:08:39Z</time>
      </trkpt>
      <trkpt lat="47.18686" lon="-1.59774">
        <ele>52</ele>
        <time>2022-03-06T12:08:41Z</time>
      </trkpt>
      <trkpt lat="47.18685" lon="-1.59795">
        <ele>52</ele>
        <time>2022-03-06T12:08:43Z</time>
      </trkpt>
      <trkpt lat="47.18682" lon="-1.59816">
        <ele>52</ele>
        <time>2022-03-06T12:08:45Z</time>
      </trkpt>
      <trkpt lat="47.18674" lon="-1.59833">
        <ele>52</ele>
        <time>2022-03-06T12:08:47Z</time>
      </trkpt>
      <trkpt lat="47.18663" lon="-1.59843">
        <ele>53</ele>
        <time>2022-03-06T12:08:49Z</time>
      </trkpt>
      <trkpt lat="47.1865" lon="-1.59846">
        <ele>53</ele>
        <time>2022-03-06T12:08:51Z</time>
      </trkpt>
      <trkpt lat="47.18638" lon="-1.5984">
        <ele>52</ele>
        <time>2022-03-06T12:08:53Z</time>
      </trkpt>
      <trkpt lat="47.18627" lon="-1.59832">
        <ele>52</ele>
        <time>2022-03-06T12:08:55Z</time>
      </trkpt>
      <trkpt lat="47.18618" lon="-1.59835">
        <ele>51</ele>
        <time>2022-03-06T12:08:57Z</time>
      </trkpt>
      <trkpt lat="47.18618" lon="-1.59852">
        <ele>51</ele>
        <time>2022-03-06T12:08:59Z</time>
      </trkpt>
      <trkpt lat="47.18622" lon="-1.59867">
        <ele>51</ele>
        <time>2022-03-06T12:09:01Z</time>
      </trkpt>
      <trkpt lat="47.1862" lon="-1.59884">
        <ele>52</ele>
        <time>2022-03-06T12:09:03Z</time>
      </trkpt>
      <trkpt lat="47.18615" lon="-1.59903">
        <ele>52</ele>
        <time>2022-03-06T12:09:05Z</time>
      </trkpt>
      <trkpt lat="47.18609" lon="-1.59921">
        <ele>52</ele>
        <time>2022-03-06T12:09:07Z</time>
      </trkpt>
      <trkpt lat="47.18604" lon="-1.59939">
        <ele>52</ele>
        <time>2022-03-06T12:09:09Z</time>
      </trkpt>
      <trkpt lat="47.18599" lon="-1.59958">
        <ele>52</ele>
        <time>2022-03-06T12:09:11Z</time>
      </trkpt>
      <trkpt lat="47.18594" lon="-1.59975">
        <ele>52</ele>
        <time>2022-03-06T12:09:13Z</time>
      </trkpt>
      <trkpt lat="47.18588" lon="-1.59993">
        <ele>52</ele>
        <time>2022-03-06T12:09:15Z</time>
      </trkpt>
      <trkpt lat="47.18583" lon="-1.60011">
        <ele>52</ele>
        <time>2022-03-06T12:09:17Z</time>
      </trkpt>
      <trkpt lat="47.18577" lon="-1.60029">
        <ele>52</ele>
        <time>2022-03-06T12:09:19Z</time>
      </trkpt>
      <trkpt lat="47.1857" lon="-1.60046">
        <ele>52</ele>
        <time>2022-03-06T12:09:21Z</time>
      </trkpt>
      <trkpt lat="47.18564" lon="-1.60065">
        <ele>52</ele>
        <time>2022-03-06T12:09:23Z</time>
      </trkpt>
      <trkpt lat="47.18557" lon="-1.60082">
        <ele>52</ele>
        <time>2022-03-06T12:09:25Z</time>
      </trkpt>
      <trkpt lat="47.1855" lon="-1.60099">
        <ele>52</ele>
        <time>2022-03-06T12:09:27Z</time>
      </trkpt>
      <trkpt lat="47.18543" lon="-1.60115">
        <ele>52</ele>
        <time>2022-03-06T12:09:29Z</time>
      </trkpt>
      <trkpt lat="47.18536" lon="-1.60132">
        <ele>52</ele>
        <time>2022-03-06T12:09:31Z</time>
      </trkpt>
      <trkpt lat="47.18528" lon="-1.60149">
        <ele>52</ele>
        <time>2022-03-06T12:09:33Z</time>
      </trkpt>
      <trkpt lat="47.1852" lon="-1.60166">
        <ele>52</ele>
        <time>2022-03-06T12:09:35Z</time>
      </trkpt>
      <trkpt lat="47.18512" lon="-1.60182">
        <ele>52</ele>
        <time>2022-03-06T12:09:37Z</time>
      </trkpt>
      <trkpt lat="47.18504" lon="-1.60199">
        <ele>52</ele>
        <time>2022-03-06T12:09:39Z</time>
      </trkpt>
      <trkpt lat="47.18496" lon="-1.60215">
        <ele>52</ele>
        <time>2022-03-06T12:09:41Z</time>
      </trkpt>
      <trkpt lat="47.18487" lon="-1.60231">
        <ele>52</ele>
        <time>2022-03-06T12:09:43Z</time>
      </trkpt>
      <trkpt lat="47.18479" lon="-1.60247">
        <ele>52</ele>
        <time>2022-03-06T12:09:45Z</time>
      </trkpt>
      <trkpt lat="47.18471" lon="-1.60263">
        <ele>52</ele>
        <time>2022-03-06T12:09:47Z</time>
      </trkpt>
      <trkpt lat="47.18462" lon="-1.60278">
        <ele>52</ele>
        <time>2022-03-06T12:09:49Z</time>
      </trkpt>
      <trkpt lat="47.18453" lon="-1.60293">
        <ele>53</ele>
        <time>2022-03-06T12:09:51Z</time>
      </trkpt>
      <trkpt lat="47.18444" lon="-1.60308">
        <ele>53</ele>
        <time>2022-03-06T12:09:53Z</time>
      </trkpt>
      <trkpt lat="47.18435" lon="-1.60323">
        <ele>52</ele>
        <time>2022-03-06T12:09:55Z</time>
      </trkpt>
      <trkpt lat="47.18426" lon="-1.60337">
        <ele>52</ele>
        <time>2022-03-06T12:09:57Z</time>
      </trkpt>
      <trkpt lat="47.18417" lon="-1.60351">
        <ele>52</ele>
        <time>2022-03-06T12:09:59Z</time>
      </trkpt>
      <trkpt lat="47.18407" lon="-1.60364">
        <ele>52</ele>
        <time>2022-03-06T12:10:01Z</time>
      </trkpt>
      <trkpt lat="47.18397" lon="-1.60378">
        <ele>52</ele>
        <time>2022-03-06T12:10:03Z</time>
      </trkpt>
      <trkpt lat="47.18387" lon="-1.60391">
        <ele>52</ele>
        <time>2022-03-06T12:10:05Z</time>
      </trkpt>
      <trkpt lat="47.18376" lon="-1.60405">
        <ele>52</ele>
        <time>2022-03-06T12:10:07Z</time>
      </trkpt>
      <trkpt lat="47.18366" lon="-1.60418">
        <ele>51</ele>
        <time>2022-03-06T12:10:09Z</time>
      </trkpt>
      <trkpt lat="47.18356" lon="-1.60431">
        <ele>51</ele>
        <time>2022-03-06T12:10:11Z</time>
      </trkpt>
      <trkpt lat="47.18346" lon="-1.60444">
        <ele>51</ele>
        <time>2022-03-06T12:10:13Z</time>
      </trkpt>
      <trkpt lat="47.18336" lon="-1.60457">
        <ele>52</ele>
        <time>2022-03-06T12:10:15Z</time>
      </trkpt>
      <trkpt lat="47.18326" lon="-1.6047">
        <ele>51</ele>
        <time>2022-03-06T12:10:17Z</time>
      </trkpt>
      <trkpt lat="47.18315" lon="-1.60481">
        <ele>52</ele>
        <time>2022-03-06T12:10:19Z</time>
      </trkpt>
      <trkpt lat="47.18304" lon="-1.60493">
        <ele>52</ele>
        <time>2022-03-06T12:10:21Z</time>
      </trkpt>
      <trkpt lat="47.18294" lon="-1.60505">
        <ele>52</ele>
        <time>2022-03-06T12:10:23Z</time>
      </trkpt>
      <trkpt lat="47.18283" lon="-1.60516">
        <ele>52</ele>
        <time>2022-03-06T12:10:25Z</time>
      </trkpt>
      <trkpt lat="47.18271" lon="-1.60527">
        <ele>52</ele>
        <time>2022-03-06T12:10:27Z</time>
      </trkpt>
      <trkpt lat="47.18259" lon="-1.60538">
        <ele>52</ele>
        <time>2022-03-06T12:10:29Z</time>
      </trkpt>
      <trkpt lat="47.18248" lon="-1.60547">
        <ele>52</ele>
        <time>2022-03-06T12:10:31Z</time>
      </trkpt>
      <trkpt lat="47.18236" lon="-1.60555">
        <ele>52</ele>
        <time>2022-03-06T12:10:33Z</time>
      </trkpt>
      <trkpt lat="47.18225" lon="-1.60563">
        <ele>52</ele>
        <time>2022-03-06T12:10:35Z</time>
      </trkpt>
      <trkpt lat="47.18214" lon="-1.60569">
        <ele>52</ele>
        <time>2022-03-06T12:10:37Z</time>
      </trkpt>
      <trkpt lat="47.18204" lon="-1.60573">
        <ele>52</ele>
        <time>2022-03-06T12:10:39Z</time>
      </trkpt>
      <trkpt lat="47.18194" lon="-1.60577">
        <ele>52</ele>
        <time>2022-03-06T12:10:41Z</time>
      </trkpt>
      <trkpt lat="47.18187" lon="-1.60586">
        <ele>53</ele>
        <time>2022-03-06T12:10:46Z</time>
      </trkpt>
      <trkpt lat="47.18186" lon="-1.60601">
        <ele>53</ele>
        <time>2022-03-06T12:10:51Z</time>
      </trkpt>
      <trkpt lat="47.18176" lon="-1.60604">
        <ele>52</ele>
        <time>2022-03-06T12:10:53Z</time>
      </trkpt>
      <trkpt lat="47.18165" lon="-1.60606">
        <ele>52</ele>
        <time>2022-03-06T12:10:55Z</time>
      </trkpt>
      <trkpt lat="47.18153" lon="-1.60606">
        <ele>52</ele>
        <time>2022-03-06T12:10:57Z</time>
      </trkpt>
      <trkpt lat="47.1814" lon="-1.60604">
        <ele>52</ele>
        <time>2022-03-06T12:10:59Z</time>
      </trkpt>
      <trkpt lat="47.18128" lon="-1.60602">
        <ele>53</ele>
        <time>2022-03-06T12:11:01Z</time>
      </trkpt>
      <trkpt lat="47.18116" lon="-1.60597">
        <ele>53</ele>
        <time>2022-03-06T12:11:03Z</time>
      </trkpt>
      <trkpt lat="47.18103" lon="-1.60593">
        <ele>53</ele>
        <time>2022-03-06T12:11:05Z</time>
      </trkpt>
      <trkpt lat="47.18091" lon="-1.60587">
        <ele>53</ele>
        <time>2022-03-06T12:11:07Z</time>
      </trkpt>
      <trkpt lat="47.1808" lon="-1.60581">
        <ele>53</ele>
        <time>2022-03-06T12:11:09Z</time>
      </trkpt>
      <trkpt lat="47.18068" lon="-1.60574">
        <ele>53</ele>
        <time>2022-03-06T12:11:11Z</time>
      </trkpt>
      <trkpt lat="47.18056" lon="-1.60568">
        <ele>53</ele>
        <time>2022-03-06T12:11:13Z</time>
      </trkpt>
      <trkpt lat="47.18045" lon="-1.60561">
        <ele>52</ele>
        <time>2022-03-06T12:11:15Z</time>
      </trkpt>
      <trkpt lat="47.18033" lon="-1.60556">
        <ele>53</ele>
        <time>2022-03-06T12:11:17Z</time>
      </trkpt>
      <trkpt lat="47.18021" lon="-1.60554">
        <ele>52</ele>
        <time>2022-03-06T12:11:19Z</time>
      </trkpt>
      <trkpt lat="47.18009" lon="-1.60555">
        <ele>53</ele>
        <time>2022-03-06T12:11:21Z</time>
      </trkpt>
      <trkpt lat="47.17996" lon="-1.60558">
        <ele>53</ele>
        <time>2022-03-06T12:11:23Z</time>
      </trkpt>
      <trkpt lat="47.17985" lon="-1.60562">
        <ele>53</ele>
        <time>2022-03-06T12:11:25Z</time>
      </trkpt>
      <trkpt lat="47.17973" lon="-1.60566">
        <ele>53</ele>
        <time>2022-03-06T12:11:27Z</time>
      </trkpt>
      <trkpt lat="47.17962" lon="-1.60571">
        <ele>53</ele>
        <time>2022-03-06T12:11:29Z</time>
      </trkpt>
      <trkpt lat="47.17951" lon="-1.60578">
        <ele>53</ele>
        <time>2022-03-06T12:11:31Z</time>
      </trkpt>
      <trkpt lat="47.17942" lon="-1.60584">
        <ele>54</ele>
        <time>2022-03-06T12:11:33Z</time>
      </trkpt>
      <trkpt lat="47.17932" lon="-1.60587">
        <ele>55</ele>
        <time>2022-03-06T12:11:35Z</time>
      </trkpt>
      <trkpt lat="47.17923" lon="-1.60588">
        <ele>55</ele>
        <time>2022-03-06T12:11:38Z</time>
      </trkpt>
      <trkpt lat="47.17913" lon="-1.60588">
        <ele>56</ele>
        <time>2022-03-06T12:11:52Z</time>
      </trkpt>
      <trkpt lat="47.17904" lon="-1.60602">
        <ele>55</ele>
        <time>2022-03-06T12:11:55Z</time>
      </trkpt>
      <trkpt lat="47.17902" lon="-1.60617">
        <ele>55</ele>
        <time>2022-03-06T12:11:57Z</time>
      </trkpt>
      <trkpt lat="47.17897" lon="-1.60632">
        <ele>53</ele>
        <time>2022-03-06T12:11:59Z</time>
      </trkpt>
      <trkpt lat="47.17891" lon="-1.60649">
        <ele>53</ele>
        <time>2022-03-06T12:12:01Z</time>
      </trkpt>
      <trkpt lat="47.17885" lon="-1.60667">
        <ele>52</ele>
        <time>2022-03-06T12:12:03Z</time>
      </trkpt>
      <trkpt lat="47.1788" lon="-1.60684">
        <ele>52</ele>
        <time>2022-03-06T12:12:05Z</time>
      </trkpt>
      <trkpt lat="47.17875" lon="-1.60702">
        <ele>52</ele>
        <time>2022-03-06T12:12:07Z</time>
      </trkpt>
      <trkpt lat="47.17871" lon="-1.6072">
        <ele>51</ele>
        <time>2022-03-06T12:12:09Z</time>
      </trkpt>
      <trkpt lat="47.17867" lon="-1.60737">
        <ele>51</ele>
        <time>2022-03-06T12:12:11Z</time>
      </trkpt>
      <trkpt lat="47.17863" lon="-1.60755">
        <ele>51</ele>
        <time>2022-03-06T12:12:13Z</time>
      </trkpt>
      <trkpt lat="47.17859" lon="-1.60773">
        <ele>51</ele>
        <time>2022-03-06T12:12:15Z</time>
      </trkpt>
      <trkpt lat="47.17855" lon="-1.6079">
        <ele>51</ele>
        <time>2022-03-06T12:12:17Z</time>
      </trkpt>
      <trkpt lat="47.17851" lon="-1.60807">
        <ele>51</ele>
        <time>2022-03-06T12:12:19Z</time>
      </trkpt>
      <trkpt lat="47.17846" lon="-1.60824">
        <ele>51</ele>
        <time>2022-03-06T12:12:21Z</time>
      </trkpt>
      <trkpt lat="47.17841" lon="-1.6084">
        <ele>51</ele>
        <time>2022-03-06T12:12:23Z</time>
      </trkpt>
      <trkpt lat="47.17835" lon="-1.60855">
        <ele>52</ele>
        <time>2022-03-06T12:12:25Z</time>
      </trkpt>
      <trkpt lat="47.17826" lon="-1.60869">
        <ele>52</ele>
        <time>2022-03-06T12:12:27Z</time>
      </trkpt>
      <trkpt lat="47.17817" lon="-1.60882">
        <ele>52</ele>
        <time>2022-03-06T12:12:29Z</time>
      </trkpt>
      <trkpt lat="47.17808" lon="-1.60894">
        <ele>52</ele>
        <time>2022-03-06T12:12:31Z</time>
      </trkpt>
      <trkpt lat="47.17797" lon="-1.60903">
        <ele>52</ele>
        <time>2022-03-06T12:12:33Z</time>
      </trkpt>
      <trkpt lat="47.17786" lon="-1.6091">
        <ele>52</ele>
        <time>2022-03-06T12:12:35Z</time>
      </trkpt>
      <trkpt lat="47.17774" lon="-1.60918">
        <ele>52</ele>
        <time>2022-03-06T12:12:37Z</time>
      </trkpt>
      <trkpt lat="47.17764" lon="-1.60927">
        <ele>52</ele>
        <time>2022-03-06T12:12:39Z</time>
      </trkpt>
      <trkpt lat="47.17753" lon="-1.60935">
        <ele>52</ele>
        <time>2022-03-06T12:12:41Z</time>
      </trkpt>
      <trkpt lat="47.17743" lon="-1.60943">
        <ele>52</ele>
        <time>2022-03-06T12:12:43Z</time>
      </trkpt>
      <trkpt lat="47.17732" lon="-1.60951">
        <ele>51</ele>
        <time>2022-03-06T12:12:45Z</time>
      </trkpt>
      <trkpt lat="47.17721" lon="-1.60959">
        <ele>51</ele>
        <time>2022-03-06T12:12:47Z</time>
      </trkpt>
      <trkpt lat="47.17709" lon="-1.60967">
        <ele>51</ele>
        <time>2022-03-06T12:12:49Z</time>
      </trkpt>
      <trkpt lat="47.17698" lon="-1.60972">
        <ele>51</ele>
        <time>2022-03-06T12:12:51Z</time>
      </trkpt>
      <trkpt lat="47.17686" lon="-1.60974">
        <ele>51</ele>
        <time>2022-03-06T12:12:53Z</time>
      </trkpt>
      <trkpt lat="47.17672" lon="-1.60972">
        <ele>50</ele>
        <time>2022-03-06T12:12:55Z</time>
      </trkpt>
      <trkpt lat="47.17659" lon="-1.60974">
        <ele>49</ele>
        <time>2022-03-06T12:12:57Z</time>
      </trkpt>
      <trkpt lat="47.17647" lon="-1.60983">
        <ele>49</ele>
        <time>2022-03-06T12:12:59Z</time>
      </trkpt>
      <trkpt lat="47.17636" lon="-1.60994">
        <ele>49</ele>
        <time>2022-03-06T12:13:01Z</time>
      </trkpt>
      <trkpt lat="47.17625" lon="-1.61004">
        <ele>50</ele>
        <time>2022-03-06T12:13:03Z</time>
      </trkpt>
      <trkpt lat="47.17614" lon="-1.61014">
        <ele>50</ele>
        <time>2022-03-06T12:13:05Z</time>
      </trkpt>
      <trkpt lat="47.17603" lon="-1.61023">
        <ele>50</ele>
        <time>2022-03-06T12:13:07Z</time>
      </trkpt>
      <trkpt lat="47.17591" lon="-1.61032">
        <ele>50</ele>
        <time>2022-03-06T12:13:09Z</time>
      </trkpt>
      <trkpt lat="47.1758" lon="-1.61042">
        <ele>50</ele>
        <time>2022-03-06T12:13:11Z</time>
      </trkpt>
      <trkpt lat="47.17564" lon="-1.61056">
        <ele>51</ele>
        <time>2022-03-06T12:13:14Z</time>
      </trkpt>
      <trkpt lat="47.17553" lon="-1.61066">
        <ele>51</ele>
        <time>2022-03-06T12:13:16Z</time>
      </trkpt>
      <trkpt lat="47.17542" lon="-1.61075">
        <ele>51</ele>
        <time>2022-03-06T12:13:18Z</time>
      </trkpt>
      <trkpt lat="47.17531" lon="-1.61085">
        <ele>51</ele>
        <time>2022-03-06T12:13:20Z</time>
      </trkpt>
      <trkpt lat="47.1752" lon="-1.61094">
        <ele>51</ele>
        <time>2022-03-06T12:13:22Z</time>
      </trkpt>
      <trkpt lat="47.17509" lon="-1.61102">
        <ele>51</ele>
        <time>2022-03-06T12:13:24Z</time>
      </trkpt>
      <trkpt lat="47.17497" lon="-1.61104">
        <ele>52</ele>
        <time>2022-03-06T12:13:26Z</time>
      </trkpt>
      <trkpt lat="47.17485" lon="-1.61105">
        <ele>52</ele>
        <time>2022-03-06T12:13:28Z</time>
      </trkpt>
      <trkpt lat="47.17474" lon="-1.61101">
        <ele>52</ele>
        <time>2022-03-06T12:13:30Z</time>
      </trkpt>
      <trkpt lat="47.17464" lon="-1.61093">
        <ele>52</ele>
        <time>2022-03-06T12:13:32Z</time>
      </trkpt>
      <trkpt lat="47.17455" lon="-1.61084">
        <ele>52</ele>
        <time>2022-03-06T12:13:34Z</time>
      </trkpt>
      <trkpt lat="47.17447" lon="-1.61073">
        <ele>53</ele>
        <time>2022-03-06T12:13:36Z</time>
      </trkpt>
      <trkpt lat="47.17441" lon="-1.6106">
        <ele>53</ele>
        <time>2022-03-06T12:13:38Z</time>
      </trkpt>
      <trkpt lat="47.17436" lon="-1.61046">
        <ele>53</ele>
        <time>2022-03-06T12:13:40Z</time>
      </trkpt>
      <trkpt lat="47.17432" lon="-1.61034">
        <ele>54</ele>
        <time>2022-03-06T12:13:42Z</time>
      </trkpt>
      <trkpt lat="47.17428" lon="-1.61021">
        <ele>54</ele>
        <time>2022-03-06T12:13:45Z</time>
      </trkpt>
      <trkpt lat="47.17421" lon="-1.61035">
        <ele>55</ele>
        <time>2022-03-06T12:13:50Z</time>
      </trkpt>
      <trkpt lat="47.17426" lon="-1.61053">
        <ele>55</ele>
        <time>2022-03-06T12:13:53Z</time>
      </trkpt>
      <trkpt lat="47.17431" lon="-1.61065">
        <ele>55</ele>
        <time>2022-03-06T12:13:55Z</time>
      </trkpt>
      <trkpt lat="47.17437" lon="-1.61077">
        <ele>55</ele>
        <time>2022-03-06T12:13:57Z</time>
      </trkpt>
      <trkpt lat="47.17442" lon="-1.6109">
        <ele>56</ele>
        <time>2022-03-06T12:13:59Z</time>
      </trkpt>
      <trkpt lat="47.17447" lon="-1.61103">
        <ele>56</ele>
        <time>2022-03-06T12:14:01Z</time>
      </trkpt>
      <trkpt lat="47.17452" lon="-1.61116">
        <ele>57</ele>
        <time>2022-03-06T12:14:03Z</time>
      </trkpt>
      <trkpt lat="47.17458" lon="-1.61129">
        <ele>57</ele>
        <time>2022-03-06T12:14:05Z</time>
      </trkpt>
      <trkpt lat="47.17463" lon="-1.61142">
        <ele>57</ele>
        <time>2022-03-06T12:14:07Z</time>
      </trkpt>
      <trkpt lat="47.17468" lon="-1.61154">
        <ele>57</ele>
        <time>2022-03-06T12:14:09Z</time>
      </trkpt>
      <trkpt lat="47.17474" lon="-1.61167">
        <ele>58</ele>
        <time>2022-03-06T12:14:11Z</time>
      </trkpt>
      <trkpt lat="47.17478" lon="-1.6118">
        <ele>57</ele>
        <time>2022-03-06T12:14:13Z</time>
      </trkpt>
      <trkpt lat="47.17482" lon="-1.61192">
        <ele>57</ele>
        <time>2022-03-06T12:14:15Z</time>
      </trkpt>
      <trkpt lat="47.17488" lon="-1.61204">
        <ele>57</ele>
        <time>2022-03-06T12:14:17Z</time>
      </trkpt>
      <trkpt lat="47.17493" lon="-1.61217">
        <ele>57</ele>
        <time>2022-03-06T12:14:19Z</time>
      </trkpt>
      <trkpt lat="47.17499" lon="-1.61229">
        <ele>57</ele>
        <time>2022-03-06T12:14:21Z</time>
      </trkpt>
      <trkpt lat="47.17504" lon="-1.61241">
        <ele>57</ele>
        <time>2022-03-06T12:14:23Z</time>
      </trkpt>
      <trkpt lat="47.1751" lon="-1.61253">
        <ele>57</ele>
        <time>2022-03-06T12:14:25Z</time>
      </trkpt>
      <trkpt lat="47.17517" lon="-1.61265">
        <ele>57</ele>
        <time>2022-03-06T12:14:27Z</time>
      </trkpt>
      <trkpt lat="47.17524" lon="-1.61276">
        <ele>58</ele>
        <time>2022-03-06T12:14:29Z</time>
      </trkpt>
      <trkpt lat="47.17532" lon="-1.61284">
        <ele>58</ele>
        <time>2022-03-06T12:14:31Z</time>
      </trkpt>
      <trkpt lat="47.17541" lon="-1.61291">
        <ele>57</ele>
        <time>2022-03-06T12:14:33Z</time>
      </trkpt>
      <trkpt lat="47.17552" lon="-1.61296">
        <ele>57</ele>
        <time>2022-03-06T12:14:35Z</time>
      </trkpt>
      <trkpt lat="47.1756" lon="-1.61307">
        <ele>57</ele>
        <time>2022-03-06T12:14:37Z</time>
      </trkpt>
      <trkpt lat="47.17562" lon="-1.61324">
        <ele>57</ele>
        <time>2022-03-06T12:14:39Z</time>
      </trkpt>
      <trkpt lat="47.17556" lon="-1.61341">
        <ele>57</ele>
        <time>2022-03-06T12:14:41Z</time>
      </trkpt>
      <trkpt lat="47.17546" lon="-1.61355">
        <ele>57</ele>
        <time>2022-03-06T12:14:43Z</time>
      </trkpt>
      <trkpt lat="47.17536" lon="-1.61365">
        <ele>57</ele>
        <time>2022-03-06T12:14:45Z</time>
      </trkpt>
      <trkpt lat="47.17529" lon="-1.61379">
        <ele>57</ele>
        <time>2022-03-06T12:14:47Z</time>
      </trkpt>
      <trkpt lat="47.17524" lon="-1.61395">
        <ele>58</ele>
        <time>2022-03-06T12:14:49Z</time>
      </trkpt>
      <trkpt lat="47.17521" lon="-1.6141">
        <ele>58</ele>
        <time>2022-03-06T12:14:51Z</time>
      </trkpt>
      <trkpt lat="47.17518" lon="-1.61425">
        <ele>59</ele>
        <time>2022-03-06T12:14:53Z</time>
      </trkpt>
      <trkpt lat="47.17514" lon="-1.61439">
        <ele>59</ele>
        <time>2022-03-06T12:14:55Z</time>
      </trkpt>
      <trkpt lat="47.17511" lon="-1.61452">
        <ele>60</ele>
        <time>2022-03-06T12:14:57Z</time>
      </trkpt>
      <trkpt lat="47.17503" lon="-1.61461">
        <ele>60</ele>
        <time>2022-03-06T12:14:59Z</time>
      </trkpt>
      <trkpt lat="47.17492" lon="-1.61467">
        <ele>61</ele>
        <time>2022-03-06T12:15:01Z</time>
      </trkpt>
      <trkpt lat="47.17482" lon="-1.61471">
        <ele>61</ele>
        <time>2022-03-06T12:15:03Z</time>
      </trkpt>
      <trkpt lat="47.17473" lon="-1.61475">
        <ele>62</ele>
        <time>2022-03-06T12:15:05Z</time>
      </trkpt>
      <trkpt lat="47.17462" lon="-1.6148">
        <ele>62</ele>
        <time>2022-03-06T12:15:07Z</time>
      </trkpt>
      <trkpt lat="47.17452" lon="-1.61485">
        <ele>63</ele>
        <time>2022-03-06T12:15:09Z</time>
      </trkpt>
      <trkpt lat="47.17443" lon="-1.6149">
        <ele>64</ele>
        <time>2022-03-06T12:15:11Z</time>
      </trkpt>
      <trkpt lat="47.17434" lon="-1.61496">
        <ele>64</ele>
        <time>2022-03-06T12:15:13Z</time>
      </trkpt>
      <trkpt lat="47.17425" lon="-1.61501">
        <ele>64</ele>
        <time>2022-03-06T12:15:15Z</time>
      </trkpt>
      <trkpt lat="47.17416" lon="-1.61508">
        <ele>65</ele>
        <time>2022-03-06T12:15:17Z</time>
      </trkpt>
      <trkpt lat="47.17408" lon="-1.61514">
        <ele>66</ele>
        <time>2022-03-06T12:15:19Z</time>
      </trkpt>
      <trkpt lat="47.17399" lon="-1.61521">
        <ele>66</ele>
        <time>2022-03-06T12:15:21Z</time>
      </trkpt>
      <trkpt lat="47.1739" lon="-1.61528">
        <ele>66</ele>
        <time>2022-03-06T12:15:23Z</time>
      </trkpt>
      <trkpt lat="47.17382" lon="-1.61535">
        <ele>66</ele>
        <time>2022-03-06T12:15:25Z</time>
      </trkpt>
      <trkpt lat="47.17374" lon="-1.61544">
        <ele>67</ele>
        <time>2022-03-06T12:15:27Z</time>
      </trkpt>
      <trkpt lat="47.17366" lon="-1.61553">
        <ele>68</ele>
        <time>2022-03-06T12:15:29Z</time>
      </trkpt>
      <trkpt lat="47.17358" lon="-1.61561">
        <ele>68</ele>
        <time>2022-03-06T12:15:31Z</time>
      </trkpt>
      <trkpt lat="47.1735" lon="-1.6157">
        <ele>68</ele>
        <time>2022-03-06T12:15:33Z</time>
      </trkpt>
      <trkpt lat="47.17342" lon="-1.6158">
        <ele>68</ele>
        <time>2022-03-06T12:15:35Z</time>
      </trkpt>
      <trkpt lat="47.17334" lon="-1.61589">
        <ele>68</ele>
        <time>2022-03-06T12:15:37Z</time>
      </trkpt>
      <trkpt lat="47.17326" lon="-1.61599">
        <ele>68</ele>
        <time>2022-03-06T12:15:39Z</time>
      </trkpt>
      <trkpt lat="47.17318" lon="-1.61609">
        <ele>68</ele>
        <time>2022-03-06T12:15:41Z</time>
      </trkpt>
      <trkpt lat="47.1731" lon="-1.61621">
        <ele>68</ele>
        <time>2022-03-06T12:15:43Z</time>
      </trkpt>
      <trkpt lat="47.17303" lon="-1.61633">
        <ele>68</ele>
        <time>2022-03-06T12:15:45Z</time>
      </trkpt>
      <trkpt lat="47.17296" lon="-1.61645">
        <ele>67</ele>
        <time>2022-03-06T12:15:47Z</time>
      </trkpt>
      <trkpt lat="47.17289" lon="-1.61658">
        <ele>68</ele>
        <time>2022-03-06T12:15:49Z</time>
      </trkpt>
      <trkpt lat="47.17282" lon="-1.61671">
        <ele>68</ele>
        <time>2022-03-06T12:15:51Z</time>
      </trkpt>
      <trkpt lat="47.17276" lon="-1.61684">
        <ele>67</ele>
        <time>2022-03-06T12:15:53Z</time>
      </trkpt>
      <trkpt lat="47.17268" lon="-1.61698">
        <ele>67</ele>
        <time>2022-03-06T12:15:55Z</time>
      </trkpt>
      <trkpt lat="47.17261" lon="-1.61712">
        <ele>67</ele>
        <time>2022-03-06T12:15:57Z</time>
      </trkpt>
      <trkpt lat="47.17255" lon="-1.61726">
        <ele>66</ele>
        <time>2022-03-06T12:15:59Z</time>
      </trkpt>
      <trkpt lat="47.17249" lon="-1.6174">
        <ele>66</ele>
        <time>2022-03-06T12:16:01Z</time>
      </trkpt>
      <trkpt lat="47.17246" lon="-1.61757">
        <ele>66</ele>
        <time>2022-03-06T12:16:03Z</time>
      </trkpt>
      <trkpt lat="47.17242" lon="-1.61774">
        <ele>66</ele>
        <time>2022-03-06T12:16:05Z</time>
      </trkpt>
      <trkpt lat="47.17233" lon="-1.61786">
        <ele>66</ele>
        <time>2022-03-06T12:16:07Z</time>
      </trkpt>
      <trkpt lat="47.17222" lon="-1.61795">
        <ele>66</ele>
        <time>2022-03-06T12:16:09Z</time>
      </trkpt>
      <trkpt lat="47.17211" lon="-1.61805">
        <ele>66</ele>
        <time>2022-03-06T12:16:11Z</time>
      </trkpt>
      <trkpt lat="47.17201" lon="-1.61814">
        <ele>66</ele>
        <time>2022-03-06T12:16:13Z</time>
      </trkpt>
      <trkpt lat="47.17191" lon="-1.61823">
        <ele>66</ele>
        <time>2022-03-06T12:16:15Z</time>
      </trkpt>
      <trkpt lat="47.17181" lon="-1.61832">
        <ele>66</ele>
        <time>2022-03-06T12:16:17Z</time>
      </trkpt>
      <trkpt lat="47.17171" lon="-1.61842">
        <ele>66</ele>
        <time>2022-03-06T12:16:19Z</time>
      </trkpt>
      <trkpt lat="47.1716" lon="-1.61851">
        <ele>66</ele>
        <time>2022-03-06T12:16:21Z</time>
      </trkpt>
      <trkpt lat="47.1715" lon="-1.61861">
        <ele>66</ele>
        <time>2022-03-06T12:16:23Z</time>
      </trkpt>
      <trkpt lat="47.1714" lon="-1.61871">
        <ele>66</ele>
        <time>2022-03-06T12:16:25Z</time>
      </trkpt>
      <trkpt lat="47.17129" lon="-1.6188">
        <ele>65</ele>
        <time>2022-03-06T12:16:27Z</time>
      </trkpt>
      <trkpt lat="47.17119" lon="-1.61891">
        <ele>65</ele>
        <time>2022-03-06T12:16:29Z</time>
      </trkpt>
      <trkpt lat="47.1711" lon="-1.61901">
        <ele>65</ele>
        <time>2022-03-06T12:16:31Z</time>
      </trkpt>
      <trkpt lat="47.171" lon="-1.6191">
        <ele>65</ele>
        <time>2022-03-06T12:16:33Z</time>
      </trkpt>
      <trkpt lat="47.1709" lon="-1.61919">
        <ele>65</ele>
        <time>2022-03-06T12:16:35Z</time>
      </trkpt>
      <trkpt lat="47.1708" lon="-1.61929">
        <ele>65</ele>
        <time>2022-03-06T12:16:37Z</time>
      </trkpt>
      <trkpt lat="47.17072" lon="-1.61938">
        <ele>65</ele>
        <time>2022-03-06T12:16:39Z</time>
      </trkpt>
      <trkpt lat="47.17062" lon="-1.61947">
        <ele>65</ele>
        <time>2022-03-06T12:16:41Z</time>
      </trkpt>
      <trkpt lat="47.17053" lon="-1.61959">
        <ele>65</ele>
        <time>2022-03-06T12:16:43Z</time>
      </trkpt>
      <trkpt lat="47.17045" lon="-1.61971">
        <ele>65</ele>
        <time>2022-03-06T12:16:45Z</time>
      </trkpt>
      <trkpt lat="47.17037" lon="-1.61984">
        <ele>65</ele>
        <time>2022-03-06T12:16:47Z</time>
      </trkpt>
      <trkpt lat="47.17029" lon="-1.61996">
        <ele>65</ele>
        <time>2022-03-06T12:16:49Z</time>
      </trkpt>
      <trkpt lat="47.1702" lon="-1.62009">
        <ele>65</ele>
        <time>2022-03-06T12:16:51Z</time>
      </trkpt>
      <trkpt lat="47.17012" lon="-1.62021">
        <ele>65</ele>
        <time>2022-03-06T12:16:53Z</time>
      </trkpt>
      <trkpt lat="47.17004" lon="-1.62034">
        <ele>65</ele>
        <time>2022-03-06T12:16:55Z</time>
      </trkpt>
      <trkpt lat="47.16996" lon="-1.62048">
        <ele>65</ele>
        <time>2022-03-06T12:16:57Z</time>
      </trkpt>
      <trkpt lat="47.16988" lon="-1.62062">
        <ele>65</ele>
        <time>2022-03-06T12:16:59Z</time>
      </trkpt>
      <trkpt lat="47.1698" lon="-1.62076">
        <ele>66</ele>
        <time>2022-03-06T12:17:01Z</time>
      </trkpt>
      <trkpt lat="47.16973" lon="-1.6209">
        <ele>66</ele>
        <time>2022-03-06T12:17:03Z</time>
      </trkpt>
      <trkpt lat="47.16965" lon="-1.62103">
        <ele>66</ele>
        <time>2022-03-06T12:17:05Z</time>
      </trkpt>
      <trkpt lat="47.16958" lon="-1.62117">
        <ele>66</ele>
        <time>2022-03-06T12:17:07Z</time>
      </trkpt>
      <trkpt lat="47.16951" lon="-1.62131">
        <ele>66</ele>
        <time>2022-03-06T12:17:09Z</time>
      </trkpt>
      <trkpt lat="47.16944" lon="-1.62145">
        <ele>66</ele>
        <time>2022-03-06T12:17:11Z</time>
      </trkpt>
      <trkpt lat="47.16937" lon="-1.62159">
        <ele>66</ele>
        <time>2022-03-06T12:17:13Z</time>
      </trkpt>
      <trkpt lat="47.1693" lon="-1.62173">
        <ele>66</ele>
        <time>2022-03-06T12:17:15Z</time>
      </trkpt>
      <trkpt lat="47.16923" lon="-1.62187">
        <ele>66</ele>
        <time>2022-03-06T12:17:17Z</time>
      </trkpt>
      <trkpt lat="47.16915" lon="-1.62201">
        <ele>66</ele>
        <time>2022-03-06T12:17:19Z</time>
      </trkpt>
      <trkpt lat="47.16907" lon="-1.62214">
        <ele>66</ele>
        <time>2022-03-06T12:17:21Z</time>
      </trkpt>
      <trkpt lat="47.16897" lon="-1.62227">
        <ele>66</ele>
        <time>2022-03-06T12:17:23Z</time>
      </trkpt>
      <trkpt lat="47.16888" lon="-1.62239">
        <ele>67</ele>
        <time>2022-03-06T12:17:25Z</time>
      </trkpt>
      <trkpt lat="47.16878" lon="-1.62251">
        <ele>67</ele>
        <time>2022-03-06T12:17:27Z</time>
      </trkpt>
      <trkpt lat="47.16868" lon="-1.62263">
        <ele>67</ele>
        <time>2022-03-06T12:17:29Z</time>
      </trkpt>
      <trkpt lat="47.16859" lon="-1.62274">
        <ele>67</ele>
        <time>2022-03-06T12:17:31Z</time>
      </trkpt>
      <trkpt lat="47.16849" lon="-1.62286">
        <ele>66</ele>
        <time>2022-03-06T12:17:33Z</time>
      </trkpt>
      <trkpt lat="47.16839" lon="-1.62299">
        <ele>66</ele>
        <time>2022-03-06T12:17:35Z</time>
      </trkpt>
      <trkpt lat="47.16829" lon="-1.62309">
        <ele>66</ele>
        <time>2022-03-06T12:17:37Z</time>
      </trkpt>
      <trkpt lat="47.16819" lon="-1.62318">
        <ele>67</ele>
        <time>2022-03-06T12:17:39Z</time>
      </trkpt>
      <trkpt lat="47.16807" lon="-1.62326">
        <ele>67</ele>
        <time>2022-03-06T12:17:41Z</time>
      </trkpt>
      <trkpt lat="47.16796" lon="-1.62332">
        <ele>67</ele>
        <time>2022-03-06T12:17:43Z</time>
      </trkpt>
      <trkpt lat="47.16783" lon="-1.62339">
        <ele>66</ele>
        <time>2022-03-06T12:17:45Z</time>
      </trkpt>
      <trkpt lat="47.16772" lon="-1.62346">
        <ele>67</ele>
        <time>2022-03-06T12:17:47Z</time>
      </trkpt>
      <trkpt lat="47.1676" lon="-1.62354">
        <ele>66</ele>
        <time>2022-03-06T12:17:49Z</time>
      </trkpt>
      <trkpt lat="47.16749" lon="-1.62364">
        <ele>66</ele>
        <time>2022-03-06T12:17:51Z</time>
      </trkpt>
      <trkpt lat="47.16739" lon="-1.62377">
        <ele>65</ele>
        <time>2022-03-06T12:17:53Z</time>
      </trkpt>
      <trkpt lat="47.16734" lon="-1.62394">
        <ele>65</ele>
        <time>2022-03-06T12:17:55Z</time>
      </trkpt>
      <trkpt lat="47.1673" lon="-1.62411">
        <ele>65</ele>
        <time>2022-03-06T12:17:57Z</time>
      </trkpt>
      <trkpt lat="47.16728" lon="-1.62428">
        <ele>65</ele>
        <time>2022-03-06T12:17:59Z</time>
      </trkpt>
      <trkpt lat="47.16725" lon="-1.62444">
        <ele>65</ele>
        <time>2022-03-06T12:18:01Z</time>
      </trkpt>
      <trkpt lat="47.1672" lon="-1.62461">
        <ele>65</ele>
        <time>2022-03-06T12:18:03Z</time>
      </trkpt>
      <trkpt lat="47.16717" lon="-1.62477">
        <ele>65</ele>
        <time>2022-03-06T12:18:05Z</time>
      </trkpt>
      <trkpt lat="47.16717" lon="-1.62492">
        <ele>65</ele>
        <time>2022-03-06T12:18:07Z</time>
      </trkpt>
      <trkpt lat="47.16727" lon="-1.625">
        <ele>65</ele>
        <time>2022-03-06T12:18:09Z</time>
      </trkpt>
      <trkpt lat="47.16738" lon="-1.62503">
        <ele>65</ele>
        <time>2022-03-06T12:18:11Z</time>
      </trkpt>
      <trkpt lat="47.1675" lon="-1.62509">
        <ele>65</ele>
        <time>2022-03-06T12:18:13Z</time>
      </trkpt>
      <trkpt lat="47.16762" lon="-1.62515">
        <ele>65</ele>
        <time>2022-03-06T12:18:15Z</time>
      </trkpt>
      <trkpt lat="47.16772" lon="-1.62522">
        <ele>65</ele>
        <time>2022-03-06T12:18:17Z</time>
      </trkpt>
      <trkpt lat="47.16782" lon="-1.62528">
        <ele>66</ele>
        <time>2022-03-06T12:18:19Z</time>
      </trkpt>
      <trkpt lat="47.16793" lon="-1.62535">
        <ele>66</ele>
        <time>2022-03-06T12:18:21Z</time>
      </trkpt>
      <trkpt lat="47.16803" lon="-1.62542">
        <ele>66</ele>
        <time>2022-03-06T12:18:23Z</time>
      </trkpt>
      <trkpt lat="47.16813" lon="-1.62549">
        <ele>66</ele>
        <time>2022-03-06T12:18:25Z</time>
      </trkpt>
      <trkpt lat="47.16822" lon="-1.6256">
        <ele>66</ele>
        <time>2022-03-06T12:18:27Z</time>
      </trkpt>
      <trkpt lat="47.1683" lon="-1.62572">
        <ele>65</ele>
        <time>2022-03-06T12:18:29Z</time>
      </trkpt>
      <trkpt lat="47.1683" lon="-1.62587">
        <ele>65</ele>
        <time>2022-03-06T12:18:31Z</time>
      </trkpt>
      <trkpt lat="47.16824" lon="-1.62599">
        <ele>65</ele>
        <time>2022-03-06T12:18:33Z</time>
      </trkpt>
      <trkpt lat="47.16816" lon="-1.62612">
        <ele>66</ele>
        <time>2022-03-06T12:18:35Z</time>
      </trkpt>
      <trkpt lat="47.16809" lon="-1.62624">
        <ele>66</ele>
        <time>2022-03-06T12:18:37Z</time>
      </trkpt>
      <trkpt lat="47.16802" lon="-1.62635">
        <ele>66</ele>
        <time>2022-03-06T12:18:39Z</time>
      </trkpt>
      <trkpt lat="47.16795" lon="-1.62645">
        <ele>67</ele>
        <time>2022-03-06T12:18:41Z</time>
      </trkpt>
      <trkpt lat="47.16788" lon="-1.6266">
        <ele>67</ele>
        <time>2022-03-06T12:18:44Z</time>
      </trkpt>
      <trkpt lat="47.16779" lon="-1.62659">
        <ele>67</ele>
        <time>2022-03-06T12:18:49Z</time>
      </trkpt>
    </trkseg>
  </trk>
</gpx>